<?xml version="1.0"?>
<gpx xmlns="http://www.topografix.com/GPX/1/1" xmlns:xsi="http://www.w3.org/2001/XMLSchema-instance" version="1.1" creator="GPX RubyGem 1.0.0 -- http://dougfales.github.io/gpx/" xsi:schemaLocation="http://www.topografix.com/GPX/1/1 http://www.topografix.com/GPX/1/1/gpx.xsd">
  <metadata>
    <name/>
    <time>2026-05-07T11:30:56+00:00</time>
    <bound minlat="90.0" minlon="180.0" maxlat="-90.0" maxlon="-180.0"/>
  </metadata>
  <trk>
    <name/>
    <trkseg>
      <trkpt lat="0.0" lon="0.0">
        <time>2022-03-11T07:12:02+00:00</time>
        <ele>-32768.0</ele>
      </trkpt>
      <trkpt lat="46.90986" lon="10.2598">
        <time>2022-03-11T07:12:13+00:00</time>
        <ele>2264.0</ele>
      </trkpt>
      <trkpt lat="46.90988" lon="10.25978">
        <time>2022-03-11T07:12:22+00:00</time>
        <ele>2264.0</ele>
      </trkpt>
      <trkpt lat="46.90984" lon="10.25982">
        <time>2022-03-11T07:12:30+00:00</time>
        <ele>2264.0</ele>
      </trkpt>
      <trkpt lat="46.90984" lon="10.25987">
        <time>2022-03-11T07:12:38+00:00</time>
        <ele>2264.0</ele>
      </trkpt>
      <trkpt lat="46.9098" lon="10.25992">
        <time>2022-03-11T07:12:44+00:00</time>
        <ele>2265.0</ele>
      </trkpt>
      <trkpt lat="46.90978" lon="10.25989">
        <time>2022-03-11T07:12:49+00:00</time>
        <ele>2265.0</ele>
      </trkpt>
      <trkpt lat="46.90973" lon="10.25987">
        <time>2022-03-11T07:12:56+00:00</time>
        <ele>2266.0</ele>
      </trkpt>
      <trkpt lat="46.9097" lon="10.25986">
        <time>2022-03-11T07:13:01+00:00</time>
        <ele>2267.0</ele>
      </trkpt>
      <trkpt lat="46.90969" lon="10.25986">
        <time>2022-03-11T07:13:04+00:00</time>
        <ele>2267.0</ele>
      </trkpt>
      <trkpt lat="46.90961" lon="10.25982">
        <time>2022-03-11T07:13:16+00:00</time>
        <ele>2269.0</ele>
      </trkpt>
      <trkpt lat="46.90958" lon="10.2598">
        <time>2022-03-11T07:13:24+00:00</time>
        <ele>2270.0</ele>
      </trkpt>
      <trkpt lat="46.90953" lon="10.25976">
        <time>2022-03-11T07:13:34+00:00</time>
        <ele>2271.0</ele>
      </trkpt>
      <trkpt lat="46.90952" lon="10.25976">
        <time>2022-03-11T07:13:35+00:00</time>
        <ele>2272.0</ele>
      </trkpt>
      <trkpt lat="46.90949" lon="10.25974">
        <time>2022-03-11T07:13:40+00:00</time>
        <ele>2273.0</ele>
      </trkpt>
      <trkpt lat="46.90948" lon="10.25974">
        <time>2022-03-11T07:13:41+00:00</time>
        <ele>2273.0</ele>
      </trkpt>
      <trkpt lat="46.90942" lon="10.25969">
        <time>2022-03-11T07:13:48+00:00</time>
        <ele>2275.0</ele>
      </trkpt>
      <trkpt lat="46.9094" lon="10.25966">
        <time>2022-03-11T07:13:51+00:00</time>
        <ele>2275.0</ele>
      </trkpt>
      <trkpt lat="46.90933" lon="10.2596">
        <time>2022-03-11T07:13:59+00:00</time>
        <ele>2276.0</ele>
      </trkpt>
      <trkpt lat="46.90932" lon="10.2596">
        <time>2022-03-11T07:14:02+00:00</time>
        <ele>2277.0</ele>
      </trkpt>
      <trkpt lat="46.90932" lon="10.2596">
        <time>2022-03-11T07:14:03+00:00</time>
        <ele>2277.0</ele>
      </trkpt>
      <trkpt lat="46.90931" lon="10.25959">
        <time>2022-03-11T07:14:04+00:00</time>
        <ele>2277.0</ele>
      </trkpt>
      <trkpt lat="46.90931" lon="10.25959">
        <time>2022-03-11T07:14:07+00:00</time>
        <ele>2277.0</ele>
      </trkpt>
      <trkpt lat="46.90929" lon="10.25957">
        <time>2022-03-11T07:14:11+00:00</time>
        <ele>2277.0</ele>
      </trkpt>
      <trkpt lat="46.90927" lon="10.25954">
        <time>2022-03-11T07:14:16+00:00</time>
        <ele>2277.0</ele>
      </trkpt>
      <trkpt lat="46.90926" lon="10.25952">
        <time>2022-03-11T07:14:18+00:00</time>
        <ele>2277.0</ele>
      </trkpt>
      <trkpt lat="46.90924" lon="10.25951">
        <time>2022-03-11T07:14:21+00:00</time>
        <ele>2277.0</ele>
      </trkpt>
      <trkpt lat="46.90921" lon="10.25948">
        <time>2022-03-11T07:14:29+00:00</time>
        <ele>2278.0</ele>
      </trkpt>
      <trkpt lat="46.90917" lon="10.25945">
        <time>2022-03-11T07:14:38+00:00</time>
        <ele>2278.0</ele>
      </trkpt>
      <trkpt lat="46.90913" lon="10.25938">
        <time>2022-03-11T07:14:50+00:00</time>
        <ele>2278.0</ele>
      </trkpt>
      <trkpt lat="46.90912" lon="10.25937">
        <time>2022-03-11T07:14:51+00:00</time>
        <ele>2278.0</ele>
      </trkpt>
      <trkpt lat="46.90912" lon="10.25936">
        <time>2022-03-11T07:14:52+00:00</time>
        <ele>2278.0</ele>
      </trkpt>
      <trkpt lat="46.9091" lon="10.25933">
        <time>2022-03-11T07:14:57+00:00</time>
        <ele>2278.0</ele>
      </trkpt>
      <trkpt lat="46.90909" lon="10.25929">
        <time>2022-03-11T07:15:01+00:00</time>
        <ele>2278.0</ele>
      </trkpt>
      <trkpt lat="46.90904" lon="10.25925">
        <time>2022-03-11T07:15:08+00:00</time>
        <ele>2278.0</ele>
      </trkpt>
      <trkpt lat="46.90903" lon="10.25924">
        <time>2022-03-11T07:15:09+00:00</time>
        <ele>2278.0</ele>
      </trkpt>
      <trkpt lat="46.90898" lon="10.25919">
        <time>2022-03-11T07:15:17+00:00</time>
        <ele>2278.0</ele>
      </trkpt>
      <trkpt lat="46.90896" lon="10.25918">
        <time>2022-03-11T07:15:18+00:00</time>
        <ele>2278.0</ele>
      </trkpt>
      <trkpt lat="46.90895" lon="10.25917">
        <time>2022-03-11T07:15:21+00:00</time>
        <ele>2278.0</ele>
      </trkpt>
      <trkpt lat="46.9089" lon="10.25914">
        <time>2022-03-11T07:15:27+00:00</time>
        <ele>2279.0</ele>
      </trkpt>
      <trkpt lat="46.90883" lon="10.25909">
        <time>2022-03-11T07:15:35+00:00</time>
        <ele>2280.0</ele>
      </trkpt>
      <trkpt lat="46.90883" lon="10.25908">
        <time>2022-03-11T07:15:36+00:00</time>
        <ele>2280.0</ele>
      </trkpt>
      <trkpt lat="46.9088" lon="10.25907">
        <time>2022-03-11T07:15:39+00:00</time>
        <ele>2280.0</ele>
      </trkpt>
      <trkpt lat="46.90874" lon="10.25903">
        <time>2022-03-11T07:15:46+00:00</time>
        <ele>2281.0</ele>
      </trkpt>
      <trkpt lat="46.90873" lon="10.25902">
        <time>2022-03-11T07:15:47+00:00</time>
        <ele>2281.0</ele>
      </trkpt>
      <trkpt lat="46.90867" lon="10.259">
        <time>2022-03-11T07:15:54+00:00</time>
        <ele>2281.0</ele>
      </trkpt>
      <trkpt lat="46.90866" lon="10.259">
        <time>2022-03-11T07:15:55+00:00</time>
        <ele>2281.0</ele>
      </trkpt>
      <trkpt lat="46.90856" lon="10.25901">
        <time>2022-03-11T07:16:06+00:00</time>
        <ele>2281.0</ele>
      </trkpt>
      <trkpt lat="46.90855" lon="10.25901">
        <time>2022-03-11T07:16:07+00:00</time>
        <ele>2281.0</ele>
      </trkpt>
      <trkpt lat="46.90847" lon="10.25904">
        <time>2022-03-11T07:16:16+00:00</time>
        <ele>2282.0</ele>
      </trkpt>
      <trkpt lat="46.9084" lon="10.25905">
        <time>2022-03-11T07:16:25+00:00</time>
        <ele>2282.0</ele>
      </trkpt>
      <trkpt lat="46.90831" lon="10.25908">
        <time>2022-03-11T07:16:33+00:00</time>
        <ele>2282.0</ele>
      </trkpt>
      <trkpt lat="46.90827" lon="10.25909">
        <time>2022-03-11T07:16:38+00:00</time>
        <ele>2282.0</ele>
      </trkpt>
      <trkpt lat="46.90823" lon="10.25911">
        <time>2022-03-11T07:16:43+00:00</time>
        <ele>2282.0</ele>
      </trkpt>
      <trkpt lat="46.90816" lon="10.25914">
        <time>2022-03-11T07:16:52+00:00</time>
        <ele>2282.0</ele>
      </trkpt>
      <trkpt lat="46.90812" lon="10.25914">
        <time>2022-03-11T07:16:57+00:00</time>
        <ele>2282.0</ele>
      </trkpt>
      <trkpt lat="46.90807" lon="10.25916">
        <time>2022-03-11T07:17:03+00:00</time>
        <ele>2281.0</ele>
      </trkpt>
      <trkpt lat="46.90806" lon="10.25918">
        <time>2022-03-11T07:17:06+00:00</time>
        <ele>2281.0</ele>
      </trkpt>
      <trkpt lat="46.90802" lon="10.25918">
        <time>2022-03-11T07:17:10+00:00</time>
        <ele>2281.0</ele>
      </trkpt>
      <trkpt lat="46.90798" lon="10.25917">
        <time>2022-03-11T07:17:14+00:00</time>
        <ele>2282.0</ele>
      </trkpt>
      <trkpt lat="46.90794" lon="10.25918">
        <time>2022-03-11T07:17:18+00:00</time>
        <ele>2282.0</ele>
      </trkpt>
      <trkpt lat="46.9079" lon="10.25918">
        <time>2022-03-11T07:17:22+00:00</time>
        <ele>2282.0</ele>
      </trkpt>
      <trkpt lat="46.90778" lon="10.25919">
        <time>2022-03-11T07:17:32+00:00</time>
        <ele>2282.0</ele>
      </trkpt>
      <trkpt lat="46.90767" lon="10.25921">
        <time>2022-03-11T07:17:44+00:00</time>
        <ele>2282.0</ele>
      </trkpt>
      <trkpt lat="46.90758" lon="10.25924">
        <time>2022-03-11T07:17:55+00:00</time>
        <ele>2283.0</ele>
      </trkpt>
      <trkpt lat="46.90753" lon="10.25925">
        <time>2022-03-11T07:18:01+00:00</time>
        <ele>2283.0</ele>
      </trkpt>
      <trkpt lat="46.9075" lon="10.25927">
        <time>2022-03-11T07:18:05+00:00</time>
        <ele>2283.0</ele>
      </trkpt>
      <trkpt lat="46.90748" lon="10.25928">
        <time>2022-03-11T07:18:08+00:00</time>
        <ele>2283.0</ele>
      </trkpt>
      <trkpt lat="46.90739" lon="10.2593">
        <time>2022-03-11T07:18:18+00:00</time>
        <ele>2284.0</ele>
      </trkpt>
      <trkpt lat="46.90728" lon="10.25934">
        <time>2022-03-11T07:18:31+00:00</time>
        <ele>2284.0</ele>
      </trkpt>
      <trkpt lat="46.90719" lon="10.25938">
        <time>2022-03-11T07:18:42+00:00</time>
        <ele>2285.0</ele>
      </trkpt>
      <trkpt lat="46.90716" lon="10.25939">
        <time>2022-03-11T07:18:46+00:00</time>
        <ele>2286.0</ele>
      </trkpt>
      <trkpt lat="46.90711" lon="10.25942">
        <time>2022-03-11T07:18:53+00:00</time>
        <ele>2286.0</ele>
      </trkpt>
      <trkpt lat="46.90705" lon="10.25945">
        <time>2022-03-11T07:19:01+00:00</time>
        <ele>2287.0</ele>
      </trkpt>
      <trkpt lat="46.90704" lon="10.25946">
        <time>2022-03-11T07:19:03+00:00</time>
        <ele>2287.0</ele>
      </trkpt>
      <trkpt lat="46.90697" lon="10.2595">
        <time>2022-03-11T07:19:13+00:00</time>
        <ele>2289.0</ele>
      </trkpt>
      <trkpt lat="46.90693" lon="10.25952">
        <time>2022-03-11T07:19:19+00:00</time>
        <ele>2290.0</ele>
      </trkpt>
      <trkpt lat="46.90691" lon="10.25953">
        <time>2022-03-11T07:19:24+00:00</time>
        <ele>2290.0</ele>
      </trkpt>
      <trkpt lat="46.90689" lon="10.25953">
        <time>2022-03-11T07:19:29+00:00</time>
        <ele>2291.0</ele>
      </trkpt>
      <trkpt lat="46.90686" lon="10.25954">
        <time>2022-03-11T07:19:35+00:00</time>
        <ele>2291.0</ele>
      </trkpt>
      <trkpt lat="46.90686" lon="10.25954">
        <time>2022-03-11T07:19:36+00:00</time>
        <ele>2291.0</ele>
      </trkpt>
      <trkpt lat="46.90683" lon="10.25955">
        <time>2022-03-11T07:19:40+00:00</time>
        <ele>2292.0</ele>
      </trkpt>
      <trkpt lat="46.90682" lon="10.25956">
        <time>2022-03-11T07:19:43+00:00</time>
        <ele>2292.0</ele>
      </trkpt>
      <trkpt lat="46.90679" lon="10.25956">
        <time>2022-03-11T07:19:47+00:00</time>
        <ele>2292.0</ele>
      </trkpt>
      <trkpt lat="46.90677" lon="10.25957">
        <time>2022-03-11T07:19:51+00:00</time>
        <ele>2292.0</ele>
      </trkpt>
      <trkpt lat="46.90677" lon="10.25957">
        <time>2022-03-11T07:19:52+00:00</time>
        <ele>2292.0</ele>
      </trkpt>
      <trkpt lat="46.90676" lon="10.25957">
        <time>2022-03-11T07:19:54+00:00</time>
        <ele>2293.0</ele>
      </trkpt>
      <trkpt lat="46.90672" lon="10.25958">
        <time>2022-03-11T07:20:01+00:00</time>
        <ele>2293.0</ele>
      </trkpt>
      <trkpt lat="46.90669" lon="10.25959">
        <time>2022-03-11T07:20:07+00:00</time>
        <ele>2294.0</ele>
      </trkpt>
      <trkpt lat="46.90668" lon="10.25959">
        <time>2022-03-11T07:20:09+00:00</time>
        <ele>2294.0</ele>
      </trkpt>
      <trkpt lat="46.90662" lon="10.2596">
        <time>2022-03-11T07:20:22+00:00</time>
        <ele>2296.0</ele>
      </trkpt>
      <trkpt lat="46.90661" lon="10.2596">
        <time>2022-03-11T07:20:24+00:00</time>
        <ele>2296.0</ele>
      </trkpt>
      <trkpt lat="46.90658" lon="10.2596">
        <time>2022-03-11T07:20:29+00:00</time>
        <ele>2297.0</ele>
      </trkpt>
      <trkpt lat="46.90656" lon="10.25961">
        <time>2022-03-11T07:20:34+00:00</time>
        <ele>2297.0</ele>
      </trkpt>
      <trkpt lat="46.90649" lon="10.25962">
        <time>2022-03-11T07:20:45+00:00</time>
        <ele>2298.0</ele>
      </trkpt>
      <trkpt lat="46.90649" lon="10.25963">
        <time>2022-03-11T07:20:46+00:00</time>
        <ele>2298.0</ele>
      </trkpt>
      <trkpt lat="46.90646" lon="10.25963">
        <time>2022-03-11T07:20:50+00:00</time>
        <ele>2299.0</ele>
      </trkpt>
      <trkpt lat="46.90643" lon="10.25964">
        <time>2022-03-11T07:20:55+00:00</time>
        <ele>2299.0</ele>
      </trkpt>
      <trkpt lat="46.90636" lon="10.25965">
        <time>2022-03-11T07:21:07+00:00</time>
        <ele>2300.0</ele>
      </trkpt>
      <trkpt lat="46.90635" lon="10.25965">
        <time>2022-03-11T07:21:09+00:00</time>
        <ele>2300.0</ele>
      </trkpt>
      <trkpt lat="46.90632" lon="10.25966">
        <time>2022-03-11T07:21:13+00:00</time>
        <ele>2300.0</ele>
      </trkpt>
      <trkpt lat="46.90631" lon="10.25965">
        <time>2022-03-11T07:21:16+00:00</time>
        <ele>2301.0</ele>
      </trkpt>
      <trkpt lat="46.90626" lon="10.25967">
        <time>2022-03-11T07:21:23+00:00</time>
        <ele>2301.0</ele>
      </trkpt>
      <trkpt lat="46.90621" lon="10.25967">
        <time>2022-03-11T07:21:31+00:00</time>
        <ele>2301.0</ele>
      </trkpt>
      <trkpt lat="46.90619" lon="10.25968">
        <time>2022-03-11T07:21:34+00:00</time>
        <ele>2301.0</ele>
      </trkpt>
      <trkpt lat="46.90618" lon="10.25968">
        <time>2022-03-11T07:21:35+00:00</time>
        <ele>2302.0</ele>
      </trkpt>
      <trkpt lat="46.9061" lon="10.2597">
        <time>2022-03-11T07:21:48+00:00</time>
        <ele>2303.0</ele>
      </trkpt>
      <trkpt lat="46.90608" lon="10.2597">
        <time>2022-03-11T07:21:51+00:00</time>
        <ele>2303.0</ele>
      </trkpt>
      <trkpt lat="46.90604" lon="10.25971">
        <time>2022-03-11T07:21:58+00:00</time>
        <ele>2303.0</ele>
      </trkpt>
      <trkpt lat="46.90601" lon="10.25971">
        <time>2022-03-11T07:22:03+00:00</time>
        <ele>2304.0</ele>
      </trkpt>
      <trkpt lat="46.90598" lon="10.25971">
        <time>2022-03-11T07:22:08+00:00</time>
        <ele>2304.0</ele>
      </trkpt>
      <trkpt lat="46.90596" lon="10.25971">
        <time>2022-03-11T07:22:12+00:00</time>
        <ele>2305.0</ele>
      </trkpt>
      <trkpt lat="46.90588" lon="10.25972">
        <time>2022-03-11T07:22:26+00:00</time>
        <ele>2306.0</ele>
      </trkpt>
      <trkpt lat="46.90583" lon="10.25973">
        <time>2022-03-11T07:22:34+00:00</time>
        <ele>2306.0</ele>
      </trkpt>
      <trkpt lat="46.90578" lon="10.25973">
        <time>2022-03-11T07:22:42+00:00</time>
        <ele>2307.0</ele>
      </trkpt>
      <trkpt lat="46.90571" lon="10.25973">
        <time>2022-03-11T07:22:53+00:00</time>
        <ele>2308.0</ele>
      </trkpt>
      <trkpt lat="46.90569" lon="10.25972">
        <time>2022-03-11T07:22:56+00:00</time>
        <ele>2308.0</ele>
      </trkpt>
      <trkpt lat="46.90566" lon="10.25972">
        <time>2022-03-11T07:23:00+00:00</time>
        <ele>2309.0</ele>
      </trkpt>
      <trkpt lat="46.9056" lon="10.25971">
        <time>2022-03-11T07:23:11+00:00</time>
        <ele>2309.0</ele>
      </trkpt>
      <trkpt lat="46.90554" lon="10.2597">
        <time>2022-03-11T07:23:21+00:00</time>
        <ele>2311.0</ele>
      </trkpt>
      <trkpt lat="46.90553" lon="10.2597">
        <time>2022-03-11T07:23:23+00:00</time>
        <ele>2311.0</ele>
      </trkpt>
      <trkpt lat="46.90548" lon="10.25968">
        <time>2022-03-11T07:23:31+00:00</time>
        <ele>2312.0</ele>
      </trkpt>
      <trkpt lat="46.90547" lon="10.25968">
        <time>2022-03-11T07:23:33+00:00</time>
        <ele>2312.0</ele>
      </trkpt>
      <trkpt lat="46.90544" lon="10.25967">
        <time>2022-03-11T07:23:37+00:00</time>
        <ele>2313.0</ele>
      </trkpt>
      <trkpt lat="46.90541" lon="10.25966">
        <time>2022-03-11T07:23:43+00:00</time>
        <ele>2313.0</ele>
      </trkpt>
      <trkpt lat="46.90538" lon="10.25965">
        <time>2022-03-11T07:23:48+00:00</time>
        <ele>2314.0</ele>
      </trkpt>
      <trkpt lat="46.90536" lon="10.25965">
        <time>2022-03-11T07:23:49+00:00</time>
        <ele>2314.0</ele>
      </trkpt>
      <trkpt lat="46.90534" lon="10.25964">
        <time>2022-03-11T07:23:55+00:00</time>
        <ele>2314.0</ele>
      </trkpt>
      <trkpt lat="46.90532" lon="10.25963">
        <time>2022-03-11T07:23:57+00:00</time>
        <ele>2314.0</ele>
      </trkpt>
      <trkpt lat="46.90528" lon="10.25961">
        <time>2022-03-11T07:24:04+00:00</time>
        <ele>2315.0</ele>
      </trkpt>
      <trkpt lat="46.90527" lon="10.25961">
        <time>2022-03-11T07:24:05+00:00</time>
        <ele>2315.0</ele>
      </trkpt>
      <trkpt lat="46.90521" lon="10.25958">
        <time>2022-03-11T07:24:15+00:00</time>
        <ele>2316.0</ele>
      </trkpt>
      <trkpt lat="46.9052" lon="10.25958">
        <time>2022-03-11T07:24:17+00:00</time>
        <ele>2316.0</ele>
      </trkpt>
      <trkpt lat="46.90514" lon="10.25956">
        <time>2022-03-11T07:24:27+00:00</time>
        <ele>2318.0</ele>
      </trkpt>
      <trkpt lat="46.90511" lon="10.25955">
        <time>2022-03-11T07:24:30+00:00</time>
        <ele>2318.0</ele>
      </trkpt>
      <trkpt lat="46.90508" lon="10.25955">
        <time>2022-03-11T07:24:35+00:00</time>
        <ele>2318.0</ele>
      </trkpt>
      <trkpt lat="46.90505" lon="10.25953">
        <time>2022-03-11T07:24:39+00:00</time>
        <ele>2319.0</ele>
      </trkpt>
      <trkpt lat="46.90501" lon="10.25952">
        <time>2022-03-11T07:24:46+00:00</time>
        <ele>2320.0</ele>
      </trkpt>
      <trkpt lat="46.905" lon="10.25952">
        <time>2022-03-11T07:24:47+00:00</time>
        <ele>2320.0</ele>
      </trkpt>
      <trkpt lat="46.90495" lon="10.25948">
        <time>2022-03-11T07:24:56+00:00</time>
        <ele>2321.0</ele>
      </trkpt>
      <trkpt lat="46.9049" lon="10.25948">
        <time>2022-03-11T07:25:03+00:00</time>
        <ele>2322.0</ele>
      </trkpt>
      <trkpt lat="46.90485" lon="10.25946">
        <time>2022-03-11T07:25:11+00:00</time>
        <ele>2323.0</ele>
      </trkpt>
      <trkpt lat="46.90484" lon="10.25946">
        <time>2022-03-11T07:25:12+00:00</time>
        <ele>2323.0</ele>
      </trkpt>
      <trkpt lat="46.90478" lon="10.25943">
        <time>2022-03-11T07:25:24+00:00</time>
        <ele>2324.0</ele>
      </trkpt>
      <trkpt lat="46.90478" lon="10.25944">
        <time>2022-03-11T07:25:25+00:00</time>
        <ele>2324.0</ele>
      </trkpt>
      <trkpt lat="46.90472" lon="10.25943">
        <time>2022-03-11T07:25:33+00:00</time>
        <ele>2325.0</ele>
      </trkpt>
      <trkpt lat="46.90471" lon="10.25942">
        <time>2022-03-11T07:25:36+00:00</time>
        <ele>2325.0</ele>
      </trkpt>
      <trkpt lat="46.90467" lon="10.2594">
        <time>2022-03-11T07:25:42+00:00</time>
        <ele>2326.0</ele>
      </trkpt>
      <trkpt lat="46.90461" lon="10.25938">
        <time>2022-03-11T07:25:54+00:00</time>
        <ele>2328.0</ele>
      </trkpt>
      <trkpt lat="46.90458" lon="10.25937">
        <time>2022-03-11T07:25:58+00:00</time>
        <ele>2328.0</ele>
      </trkpt>
      <trkpt lat="46.90456" lon="10.25936">
        <time>2022-03-11T07:26:03+00:00</time>
        <ele>2329.0</ele>
      </trkpt>
      <trkpt lat="46.90452" lon="10.25937">
        <time>2022-03-11T07:26:11+00:00</time>
        <ele>2329.0</ele>
      </trkpt>
      <trkpt lat="46.9045" lon="10.25936">
        <time>2022-03-11T07:26:14+00:00</time>
        <ele>2330.0</ele>
      </trkpt>
      <trkpt lat="46.90449" lon="10.25936">
        <time>2022-03-11T07:26:17+00:00</time>
        <ele>2330.0</ele>
      </trkpt>
      <trkpt lat="46.90447" lon="10.25935">
        <time>2022-03-11T07:26:23+00:00</time>
        <ele>2330.0</ele>
      </trkpt>
      <trkpt lat="46.90445" lon="10.25935">
        <time>2022-03-11T07:26:27+00:00</time>
        <ele>2330.0</ele>
      </trkpt>
      <trkpt lat="46.90442" lon="10.25935">
        <time>2022-03-11T07:26:32+00:00</time>
        <ele>2331.0</ele>
      </trkpt>
      <trkpt lat="46.90439" lon="10.25934">
        <time>2022-03-11T07:26:37+00:00</time>
        <ele>2331.0</ele>
      </trkpt>
      <trkpt lat="46.90436" lon="10.25933">
        <time>2022-03-11T07:26:44+00:00</time>
        <ele>2332.0</ele>
      </trkpt>
      <trkpt lat="46.90433" lon="10.25932">
        <time>2022-03-11T07:26:48+00:00</time>
        <ele>2332.0</ele>
      </trkpt>
      <trkpt lat="46.9043" lon="10.25931">
        <time>2022-03-11T07:26:53+00:00</time>
        <ele>2333.0</ele>
      </trkpt>
      <trkpt lat="46.90428" lon="10.2593">
        <time>2022-03-11T07:26:58+00:00</time>
        <ele>2333.0</ele>
      </trkpt>
      <trkpt lat="46.90425" lon="10.25929">
        <time>2022-03-11T07:27:03+00:00</time>
        <ele>2334.0</ele>
      </trkpt>
      <trkpt lat="46.90423" lon="10.25928">
        <time>2022-03-11T07:27:08+00:00</time>
        <ele>2334.0</ele>
      </trkpt>
      <trkpt lat="46.9042" lon="10.25928">
        <time>2022-03-11T07:27:13+00:00</time>
        <ele>2335.0</ele>
      </trkpt>
      <trkpt lat="46.90416" lon="10.25926">
        <time>2022-03-11T07:27:20+00:00</time>
        <ele>2335.0</ele>
      </trkpt>
      <trkpt lat="46.90412" lon="10.25924">
        <time>2022-03-11T07:27:25+00:00</time>
        <ele>2336.0</ele>
      </trkpt>
      <trkpt lat="46.90411" lon="10.25923">
        <time>2022-03-11T07:27:28+00:00</time>
        <ele>2337.0</ele>
      </trkpt>
      <trkpt lat="46.90408" lon="10.25922">
        <time>2022-03-11T07:27:33+00:00</time>
        <ele>2337.0</ele>
      </trkpt>
      <trkpt lat="46.90407" lon="10.25922">
        <time>2022-03-11T07:27:34+00:00</time>
        <ele>2337.0</ele>
      </trkpt>
      <trkpt lat="46.90404" lon="10.25919">
        <time>2022-03-11T07:27:41+00:00</time>
        <ele>2338.0</ele>
      </trkpt>
      <trkpt lat="46.90398" lon="10.25916">
        <time>2022-03-11T07:27:51+00:00</time>
        <ele>2340.0</ele>
      </trkpt>
      <trkpt lat="46.90395" lon="10.25915">
        <time>2022-03-11T07:27:56+00:00</time>
        <ele>2341.0</ele>
      </trkpt>
      <trkpt lat="46.9039" lon="10.25913">
        <time>2022-03-11T07:28:05+00:00</time>
        <ele>2341.0</ele>
      </trkpt>
      <trkpt lat="46.90389" lon="10.25912">
        <time>2022-03-11T07:28:07+00:00</time>
        <ele>2341.0</ele>
      </trkpt>
      <trkpt lat="46.90384" lon="10.25912">
        <time>2022-03-11T07:28:15+00:00</time>
        <ele>2342.0</ele>
      </trkpt>
      <trkpt lat="46.90383" lon="10.25912">
        <time>2022-03-11T07:28:16+00:00</time>
        <ele>2342.0</ele>
      </trkpt>
      <trkpt lat="46.90378" lon="10.25911">
        <time>2022-03-11T07:28:25+00:00</time>
        <ele>2343.0</ele>
      </trkpt>
      <trkpt lat="46.90376" lon="10.2591">
        <time>2022-03-11T07:28:28+00:00</time>
        <ele>2343.0</ele>
      </trkpt>
      <trkpt lat="46.90372" lon="10.25909">
        <time>2022-03-11T07:28:35+00:00</time>
        <ele>2343.0</ele>
      </trkpt>
      <trkpt lat="46.90365" lon="10.2591">
        <time>2022-03-11T07:28:46+00:00</time>
        <ele>2344.0</ele>
      </trkpt>
      <trkpt lat="46.90361" lon="10.25909">
        <time>2022-03-11T07:28:53+00:00</time>
        <ele>2345.0</ele>
      </trkpt>
      <trkpt lat="46.90357" lon="10.25907">
        <time>2022-03-11T07:28:58+00:00</time>
        <ele>2345.0</ele>
      </trkpt>
      <trkpt lat="46.9035" lon="10.25905">
        <time>2022-03-11T07:29:06+00:00</time>
        <ele>2346.0</ele>
      </trkpt>
      <trkpt lat="46.90346" lon="10.25904">
        <time>2022-03-11T07:29:13+00:00</time>
        <ele>2346.0</ele>
      </trkpt>
      <trkpt lat="46.9034" lon="10.25901">
        <time>2022-03-11T07:29:23+00:00</time>
        <ele>2347.0</ele>
      </trkpt>
      <trkpt lat="46.90339" lon="10.25901">
        <time>2022-03-11T07:29:26+00:00</time>
        <ele>2347.0</ele>
      </trkpt>
      <trkpt lat="46.90335" lon="10.25898">
        <time>2022-03-11T07:29:34+00:00</time>
        <ele>2348.0</ele>
      </trkpt>
      <trkpt lat="46.90334" lon="10.25897">
        <time>2022-03-11T07:29:36+00:00</time>
        <ele>2348.0</ele>
      </trkpt>
      <trkpt lat="46.90329" lon="10.25896">
        <time>2022-03-11T07:29:45+00:00</time>
        <ele>2348.0</ele>
      </trkpt>
      <trkpt lat="46.90327" lon="10.25895">
        <time>2022-03-11T07:29:48+00:00</time>
        <ele>2349.0</ele>
      </trkpt>
      <trkpt lat="46.90324" lon="10.25893">
        <time>2022-03-11T07:29:54+00:00</time>
        <ele>2349.0</ele>
      </trkpt>
      <trkpt lat="46.9032" lon="10.25891">
        <time>2022-03-11T07:30:01+00:00</time>
        <ele>2350.0</ele>
      </trkpt>
      <trkpt lat="46.90318" lon="10.25891">
        <time>2022-03-11T07:30:02+00:00</time>
        <ele>2350.0</ele>
      </trkpt>
      <trkpt lat="46.90314" lon="10.25889">
        <time>2022-03-11T07:30:10+00:00</time>
        <ele>2350.0</ele>
      </trkpt>
      <trkpt lat="46.90308" lon="10.25889">
        <time>2022-03-11T07:30:20+00:00</time>
        <ele>2351.0</ele>
      </trkpt>
      <trkpt lat="46.90306" lon="10.25888">
        <time>2022-03-11T07:30:23+00:00</time>
        <ele>2351.0</ele>
      </trkpt>
      <trkpt lat="46.903" lon="10.25885">
        <time>2022-03-11T07:30:31+00:00</time>
        <ele>2352.0</ele>
      </trkpt>
      <trkpt lat="46.90297" lon="10.25884">
        <time>2022-03-11T07:30:36+00:00</time>
        <ele>2352.0</ele>
      </trkpt>
      <trkpt lat="46.90294" lon="10.25883">
        <time>2022-03-11T07:30:40+00:00</time>
        <ele>2352.0</ele>
      </trkpt>
      <trkpt lat="46.90289" lon="10.25879">
        <time>2022-03-11T07:30:48+00:00</time>
        <ele>2353.0</ele>
      </trkpt>
      <trkpt lat="46.90289" lon="10.25879">
        <time>2022-03-11T07:30:49+00:00</time>
        <ele>2353.0</ele>
      </trkpt>
      <trkpt lat="46.90283" lon="10.25875">
        <time>2022-03-11T07:30:56+00:00</time>
        <ele>2353.0</ele>
      </trkpt>
      <trkpt lat="46.90279" lon="10.25873">
        <time>2022-03-11T07:31:02+00:00</time>
        <ele>2354.0</ele>
      </trkpt>
      <trkpt lat="46.90278" lon="10.25873">
        <time>2022-03-11T07:31:03+00:00</time>
        <ele>2354.0</ele>
      </trkpt>
      <trkpt lat="46.90277" lon="10.25873">
        <time>2022-03-11T07:31:04+00:00</time>
        <ele>2354.0</ele>
      </trkpt>
      <trkpt lat="46.90277" lon="10.25872">
        <time>2022-03-11T07:31:05+00:00</time>
        <ele>2354.0</ele>
      </trkpt>
      <trkpt lat="46.90271" lon="10.25866">
        <time>2022-03-11T07:31:13+00:00</time>
        <ele>2354.0</ele>
      </trkpt>
      <trkpt lat="46.90269" lon="10.25864">
        <time>2022-03-11T07:31:16+00:00</time>
        <ele>2354.0</ele>
      </trkpt>
      <trkpt lat="46.90265" lon="10.2586">
        <time>2022-03-11T07:31:20+00:00</time>
        <ele>2354.0</ele>
      </trkpt>
      <trkpt lat="46.90257" lon="10.25854">
        <time>2022-03-11T07:31:30+00:00</time>
        <ele>2354.0</ele>
      </trkpt>
      <trkpt lat="46.90251" lon="10.2585">
        <time>2022-03-11T07:31:38+00:00</time>
        <ele>2354.0</ele>
      </trkpt>
      <trkpt lat="46.90251" lon="10.2585">
        <time>2022-03-11T07:31:39+00:00</time>
        <ele>2354.0</ele>
      </trkpt>
      <trkpt lat="46.9025" lon="10.25848">
        <time>2022-03-11T07:31:43+00:00</time>
        <ele>2354.0</ele>
      </trkpt>
      <trkpt lat="46.90249" lon="10.25848">
        <time>2022-03-11T07:31:45+00:00</time>
        <ele>2354.0</ele>
      </trkpt>
      <trkpt lat="46.90249" lon="10.25848">
        <time>2022-03-11T07:31:48+00:00</time>
        <ele>2354.0</ele>
      </trkpt>
      <trkpt lat="46.9025" lon="10.25849">
        <time>2022-03-11T07:31:52+00:00</time>
        <ele>2354.0</ele>
      </trkpt>
      <trkpt lat="46.90249" lon="10.25848">
        <time>2022-03-11T07:31:59+00:00</time>
        <ele>2354.0</ele>
      </trkpt>
      <trkpt lat="46.90248" lon="10.25847">
        <time>2022-03-11T07:32:00+00:00</time>
        <ele>2353.0</ele>
      </trkpt>
      <trkpt lat="46.90245" lon="10.25844">
        <time>2022-03-11T07:32:01+00:00</time>
        <ele>2353.0</ele>
      </trkpt>
      <trkpt lat="46.90237" lon="10.25833">
        <time>2022-03-11T07:32:09+00:00</time>
        <ele>2353.0</ele>
      </trkpt>
      <trkpt lat="46.90235" lon="10.25831">
        <time>2022-03-11T07:32:11+00:00</time>
        <ele>2353.0</ele>
      </trkpt>
      <trkpt lat="46.90228" lon="10.25824">
        <time>2022-03-11T07:32:17+00:00</time>
        <ele>2352.0</ele>
      </trkpt>
      <trkpt lat="46.90222" lon="10.25815">
        <time>2022-03-11T07:32:24+00:00</time>
        <ele>2351.0</ele>
      </trkpt>
      <trkpt lat="46.90221" lon="10.25814">
        <time>2022-03-11T07:32:25+00:00</time>
        <ele>2351.0</ele>
      </trkpt>
      <trkpt lat="46.90217" lon="10.25807">
        <time>2022-03-11T07:32:32+00:00</time>
        <ele>2351.0</ele>
      </trkpt>
      <trkpt lat="46.90215" lon="10.25802">
        <time>2022-03-11T07:32:36+00:00</time>
        <ele>2351.0</ele>
      </trkpt>
      <trkpt lat="46.9021" lon="10.25796">
        <time>2022-03-11T07:32:41+00:00</time>
        <ele>2351.0</ele>
      </trkpt>
      <trkpt lat="46.90202" lon="10.25786">
        <time>2022-03-11T07:32:50+00:00</time>
        <ele>2351.0</ele>
      </trkpt>
      <trkpt lat="46.90201" lon="10.25785">
        <time>2022-03-11T07:32:51+00:00</time>
        <ele>2351.0</ele>
      </trkpt>
      <trkpt lat="46.9019" lon="10.2577">
        <time>2022-03-11T07:33:03+00:00</time>
        <ele>2351.0</ele>
      </trkpt>
      <trkpt lat="46.90184" lon="10.25764">
        <time>2022-03-11T07:33:10+00:00</time>
        <ele>2351.0</ele>
      </trkpt>
      <trkpt lat="46.90177" lon="10.25753">
        <time>2022-03-11T07:33:20+00:00</time>
        <ele>2351.0</ele>
      </trkpt>
      <trkpt lat="46.90171" lon="10.25745">
        <time>2022-03-11T07:33:28+00:00</time>
        <ele>2350.0</ele>
      </trkpt>
      <trkpt lat="46.9017" lon="10.25744">
        <time>2022-03-11T07:33:29+00:00</time>
        <ele>2350.0</ele>
      </trkpt>
      <trkpt lat="46.90165" lon="10.25737">
        <time>2022-03-11T07:33:38+00:00</time>
        <ele>2350.0</ele>
      </trkpt>
      <trkpt lat="46.90157" lon="10.25726">
        <time>2022-03-11T07:33:50+00:00</time>
        <ele>2350.0</ele>
      </trkpt>
      <trkpt lat="46.9015" lon="10.25718">
        <time>2022-03-11T07:34:00+00:00</time>
        <ele>2350.0</ele>
      </trkpt>
      <trkpt lat="46.90144" lon="10.25711">
        <time>2022-03-11T07:34:09+00:00</time>
        <ele>2350.0</ele>
      </trkpt>
      <trkpt lat="46.90137" lon="10.25704">
        <time>2022-03-11T07:34:18+00:00</time>
        <ele>2350.0</ele>
      </trkpt>
      <trkpt lat="46.90132" lon="10.25697">
        <time>2022-03-11T07:34:27+00:00</time>
        <ele>2351.0</ele>
      </trkpt>
      <trkpt lat="46.90126" lon="10.25693">
        <time>2022-03-11T07:34:36+00:00</time>
        <ele>2351.0</ele>
      </trkpt>
      <trkpt lat="46.90121" lon="10.25689">
        <time>2022-03-11T07:34:45+00:00</time>
        <ele>2351.0</ele>
      </trkpt>
      <trkpt lat="46.90115" lon="10.25685">
        <time>2022-03-11T07:34:52+00:00</time>
        <ele>2351.0</ele>
      </trkpt>
      <trkpt lat="46.90112" lon="10.25683">
        <time>2022-03-11T07:34:55+00:00</time>
        <ele>2351.0</ele>
      </trkpt>
      <trkpt lat="46.90104" lon="10.25677">
        <time>2022-03-11T07:35:04+00:00</time>
        <ele>2351.0</ele>
      </trkpt>
      <trkpt lat="46.90097" lon="10.25674">
        <time>2022-03-11T07:35:10+00:00</time>
        <ele>2351.0</ele>
      </trkpt>
      <trkpt lat="46.90093" lon="10.25673">
        <time>2022-03-11T07:35:13+00:00</time>
        <ele>2351.0</ele>
      </trkpt>
      <trkpt lat="46.90087" lon="10.2567">
        <time>2022-03-11T07:35:18+00:00</time>
        <ele>2351.0</ele>
      </trkpt>
      <trkpt lat="46.90078" lon="10.25664">
        <time>2022-03-11T07:35:27+00:00</time>
        <ele>2351.0</ele>
      </trkpt>
      <trkpt lat="46.90072" lon="10.2566">
        <time>2022-03-11T07:35:35+00:00</time>
        <ele>2351.0</ele>
      </trkpt>
      <trkpt lat="46.90065" lon="10.25657">
        <time>2022-03-11T07:35:44+00:00</time>
        <ele>2351.0</ele>
      </trkpt>
      <trkpt lat="46.90059" lon="10.25652">
        <time>2022-03-11T07:35:53+00:00</time>
        <ele>2351.0</ele>
      </trkpt>
      <trkpt lat="46.90055" lon="10.25649">
        <time>2022-03-11T07:35:57+00:00</time>
        <ele>2351.0</ele>
      </trkpt>
      <trkpt lat="46.90052" lon="10.25646">
        <time>2022-03-11T07:36:02+00:00</time>
        <ele>2351.0</ele>
      </trkpt>
      <trkpt lat="46.90046" lon="10.25643">
        <time>2022-03-11T07:36:10+00:00</time>
        <ele>2352.0</ele>
      </trkpt>
      <trkpt lat="46.90036" lon="10.25638">
        <time>2022-03-11T07:36:24+00:00</time>
        <ele>2353.0</ele>
      </trkpt>
      <trkpt lat="46.90028" lon="10.25633">
        <time>2022-03-11T07:36:35+00:00</time>
        <ele>2354.0</ele>
      </trkpt>
      <trkpt lat="46.90027" lon="10.25633">
        <time>2022-03-11T07:36:36+00:00</time>
        <ele>2354.0</ele>
      </trkpt>
      <trkpt lat="46.90025" lon="10.25632">
        <time>2022-03-11T07:36:39+00:00</time>
        <ele>2354.0</ele>
      </trkpt>
      <trkpt lat="46.90025" lon="10.25632">
        <time>2022-03-11T07:36:41+00:00</time>
        <ele>2354.0</ele>
      </trkpt>
      <trkpt lat="46.90024" lon="10.25632">
        <time>2022-03-11T07:36:42+00:00</time>
        <ele>2354.0</ele>
      </trkpt>
      <trkpt lat="46.90021" lon="10.25633">
        <time>2022-03-11T07:36:50+00:00</time>
        <ele>2354.0</ele>
      </trkpt>
      <trkpt lat="46.90017" lon="10.25632">
        <time>2022-03-11T07:36:58+00:00</time>
        <ele>2355.0</ele>
      </trkpt>
      <trkpt lat="46.90011" lon="10.25634">
        <time>2022-03-11T07:37:08+00:00</time>
        <ele>2355.0</ele>
      </trkpt>
      <trkpt lat="46.90001" lon="10.25633">
        <time>2022-03-11T07:37:19+00:00</time>
        <ele>2356.0</ele>
      </trkpt>
      <trkpt lat="46.89994" lon="10.25631">
        <time>2022-03-11T07:37:30+00:00</time>
        <ele>2357.0</ele>
      </trkpt>
      <trkpt lat="46.89985" lon="10.25628">
        <time>2022-03-11T07:37:40+00:00</time>
        <ele>2359.0</ele>
      </trkpt>
      <trkpt lat="46.89979" lon="10.25628">
        <time>2022-03-11T07:37:48+00:00</time>
        <ele>2359.0</ele>
      </trkpt>
      <trkpt lat="46.89969" lon="10.25625">
        <time>2022-03-11T07:37:59+00:00</time>
        <ele>2361.0</ele>
      </trkpt>
      <trkpt lat="46.8996" lon="10.25623">
        <time>2022-03-11T07:38:13+00:00</time>
        <ele>2362.0</ele>
      </trkpt>
      <trkpt lat="46.89948" lon="10.25623">
        <time>2022-03-11T07:38:28+00:00</time>
        <ele>2363.0</ele>
      </trkpt>
      <trkpt lat="46.89943" lon="10.25625">
        <time>2022-03-11T07:38:35+00:00</time>
        <ele>2363.0</ele>
      </trkpt>
      <trkpt lat="46.89942" lon="10.25625">
        <time>2022-03-11T07:38:36+00:00</time>
        <ele>2363.0</ele>
      </trkpt>
      <trkpt lat="46.89941" lon="10.25625">
        <time>2022-03-11T07:38:37+00:00</time>
        <ele>2363.0</ele>
      </trkpt>
      <trkpt lat="46.8994" lon="10.25625">
        <time>2022-03-11T07:38:39+00:00</time>
        <ele>2363.0</ele>
      </trkpt>
      <trkpt lat="46.89936" lon="10.25627">
        <time>2022-03-11T07:38:45+00:00</time>
        <ele>2363.0</ele>
      </trkpt>
      <trkpt lat="46.89934" lon="10.25628">
        <time>2022-03-11T07:38:47+00:00</time>
        <ele>2363.0</ele>
      </trkpt>
      <trkpt lat="46.89933" lon="10.25628">
        <time>2022-03-11T07:38:49+00:00</time>
        <ele>2363.0</ele>
      </trkpt>
      <trkpt lat="46.89932" lon="10.25628">
        <time>2022-03-11T07:38:50+00:00</time>
        <ele>2363.0</ele>
      </trkpt>
      <trkpt lat="46.89929" lon="10.25629">
        <time>2022-03-11T07:38:54+00:00</time>
        <ele>2363.0</ele>
      </trkpt>
      <trkpt lat="46.89922" lon="10.25633">
        <time>2022-03-11T07:39:02+00:00</time>
        <ele>2362.0</ele>
      </trkpt>
      <trkpt lat="46.89921" lon="10.25634">
        <time>2022-03-11T07:39:04+00:00</time>
        <ele>2362.0</ele>
      </trkpt>
      <trkpt lat="46.89915" lon="10.25636">
        <time>2022-03-11T07:39:10+00:00</time>
        <ele>2362.0</ele>
      </trkpt>
      <trkpt lat="46.8991" lon="10.2564">
        <time>2022-03-11T07:39:16+00:00</time>
        <ele>2361.0</ele>
      </trkpt>
      <trkpt lat="46.89907" lon="10.25642">
        <time>2022-03-11T07:39:20+00:00</time>
        <ele>2361.0</ele>
      </trkpt>
      <trkpt lat="46.89901" lon="10.25645">
        <time>2022-03-11T07:39:26+00:00</time>
        <ele>2361.0</ele>
      </trkpt>
      <trkpt lat="46.89899" lon="10.25646">
        <time>2022-03-11T07:39:28+00:00</time>
        <ele>2360.0</ele>
      </trkpt>
      <trkpt lat="46.89895" lon="10.25646">
        <time>2022-03-11T07:39:32+00:00</time>
        <ele>2360.0</ele>
      </trkpt>
      <trkpt lat="46.8989" lon="10.25647">
        <time>2022-03-11T07:39:38+00:00</time>
        <ele>2360.0</ele>
      </trkpt>
      <trkpt lat="46.89878" lon="10.25649">
        <time>2022-03-11T07:39:51+00:00</time>
        <ele>2360.0</ele>
      </trkpt>
      <trkpt lat="46.89869" lon="10.25651">
        <time>2022-03-11T07:40:01+00:00</time>
        <ele>2359.0</ele>
      </trkpt>
      <trkpt lat="46.89864" lon="10.25651">
        <time>2022-03-11T07:40:06+00:00</time>
        <ele>2359.0</ele>
      </trkpt>
      <trkpt lat="46.89855" lon="10.2565">
        <time>2022-03-11T07:40:14+00:00</time>
        <ele>2359.0</ele>
      </trkpt>
      <trkpt lat="46.89842" lon="10.2565">
        <time>2022-03-11T07:40:24+00:00</time>
        <ele>2359.0</ele>
      </trkpt>
      <trkpt lat="46.89836" lon="10.25648">
        <time>2022-03-11T07:40:29+00:00</time>
        <ele>2359.0</ele>
      </trkpt>
      <trkpt lat="46.8983" lon="10.25646">
        <time>2022-03-11T07:40:33+00:00</time>
        <ele>2359.0</ele>
      </trkpt>
      <trkpt lat="46.89828" lon="10.25646">
        <time>2022-03-11T07:40:35+00:00</time>
        <ele>2359.0</ele>
      </trkpt>
      <trkpt lat="46.8982" lon="10.25645">
        <time>2022-03-11T07:40:41+00:00</time>
        <ele>2359.0</ele>
      </trkpt>
      <trkpt lat="46.89817" lon="10.25644">
        <time>2022-03-11T07:40:44+00:00</time>
        <ele>2359.0</ele>
      </trkpt>
      <trkpt lat="46.89808" lon="10.25642">
        <time>2022-03-11T07:40:50+00:00</time>
        <ele>2359.0</ele>
      </trkpt>
      <trkpt lat="46.89805" lon="10.2564">
        <time>2022-03-11T07:40:53+00:00</time>
        <ele>2359.0</ele>
      </trkpt>
      <trkpt lat="46.898" lon="10.25639">
        <time>2022-03-11T07:40:57+00:00</time>
        <ele>2359.0</ele>
      </trkpt>
      <trkpt lat="46.89797" lon="10.25639">
        <time>2022-03-11T07:40:59+00:00</time>
        <ele>2359.0</ele>
      </trkpt>
      <trkpt lat="46.89786" lon="10.25639">
        <time>2022-03-11T07:41:08+00:00</time>
        <ele>2358.0</ele>
      </trkpt>
      <trkpt lat="46.89775" lon="10.25635">
        <time>2022-03-11T07:41:18+00:00</time>
        <ele>2358.0</ele>
      </trkpt>
      <trkpt lat="46.89772" lon="10.25635">
        <time>2022-03-11T07:41:21+00:00</time>
        <ele>2358.0</ele>
      </trkpt>
      <trkpt lat="46.89764" lon="10.25633">
        <time>2022-03-11T07:41:28+00:00</time>
        <ele>2358.0</ele>
      </trkpt>
      <trkpt lat="46.8976" lon="10.25632">
        <time>2022-03-11T07:41:32+00:00</time>
        <ele>2359.0</ele>
      </trkpt>
      <trkpt lat="46.89755" lon="10.25629">
        <time>2022-03-11T07:41:36+00:00</time>
        <ele>2359.0</ele>
      </trkpt>
      <trkpt lat="46.89744" lon="10.25626">
        <time>2022-03-11T07:41:46+00:00</time>
        <ele>2359.0</ele>
      </trkpt>
      <trkpt lat="46.89742" lon="10.25626">
        <time>2022-03-11T07:41:49+00:00</time>
        <ele>2359.0</ele>
      </trkpt>
      <trkpt lat="46.89737" lon="10.25626">
        <time>2022-03-11T07:41:56+00:00</time>
        <ele>2359.0</ele>
      </trkpt>
      <trkpt lat="46.89731" lon="10.25626">
        <time>2022-03-11T07:42:05+00:00</time>
        <ele>2359.0</ele>
      </trkpt>
      <trkpt lat="46.8973" lon="10.25626">
        <time>2022-03-11T07:42:07+00:00</time>
        <ele>2359.0</ele>
      </trkpt>
      <trkpt lat="46.89728" lon="10.25625">
        <time>2022-03-11T07:42:10+00:00</time>
        <ele>2359.0</ele>
      </trkpt>
      <trkpt lat="46.89724" lon="10.25624">
        <time>2022-03-11T07:42:15+00:00</time>
        <ele>2360.0</ele>
      </trkpt>
      <trkpt lat="46.89715" lon="10.2562">
        <time>2022-03-11T07:42:24+00:00</time>
        <ele>2360.0</ele>
      </trkpt>
      <trkpt lat="46.89709" lon="10.25617">
        <time>2022-03-11T07:42:32+00:00</time>
        <ele>2361.0</ele>
      </trkpt>
      <trkpt lat="46.89702" lon="10.25615">
        <time>2022-03-11T07:42:42+00:00</time>
        <ele>2362.0</ele>
      </trkpt>
      <trkpt lat="46.89702" lon="10.25615">
        <time>2022-03-11T07:42:44+00:00</time>
        <ele>2362.0</ele>
      </trkpt>
      <trkpt lat="46.89702" lon="10.25615">
        <time>2022-03-11T07:42:52+00:00</time>
        <ele>2362.0</ele>
      </trkpt>
      <trkpt lat="46.89702" lon="10.25615">
        <time>2022-03-11T07:42:56+00:00</time>
        <ele>2362.0</ele>
      </trkpt>
      <trkpt lat="46.89702" lon="10.25617">
        <time>2022-03-11T07:43:36+00:00</time>
        <ele>2362.0</ele>
      </trkpt>
      <trkpt lat="46.89699" lon="10.25616">
        <time>2022-03-11T07:43:43+00:00</time>
        <ele>2363.0</ele>
      </trkpt>
      <trkpt lat="46.89685" lon="10.25613">
        <time>2022-03-11T07:43:53+00:00</time>
        <ele>2364.0</ele>
      </trkpt>
      <trkpt lat="46.89679" lon="10.25612">
        <time>2022-03-11T07:43:57+00:00</time>
        <ele>2365.0</ele>
      </trkpt>
      <trkpt lat="46.89672" lon="10.25612">
        <time>2022-03-11T07:44:06+00:00</time>
        <ele>2366.0</ele>
      </trkpt>
      <trkpt lat="46.89665" lon="10.25611">
        <time>2022-03-11T07:44:16+00:00</time>
        <ele>2367.0</ele>
      </trkpt>
      <trkpt lat="46.89662" lon="10.25611">
        <time>2022-03-11T07:44:21+00:00</time>
        <ele>2367.0</ele>
      </trkpt>
      <trkpt lat="46.89659" lon="10.25611">
        <time>2022-03-11T07:44:27+00:00</time>
        <ele>2368.0</ele>
      </trkpt>
      <trkpt lat="46.89657" lon="10.25611">
        <time>2022-03-11T07:44:30+00:00</time>
        <ele>2368.0</ele>
      </trkpt>
      <trkpt lat="46.89652" lon="10.25612">
        <time>2022-03-11T07:44:38+00:00</time>
        <ele>2369.0</ele>
      </trkpt>
      <trkpt lat="46.89649" lon="10.25611">
        <time>2022-03-11T07:44:42+00:00</time>
        <ele>2370.0</ele>
      </trkpt>
      <trkpt lat="46.89647" lon="10.25611">
        <time>2022-03-11T07:44:46+00:00</time>
        <ele>2370.0</ele>
      </trkpt>
      <trkpt lat="46.89644" lon="10.25611">
        <time>2022-03-11T07:44:51+00:00</time>
        <ele>2371.0</ele>
      </trkpt>
      <trkpt lat="46.89643" lon="10.25611">
        <time>2022-03-11T07:44:53+00:00</time>
        <ele>2371.0</ele>
      </trkpt>
      <trkpt lat="46.89639" lon="10.25612">
        <time>2022-03-11T07:45:01+00:00</time>
        <ele>2372.0</ele>
      </trkpt>
      <trkpt lat="46.89636" lon="10.25612">
        <time>2022-03-11T07:45:05+00:00</time>
        <ele>2372.0</ele>
      </trkpt>
      <trkpt lat="46.89628" lon="10.25611">
        <time>2022-03-11T07:45:17+00:00</time>
        <ele>2374.0</ele>
      </trkpt>
      <trkpt lat="46.89627" lon="10.2561">
        <time>2022-03-11T07:45:19+00:00</time>
        <ele>2374.0</ele>
      </trkpt>
      <trkpt lat="46.89624" lon="10.2561">
        <time>2022-03-11T07:45:24+00:00</time>
        <ele>2375.0</ele>
      </trkpt>
      <trkpt lat="46.89621" lon="10.2561">
        <time>2022-03-11T07:45:29+00:00</time>
        <ele>2375.0</ele>
      </trkpt>
      <trkpt lat="46.89619" lon="10.2561">
        <time>2022-03-11T07:45:34+00:00</time>
        <ele>2375.0</ele>
      </trkpt>
      <trkpt lat="46.89617" lon="10.25609">
        <time>2022-03-11T07:45:39+00:00</time>
        <ele>2376.0</ele>
      </trkpt>
      <trkpt lat="46.89614" lon="10.2561">
        <time>2022-03-11T07:45:45+00:00</time>
        <ele>2376.0</ele>
      </trkpt>
      <trkpt lat="46.89611" lon="10.2561">
        <time>2022-03-11T07:45:49+00:00</time>
        <ele>2376.0</ele>
      </trkpt>
      <trkpt lat="46.89603" lon="10.2561">
        <time>2022-03-11T07:46:01+00:00</time>
        <ele>2377.0</ele>
      </trkpt>
      <trkpt lat="46.89603" lon="10.2561">
        <time>2022-03-11T07:46:02+00:00</time>
        <ele>2377.0</ele>
      </trkpt>
      <trkpt lat="46.89597" lon="10.2561">
        <time>2022-03-11T07:46:10+00:00</time>
        <ele>2378.0</ele>
      </trkpt>
      <trkpt lat="46.89592" lon="10.2561">
        <time>2022-03-11T07:46:17+00:00</time>
        <ele>2379.0</ele>
      </trkpt>
      <trkpt lat="46.89589" lon="10.2561">
        <time>2022-03-11T07:46:22+00:00</time>
        <ele>2380.0</ele>
      </trkpt>
      <trkpt lat="46.8958" lon="10.25612">
        <time>2022-03-11T07:46:34+00:00</time>
        <ele>2381.0</ele>
      </trkpt>
      <trkpt lat="46.89577" lon="10.25615">
        <time>2022-03-11T07:46:40+00:00</time>
        <ele>2382.0</ele>
      </trkpt>
      <trkpt lat="46.89576" lon="10.25616">
        <time>2022-03-11T07:46:44+00:00</time>
        <ele>2382.0</ele>
      </trkpt>
      <trkpt lat="46.89574" lon="10.25618">
        <time>2022-03-11T07:46:49+00:00</time>
        <ele>2382.0</ele>
      </trkpt>
      <trkpt lat="46.89571" lon="10.25621">
        <time>2022-03-11T07:46:55+00:00</time>
        <ele>2382.0</ele>
      </trkpt>
      <trkpt lat="46.8957" lon="10.25624">
        <time>2022-03-11T07:47:00+00:00</time>
        <ele>2382.0</ele>
      </trkpt>
      <trkpt lat="46.89565" lon="10.25627">
        <time>2022-03-11T07:47:08+00:00</time>
        <ele>2382.0</ele>
      </trkpt>
      <trkpt lat="46.89563" lon="10.25628">
        <time>2022-03-11T07:47:11+00:00</time>
        <ele>2382.0</ele>
      </trkpt>
      <trkpt lat="46.89562" lon="10.25629">
        <time>2022-03-11T07:47:13+00:00</time>
        <ele>2382.0</ele>
      </trkpt>
      <trkpt lat="46.89559" lon="10.2563">
        <time>2022-03-11T07:47:20+00:00</time>
        <ele>2383.0</ele>
      </trkpt>
      <trkpt lat="46.89557" lon="10.25631">
        <time>2022-03-11T07:47:22+00:00</time>
        <ele>2383.0</ele>
      </trkpt>
      <trkpt lat="46.89556" lon="10.25631">
        <time>2022-03-11T07:47:24+00:00</time>
        <ele>2384.0</ele>
      </trkpt>
      <trkpt lat="46.89552" lon="10.25633">
        <time>2022-03-11T07:47:30+00:00</time>
        <ele>2384.0</ele>
      </trkpt>
      <trkpt lat="46.89552" lon="10.25633">
        <time>2022-03-11T07:47:31+00:00</time>
        <ele>2384.0</ele>
      </trkpt>
      <trkpt lat="46.89551" lon="10.25633">
        <time>2022-03-11T07:47:32+00:00</time>
        <ele>2384.0</ele>
      </trkpt>
      <trkpt lat="46.89544" lon="10.25633">
        <time>2022-03-11T07:47:42+00:00</time>
        <ele>2386.0</ele>
      </trkpt>
      <trkpt lat="46.89538" lon="10.25632">
        <time>2022-03-11T07:47:50+00:00</time>
        <ele>2388.0</ele>
      </trkpt>
      <trkpt lat="46.89535" lon="10.25631">
        <time>2022-03-11T07:47:55+00:00</time>
        <ele>2389.0</ele>
      </trkpt>
      <trkpt lat="46.89533" lon="10.25632">
        <time>2022-03-11T07:47:59+00:00</time>
        <ele>2389.0</ele>
      </trkpt>
      <trkpt lat="46.89532" lon="10.25632">
        <time>2022-03-11T07:48:00+00:00</time>
        <ele>2390.0</ele>
      </trkpt>
      <trkpt lat="46.89531" lon="10.25631">
        <time>2022-03-11T07:48:01+00:00</time>
        <ele>2390.0</ele>
      </trkpt>
      <trkpt lat="46.89528" lon="10.2563">
        <time>2022-03-11T07:48:05+00:00</time>
        <ele>2391.0</ele>
      </trkpt>
      <trkpt lat="46.89525" lon="10.25629">
        <time>2022-03-11T07:48:11+00:00</time>
        <ele>2392.0</ele>
      </trkpt>
      <trkpt lat="46.89523" lon="10.25629">
        <time>2022-03-11T07:48:13+00:00</time>
        <ele>2392.0</ele>
      </trkpt>
      <trkpt lat="46.89522" lon="10.25628">
        <time>2022-03-11T07:48:15+00:00</time>
        <ele>2392.0</ele>
      </trkpt>
      <trkpt lat="46.89519" lon="10.25627">
        <time>2022-03-11T07:48:20+00:00</time>
        <ele>2393.0</ele>
      </trkpt>
      <trkpt lat="46.89519" lon="10.25628">
        <time>2022-03-11T07:48:21+00:00</time>
        <ele>2393.0</ele>
      </trkpt>
      <trkpt lat="46.89516" lon="10.25628">
        <time>2022-03-11T07:48:26+00:00</time>
        <ele>2393.0</ele>
      </trkpt>
      <trkpt lat="46.89514" lon="10.25627">
        <time>2022-03-11T07:48:30+00:00</time>
        <ele>2394.0</ele>
      </trkpt>
      <trkpt lat="46.89513" lon="10.25627">
        <time>2022-03-11T07:48:32+00:00</time>
        <ele>2394.0</ele>
      </trkpt>
      <trkpt lat="46.89507" lon="10.25623">
        <time>2022-03-11T07:48:41+00:00</time>
        <ele>2396.0</ele>
      </trkpt>
      <trkpt lat="46.89505" lon="10.25622">
        <time>2022-03-11T07:48:44+00:00</time>
        <ele>2397.0</ele>
      </trkpt>
      <trkpt lat="46.89504" lon="10.25621">
        <time>2022-03-11T07:48:46+00:00</time>
        <ele>2397.0</ele>
      </trkpt>
      <trkpt lat="46.895" lon="10.25619">
        <time>2022-03-11T07:48:54+00:00</time>
        <ele>2398.0</ele>
      </trkpt>
      <trkpt lat="46.89498" lon="10.25618">
        <time>2022-03-11T07:48:57+00:00</time>
        <ele>2399.0</ele>
      </trkpt>
      <trkpt lat="46.89498" lon="10.25618">
        <time>2022-03-11T07:48:58+00:00</time>
        <ele>2399.0</ele>
      </trkpt>
      <trkpt lat="46.89493" lon="10.25616">
        <time>2022-03-11T07:49:06+00:00</time>
        <ele>2400.0</ele>
      </trkpt>
      <trkpt lat="46.8949" lon="10.25614">
        <time>2022-03-11T07:49:13+00:00</time>
        <ele>2400.0</ele>
      </trkpt>
      <trkpt lat="46.89489" lon="10.25614">
        <time>2022-03-11T07:49:18+00:00</time>
        <ele>2400.0</ele>
      </trkpt>
      <trkpt lat="46.89487" lon="10.25611">
        <time>2022-03-11T07:49:22+00:00</time>
        <ele>2401.0</ele>
      </trkpt>
      <trkpt lat="46.89485" lon="10.2561">
        <time>2022-03-11T07:49:26+00:00</time>
        <ele>2401.0</ele>
      </trkpt>
      <trkpt lat="46.8948" lon="10.25607">
        <time>2022-03-11T07:49:34+00:00</time>
        <ele>2402.0</ele>
      </trkpt>
      <trkpt lat="46.89479" lon="10.25607">
        <time>2022-03-11T07:49:35+00:00</time>
        <ele>2402.0</ele>
      </trkpt>
      <trkpt lat="46.89477" lon="10.25604">
        <time>2022-03-11T07:49:39+00:00</time>
        <ele>2403.0</ele>
      </trkpt>
      <trkpt lat="46.89475" lon="10.25603">
        <time>2022-03-11T07:49:43+00:00</time>
        <ele>2403.0</ele>
      </trkpt>
      <trkpt lat="46.89472" lon="10.25601">
        <time>2022-03-11T07:49:47+00:00</time>
        <ele>2404.0</ele>
      </trkpt>
      <trkpt lat="46.89469" lon="10.25597">
        <time>2022-03-11T07:49:53+00:00</time>
        <ele>2405.0</ele>
      </trkpt>
      <trkpt lat="46.89469" lon="10.25597">
        <time>2022-03-11T07:49:55+00:00</time>
        <ele>2405.0</ele>
      </trkpt>
      <trkpt lat="46.89464" lon="10.25594">
        <time>2022-03-11T07:50:05+00:00</time>
        <ele>2405.0</ele>
      </trkpt>
      <trkpt lat="46.89457" lon="10.25591">
        <time>2022-03-11T07:50:15+00:00</time>
        <ele>2407.0</ele>
      </trkpt>
      <trkpt lat="46.89454" lon="10.25591">
        <time>2022-03-11T07:50:20+00:00</time>
        <ele>2407.0</ele>
      </trkpt>
      <trkpt lat="46.89452" lon="10.25591">
        <time>2022-03-11T07:50:25+00:00</time>
        <ele>2407.0</ele>
      </trkpt>
      <trkpt lat="46.89451" lon="10.25591">
        <time>2022-03-11T07:50:26+00:00</time>
        <ele>2407.0</ele>
      </trkpt>
      <trkpt lat="46.89448" lon="10.25591">
        <time>2022-03-11T07:50:33+00:00</time>
        <ele>2407.0</ele>
      </trkpt>
      <trkpt lat="46.89447" lon="10.2559">
        <time>2022-03-11T07:50:35+00:00</time>
        <ele>2408.0</ele>
      </trkpt>
      <trkpt lat="46.89441" lon="10.25588">
        <time>2022-03-11T07:50:41+00:00</time>
        <ele>2408.0</ele>
      </trkpt>
      <trkpt lat="46.89439" lon="10.25587">
        <time>2022-03-11T07:50:43+00:00</time>
        <ele>2409.0</ele>
      </trkpt>
      <trkpt lat="46.89438" lon="10.25586">
        <time>2022-03-11T07:50:46+00:00</time>
        <ele>2409.0</ele>
      </trkpt>
      <trkpt lat="46.89435" lon="10.25585">
        <time>2022-03-11T07:50:49+00:00</time>
        <ele>2409.0</ele>
      </trkpt>
      <trkpt lat="46.89434" lon="10.25584">
        <time>2022-03-11T07:50:50+00:00</time>
        <ele>2409.0</ele>
      </trkpt>
      <trkpt lat="46.89434" lon="10.25584">
        <time>2022-03-11T07:50:51+00:00</time>
        <ele>2409.0</ele>
      </trkpt>
      <trkpt lat="46.89434" lon="10.25584">
        <time>2022-03-11T07:50:52+00:00</time>
        <ele>2409.0</ele>
      </trkpt>
      <trkpt lat="46.89431" lon="10.25584">
        <time>2022-03-11T07:50:56+00:00</time>
        <ele>2409.0</ele>
      </trkpt>
      <trkpt lat="46.89426" lon="10.25582">
        <time>2022-03-11T07:51:03+00:00</time>
        <ele>2410.0</ele>
      </trkpt>
      <trkpt lat="46.89422" lon="10.2558">
        <time>2022-03-11T07:51:07+00:00</time>
        <ele>2410.0</ele>
      </trkpt>
      <trkpt lat="46.89418" lon="10.25579">
        <time>2022-03-11T07:51:13+00:00</time>
        <ele>2411.0</ele>
      </trkpt>
      <trkpt lat="46.89415" lon="10.25577">
        <time>2022-03-11T07:51:18+00:00</time>
        <ele>2411.0</ele>
      </trkpt>
      <trkpt lat="46.89411" lon="10.25574">
        <time>2022-03-11T07:51:24+00:00</time>
        <ele>2411.0</ele>
      </trkpt>
      <trkpt lat="46.89407" lon="10.25572">
        <time>2022-03-11T07:51:29+00:00</time>
        <ele>2412.0</ele>
      </trkpt>
      <trkpt lat="46.89403" lon="10.25571">
        <time>2022-03-11T07:51:34+00:00</time>
        <ele>2412.0</ele>
      </trkpt>
      <trkpt lat="46.89401" lon="10.2557">
        <time>2022-03-11T07:51:37+00:00</time>
        <ele>2412.0</ele>
      </trkpt>
      <trkpt lat="46.89393" lon="10.25565">
        <time>2022-03-11T07:51:48+00:00</time>
        <ele>2413.0</ele>
      </trkpt>
      <trkpt lat="46.89386" lon="10.25562">
        <time>2022-03-11T07:51:56+00:00</time>
        <ele>2414.0</ele>
      </trkpt>
      <trkpt lat="46.89382" lon="10.25557">
        <time>2022-03-11T07:52:04+00:00</time>
        <ele>2415.0</ele>
      </trkpt>
      <trkpt lat="46.89379" lon="10.25554">
        <time>2022-03-11T07:52:09+00:00</time>
        <ele>2416.0</ele>
      </trkpt>
      <trkpt lat="46.89378" lon="10.25554">
        <time>2022-03-11T07:52:11+00:00</time>
        <ele>2416.0</ele>
      </trkpt>
      <trkpt lat="46.89376" lon="10.25552">
        <time>2022-03-11T07:52:14+00:00</time>
        <ele>2416.0</ele>
      </trkpt>
      <trkpt lat="46.89376" lon="10.25552">
        <time>2022-03-11T07:52:15+00:00</time>
        <ele>2416.0</ele>
      </trkpt>
      <trkpt lat="46.89375" lon="10.25551">
        <time>2022-03-11T07:52:16+00:00</time>
        <ele>2416.0</ele>
      </trkpt>
      <trkpt lat="46.89368" lon="10.25547">
        <time>2022-03-11T07:52:27+00:00</time>
        <ele>2417.0</ele>
      </trkpt>
      <trkpt lat="46.89367" lon="10.25547">
        <time>2022-03-11T07:52:28+00:00</time>
        <ele>2417.0</ele>
      </trkpt>
      <trkpt lat="46.89361" lon="10.25544">
        <time>2022-03-11T07:52:37+00:00</time>
        <ele>2418.0</ele>
      </trkpt>
      <trkpt lat="46.8936" lon="10.25542">
        <time>2022-03-11T07:52:40+00:00</time>
        <ele>2418.0</ele>
      </trkpt>
      <trkpt lat="46.89358" lon="10.2554">
        <time>2022-03-11T07:52:44+00:00</time>
        <ele>2419.0</ele>
      </trkpt>
      <trkpt lat="46.89356" lon="10.25538">
        <time>2022-03-11T07:52:48+00:00</time>
        <ele>2419.0</ele>
      </trkpt>
      <trkpt lat="46.89351" lon="10.25535">
        <time>2022-03-11T07:52:54+00:00</time>
        <ele>2420.0</ele>
      </trkpt>
      <trkpt lat="46.89344" lon="10.25532">
        <time>2022-03-11T07:53:03+00:00</time>
        <ele>2421.0</ele>
      </trkpt>
      <trkpt lat="46.89341" lon="10.25532">
        <time>2022-03-11T07:53:08+00:00</time>
        <ele>2421.0</ele>
      </trkpt>
      <trkpt lat="46.89337" lon="10.2553">
        <time>2022-03-11T07:53:13+00:00</time>
        <ele>2422.0</ele>
      </trkpt>
      <trkpt lat="46.89336" lon="10.25529">
        <time>2022-03-11T07:53:15+00:00</time>
        <ele>2422.0</ele>
      </trkpt>
      <trkpt lat="46.89331" lon="10.25528">
        <time>2022-03-11T07:53:22+00:00</time>
        <ele>2423.0</ele>
      </trkpt>
      <trkpt lat="46.89325" lon="10.25526">
        <time>2022-03-11T07:53:31+00:00</time>
        <ele>2424.0</ele>
      </trkpt>
      <trkpt lat="46.89324" lon="10.25525">
        <time>2022-03-11T07:53:32+00:00</time>
        <ele>2425.0</ele>
      </trkpt>
      <trkpt lat="46.89322" lon="10.25524">
        <time>2022-03-11T07:53:36+00:00</time>
        <ele>2425.0</ele>
      </trkpt>
      <trkpt lat="46.89318" lon="10.25524">
        <time>2022-03-11T07:53:43+00:00</time>
        <ele>2426.0</ele>
      </trkpt>
      <trkpt lat="46.89317" lon="10.25524">
        <time>2022-03-11T07:53:44+00:00</time>
        <ele>2426.0</ele>
      </trkpt>
      <trkpt lat="46.8931" lon="10.25522">
        <time>2022-03-11T07:53:51+00:00</time>
        <ele>2427.0</ele>
      </trkpt>
      <trkpt lat="46.89305" lon="10.25521">
        <time>2022-03-11T07:53:58+00:00</time>
        <ele>2428.0</ele>
      </trkpt>
      <trkpt lat="46.89304" lon="10.2552">
        <time>2022-03-11T07:53:59+00:00</time>
        <ele>2429.0</ele>
      </trkpt>
      <trkpt lat="46.89299" lon="10.25519">
        <time>2022-03-11T07:54:05+00:00</time>
        <ele>2429.0</ele>
      </trkpt>
      <trkpt lat="46.89289" lon="10.25514">
        <time>2022-03-11T07:54:13+00:00</time>
        <ele>2431.0</ele>
      </trkpt>
      <trkpt lat="46.89286" lon="10.25513">
        <time>2022-03-11T07:54:16+00:00</time>
        <ele>2432.0</ele>
      </trkpt>
      <trkpt lat="46.89284" lon="10.25515">
        <time>2022-03-11T07:54:20+00:00</time>
        <ele>2432.0</ele>
      </trkpt>
      <trkpt lat="46.89283" lon="10.25516">
        <time>2022-03-11T07:54:22+00:00</time>
        <ele>2432.0</ele>
      </trkpt>
      <trkpt lat="46.89278" lon="10.25517">
        <time>2022-03-11T07:54:29+00:00</time>
        <ele>2433.0</ele>
      </trkpt>
      <trkpt lat="46.89275" lon="10.25521">
        <time>2022-03-11T07:54:36+00:00</time>
        <ele>2433.0</ele>
      </trkpt>
      <trkpt lat="46.89275" lon="10.25521">
        <time>2022-03-11T07:54:38+00:00</time>
        <ele>2433.0</ele>
      </trkpt>
      <trkpt lat="46.89274" lon="10.25522">
        <time>2022-03-11T07:54:41+00:00</time>
        <ele>2433.0</ele>
      </trkpt>
      <trkpt lat="46.89273" lon="10.25522">
        <time>2022-03-11T07:54:42+00:00</time>
        <ele>2433.0</ele>
      </trkpt>
      <trkpt lat="46.8927" lon="10.25522">
        <time>2022-03-11T07:54:47+00:00</time>
        <ele>2434.0</ele>
      </trkpt>
      <trkpt lat="46.89268" lon="10.25523">
        <time>2022-03-11T07:54:50+00:00</time>
        <ele>2434.0</ele>
      </trkpt>
      <trkpt lat="46.89266" lon="10.25524">
        <time>2022-03-11T07:54:57+00:00</time>
        <ele>2435.0</ele>
      </trkpt>
      <trkpt lat="46.89265" lon="10.25522">
        <time>2022-03-11T07:55:07+00:00</time>
        <ele>2435.0</ele>
      </trkpt>
      <trkpt lat="46.89266" lon="10.25517">
        <time>2022-03-11T07:55:14+00:00</time>
        <ele>2436.0</ele>
      </trkpt>
      <trkpt lat="46.89266" lon="10.25515">
        <time>2022-03-11T07:55:16+00:00</time>
        <ele>2437.0</ele>
      </trkpt>
      <trkpt lat="46.89266" lon="10.25515">
        <time>2022-03-11T07:55:17+00:00</time>
        <ele>2437.0</ele>
      </trkpt>
      <trkpt lat="46.89267" lon="10.2551">
        <time>2022-03-11T07:55:24+00:00</time>
        <ele>2437.0</ele>
      </trkpt>
      <trkpt lat="46.89268" lon="10.25507">
        <time>2022-03-11T07:55:28+00:00</time>
        <ele>2438.0</ele>
      </trkpt>
      <trkpt lat="46.89269" lon="10.25503">
        <time>2022-03-11T07:55:34+00:00</time>
        <ele>2438.0</ele>
      </trkpt>
      <trkpt lat="46.89269" lon="10.255">
        <time>2022-03-11T07:55:37+00:00</time>
        <ele>2439.0</ele>
      </trkpt>
      <trkpt lat="46.89271" lon="10.25496">
        <time>2022-03-11T07:55:43+00:00</time>
        <ele>2439.0</ele>
      </trkpt>
      <trkpt lat="46.89271" lon="10.25495">
        <time>2022-03-11T07:55:44+00:00</time>
        <ele>2439.0</ele>
      </trkpt>
      <trkpt lat="46.8927" lon="10.2549">
        <time>2022-03-11T07:55:51+00:00</time>
        <ele>2440.0</ele>
      </trkpt>
      <trkpt lat="46.8927" lon="10.25487">
        <time>2022-03-11T07:55:55+00:00</time>
        <ele>2441.0</ele>
      </trkpt>
      <trkpt lat="46.89269" lon="10.25485">
        <time>2022-03-11T07:56:00+00:00</time>
        <ele>2441.0</ele>
      </trkpt>
      <trkpt lat="46.89268" lon="10.25483">
        <time>2022-03-11T07:56:02+00:00</time>
        <ele>2442.0</ele>
      </trkpt>
      <trkpt lat="46.89269" lon="10.25478">
        <time>2022-03-11T07:56:10+00:00</time>
        <ele>2443.0</ele>
      </trkpt>
      <trkpt lat="46.89268" lon="10.25476">
        <time>2022-03-11T07:56:12+00:00</time>
        <ele>2444.0</ele>
      </trkpt>
      <trkpt lat="46.89267" lon="10.25472">
        <time>2022-03-11T07:56:17+00:00</time>
        <ele>2445.0</ele>
      </trkpt>
      <trkpt lat="46.89266" lon="10.2547">
        <time>2022-03-11T07:56:20+00:00</time>
        <ele>2446.0</ele>
      </trkpt>
      <trkpt lat="46.89264" lon="10.25464">
        <time>2022-03-11T07:56:28+00:00</time>
        <ele>2448.0</ele>
      </trkpt>
      <trkpt lat="46.89265" lon="10.25463">
        <time>2022-03-11T07:56:29+00:00</time>
        <ele>2448.0</ele>
      </trkpt>
      <trkpt lat="46.89265" lon="10.25459">
        <time>2022-03-11T07:56:34+00:00</time>
        <ele>2449.0</ele>
      </trkpt>
      <trkpt lat="46.89262" lon="10.25455">
        <time>2022-03-11T07:56:40+00:00</time>
        <ele>2450.0</ele>
      </trkpt>
      <trkpt lat="46.89261" lon="10.2545">
        <time>2022-03-11T07:56:49+00:00</time>
        <ele>2452.0</ele>
      </trkpt>
      <trkpt lat="46.8926" lon="10.2545">
        <time>2022-03-11T07:56:50+00:00</time>
        <ele>2452.0</ele>
      </trkpt>
      <trkpt lat="46.89259" lon="10.25448">
        <time>2022-03-11T07:56:56+00:00</time>
        <ele>2453.0</ele>
      </trkpt>
      <trkpt lat="46.89257" lon="10.25448">
        <time>2022-03-11T07:57:01+00:00</time>
        <ele>2453.0</ele>
      </trkpt>
      <trkpt lat="46.89257" lon="10.25447">
        <time>2022-03-11T07:57:03+00:00</time>
        <ele>2454.0</ele>
      </trkpt>
      <trkpt lat="46.89256" lon="10.25447">
        <time>2022-03-11T07:57:04+00:00</time>
        <ele>2454.0</ele>
      </trkpt>
      <trkpt lat="46.89255" lon="10.25444">
        <time>2022-03-11T07:57:09+00:00</time>
        <ele>2455.0</ele>
      </trkpt>
      <trkpt lat="46.89254" lon="10.25438">
        <time>2022-03-11T07:57:16+00:00</time>
        <ele>2456.0</ele>
      </trkpt>
      <trkpt lat="46.89253" lon="10.25436">
        <time>2022-03-11T07:57:19+00:00</time>
        <ele>2457.0</ele>
      </trkpt>
      <trkpt lat="46.89251" lon="10.25434">
        <time>2022-03-11T07:57:27+00:00</time>
        <ele>2458.0</ele>
      </trkpt>
      <trkpt lat="46.89246" lon="10.25432">
        <time>2022-03-11T07:57:35+00:00</time>
        <ele>2459.0</ele>
      </trkpt>
      <trkpt lat="46.89245" lon="10.25432">
        <time>2022-03-11T07:57:36+00:00</time>
        <ele>2459.0</ele>
      </trkpt>
      <trkpt lat="46.89242" lon="10.25433">
        <time>2022-03-11T07:57:43+00:00</time>
        <ele>2460.0</ele>
      </trkpt>
      <trkpt lat="46.89242" lon="10.25432">
        <time>2022-03-11T07:57:44+00:00</time>
        <ele>2460.0</ele>
      </trkpt>
      <trkpt lat="46.89239" lon="10.25432">
        <time>2022-03-11T07:57:49+00:00</time>
        <ele>2461.0</ele>
      </trkpt>
      <trkpt lat="46.89237" lon="10.25432">
        <time>2022-03-11T07:57:51+00:00</time>
        <ele>2461.0</ele>
      </trkpt>
      <trkpt lat="46.89237" lon="10.25432">
        <time>2022-03-11T07:57:52+00:00</time>
        <ele>2461.0</ele>
      </trkpt>
      <trkpt lat="46.89232" lon="10.2543">
        <time>2022-03-11T07:57:59+00:00</time>
        <ele>2463.0</ele>
      </trkpt>
      <trkpt lat="46.89229" lon="10.2543">
        <time>2022-03-11T07:58:04+00:00</time>
        <ele>2463.0</ele>
      </trkpt>
      <trkpt lat="46.89228" lon="10.2543">
        <time>2022-03-11T07:58:06+00:00</time>
        <ele>2464.0</ele>
      </trkpt>
      <trkpt lat="46.89221" lon="10.25428">
        <time>2022-03-11T07:58:16+00:00</time>
        <ele>2466.0</ele>
      </trkpt>
      <trkpt lat="46.8922" lon="10.25429">
        <time>2022-03-11T07:58:18+00:00</time>
        <ele>2466.0</ele>
      </trkpt>
      <trkpt lat="46.89215" lon="10.25428">
        <time>2022-03-11T07:58:27+00:00</time>
        <ele>2467.0</ele>
      </trkpt>
      <trkpt lat="46.8921" lon="10.25427">
        <time>2022-03-11T07:58:36+00:00</time>
        <ele>2468.0</ele>
      </trkpt>
      <trkpt lat="46.89209" lon="10.25428">
        <time>2022-03-11T07:58:38+00:00</time>
        <ele>2468.0</ele>
      </trkpt>
      <trkpt lat="46.89207" lon="10.25428">
        <time>2022-03-11T07:58:41+00:00</time>
        <ele>2468.0</ele>
      </trkpt>
      <trkpt lat="46.89204" lon="10.25428">
        <time>2022-03-11T07:58:48+00:00</time>
        <ele>2469.0</ele>
      </trkpt>
      <trkpt lat="46.892" lon="10.25428">
        <time>2022-03-11T07:58:54+00:00</time>
        <ele>2469.0</ele>
      </trkpt>
      <trkpt lat="46.89196" lon="10.25426">
        <time>2022-03-11T07:59:00+00:00</time>
        <ele>2470.0</ele>
      </trkpt>
      <trkpt lat="46.89194" lon="10.25426">
        <time>2022-03-11T07:59:09+00:00</time>
        <ele>2470.0</ele>
      </trkpt>
      <trkpt lat="46.89191" lon="10.25426">
        <time>2022-03-11T07:59:17+00:00</time>
        <ele>2471.0</ele>
      </trkpt>
      <trkpt lat="46.89189" lon="10.25424">
        <time>2022-03-11T07:59:19+00:00</time>
        <ele>2471.0</ele>
      </trkpt>
      <trkpt lat="46.89187" lon="10.25423">
        <time>2022-03-11T07:59:21+00:00</time>
        <ele>2472.0</ele>
      </trkpt>
      <trkpt lat="46.8918" lon="10.2542">
        <time>2022-03-11T07:59:28+00:00</time>
        <ele>2473.0</ele>
      </trkpt>
      <trkpt lat="46.89178" lon="10.25419">
        <time>2022-03-11T07:59:34+00:00</time>
        <ele>2473.0</ele>
      </trkpt>
      <trkpt lat="46.89177" lon="10.25419">
        <time>2022-03-11T07:59:37+00:00</time>
        <ele>2473.0</ele>
      </trkpt>
      <trkpt lat="46.89172" lon="10.25416">
        <time>2022-03-11T07:59:46+00:00</time>
        <ele>2474.0</ele>
      </trkpt>
      <trkpt lat="46.89165" lon="10.25412">
        <time>2022-03-11T07:59:58+00:00</time>
        <ele>2475.0</ele>
      </trkpt>
      <trkpt lat="46.89161" lon="10.2541">
        <time>2022-03-11T08:00:05+00:00</time>
        <ele>2476.0</ele>
      </trkpt>
      <trkpt lat="46.89159" lon="10.2541">
        <time>2022-03-11T08:00:08+00:00</time>
        <ele>2476.0</ele>
      </trkpt>
      <trkpt lat="46.89153" lon="10.25409">
        <time>2022-03-11T08:00:18+00:00</time>
        <ele>2478.0</ele>
      </trkpt>
      <trkpt lat="46.89152" lon="10.25409">
        <time>2022-03-11T08:00:20+00:00</time>
        <ele>2478.0</ele>
      </trkpt>
      <trkpt lat="46.89148" lon="10.25407">
        <time>2022-03-11T08:00:28+00:00</time>
        <ele>2479.0</ele>
      </trkpt>
      <trkpt lat="46.89145" lon="10.25406">
        <time>2022-03-11T08:00:32+00:00</time>
        <ele>2479.0</ele>
      </trkpt>
      <trkpt lat="46.89143" lon="10.25405">
        <time>2022-03-11T08:00:36+00:00</time>
        <ele>2480.0</ele>
      </trkpt>
      <trkpt lat="46.89139" lon="10.25403">
        <time>2022-03-11T08:00:42+00:00</time>
        <ele>2480.0</ele>
      </trkpt>
      <trkpt lat="46.89137" lon="10.25402">
        <time>2022-03-11T08:00:46+00:00</time>
        <ele>2480.0</ele>
      </trkpt>
      <trkpt lat="46.89135" lon="10.25402">
        <time>2022-03-11T08:00:51+00:00</time>
        <ele>2481.0</ele>
      </trkpt>
      <trkpt lat="46.89129" lon="10.254">
        <time>2022-03-11T08:01:00+00:00</time>
        <ele>2482.0</ele>
      </trkpt>
      <trkpt lat="46.89128" lon="10.254">
        <time>2022-03-11T08:01:02+00:00</time>
        <ele>2482.0</ele>
      </trkpt>
      <trkpt lat="46.89124" lon="10.25399">
        <time>2022-03-11T08:01:08+00:00</time>
        <ele>2482.0</ele>
      </trkpt>
      <trkpt lat="46.89122" lon="10.25398">
        <time>2022-03-11T08:01:12+00:00</time>
        <ele>2483.0</ele>
      </trkpt>
      <trkpt lat="46.89121" lon="10.25398">
        <time>2022-03-11T08:01:13+00:00</time>
        <ele>2483.0</ele>
      </trkpt>
      <trkpt lat="46.89113" lon="10.25396">
        <time>2022-03-11T08:01:26+00:00</time>
        <ele>2484.0</ele>
      </trkpt>
      <trkpt lat="46.89112" lon="10.25396">
        <time>2022-03-11T08:01:28+00:00</time>
        <ele>2485.0</ele>
      </trkpt>
      <trkpt lat="46.89108" lon="10.25395">
        <time>2022-03-11T08:01:34+00:00</time>
        <ele>2485.0</ele>
      </trkpt>
      <trkpt lat="46.89105" lon="10.25395">
        <time>2022-03-11T08:01:39+00:00</time>
        <ele>2486.0</ele>
      </trkpt>
      <trkpt lat="46.89101" lon="10.25395">
        <time>2022-03-11T08:01:46+00:00</time>
        <ele>2487.0</ele>
      </trkpt>
      <trkpt lat="46.89096" lon="10.25395">
        <time>2022-03-11T08:01:54+00:00</time>
        <ele>2488.0</ele>
      </trkpt>
      <trkpt lat="46.89093" lon="10.25394">
        <time>2022-03-11T08:01:58+00:00</time>
        <ele>2488.0</ele>
      </trkpt>
      <trkpt lat="46.89092" lon="10.25393">
        <time>2022-03-11T08:02:00+00:00</time>
        <ele>2489.0</ele>
      </trkpt>
      <trkpt lat="46.89091" lon="10.25393">
        <time>2022-03-11T08:02:02+00:00</time>
        <ele>2489.0</ele>
      </trkpt>
      <trkpt lat="46.8909" lon="10.25393">
        <time>2022-03-11T08:02:04+00:00</time>
        <ele>2489.0</ele>
      </trkpt>
      <trkpt lat="46.89089" lon="10.25392">
        <time>2022-03-11T08:02:06+00:00</time>
        <ele>2489.0</ele>
      </trkpt>
      <trkpt lat="46.89087" lon="10.25392">
        <time>2022-03-11T08:02:09+00:00</time>
        <ele>2490.0</ele>
      </trkpt>
      <trkpt lat="46.89086" lon="10.25392">
        <time>2022-03-11T08:02:12+00:00</time>
        <ele>2490.0</ele>
      </trkpt>
      <trkpt lat="46.89085" lon="10.25392">
        <time>2022-03-11T08:02:14+00:00</time>
        <ele>2490.0</ele>
      </trkpt>
      <trkpt lat="46.89082" lon="10.2539">
        <time>2022-03-11T08:02:19+00:00</time>
        <ele>2491.0</ele>
      </trkpt>
      <trkpt lat="46.8908" lon="10.25389">
        <time>2022-03-11T08:02:22+00:00</time>
        <ele>2491.0</ele>
      </trkpt>
      <trkpt lat="46.89075" lon="10.25388">
        <time>2022-03-11T08:02:29+00:00</time>
        <ele>2492.0</ele>
      </trkpt>
      <trkpt lat="46.89072" lon="10.25387">
        <time>2022-03-11T08:02:33+00:00</time>
        <ele>2493.0</ele>
      </trkpt>
      <trkpt lat="46.89072" lon="10.25387">
        <time>2022-03-11T08:02:34+00:00</time>
        <ele>2493.0</ele>
      </trkpt>
      <trkpt lat="46.89066" lon="10.25385">
        <time>2022-03-11T08:02:43+00:00</time>
        <ele>2494.0</ele>
      </trkpt>
      <trkpt lat="46.8906" lon="10.25383">
        <time>2022-03-11T08:02:53+00:00</time>
        <ele>2496.0</ele>
      </trkpt>
      <trkpt lat="46.89058" lon="10.25382">
        <time>2022-03-11T08:02:57+00:00</time>
        <ele>2497.0</ele>
      </trkpt>
      <trkpt lat="46.8905" lon="10.2538">
        <time>2022-03-11T08:03:09+00:00</time>
        <ele>2499.0</ele>
      </trkpt>
      <trkpt lat="46.8905" lon="10.2538">
        <time>2022-03-11T08:03:10+00:00</time>
        <ele>2499.0</ele>
      </trkpt>
      <trkpt lat="46.89047" lon="10.25379">
        <time>2022-03-11T08:03:15+00:00</time>
        <ele>2499.0</ele>
      </trkpt>
      <trkpt lat="46.89046" lon="10.25379">
        <time>2022-03-11T08:03:17+00:00</time>
        <ele>2500.0</ele>
      </trkpt>
      <trkpt lat="46.89041" lon="10.25377">
        <time>2022-03-11T08:03:27+00:00</time>
        <ele>2501.0</ele>
      </trkpt>
      <trkpt lat="46.8904" lon="10.25376">
        <time>2022-03-11T08:03:28+00:00</time>
        <ele>2501.0</ele>
      </trkpt>
      <trkpt lat="46.89032" lon="10.25374">
        <time>2022-03-11T08:03:40+00:00</time>
        <ele>2503.0</ele>
      </trkpt>
      <trkpt lat="46.89027" lon="10.25372">
        <time>2022-03-11T08:03:49+00:00</time>
        <ele>2505.0</ele>
      </trkpt>
      <trkpt lat="46.89027" lon="10.25372">
        <time>2022-03-11T08:03:50+00:00</time>
        <ele>2505.0</ele>
      </trkpt>
      <trkpt lat="46.89022" lon="10.25369">
        <time>2022-03-11T08:03:59+00:00</time>
        <ele>2507.0</ele>
      </trkpt>
      <trkpt lat="46.8902" lon="10.25369">
        <time>2022-03-11T08:04:02+00:00</time>
        <ele>2507.0</ele>
      </trkpt>
      <trkpt lat="46.89016" lon="10.25367">
        <time>2022-03-11T08:04:11+00:00</time>
        <ele>2509.0</ele>
      </trkpt>
      <trkpt lat="46.89015" lon="10.25367">
        <time>2022-03-11T08:04:13+00:00</time>
        <ele>2509.0</ele>
      </trkpt>
      <trkpt lat="46.89011" lon="10.25365">
        <time>2022-03-11T08:04:19+00:00</time>
        <ele>2510.0</ele>
      </trkpt>
      <trkpt lat="46.89008" lon="10.25364">
        <time>2022-03-11T08:04:23+00:00</time>
        <ele>2511.0</ele>
      </trkpt>
      <trkpt lat="46.89007" lon="10.25363">
        <time>2022-03-11T08:04:24+00:00</time>
        <ele>2511.0</ele>
      </trkpt>
      <trkpt lat="46.89005" lon="10.25361">
        <time>2022-03-11T08:04:28+00:00</time>
        <ele>2512.0</ele>
      </trkpt>
      <trkpt lat="46.89004" lon="10.25361">
        <time>2022-03-11T08:04:30+00:00</time>
        <ele>2512.0</ele>
      </trkpt>
      <trkpt lat="46.89" lon="10.25359">
        <time>2022-03-11T08:04:36+00:00</time>
        <ele>2513.0</ele>
      </trkpt>
      <trkpt lat="46.88998" lon="10.25358">
        <time>2022-03-11T08:04:39+00:00</time>
        <ele>2514.0</ele>
      </trkpt>
      <trkpt lat="46.88997" lon="10.25357">
        <time>2022-03-11T08:04:41+00:00</time>
        <ele>2514.0</ele>
      </trkpt>
      <trkpt lat="46.88994" lon="10.25355">
        <time>2022-03-11T08:04:47+00:00</time>
        <ele>2515.0</ele>
      </trkpt>
      <trkpt lat="46.88991" lon="10.25351">
        <time>2022-03-11T08:04:55+00:00</time>
        <ele>2515.0</ele>
      </trkpt>
      <trkpt lat="46.88989" lon="10.2535">
        <time>2022-03-11T08:04:58+00:00</time>
        <ele>2515.0</ele>
      </trkpt>
      <trkpt lat="46.88989" lon="10.2535">
        <time>2022-03-11T08:04:59+00:00</time>
        <ele>2515.0</ele>
      </trkpt>
      <trkpt lat="46.88988" lon="10.25349">
        <time>2022-03-11T08:05:02+00:00</time>
        <ele>2515.0</ele>
      </trkpt>
      <trkpt lat="46.88986" lon="10.25348">
        <time>2022-03-11T08:05:06+00:00</time>
        <ele>2516.0</ele>
      </trkpt>
      <trkpt lat="46.88982" lon="10.25346">
        <time>2022-03-11T08:05:12+00:00</time>
        <ele>2516.0</ele>
      </trkpt>
      <trkpt lat="46.88981" lon="10.25345">
        <time>2022-03-11T08:05:14+00:00</time>
        <ele>2516.0</ele>
      </trkpt>
      <trkpt lat="46.88977" lon="10.25342">
        <time>2022-03-11T08:05:20+00:00</time>
        <ele>2517.0</ele>
      </trkpt>
      <trkpt lat="46.88977" lon="10.25342">
        <time>2022-03-11T08:05:21+00:00</time>
        <ele>2517.0</ele>
      </trkpt>
      <trkpt lat="46.88975" lon="10.25341">
        <time>2022-03-11T08:05:25+00:00</time>
        <ele>2517.0</ele>
      </trkpt>
      <trkpt lat="46.88969" lon="10.25337">
        <time>2022-03-11T08:05:34+00:00</time>
        <ele>2518.0</ele>
      </trkpt>
      <trkpt lat="46.88968" lon="10.25336">
        <time>2022-03-11T08:05:36+00:00</time>
        <ele>2518.0</ele>
      </trkpt>
      <trkpt lat="46.88964" lon="10.25333">
        <time>2022-03-11T08:05:41+00:00</time>
        <ele>2518.0</ele>
      </trkpt>
      <trkpt lat="46.88963" lon="10.25333">
        <time>2022-03-11T08:05:42+00:00</time>
        <ele>2518.0</ele>
      </trkpt>
      <trkpt lat="46.88959" lon="10.25331">
        <time>2022-03-11T08:05:48+00:00</time>
        <ele>2519.0</ele>
      </trkpt>
      <trkpt lat="46.88959" lon="10.2533">
        <time>2022-03-11T08:05:49+00:00</time>
        <ele>2518.0</ele>
      </trkpt>
      <trkpt lat="46.88959" lon="10.2533">
        <time>2022-03-11T08:05:50+00:00</time>
        <ele>2518.0</ele>
      </trkpt>
      <trkpt lat="46.88955" lon="10.25327">
        <time>2022-03-11T08:05:55+00:00</time>
        <ele>2519.0</ele>
      </trkpt>
      <trkpt lat="46.88949" lon="10.25322">
        <time>2022-03-11T08:06:04+00:00</time>
        <ele>2519.0</ele>
      </trkpt>
      <trkpt lat="46.88944" lon="10.25318">
        <time>2022-03-11T08:06:10+00:00</time>
        <ele>2519.0</ele>
      </trkpt>
      <trkpt lat="46.88943" lon="10.25316">
        <time>2022-03-11T08:06:12+00:00</time>
        <ele>2519.0</ele>
      </trkpt>
      <trkpt lat="46.88943" lon="10.25316">
        <time>2022-03-11T08:06:13+00:00</time>
        <ele>2519.0</ele>
      </trkpt>
      <trkpt lat="46.88936" lon="10.25309">
        <time>2022-03-11T08:06:24+00:00</time>
        <ele>2519.0</ele>
      </trkpt>
      <trkpt lat="46.88927" lon="10.25299">
        <time>2022-03-11T08:06:38+00:00</time>
        <ele>2519.0</ele>
      </trkpt>
      <trkpt lat="46.88926" lon="10.25298">
        <time>2022-03-11T08:06:39+00:00</time>
        <ele>2519.0</ele>
      </trkpt>
      <trkpt lat="46.88919" lon="10.25288">
        <time>2022-03-11T08:06:50+00:00</time>
        <ele>2519.0</ele>
      </trkpt>
      <trkpt lat="46.88911" lon="10.25278">
        <time>2022-03-11T08:07:00+00:00</time>
        <ele>2519.0</ele>
      </trkpt>
      <trkpt lat="46.88908" lon="10.25272">
        <time>2022-03-11T08:07:06+00:00</time>
        <ele>2519.0</ele>
      </trkpt>
      <trkpt lat="46.88902" lon="10.25261">
        <time>2022-03-11T08:07:16+00:00</time>
        <ele>2520.0</ele>
      </trkpt>
      <trkpt lat="46.88902" lon="10.2526">
        <time>2022-03-11T08:07:17+00:00</time>
        <ele>2520.0</ele>
      </trkpt>
      <trkpt lat="46.88896" lon="10.25249">
        <time>2022-03-11T08:07:25+00:00</time>
        <ele>2520.0</ele>
      </trkpt>
      <trkpt lat="46.88891" lon="10.2524">
        <time>2022-03-11T08:07:32+00:00</time>
        <ele>2521.0</ele>
      </trkpt>
      <trkpt lat="46.88889" lon="10.25237">
        <time>2022-03-11T08:07:34+00:00</time>
        <ele>2521.0</ele>
      </trkpt>
      <trkpt lat="46.88883" lon="10.25226">
        <time>2022-03-11T08:07:44+00:00</time>
        <ele>2521.0</ele>
      </trkpt>
      <trkpt lat="46.88876" lon="10.25218">
        <time>2022-03-11T08:07:52+00:00</time>
        <ele>2521.0</ele>
      </trkpt>
      <trkpt lat="46.8887" lon="10.25209">
        <time>2022-03-11T08:08:00+00:00</time>
        <ele>2522.0</ele>
      </trkpt>
      <trkpt lat="46.88867" lon="10.25203">
        <time>2022-03-11T08:08:06+00:00</time>
        <ele>2522.0</ele>
      </trkpt>
      <trkpt lat="46.88864" lon="10.252">
        <time>2022-03-11T08:08:09+00:00</time>
        <ele>2522.0</ele>
      </trkpt>
      <trkpt lat="46.88859" lon="10.25191">
        <time>2022-03-11T08:08:18+00:00</time>
        <ele>2522.0</ele>
      </trkpt>
      <trkpt lat="46.88856" lon="10.25186">
        <time>2022-03-11T08:08:22+00:00</time>
        <ele>2522.0</ele>
      </trkpt>
      <trkpt lat="46.88858" lon="10.25182">
        <time>2022-03-11T08:08:26+00:00</time>
        <ele>2521.0</ele>
      </trkpt>
      <trkpt lat="46.88853" lon="10.25175">
        <time>2022-03-11T08:08:32+00:00</time>
        <ele>2521.0</ele>
      </trkpt>
      <trkpt lat="46.88851" lon="10.25171">
        <time>2022-03-11T08:08:36+00:00</time>
        <ele>2520.0</ele>
      </trkpt>
      <trkpt lat="46.8885" lon="10.2517">
        <time>2022-03-11T08:08:37+00:00</time>
        <ele>2520.0</ele>
      </trkpt>
      <trkpt lat="46.88841" lon="10.25162">
        <time>2022-03-11T08:08:43+00:00</time>
        <ele>2518.0</ele>
      </trkpt>
      <trkpt lat="46.88839" lon="10.25159">
        <time>2022-03-11T08:08:45+00:00</time>
        <ele>2517.0</ele>
      </trkpt>
      <trkpt lat="46.88837" lon="10.25157">
        <time>2022-03-11T08:08:46+00:00</time>
        <ele>2517.0</ele>
      </trkpt>
      <trkpt lat="46.88832" lon="10.25151">
        <time>2022-03-11T08:08:49+00:00</time>
        <ele>2515.0</ele>
      </trkpt>
      <trkpt lat="46.88827" lon="10.25147">
        <time>2022-03-11T08:08:51+00:00</time>
        <ele>2513.0</ele>
      </trkpt>
      <trkpt lat="46.88824" lon="10.25145">
        <time>2022-03-11T08:08:52+00:00</time>
        <ele>2513.0</ele>
      </trkpt>
      <trkpt lat="46.88809" lon="10.25133">
        <time>2022-03-11T08:08:58+00:00</time>
        <ele>2509.0</ele>
      </trkpt>
      <trkpt lat="46.88801" lon="10.25126">
        <time>2022-03-11T08:09:00+00:00</time>
        <ele>2507.0</ele>
      </trkpt>
      <trkpt lat="46.88792" lon="10.25119">
        <time>2022-03-11T08:09:02+00:00</time>
        <ele>2505.0</ele>
      </trkpt>
      <trkpt lat="46.88788" lon="10.25116">
        <time>2022-03-11T08:09:03+00:00</time>
        <ele>2504.0</ele>
      </trkpt>
      <trkpt lat="46.88785" lon="10.25114">
        <time>2022-03-11T08:09:04+00:00</time>
        <ele>2504.0</ele>
      </trkpt>
      <trkpt lat="46.88779" lon="10.2511">
        <time>2022-03-11T08:09:05+00:00</time>
        <ele>2503.0</ele>
      </trkpt>
      <trkpt lat="46.88776" lon="10.25108">
        <time>2022-03-11T08:09:08+00:00</time>
        <ele>2503.0</ele>
      </trkpt>
      <trkpt lat="46.88775" lon="10.25108">
        <time>2022-03-11T08:09:09+00:00</time>
        <ele>2503.0</ele>
      </trkpt>
      <trkpt lat="46.88767" lon="10.25109">
        <time>2022-03-11T08:09:17+00:00</time>
        <ele>2503.0</ele>
      </trkpt>
      <trkpt lat="46.88761" lon="10.25111">
        <time>2022-03-11T08:09:24+00:00</time>
        <ele>2503.0</ele>
      </trkpt>
      <trkpt lat="46.88757" lon="10.25111">
        <time>2022-03-11T08:09:27+00:00</time>
        <ele>2503.0</ele>
      </trkpt>
      <trkpt lat="46.8875" lon="10.25111">
        <time>2022-03-11T08:09:34+00:00</time>
        <ele>2503.0</ele>
      </trkpt>
      <trkpt lat="46.88745" lon="10.2511">
        <time>2022-03-11T08:09:38+00:00</time>
        <ele>2503.0</ele>
      </trkpt>
      <trkpt lat="46.8874" lon="10.2511">
        <time>2022-03-11T08:09:43+00:00</time>
        <ele>2503.0</ele>
      </trkpt>
      <trkpt lat="46.88727" lon="10.25109">
        <time>2022-03-11T08:09:55+00:00</time>
        <ele>2503.0</ele>
      </trkpt>
      <trkpt lat="46.88715" lon="10.25108">
        <time>2022-03-11T08:10:06+00:00</time>
        <ele>2504.0</ele>
      </trkpt>
      <trkpt lat="46.88712" lon="10.25108">
        <time>2022-03-11T08:10:08+00:00</time>
        <ele>2504.0</ele>
      </trkpt>
      <trkpt lat="46.8871" lon="10.25109">
        <time>2022-03-11T08:10:13+00:00</time>
        <ele>2504.0</ele>
      </trkpt>
      <trkpt lat="46.88705" lon="10.2511">
        <time>2022-03-11T08:10:21+00:00</time>
        <ele>2505.0</ele>
      </trkpt>
      <trkpt lat="46.88704" lon="10.2511">
        <time>2022-03-11T08:10:22+00:00</time>
        <ele>2505.0</ele>
      </trkpt>
      <trkpt lat="46.88698" lon="10.25109">
        <time>2022-03-11T08:10:28+00:00</time>
        <ele>2506.0</ele>
      </trkpt>
      <trkpt lat="46.88697" lon="10.25108">
        <time>2022-03-11T08:10:30+00:00</time>
        <ele>2506.0</ele>
      </trkpt>
      <trkpt lat="46.88695" lon="10.25107">
        <time>2022-03-11T08:10:32+00:00</time>
        <ele>2507.0</ele>
      </trkpt>
      <trkpt lat="46.88692" lon="10.25104">
        <time>2022-03-11T08:10:34+00:00</time>
        <ele>2508.0</ele>
      </trkpt>
      <trkpt lat="46.88691" lon="10.25103">
        <time>2022-03-11T08:10:35+00:00</time>
        <ele>2508.0</ele>
      </trkpt>
      <trkpt lat="46.88685" lon="10.25096">
        <time>2022-03-11T08:10:45+00:00</time>
        <ele>2509.0</ele>
      </trkpt>
      <trkpt lat="46.8868" lon="10.25093">
        <time>2022-03-11T08:10:52+00:00</time>
        <ele>2510.0</ele>
      </trkpt>
      <trkpt lat="46.88678" lon="10.25092">
        <time>2022-03-11T08:10:57+00:00</time>
        <ele>2510.0</ele>
      </trkpt>
      <trkpt lat="46.88678" lon="10.25092">
        <time>2022-03-11T08:10:58+00:00</time>
        <ele>2510.0</ele>
      </trkpt>
      <trkpt lat="46.88679" lon="10.25091">
        <time>2022-03-11T08:11:00+00:00</time>
        <ele>2510.0</ele>
      </trkpt>
      <trkpt lat="46.88677" lon="10.25088">
        <time>2022-03-11T08:11:05+00:00</time>
        <ele>2510.0</ele>
      </trkpt>
      <trkpt lat="46.8867" lon="10.25081">
        <time>2022-03-11T08:11:12+00:00</time>
        <ele>2511.0</ele>
      </trkpt>
      <trkpt lat="46.8866" lon="10.25072">
        <time>2022-03-11T08:11:24+00:00</time>
        <ele>2512.0</ele>
      </trkpt>
      <trkpt lat="46.88653" lon="10.25067">
        <time>2022-03-11T08:11:34+00:00</time>
        <ele>2512.0</ele>
      </trkpt>
      <trkpt lat="46.88648" lon="10.25062">
        <time>2022-03-11T08:11:42+00:00</time>
        <ele>2512.0</ele>
      </trkpt>
      <trkpt lat="46.88648" lon="10.25061">
        <time>2022-03-11T08:11:43+00:00</time>
        <ele>2512.0</ele>
      </trkpt>
      <trkpt lat="46.88647" lon="10.2506">
        <time>2022-03-11T08:11:45+00:00</time>
        <ele>2512.0</ele>
      </trkpt>
      <trkpt lat="46.88641" lon="10.25055">
        <time>2022-03-11T08:11:52+00:00</time>
        <ele>2512.0</ele>
      </trkpt>
      <trkpt lat="46.8864" lon="10.25054">
        <time>2022-03-11T08:11:54+00:00</time>
        <ele>2512.0</ele>
      </trkpt>
      <trkpt lat="46.88635" lon="10.25049">
        <time>2022-03-11T08:12:02+00:00</time>
        <ele>2513.0</ele>
      </trkpt>
      <trkpt lat="46.88634" lon="10.25049">
        <time>2022-03-11T08:12:04+00:00</time>
        <ele>2513.0</ele>
      </trkpt>
      <trkpt lat="46.88631" lon="10.25047">
        <time>2022-03-11T08:12:08+00:00</time>
        <ele>2513.0</ele>
      </trkpt>
      <trkpt lat="46.8863" lon="10.25046">
        <time>2022-03-11T08:12:09+00:00</time>
        <ele>2514.0</ele>
      </trkpt>
      <trkpt lat="46.88624" lon="10.25041">
        <time>2022-03-11T08:12:17+00:00</time>
        <ele>2514.0</ele>
      </trkpt>
      <trkpt lat="46.88623" lon="10.25039">
        <time>2022-03-11T08:12:21+00:00</time>
        <ele>2514.0</ele>
      </trkpt>
      <trkpt lat="46.88623" lon="10.25037">
        <time>2022-03-11T08:12:24+00:00</time>
        <ele>2514.0</ele>
      </trkpt>
      <trkpt lat="46.88619" lon="10.25035">
        <time>2022-03-11T08:12:28+00:00</time>
        <ele>2514.0</ele>
      </trkpt>
      <trkpt lat="46.88614" lon="10.25033">
        <time>2022-03-11T08:12:33+00:00</time>
        <ele>2515.0</ele>
      </trkpt>
      <trkpt lat="46.88608" lon="10.2503">
        <time>2022-03-11T08:12:39+00:00</time>
        <ele>2515.0</ele>
      </trkpt>
      <trkpt lat="46.88603" lon="10.25027">
        <time>2022-03-11T08:12:45+00:00</time>
        <ele>2516.0</ele>
      </trkpt>
      <trkpt lat="46.88597" lon="10.25025">
        <time>2022-03-11T08:12:51+00:00</time>
        <ele>2516.0</ele>
      </trkpt>
      <trkpt lat="46.88595" lon="10.25024">
        <time>2022-03-11T08:12:54+00:00</time>
        <ele>2517.0</ele>
      </trkpt>
      <trkpt lat="46.88586" lon="10.25018">
        <time>2022-03-11T08:13:05+00:00</time>
        <ele>2516.0</ele>
      </trkpt>
      <trkpt lat="46.8858" lon="10.25014">
        <time>2022-03-11T08:13:14+00:00</time>
        <ele>2516.0</ele>
      </trkpt>
      <trkpt lat="46.8858" lon="10.25014">
        <time>2022-03-11T08:13:15+00:00</time>
        <ele>2516.0</ele>
      </trkpt>
      <trkpt lat="46.88581" lon="10.25014">
        <time>2022-03-11T08:13:17+00:00</time>
        <ele>2516.0</ele>
      </trkpt>
      <trkpt lat="46.88579" lon="10.25013">
        <time>2022-03-11T08:13:21+00:00</time>
        <ele>2516.0</ele>
      </trkpt>
      <trkpt lat="46.88578" lon="10.25012">
        <time>2022-03-11T08:13:33+00:00</time>
        <ele>2516.0</ele>
      </trkpt>
      <trkpt lat="46.88572" lon="10.25011">
        <time>2022-03-11T08:14:39+00:00</time>
        <ele>2516.0</ele>
      </trkpt>
      <trkpt lat="46.88581" lon="10.25018">
        <time>2022-03-11T08:18:28+00:00</time>
        <ele>2517.0</ele>
      </trkpt>
      <trkpt lat="46.88586" lon="10.25019">
        <time>2022-03-11T08:18:34+00:00</time>
        <ele>2516.0</ele>
      </trkpt>
      <trkpt lat="46.88584" lon="10.25018">
        <time>2022-03-11T08:18:40+00:00</time>
        <ele>2516.0</ele>
      </trkpt>
      <trkpt lat="46.88583" lon="10.25017">
        <time>2022-03-11T08:18:48+00:00</time>
        <ele>2516.0</ele>
      </trkpt>
      <trkpt lat="46.88583" lon="10.25017">
        <time>2022-03-11T08:18:50+00:00</time>
        <ele>2516.0</ele>
      </trkpt>
      <trkpt lat="46.88581" lon="10.25016">
        <time>2022-03-11T08:19:08+00:00</time>
        <ele>2516.0</ele>
      </trkpt>
      <trkpt lat="46.88578" lon="10.25014">
        <time>2022-03-11T08:19:20+00:00</time>
        <ele>2516.0</ele>
      </trkpt>
      <trkpt lat="46.88576" lon="10.25012">
        <time>2022-03-11T08:19:40+00:00</time>
        <ele>2516.0</ele>
      </trkpt>
      <trkpt lat="46.88583" lon="10.25016">
        <time>2022-03-11T08:20:26+00:00</time>
        <ele>2516.0</ele>
      </trkpt>
      <trkpt lat="46.8858" lon="10.25014">
        <time>2022-03-11T08:20:45+00:00</time>
        <ele>2516.0</ele>
      </trkpt>
      <trkpt lat="46.88578" lon="10.25013">
        <time>2022-03-11T08:21:04+00:00</time>
        <ele>2516.0</ele>
      </trkpt>
      <trkpt lat="46.88577" lon="10.25012">
        <time>2022-03-11T08:21:08+00:00</time>
        <ele>2516.0</ele>
      </trkpt>
      <trkpt lat="46.88576" lon="10.25012">
        <time>2022-03-11T08:21:28+00:00</time>
        <ele>2516.0</ele>
      </trkpt>
      <trkpt lat="46.88575" lon="10.25013">
        <time>2022-03-11T08:21:43+00:00</time>
        <ele>2516.0</ele>
      </trkpt>
      <trkpt lat="46.88575" lon="10.25013">
        <time>2022-03-11T08:21:52+00:00</time>
        <ele>2516.0</ele>
      </trkpt>
      <trkpt lat="46.88575" lon="10.25013">
        <time>2022-03-11T08:22:00+00:00</time>
        <ele>2516.0</ele>
      </trkpt>
      <trkpt lat="46.8858" lon="10.25016">
        <time>2022-03-11T08:22:10+00:00</time>
        <ele>2516.0</ele>
      </trkpt>
      <trkpt lat="46.8858" lon="10.25016">
        <time>2022-03-11T08:22:15+00:00</time>
        <ele>2516.0</ele>
      </trkpt>
      <trkpt lat="46.88581" lon="10.25016">
        <time>2022-03-11T08:22:20+00:00</time>
        <ele>2516.0</ele>
      </trkpt>
      <trkpt lat="46.88592" lon="10.25024">
        <time>2022-03-11T08:22:27+00:00</time>
        <ele>2517.0</ele>
      </trkpt>
      <trkpt lat="46.88593" lon="10.25025">
        <time>2022-03-11T08:22:29+00:00</time>
        <ele>2517.0</ele>
      </trkpt>
      <trkpt lat="46.88592" lon="10.25025">
        <time>2022-03-11T08:22:31+00:00</time>
        <ele>2517.0</ele>
      </trkpt>
      <trkpt lat="46.88589" lon="10.25021">
        <time>2022-03-11T08:22:37+00:00</time>
        <ele>2517.0</ele>
      </trkpt>
      <trkpt lat="46.8859" lon="10.25015">
        <time>2022-03-11T08:22:45+00:00</time>
        <ele>2515.0</ele>
      </trkpt>
      <trkpt lat="46.88594" lon="10.25006">
        <time>2022-03-11T08:22:53+00:00</time>
        <ele>2513.0</ele>
      </trkpt>
      <trkpt lat="46.88596" lon="10.25002">
        <time>2022-03-11T08:22:57+00:00</time>
        <ele>2512.0</ele>
      </trkpt>
      <trkpt lat="46.88597" lon="10.25">
        <time>2022-03-11T08:22:59+00:00</time>
        <ele>2511.0</ele>
      </trkpt>
      <trkpt lat="46.88604" lon="10.24987">
        <time>2022-03-11T08:23:09+00:00</time>
        <ele>2509.0</ele>
      </trkpt>
      <trkpt lat="46.88612" lon="10.24974">
        <time>2022-03-11T08:23:20+00:00</time>
        <ele>2507.0</ele>
      </trkpt>
      <trkpt lat="46.8862" lon="10.24962">
        <time>2022-03-11T08:23:30+00:00</time>
        <ele>2507.0</ele>
      </trkpt>
      <trkpt lat="46.88629" lon="10.2495">
        <time>2022-03-11T08:23:40+00:00</time>
        <ele>2507.0</ele>
      </trkpt>
      <trkpt lat="46.88636" lon="10.24944">
        <time>2022-03-11T08:23:46+00:00</time>
        <ele>2507.0</ele>
      </trkpt>
      <trkpt lat="46.88638" lon="10.24942">
        <time>2022-03-11T08:23:49+00:00</time>
        <ele>2507.0</ele>
      </trkpt>
      <trkpt lat="46.88648" lon="10.24929">
        <time>2022-03-11T08:24:00+00:00</time>
        <ele>2506.0</ele>
      </trkpt>
      <trkpt lat="46.88658" lon="10.24918">
        <time>2022-03-11T08:24:11+00:00</time>
        <ele>2506.0</ele>
      </trkpt>
      <trkpt lat="46.8867" lon="10.24906">
        <time>2022-03-11T08:24:26+00:00</time>
        <ele>2506.0</ele>
      </trkpt>
      <trkpt lat="46.88675" lon="10.24902">
        <time>2022-03-11T08:24:34+00:00</time>
        <ele>2506.0</ele>
      </trkpt>
      <trkpt lat="46.8868" lon="10.24899">
        <time>2022-03-11T08:24:42+00:00</time>
        <ele>2506.0</ele>
      </trkpt>
      <trkpt lat="46.88681" lon="10.24899">
        <time>2022-03-11T08:24:43+00:00</time>
        <ele>2506.0</ele>
      </trkpt>
      <trkpt lat="46.8869" lon="10.24896">
        <time>2022-03-11T08:24:54+00:00</time>
        <ele>2506.0</ele>
      </trkpt>
      <trkpt lat="46.88691" lon="10.24895">
        <time>2022-03-11T08:24:55+00:00</time>
        <ele>2506.0</ele>
      </trkpt>
      <trkpt lat="46.88693" lon="10.24894">
        <time>2022-03-11T08:24:57+00:00</time>
        <ele>2506.0</ele>
      </trkpt>
      <trkpt lat="46.88697" lon="10.24893">
        <time>2022-03-11T08:25:03+00:00</time>
        <ele>2506.0</ele>
      </trkpt>
      <trkpt lat="46.88697" lon="10.24892">
        <time>2022-03-11T08:25:04+00:00</time>
        <ele>2506.0</ele>
      </trkpt>
      <trkpt lat="46.88703" lon="10.24887">
        <time>2022-03-11T08:25:14+00:00</time>
        <ele>2507.0</ele>
      </trkpt>
      <trkpt lat="46.88705" lon="10.24885">
        <time>2022-03-11T08:25:18+00:00</time>
        <ele>2507.0</ele>
      </trkpt>
      <trkpt lat="46.88706" lon="10.24883">
        <time>2022-03-11T08:25:21+00:00</time>
        <ele>2508.0</ele>
      </trkpt>
      <trkpt lat="46.88709" lon="10.2488">
        <time>2022-03-11T08:25:28+00:00</time>
        <ele>2508.0</ele>
      </trkpt>
      <trkpt lat="46.8871" lon="10.2488">
        <time>2022-03-11T08:25:29+00:00</time>
        <ele>2508.0</ele>
      </trkpt>
      <trkpt lat="46.88717" lon="10.24881">
        <time>2022-03-11T08:25:40+00:00</time>
        <ele>2509.0</ele>
      </trkpt>
      <trkpt lat="46.88719" lon="10.2488">
        <time>2022-03-11T08:25:43+00:00</time>
        <ele>2509.0</ele>
      </trkpt>
      <trkpt lat="46.88721" lon="10.24878">
        <time>2022-03-11T08:25:48+00:00</time>
        <ele>2510.0</ele>
      </trkpt>
      <trkpt lat="46.88724" lon="10.24879">
        <time>2022-03-11T08:25:53+00:00</time>
        <ele>2510.0</ele>
      </trkpt>
      <trkpt lat="46.88726" lon="10.24877">
        <time>2022-03-11T08:25:57+00:00</time>
        <ele>2510.0</ele>
      </trkpt>
      <trkpt lat="46.8873" lon="10.2487">
        <time>2022-03-11T08:26:03+00:00</time>
        <ele>2511.0</ele>
      </trkpt>
      <trkpt lat="46.8873" lon="10.24869">
        <time>2022-03-11T08:26:05+00:00</time>
        <ele>2511.0</ele>
      </trkpt>
      <trkpt lat="46.8873" lon="10.2487">
        <time>2022-03-11T08:26:07+00:00</time>
        <ele>2511.0</ele>
      </trkpt>
      <trkpt lat="46.88733" lon="10.24873">
        <time>2022-03-11T08:26:15+00:00</time>
        <ele>2511.0</ele>
      </trkpt>
      <trkpt lat="46.88733" lon="10.24873">
        <time>2022-03-11T08:26:16+00:00</time>
        <ele>2511.0</ele>
      </trkpt>
      <trkpt lat="46.8874" lon="10.24877">
        <time>2022-03-11T08:26:19+00:00</time>
        <ele>2512.0</ele>
      </trkpt>
      <trkpt lat="46.88746" lon="10.24882">
        <time>2022-03-11T08:26:25+00:00</time>
        <ele>2512.0</ele>
      </trkpt>
      <trkpt lat="46.88741" lon="10.24872">
        <time>2022-03-11T08:26:34+00:00</time>
        <ele>2512.0</ele>
      </trkpt>
      <trkpt lat="46.88739" lon="10.24869">
        <time>2022-03-11T08:26:36+00:00</time>
        <ele>2512.0</ele>
      </trkpt>
      <trkpt lat="46.88737" lon="10.24864">
        <time>2022-03-11T08:26:40+00:00</time>
        <ele>2512.0</ele>
      </trkpt>
      <trkpt lat="46.88736" lon="10.24858">
        <time>2022-03-11T08:26:45+00:00</time>
        <ele>2514.0</ele>
      </trkpt>
      <trkpt lat="46.88735" lon="10.24857">
        <time>2022-03-11T08:26:47+00:00</time>
        <ele>2514.0</ele>
      </trkpt>
      <trkpt lat="46.88734" lon="10.24856">
        <time>2022-03-11T08:26:48+00:00</time>
        <ele>2514.0</ele>
      </trkpt>
      <trkpt lat="46.88733" lon="10.24848">
        <time>2022-03-11T08:26:57+00:00</time>
        <ele>2515.0</ele>
      </trkpt>
      <trkpt lat="46.88733" lon="10.24847">
        <time>2022-03-11T08:26:58+00:00</time>
        <ele>2516.0</ele>
      </trkpt>
      <trkpt lat="46.88733" lon="10.2484">
        <time>2022-03-11T08:27:06+00:00</time>
        <ele>2517.0</ele>
      </trkpt>
      <trkpt lat="46.88732" lon="10.24839">
        <time>2022-03-11T08:27:08+00:00</time>
        <ele>2517.0</ele>
      </trkpt>
      <trkpt lat="46.88733" lon="10.24837">
        <time>2022-03-11T08:27:13+00:00</time>
        <ele>2518.0</ele>
      </trkpt>
      <trkpt lat="46.88737" lon="10.24834">
        <time>2022-03-11T08:27:23+00:00</time>
        <ele>2519.0</ele>
      </trkpt>
      <trkpt lat="46.88738" lon="10.24833">
        <time>2022-03-11T08:27:28+00:00</time>
        <ele>2520.0</ele>
      </trkpt>
      <trkpt lat="46.88739" lon="10.24831">
        <time>2022-03-11T08:27:32+00:00</time>
        <ele>2521.0</ele>
      </trkpt>
      <trkpt lat="46.88741" lon="10.24831">
        <time>2022-03-11T08:27:35+00:00</time>
        <ele>2521.0</ele>
      </trkpt>
      <trkpt lat="46.88743" lon="10.24829">
        <time>2022-03-11T08:27:40+00:00</time>
        <ele>2522.0</ele>
      </trkpt>
      <trkpt lat="46.88745" lon="10.24828">
        <time>2022-03-11T08:27:44+00:00</time>
        <ele>2522.0</ele>
      </trkpt>
      <trkpt lat="46.88746" lon="10.24828">
        <time>2022-03-11T08:27:47+00:00</time>
        <ele>2522.0</ele>
      </trkpt>
      <trkpt lat="46.88748" lon="10.24826">
        <time>2022-03-11T08:27:52+00:00</time>
        <ele>2523.0</ele>
      </trkpt>
      <trkpt lat="46.8875" lon="10.24824">
        <time>2022-03-11T08:27:57+00:00</time>
        <ele>2524.0</ele>
      </trkpt>
      <trkpt lat="46.88752" lon="10.24823">
        <time>2022-03-11T08:28:01+00:00</time>
        <ele>2525.0</ele>
      </trkpt>
      <trkpt lat="46.88751" lon="10.2482">
        <time>2022-03-11T08:28:05+00:00</time>
        <ele>2526.0</ele>
      </trkpt>
      <trkpt lat="46.88751" lon="10.24819">
        <time>2022-03-11T08:28:07+00:00</time>
        <ele>2526.0</ele>
      </trkpt>
      <trkpt lat="46.8875" lon="10.24817">
        <time>2022-03-11T08:28:10+00:00</time>
        <ele>2527.0</ele>
      </trkpt>
      <trkpt lat="46.8875" lon="10.24817">
        <time>2022-03-11T08:28:11+00:00</time>
        <ele>2527.0</ele>
      </trkpt>
      <trkpt lat="46.8875" lon="10.24817">
        <time>2022-03-11T08:28:12+00:00</time>
        <ele>2527.0</ele>
      </trkpt>
      <trkpt lat="46.88749" lon="10.24814">
        <time>2022-03-11T08:28:17+00:00</time>
        <ele>2528.0</ele>
      </trkpt>
      <trkpt lat="46.88748" lon="10.2481">
        <time>2022-03-11T08:28:24+00:00</time>
        <ele>2529.0</ele>
      </trkpt>
      <trkpt lat="46.88746" lon="10.24807">
        <time>2022-03-11T08:28:31+00:00</time>
        <ele>2530.0</ele>
      </trkpt>
      <trkpt lat="46.88746" lon="10.24807">
        <time>2022-03-11T08:28:37+00:00</time>
        <ele>2530.0</ele>
      </trkpt>
      <trkpt lat="46.88745" lon="10.24806">
        <time>2022-03-11T08:28:40+00:00</time>
        <ele>2530.0</ele>
      </trkpt>
      <trkpt lat="46.88746" lon="10.24805">
        <time>2022-03-11T08:28:45+00:00</time>
        <ele>2530.0</ele>
      </trkpt>
      <trkpt lat="46.8875" lon="10.24803">
        <time>2022-03-11T08:28:52+00:00</time>
        <ele>2531.0</ele>
      </trkpt>
      <trkpt lat="46.88751" lon="10.24802">
        <time>2022-03-11T08:28:55+00:00</time>
        <ele>2532.0</ele>
      </trkpt>
      <trkpt lat="46.88752" lon="10.24801">
        <time>2022-03-11T08:28:58+00:00</time>
        <ele>2532.0</ele>
      </trkpt>
      <trkpt lat="46.88755" lon="10.24799">
        <time>2022-03-11T08:29:03+00:00</time>
        <ele>2533.0</ele>
      </trkpt>
      <trkpt lat="46.88756" lon="10.24798">
        <time>2022-03-11T08:29:05+00:00</time>
        <ele>2533.0</ele>
      </trkpt>
      <trkpt lat="46.88758" lon="10.24796">
        <time>2022-03-11T08:29:11+00:00</time>
        <ele>2534.0</ele>
      </trkpt>
      <trkpt lat="46.88758" lon="10.24796">
        <time>2022-03-11T08:29:12+00:00</time>
        <ele>2534.0</ele>
      </trkpt>
      <trkpt lat="46.88762" lon="10.24798">
        <time>2022-03-11T08:29:21+00:00</time>
        <ele>2535.0</ele>
      </trkpt>
      <trkpt lat="46.88763" lon="10.24798">
        <time>2022-03-11T08:29:24+00:00</time>
        <ele>2535.0</ele>
      </trkpt>
      <trkpt lat="46.88765" lon="10.24795">
        <time>2022-03-11T08:29:32+00:00</time>
        <ele>2536.0</ele>
      </trkpt>
      <trkpt lat="46.88765" lon="10.24793">
        <time>2022-03-11T08:29:35+00:00</time>
        <ele>2537.0</ele>
      </trkpt>
      <trkpt lat="46.88765" lon="10.2479">
        <time>2022-03-11T08:29:40+00:00</time>
        <ele>2537.0</ele>
      </trkpt>
      <trkpt lat="46.88766" lon="10.24788">
        <time>2022-03-11T08:29:42+00:00</time>
        <ele>2538.0</ele>
      </trkpt>
      <trkpt lat="46.88763" lon="10.24784">
        <time>2022-03-11T08:29:51+00:00</time>
        <ele>2539.0</ele>
      </trkpt>
      <trkpt lat="46.88762" lon="10.24783">
        <time>2022-03-11T08:29:52+00:00</time>
        <ele>2539.0</ele>
      </trkpt>
      <trkpt lat="46.88761" lon="10.24781">
        <time>2022-03-11T08:29:58+00:00</time>
        <ele>2539.0</ele>
      </trkpt>
      <trkpt lat="46.8876" lon="10.24781">
        <time>2022-03-11T08:30:01+00:00</time>
        <ele>2539.0</ele>
      </trkpt>
      <trkpt lat="46.88759" lon="10.24778">
        <time>2022-03-11T08:30:09+00:00</time>
        <ele>2540.0</ele>
      </trkpt>
      <trkpt lat="46.88759" lon="10.24777">
        <time>2022-03-11T08:30:10+00:00</time>
        <ele>2540.0</ele>
      </trkpt>
      <trkpt lat="46.88759" lon="10.24777">
        <time>2022-03-11T08:30:13+00:00</time>
        <ele>2540.0</ele>
      </trkpt>
      <trkpt lat="46.8876" lon="10.24777">
        <time>2022-03-11T08:30:19+00:00</time>
        <ele>2540.0</ele>
      </trkpt>
      <trkpt lat="46.88759" lon="10.24777">
        <time>2022-03-11T08:30:27+00:00</time>
        <ele>2540.0</ele>
      </trkpt>
      <trkpt lat="46.88759" lon="10.24777">
        <time>2022-03-11T08:30:32+00:00</time>
        <ele>2540.0</ele>
      </trkpt>
      <trkpt lat="46.88759" lon="10.24777">
        <time>2022-03-11T08:30:36+00:00</time>
        <ele>2540.0</ele>
      </trkpt>
      <trkpt lat="46.88761" lon="10.24773">
        <time>2022-03-11T08:30:44+00:00</time>
        <ele>2542.0</ele>
      </trkpt>
      <trkpt lat="46.88765" lon="10.24771">
        <time>2022-03-11T08:30:49+00:00</time>
        <ele>2543.0</ele>
      </trkpt>
      <trkpt lat="46.88766" lon="10.24769">
        <time>2022-03-11T08:30:52+00:00</time>
        <ele>2544.0</ele>
      </trkpt>
      <trkpt lat="46.88767" lon="10.24769">
        <time>2022-03-11T08:30:53+00:00</time>
        <ele>2544.0</ele>
      </trkpt>
      <trkpt lat="46.88771" lon="10.24768">
        <time>2022-03-11T08:31:00+00:00</time>
        <ele>2545.0</ele>
      </trkpt>
      <trkpt lat="46.88771" lon="10.24767">
        <time>2022-03-11T08:31:02+00:00</time>
        <ele>2545.0</ele>
      </trkpt>
      <trkpt lat="46.88772" lon="10.24767">
        <time>2022-03-11T08:31:07+00:00</time>
        <ele>2546.0</ele>
      </trkpt>
      <trkpt lat="46.88773" lon="10.24767">
        <time>2022-03-11T08:31:10+00:00</time>
        <ele>2546.0</ele>
      </trkpt>
      <trkpt lat="46.88773" lon="10.24767">
        <time>2022-03-11T08:31:11+00:00</time>
        <ele>2546.0</ele>
      </trkpt>
      <trkpt lat="46.88775" lon="10.24767">
        <time>2022-03-11T08:31:21+00:00</time>
        <ele>2546.0</ele>
      </trkpt>
      <trkpt lat="46.88775" lon="10.24767">
        <time>2022-03-11T08:31:27+00:00</time>
        <ele>2546.0</ele>
      </trkpt>
      <trkpt lat="46.88775" lon="10.24767">
        <time>2022-03-11T08:31:33+00:00</time>
        <ele>2546.0</ele>
      </trkpt>
      <trkpt lat="46.88776" lon="10.24767">
        <time>2022-03-11T08:31:34+00:00</time>
        <ele>2547.0</ele>
      </trkpt>
      <trkpt lat="46.88776" lon="10.24767">
        <time>2022-03-11T08:31:35+00:00</time>
        <ele>2547.0</ele>
      </trkpt>
      <trkpt lat="46.88776" lon="10.24765">
        <time>2022-03-11T08:31:38+00:00</time>
        <ele>2547.0</ele>
      </trkpt>
      <trkpt lat="46.88775" lon="10.24763">
        <time>2022-03-11T08:31:40+00:00</time>
        <ele>2547.0</ele>
      </trkpt>
      <trkpt lat="46.88773" lon="10.24757">
        <time>2022-03-11T08:31:46+00:00</time>
        <ele>2549.0</ele>
      </trkpt>
      <trkpt lat="46.88771" lon="10.24754">
        <time>2022-03-11T08:31:51+00:00</time>
        <ele>2549.0</ele>
      </trkpt>
      <trkpt lat="46.88769" lon="10.24752">
        <time>2022-03-11T08:31:56+00:00</time>
        <ele>2550.0</ele>
      </trkpt>
      <trkpt lat="46.88768" lon="10.2475">
        <time>2022-03-11T08:32:04+00:00</time>
        <ele>2550.0</ele>
      </trkpt>
      <trkpt lat="46.88767" lon="10.2475">
        <time>2022-03-11T08:32:06+00:00</time>
        <ele>2550.0</ele>
      </trkpt>
      <trkpt lat="46.88765" lon="10.24749">
        <time>2022-03-11T08:32:09+00:00</time>
        <ele>2550.0</ele>
      </trkpt>
      <trkpt lat="46.88764" lon="10.24747">
        <time>2022-03-11T08:32:14+00:00</time>
        <ele>2551.0</ele>
      </trkpt>
      <trkpt lat="46.88763" lon="10.24747">
        <time>2022-03-11T08:32:15+00:00</time>
        <ele>2550.0</ele>
      </trkpt>
      <trkpt lat="46.88761" lon="10.24743">
        <time>2022-03-11T08:32:25+00:00</time>
        <ele>2551.0</ele>
      </trkpt>
      <trkpt lat="46.88761" lon="10.24741">
        <time>2022-03-11T08:32:29+00:00</time>
        <ele>2552.0</ele>
      </trkpt>
      <trkpt lat="46.8876" lon="10.24739">
        <time>2022-03-11T08:32:31+00:00</time>
        <ele>2553.0</ele>
      </trkpt>
      <trkpt lat="46.88759" lon="10.24737">
        <time>2022-03-11T08:32:37+00:00</time>
        <ele>2553.0</ele>
      </trkpt>
      <trkpt lat="46.88758" lon="10.24736">
        <time>2022-03-11T08:32:44+00:00</time>
        <ele>2553.0</ele>
      </trkpt>
      <trkpt lat="46.88758" lon="10.24736">
        <time>2022-03-11T08:32:45+00:00</time>
        <ele>2553.0</ele>
      </trkpt>
      <trkpt lat="46.88756" lon="10.24733">
        <time>2022-03-11T08:32:53+00:00</time>
        <ele>2554.0</ele>
      </trkpt>
      <trkpt lat="46.88754" lon="10.24731">
        <time>2022-03-11T08:32:56+00:00</time>
        <ele>2555.0</ele>
      </trkpt>
      <trkpt lat="46.88754" lon="10.24729">
        <time>2022-03-11T08:33:01+00:00</time>
        <ele>2555.0</ele>
      </trkpt>
      <trkpt lat="46.88755" lon="10.24728">
        <time>2022-03-11T08:33:07+00:00</time>
        <ele>2556.0</ele>
      </trkpt>
      <trkpt lat="46.8876" lon="10.24728">
        <time>2022-03-11T08:33:14+00:00</time>
        <ele>2557.0</ele>
      </trkpt>
      <trkpt lat="46.88764" lon="10.24726">
        <time>2022-03-11T08:33:21+00:00</time>
        <ele>2558.0</ele>
      </trkpt>
      <trkpt lat="46.88764" lon="10.24726">
        <time>2022-03-11T08:33:22+00:00</time>
        <ele>2558.0</ele>
      </trkpt>
      <trkpt lat="46.88764" lon="10.24726">
        <time>2022-03-11T08:33:23+00:00</time>
        <ele>2558.0</ele>
      </trkpt>
      <trkpt lat="46.88765" lon="10.24726">
        <time>2022-03-11T08:33:25+00:00</time>
        <ele>2558.0</ele>
      </trkpt>
      <trkpt lat="46.88768" lon="10.24727">
        <time>2022-03-11T08:33:29+00:00</time>
        <ele>2558.0</ele>
      </trkpt>
      <trkpt lat="46.88772" lon="10.24727">
        <time>2022-03-11T08:33:36+00:00</time>
        <ele>2558.0</ele>
      </trkpt>
      <trkpt lat="46.88772" lon="10.24727">
        <time>2022-03-11T08:33:37+00:00</time>
        <ele>2558.0</ele>
      </trkpt>
      <trkpt lat="46.88772" lon="10.24727">
        <time>2022-03-11T08:33:38+00:00</time>
        <ele>2558.0</ele>
      </trkpt>
      <trkpt lat="46.88773" lon="10.24726">
        <time>2022-03-11T08:33:41+00:00</time>
        <ele>2559.0</ele>
      </trkpt>
      <trkpt lat="46.88774" lon="10.24725">
        <time>2022-03-11T08:33:44+00:00</time>
        <ele>2560.0</ele>
      </trkpt>
      <trkpt lat="46.88776" lon="10.24725">
        <time>2022-03-11T08:33:47+00:00</time>
        <ele>2560.0</ele>
      </trkpt>
      <trkpt lat="46.88776" lon="10.24725">
        <time>2022-03-11T08:33:48+00:00</time>
        <ele>2560.0</ele>
      </trkpt>
      <trkpt lat="46.88778" lon="10.24724">
        <time>2022-03-11T08:33:57+00:00</time>
        <ele>2561.0</ele>
      </trkpt>
      <trkpt lat="46.88779" lon="10.24724">
        <time>2022-03-11T08:33:59+00:00</time>
        <ele>2562.0</ele>
      </trkpt>
      <trkpt lat="46.88782" lon="10.24722">
        <time>2022-03-11T08:34:04+00:00</time>
        <ele>2564.0</ele>
      </trkpt>
      <trkpt lat="46.88784" lon="10.24721">
        <time>2022-03-11T08:34:08+00:00</time>
        <ele>2565.0</ele>
      </trkpt>
      <trkpt lat="46.88785" lon="10.24721">
        <time>2022-03-11T08:34:09+00:00</time>
        <ele>2565.0</ele>
      </trkpt>
      <trkpt lat="46.88787" lon="10.24718">
        <time>2022-03-11T08:34:16+00:00</time>
        <ele>2567.0</ele>
      </trkpt>
      <trkpt lat="46.8879" lon="10.24717">
        <time>2022-03-11T08:34:23+00:00</time>
        <ele>2569.0</ele>
      </trkpt>
      <trkpt lat="46.88792" lon="10.24716">
        <time>2022-03-11T08:34:29+00:00</time>
        <ele>2570.0</ele>
      </trkpt>
      <trkpt lat="46.88792" lon="10.24716">
        <time>2022-03-11T08:34:31+00:00</time>
        <ele>2570.0</ele>
      </trkpt>
      <trkpt lat="46.88792" lon="10.24715">
        <time>2022-03-11T08:34:32+00:00</time>
        <ele>2570.0</ele>
      </trkpt>
      <trkpt lat="46.88793" lon="10.24715">
        <time>2022-03-11T08:34:34+00:00</time>
        <ele>2571.0</ele>
      </trkpt>
      <trkpt lat="46.88795" lon="10.24716">
        <time>2022-03-11T08:34:40+00:00</time>
        <ele>2571.0</ele>
      </trkpt>
      <trkpt lat="46.88796" lon="10.24717">
        <time>2022-03-11T08:34:42+00:00</time>
        <ele>2571.0</ele>
      </trkpt>
      <trkpt lat="46.88798" lon="10.24717">
        <time>2022-03-11T08:34:47+00:00</time>
        <ele>2572.0</ele>
      </trkpt>
      <trkpt lat="46.88799" lon="10.24717">
        <time>2022-03-11T08:34:50+00:00</time>
        <ele>2573.0</ele>
      </trkpt>
      <trkpt lat="46.88803" lon="10.24716">
        <time>2022-03-11T08:34:59+00:00</time>
        <ele>2575.0</ele>
      </trkpt>
      <trkpt lat="46.88806" lon="10.24717">
        <time>2022-03-11T08:35:07+00:00</time>
        <ele>2576.0</ele>
      </trkpt>
      <trkpt lat="46.88807" lon="10.24716">
        <time>2022-03-11T08:35:08+00:00</time>
        <ele>2577.0</ele>
      </trkpt>
      <trkpt lat="46.88808" lon="10.24715">
        <time>2022-03-11T08:35:10+00:00</time>
        <ele>2578.0</ele>
      </trkpt>
      <trkpt lat="46.8881" lon="10.24716">
        <time>2022-03-11T08:35:16+00:00</time>
        <ele>2578.0</ele>
      </trkpt>
      <trkpt lat="46.88813" lon="10.24717">
        <time>2022-03-11T08:35:24+00:00</time>
        <ele>2579.0</ele>
      </trkpt>
      <trkpt lat="46.88814" lon="10.24718">
        <time>2022-03-11T08:35:25+00:00</time>
        <ele>2579.0</ele>
      </trkpt>
      <trkpt lat="46.88818" lon="10.2472">
        <time>2022-03-11T08:35:31+00:00</time>
        <ele>2580.0</ele>
      </trkpt>
      <trkpt lat="46.88819" lon="10.24722">
        <time>2022-03-11T08:35:37+00:00</time>
        <ele>2580.0</ele>
      </trkpt>
      <trkpt lat="46.8882" lon="10.24723">
        <time>2022-03-11T08:35:43+00:00</time>
        <ele>2580.0</ele>
      </trkpt>
      <trkpt lat="46.88822" lon="10.24724">
        <time>2022-03-11T08:35:49+00:00</time>
        <ele>2580.0</ele>
      </trkpt>
      <trkpt lat="46.88824" lon="10.24727">
        <time>2022-03-11T08:36:00+00:00</time>
        <ele>2580.0</ele>
      </trkpt>
      <trkpt lat="46.88824" lon="10.24728">
        <time>2022-03-11T08:36:04+00:00</time>
        <ele>2579.0</ele>
      </trkpt>
      <trkpt lat="46.88825" lon="10.24728">
        <time>2022-03-11T08:36:07+00:00</time>
        <ele>2580.0</ele>
      </trkpt>
      <trkpt lat="46.88825" lon="10.24729">
        <time>2022-03-11T08:36:08+00:00</time>
        <ele>2579.0</ele>
      </trkpt>
      <trkpt lat="46.88825" lon="10.24729">
        <time>2022-03-11T08:36:11+00:00</time>
        <ele>2579.0</ele>
      </trkpt>
      <trkpt lat="46.88825" lon="10.24729">
        <time>2022-03-11T08:36:13+00:00</time>
        <ele>2579.0</ele>
      </trkpt>
      <trkpt lat="46.88825" lon="10.24729">
        <time>2022-03-11T08:36:17+00:00</time>
        <ele>2579.0</ele>
      </trkpt>
      <trkpt lat="46.88825" lon="10.24729">
        <time>2022-03-11T08:36:19+00:00</time>
        <ele>2579.0</ele>
      </trkpt>
      <trkpt lat="46.88825" lon="10.24729">
        <time>2022-03-11T08:36:26+00:00</time>
        <ele>2579.0</ele>
      </trkpt>
      <trkpt lat="46.88825" lon="10.2473">
        <time>2022-03-11T08:36:33+00:00</time>
        <ele>2579.0</ele>
      </trkpt>
      <trkpt lat="46.88827" lon="10.24727">
        <time>2022-03-11T08:36:51+00:00</time>
        <ele>2581.0</ele>
      </trkpt>
      <trkpt lat="46.88828" lon="10.24723">
        <time>2022-03-11T08:36:55+00:00</time>
        <ele>2583.0</ele>
      </trkpt>
      <trkpt lat="46.8883" lon="10.24717">
        <time>2022-03-11T08:37:03+00:00</time>
        <ele>2586.0</ele>
      </trkpt>
      <trkpt lat="46.88829" lon="10.24706">
        <time>2022-03-11T08:37:24+00:00</time>
        <ele>2590.0</ele>
      </trkpt>
      <trkpt lat="46.88829" lon="10.24704">
        <time>2022-03-11T08:37:42+00:00</time>
        <ele>2590.0</ele>
      </trkpt>
      <trkpt lat="46.8883" lon="10.24704">
        <time>2022-03-11T08:38:05+00:00</time>
        <ele>2591.0</ele>
      </trkpt>
      <trkpt lat="46.88831" lon="10.24706">
        <time>2022-03-11T08:38:21+00:00</time>
        <ele>2590.0</ele>
      </trkpt>
      <trkpt lat="46.8883" lon="10.24705">
        <time>2022-03-11T08:38:38+00:00</time>
        <ele>2590.0</ele>
      </trkpt>
      <trkpt lat="46.8883" lon="10.24704">
        <time>2022-03-11T08:38:49+00:00</time>
        <ele>2591.0</ele>
      </trkpt>
      <trkpt lat="46.88829" lon="10.24705">
        <time>2022-03-11T08:38:59+00:00</time>
        <ele>2590.0</ele>
      </trkpt>
      <trkpt lat="46.88829" lon="10.24706">
        <time>2022-03-11T08:39:19+00:00</time>
        <ele>2590.0</ele>
      </trkpt>
      <trkpt lat="46.88833" lon="10.24707">
        <time>2022-03-11T08:39:25+00:00</time>
        <ele>2591.0</ele>
      </trkpt>
      <trkpt lat="46.88836" lon="10.24708">
        <time>2022-03-11T08:39:28+00:00</time>
        <ele>2592.0</ele>
      </trkpt>
      <trkpt lat="46.8884" lon="10.24709">
        <time>2022-03-11T08:39:31+00:00</time>
        <ele>2593.0</ele>
      </trkpt>
      <trkpt lat="46.88841" lon="10.24711">
        <time>2022-03-11T08:39:33+00:00</time>
        <ele>2593.0</ele>
      </trkpt>
      <trkpt lat="46.88842" lon="10.24712">
        <time>2022-03-11T08:39:34+00:00</time>
        <ele>2593.0</ele>
      </trkpt>
      <trkpt lat="46.88844" lon="10.24713">
        <time>2022-03-11T08:39:37+00:00</time>
        <ele>2594.0</ele>
      </trkpt>
      <trkpt lat="46.88846" lon="10.24716">
        <time>2022-03-11T08:39:41+00:00</time>
        <ele>2594.0</ele>
      </trkpt>
      <trkpt lat="46.88846" lon="10.24717">
        <time>2022-03-11T08:39:42+00:00</time>
        <ele>2593.0</ele>
      </trkpt>
      <trkpt lat="46.88847" lon="10.24719">
        <time>2022-03-11T08:39:44+00:00</time>
        <ele>2593.0</ele>
      </trkpt>
      <trkpt lat="46.88848" lon="10.24721">
        <time>2022-03-11T08:39:47+00:00</time>
        <ele>2593.0</ele>
      </trkpt>
      <trkpt lat="46.88849" lon="10.24722">
        <time>2022-03-11T08:39:48+00:00</time>
        <ele>2593.0</ele>
      </trkpt>
      <trkpt lat="46.88849" lon="10.24722">
        <time>2022-03-11T08:39:49+00:00</time>
        <ele>2593.0</ele>
      </trkpt>
      <trkpt lat="46.88849" lon="10.24723">
        <time>2022-03-11T08:39:50+00:00</time>
        <ele>2593.0</ele>
      </trkpt>
      <trkpt lat="46.88851" lon="10.24728">
        <time>2022-03-11T08:39:55+00:00</time>
        <ele>2592.0</ele>
      </trkpt>
      <trkpt lat="46.88851" lon="10.24728">
        <time>2022-03-11T08:39:56+00:00</time>
        <ele>2592.0</ele>
      </trkpt>
      <trkpt lat="46.88851" lon="10.24729">
        <time>2022-03-11T08:39:57+00:00</time>
        <ele>2591.0</ele>
      </trkpt>
      <trkpt lat="46.88852" lon="10.2473">
        <time>2022-03-11T08:39:59+00:00</time>
        <ele>2591.0</ele>
      </trkpt>
      <trkpt lat="46.88852" lon="10.24732">
        <time>2022-03-11T08:40:01+00:00</time>
        <ele>2590.0</ele>
      </trkpt>
      <trkpt lat="46.88853" lon="10.24733">
        <time>2022-03-11T08:40:04+00:00</time>
        <ele>2590.0</ele>
      </trkpt>
      <trkpt lat="46.88853" lon="10.24734">
        <time>2022-03-11T08:40:05+00:00</time>
        <ele>2590.0</ele>
      </trkpt>
      <trkpt lat="46.88853" lon="10.24734">
        <time>2022-03-11T08:40:07+00:00</time>
        <ele>2590.0</ele>
      </trkpt>
      <trkpt lat="46.88853" lon="10.24734">
        <time>2022-03-11T08:40:10+00:00</time>
        <ele>2590.0</ele>
      </trkpt>
      <trkpt lat="46.88854" lon="10.24734">
        <time>2022-03-11T08:40:13+00:00</time>
        <ele>2590.0</ele>
      </trkpt>
      <trkpt lat="46.88854" lon="10.24734">
        <time>2022-03-11T08:40:20+00:00</time>
        <ele>2590.0</ele>
      </trkpt>
      <trkpt lat="46.88854" lon="10.24734">
        <time>2022-03-11T08:40:22+00:00</time>
        <ele>2590.0</ele>
      </trkpt>
      <trkpt lat="46.88854" lon="10.24734">
        <time>2022-03-11T08:40:24+00:00</time>
        <ele>2590.0</ele>
      </trkpt>
      <trkpt lat="46.88853" lon="10.24734">
        <time>2022-03-11T08:40:29+00:00</time>
        <ele>2590.0</ele>
      </trkpt>
      <trkpt lat="46.88853" lon="10.24734">
        <time>2022-03-11T08:40:35+00:00</time>
        <ele>2590.0</ele>
      </trkpt>
      <trkpt lat="46.88853" lon="10.24735">
        <time>2022-03-11T08:40:59+00:00</time>
        <ele>2590.0</ele>
      </trkpt>
      <trkpt lat="46.88855" lon="10.24734">
        <time>2022-03-11T08:41:29+00:00</time>
        <ele>2591.0</ele>
      </trkpt>
      <trkpt lat="46.8886" lon="10.2473">
        <time>2022-03-11T08:41:42+00:00</time>
        <ele>2594.0</ele>
      </trkpt>
      <trkpt lat="46.88861" lon="10.24729">
        <time>2022-03-11T08:41:53+00:00</time>
        <ele>2594.0</ele>
      </trkpt>
      <trkpt lat="46.88863" lon="10.24726">
        <time>2022-03-11T08:42:00+00:00</time>
        <ele>2596.0</ele>
      </trkpt>
      <trkpt lat="46.88865" lon="10.24724">
        <time>2022-03-11T08:42:20+00:00</time>
        <ele>2597.0</ele>
      </trkpt>
      <trkpt lat="46.88872" lon="10.24716">
        <time>2022-03-11T08:42:38+00:00</time>
        <ele>2602.0</ele>
      </trkpt>
      <trkpt lat="46.88873" lon="10.24715">
        <time>2022-03-11T08:42:39+00:00</time>
        <ele>2602.0</ele>
      </trkpt>
      <trkpt lat="46.88875" lon="10.24714">
        <time>2022-03-11T08:42:41+00:00</time>
        <ele>2603.0</ele>
      </trkpt>
      <trkpt lat="46.88875" lon="10.24713">
        <time>2022-03-11T08:42:43+00:00</time>
        <ele>2603.0</ele>
      </trkpt>
      <trkpt lat="46.88876" lon="10.24711">
        <time>2022-03-11T08:42:47+00:00</time>
        <ele>2604.0</ele>
      </trkpt>
      <trkpt lat="46.88877" lon="10.24711">
        <time>2022-03-11T08:42:48+00:00</time>
        <ele>2604.0</ele>
      </trkpt>
      <trkpt lat="46.88879" lon="10.2471">
        <time>2022-03-11T08:42:53+00:00</time>
        <ele>2605.0</ele>
      </trkpt>
      <trkpt lat="46.8888" lon="10.24709">
        <time>2022-03-11T08:42:56+00:00</time>
        <ele>2605.0</ele>
      </trkpt>
      <trkpt lat="46.88884" lon="10.24708">
        <time>2022-03-11T08:43:03+00:00</time>
        <ele>2606.0</ele>
      </trkpt>
      <trkpt lat="46.88885" lon="10.24707">
        <time>2022-03-11T08:43:06+00:00</time>
        <ele>2607.0</ele>
      </trkpt>
      <trkpt lat="46.88886" lon="10.24707">
        <time>2022-03-11T08:43:08+00:00</time>
        <ele>2607.0</ele>
      </trkpt>
      <trkpt lat="46.88888" lon="10.24707">
        <time>2022-03-11T08:43:11+00:00</time>
        <ele>2608.0</ele>
      </trkpt>
      <trkpt lat="46.8889" lon="10.24707">
        <time>2022-03-11T08:43:16+00:00</time>
        <ele>2608.0</ele>
      </trkpt>
      <trkpt lat="46.88891" lon="10.24708">
        <time>2022-03-11T08:43:17+00:00</time>
        <ele>2608.0</ele>
      </trkpt>
      <trkpt lat="46.88894" lon="10.24708">
        <time>2022-03-11T08:43:24+00:00</time>
        <ele>2609.0</ele>
      </trkpt>
      <trkpt lat="46.88896" lon="10.24709">
        <time>2022-03-11T08:43:27+00:00</time>
        <ele>2609.0</ele>
      </trkpt>
      <trkpt lat="46.889" lon="10.24708">
        <time>2022-03-11T08:43:34+00:00</time>
        <ele>2611.0</ele>
      </trkpt>
      <trkpt lat="46.88906" lon="10.24708">
        <time>2022-03-11T08:43:46+00:00</time>
        <ele>2612.0</ele>
      </trkpt>
      <trkpt lat="46.88906" lon="10.24708">
        <time>2022-03-11T08:43:47+00:00</time>
        <ele>2612.0</ele>
      </trkpt>
      <trkpt lat="46.88907" lon="10.24708">
        <time>2022-03-11T08:43:51+00:00</time>
        <ele>2613.0</ele>
      </trkpt>
      <trkpt lat="46.88911" lon="10.24708">
        <time>2022-03-11T08:43:58+00:00</time>
        <ele>2614.0</ele>
      </trkpt>
      <trkpt lat="46.88913" lon="10.24707">
        <time>2022-03-11T08:44:02+00:00</time>
        <ele>2615.0</ele>
      </trkpt>
      <trkpt lat="46.88917" lon="10.24704">
        <time>2022-03-11T08:44:12+00:00</time>
        <ele>2616.0</ele>
      </trkpt>
      <trkpt lat="46.88918" lon="10.24704">
        <time>2022-03-11T08:44:13+00:00</time>
        <ele>2617.0</ele>
      </trkpt>
      <trkpt lat="46.88921" lon="10.24702">
        <time>2022-03-11T08:44:19+00:00</time>
        <ele>2618.0</ele>
      </trkpt>
      <trkpt lat="46.88923" lon="10.247">
        <time>2022-03-11T08:44:24+00:00</time>
        <ele>2619.0</ele>
      </trkpt>
      <trkpt lat="46.88924" lon="10.247">
        <time>2022-03-11T08:44:27+00:00</time>
        <ele>2619.0</ele>
      </trkpt>
      <trkpt lat="46.88927" lon="10.24699">
        <time>2022-03-11T08:44:32+00:00</time>
        <ele>2620.0</ele>
      </trkpt>
      <trkpt lat="46.88928" lon="10.24699">
        <time>2022-03-11T08:44:34+00:00</time>
        <ele>2620.0</ele>
      </trkpt>
      <trkpt lat="46.88932" lon="10.24696">
        <time>2022-03-11T08:44:43+00:00</time>
        <ele>2622.0</ele>
      </trkpt>
      <trkpt lat="46.88934" lon="10.24693">
        <time>2022-03-11T08:44:48+00:00</time>
        <ele>2623.0</ele>
      </trkpt>
      <trkpt lat="46.88939" lon="10.2469">
        <time>2022-03-11T08:44:56+00:00</time>
        <ele>2624.0</ele>
      </trkpt>
      <trkpt lat="46.88942" lon="10.24686">
        <time>2022-03-11T08:45:03+00:00</time>
        <ele>2626.0</ele>
      </trkpt>
      <trkpt lat="46.88944" lon="10.24684">
        <time>2022-03-11T08:45:06+00:00</time>
        <ele>2627.0</ele>
      </trkpt>
      <trkpt lat="46.88949" lon="10.2468">
        <time>2022-03-11T08:45:14+00:00</time>
        <ele>2628.0</ele>
      </trkpt>
      <trkpt lat="46.88951" lon="10.24678">
        <time>2022-03-11T08:45:19+00:00</time>
        <ele>2629.0</ele>
      </trkpt>
      <trkpt lat="46.88951" lon="10.24677">
        <time>2022-03-11T08:45:20+00:00</time>
        <ele>2629.0</ele>
      </trkpt>
      <trkpt lat="46.88952" lon="10.24677">
        <time>2022-03-11T08:45:21+00:00</time>
        <ele>2630.0</ele>
      </trkpt>
      <trkpt lat="46.88956" lon="10.24671">
        <time>2022-03-11T08:45:31+00:00</time>
        <ele>2631.0</ele>
      </trkpt>
      <trkpt lat="46.88957" lon="10.2467">
        <time>2022-03-11T08:45:34+00:00</time>
        <ele>2632.0</ele>
      </trkpt>
      <trkpt lat="46.88958" lon="10.24668">
        <time>2022-03-11T08:45:37+00:00</time>
        <ele>2632.0</ele>
      </trkpt>
      <trkpt lat="46.88959" lon="10.24667">
        <time>2022-03-11T08:45:40+00:00</time>
        <ele>2633.0</ele>
      </trkpt>
      <trkpt lat="46.8896" lon="10.24665">
        <time>2022-03-11T08:45:42+00:00</time>
        <ele>2633.0</ele>
      </trkpt>
      <trkpt lat="46.88961" lon="10.24664">
        <time>2022-03-11T08:45:44+00:00</time>
        <ele>2633.0</ele>
      </trkpt>
      <trkpt lat="46.88962" lon="10.24664">
        <time>2022-03-11T08:45:45+00:00</time>
        <ele>2634.0</ele>
      </trkpt>
      <trkpt lat="46.88963" lon="10.24663">
        <time>2022-03-11T08:45:47+00:00</time>
        <ele>2634.0</ele>
      </trkpt>
      <trkpt lat="46.88964" lon="10.24662">
        <time>2022-03-11T08:45:49+00:00</time>
        <ele>2634.0</ele>
      </trkpt>
      <trkpt lat="46.88965" lon="10.24661">
        <time>2022-03-11T08:45:51+00:00</time>
        <ele>2634.0</ele>
      </trkpt>
      <trkpt lat="46.88965" lon="10.2466">
        <time>2022-03-11T08:45:53+00:00</time>
        <ele>2634.0</ele>
      </trkpt>
      <trkpt lat="46.88967" lon="10.24658">
        <time>2022-03-11T08:45:55+00:00</time>
        <ele>2635.0</ele>
      </trkpt>
      <trkpt lat="46.8897" lon="10.24656">
        <time>2022-03-11T08:46:00+00:00</time>
        <ele>2636.0</ele>
      </trkpt>
      <trkpt lat="46.88973" lon="10.24652">
        <time>2022-03-11T08:46:07+00:00</time>
        <ele>2637.0</ele>
      </trkpt>
      <trkpt lat="46.88974" lon="10.24651">
        <time>2022-03-11T08:46:09+00:00</time>
        <ele>2637.0</ele>
      </trkpt>
      <trkpt lat="46.88975" lon="10.2465">
        <time>2022-03-11T08:46:10+00:00</time>
        <ele>2637.0</ele>
      </trkpt>
      <trkpt lat="46.88976" lon="10.24649">
        <time>2022-03-11T08:46:12+00:00</time>
        <ele>2637.0</ele>
      </trkpt>
      <trkpt lat="46.88977" lon="10.24648">
        <time>2022-03-11T08:46:14+00:00</time>
        <ele>2637.0</ele>
      </trkpt>
      <trkpt lat="46.88977" lon="10.24647">
        <time>2022-03-11T08:46:16+00:00</time>
        <ele>2638.0</ele>
      </trkpt>
      <trkpt lat="46.88979" lon="10.24643">
        <time>2022-03-11T08:46:21+00:00</time>
        <ele>2638.0</ele>
      </trkpt>
      <trkpt lat="46.8898" lon="10.24642">
        <time>2022-03-11T08:46:22+00:00</time>
        <ele>2638.0</ele>
      </trkpt>
      <trkpt lat="46.88981" lon="10.24639">
        <time>2022-03-11T08:46:26+00:00</time>
        <ele>2639.0</ele>
      </trkpt>
      <trkpt lat="46.88982" lon="10.24638">
        <time>2022-03-11T08:46:27+00:00</time>
        <ele>2639.0</ele>
      </trkpt>
      <trkpt lat="46.88983" lon="10.24637">
        <time>2022-03-11T08:46:29+00:00</time>
        <ele>2639.0</ele>
      </trkpt>
      <trkpt lat="46.88984" lon="10.24633">
        <time>2022-03-11T08:46:33+00:00</time>
        <ele>2639.0</ele>
      </trkpt>
      <trkpt lat="46.88984" lon="10.24632">
        <time>2022-03-11T08:46:34+00:00</time>
        <ele>2640.0</ele>
      </trkpt>
      <trkpt lat="46.88984" lon="10.24631">
        <time>2022-03-11T08:46:35+00:00</time>
        <ele>2640.0</ele>
      </trkpt>
      <trkpt lat="46.88985" lon="10.2463">
        <time>2022-03-11T08:46:38+00:00</time>
        <ele>2640.0</ele>
      </trkpt>
      <trkpt lat="46.88987" lon="10.24626">
        <time>2022-03-11T08:46:43+00:00</time>
        <ele>2640.0</ele>
      </trkpt>
      <trkpt lat="46.88988" lon="10.24625">
        <time>2022-03-11T08:46:44+00:00</time>
        <ele>2640.0</ele>
      </trkpt>
      <trkpt lat="46.88988" lon="10.24623">
        <time>2022-03-11T08:46:46+00:00</time>
        <ele>2641.0</ele>
      </trkpt>
      <trkpt lat="46.88989" lon="10.24621">
        <time>2022-03-11T08:46:48+00:00</time>
        <ele>2641.0</ele>
      </trkpt>
      <trkpt lat="46.8899" lon="10.24619">
        <time>2022-03-11T08:46:51+00:00</time>
        <ele>2641.0</ele>
      </trkpt>
      <trkpt lat="46.88991" lon="10.24617">
        <time>2022-03-11T08:46:54+00:00</time>
        <ele>2642.0</ele>
      </trkpt>
      <trkpt lat="46.88991" lon="10.24616">
        <time>2022-03-11T08:46:55+00:00</time>
        <ele>2642.0</ele>
      </trkpt>
      <trkpt lat="46.88991" lon="10.24614">
        <time>2022-03-11T08:46:57+00:00</time>
        <ele>2642.0</ele>
      </trkpt>
      <trkpt lat="46.88993" lon="10.24609">
        <time>2022-03-11T08:47:02+00:00</time>
        <ele>2643.0</ele>
      </trkpt>
      <trkpt lat="46.88994" lon="10.24605">
        <time>2022-03-11T08:47:06+00:00</time>
        <ele>2643.0</ele>
      </trkpt>
      <trkpt lat="46.88994" lon="10.24603">
        <time>2022-03-11T08:47:08+00:00</time>
        <ele>2643.0</ele>
      </trkpt>
      <trkpt lat="46.88996" lon="10.24597">
        <time>2022-03-11T08:47:15+00:00</time>
        <ele>2644.0</ele>
      </trkpt>
      <trkpt lat="46.88997" lon="10.24594">
        <time>2022-03-11T08:47:17+00:00</time>
        <ele>2645.0</ele>
      </trkpt>
      <trkpt lat="46.88999" lon="10.24589">
        <time>2022-03-11T08:47:24+00:00</time>
        <ele>2645.0</ele>
      </trkpt>
      <trkpt lat="46.89001" lon="10.24583">
        <time>2022-03-11T08:47:30+00:00</time>
        <ele>2646.0</ele>
      </trkpt>
      <trkpt lat="46.89003" lon="10.24578">
        <time>2022-03-11T08:47:36+00:00</time>
        <ele>2646.0</ele>
      </trkpt>
      <trkpt lat="46.89004" lon="10.24576">
        <time>2022-03-11T08:47:38+00:00</time>
        <ele>2646.0</ele>
      </trkpt>
      <trkpt lat="46.89006" lon="10.24569">
        <time>2022-03-11T08:47:45+00:00</time>
        <ele>2647.0</ele>
      </trkpt>
      <trkpt lat="46.89009" lon="10.24562">
        <time>2022-03-11T08:47:52+00:00</time>
        <ele>2648.0</ele>
      </trkpt>
      <trkpt lat="46.89013" lon="10.24552">
        <time>2022-03-11T08:48:02+00:00</time>
        <ele>2649.0</ele>
      </trkpt>
      <trkpt lat="46.89014" lon="10.24551">
        <time>2022-03-11T08:48:03+00:00</time>
        <ele>2649.0</ele>
      </trkpt>
      <trkpt lat="46.89015" lon="10.24549">
        <time>2022-03-11T08:48:04+00:00</time>
        <ele>2650.0</ele>
      </trkpt>
      <trkpt lat="46.89017" lon="10.2454">
        <time>2022-03-11T08:48:13+00:00</time>
        <ele>2651.0</ele>
      </trkpt>
      <trkpt lat="46.89018" lon="10.24537">
        <time>2022-03-11T08:48:16+00:00</time>
        <ele>2652.0</ele>
      </trkpt>
      <trkpt lat="46.89021" lon="10.24528">
        <time>2022-03-11T08:48:26+00:00</time>
        <ele>2653.0</ele>
      </trkpt>
      <trkpt lat="46.89023" lon="10.24525">
        <time>2022-03-11T08:48:30+00:00</time>
        <ele>2653.0</ele>
      </trkpt>
      <trkpt lat="46.89025" lon="10.24521">
        <time>2022-03-11T08:48:36+00:00</time>
        <ele>2654.0</ele>
      </trkpt>
      <trkpt lat="46.89026" lon="10.24517">
        <time>2022-03-11T08:48:41+00:00</time>
        <ele>2654.0</ele>
      </trkpt>
      <trkpt lat="46.89027" lon="10.24515">
        <time>2022-03-11T08:48:45+00:00</time>
        <ele>2655.0</ele>
      </trkpt>
      <trkpt lat="46.89029" lon="10.24509">
        <time>2022-03-11T08:48:54+00:00</time>
        <ele>2655.0</ele>
      </trkpt>
      <trkpt lat="46.8903" lon="10.24508">
        <time>2022-03-11T08:48:57+00:00</time>
        <ele>2655.0</ele>
      </trkpt>
      <trkpt lat="46.89032" lon="10.24505">
        <time>2022-03-11T08:49:05+00:00</time>
        <ele>2655.0</ele>
      </trkpt>
      <trkpt lat="46.89033" lon="10.24504">
        <time>2022-03-11T08:49:08+00:00</time>
        <ele>2655.0</ele>
      </trkpt>
      <trkpt lat="46.89035" lon="10.24501">
        <time>2022-03-11T08:49:14+00:00</time>
        <ele>2655.0</ele>
      </trkpt>
      <trkpt lat="46.89035" lon="10.24501">
        <time>2022-03-11T08:49:15+00:00</time>
        <ele>2655.0</ele>
      </trkpt>
      <trkpt lat="46.8904" lon="10.24495">
        <time>2022-03-11T08:49:27+00:00</time>
        <ele>2655.0</ele>
      </trkpt>
      <trkpt lat="46.89041" lon="10.24495">
        <time>2022-03-11T08:49:28+00:00</time>
        <ele>2655.0</ele>
      </trkpt>
      <trkpt lat="46.89042" lon="10.24494">
        <time>2022-03-11T08:49:30+00:00</time>
        <ele>2655.0</ele>
      </trkpt>
      <trkpt lat="46.89042" lon="10.24493">
        <time>2022-03-11T08:49:33+00:00</time>
        <ele>2656.0</ele>
      </trkpt>
      <trkpt lat="46.89043" lon="10.24492">
        <time>2022-03-11T08:49:35+00:00</time>
        <ele>2656.0</ele>
      </trkpt>
      <trkpt lat="46.89043" lon="10.24491">
        <time>2022-03-11T08:49:36+00:00</time>
        <ele>2656.0</ele>
      </trkpt>
      <trkpt lat="46.89044" lon="10.24488">
        <time>2022-03-11T08:49:39+00:00</time>
        <ele>2656.0</ele>
      </trkpt>
      <trkpt lat="46.89047" lon="10.24485">
        <time>2022-03-11T08:49:44+00:00</time>
        <ele>2656.0</ele>
      </trkpt>
      <trkpt lat="46.89047" lon="10.24483">
        <time>2022-03-11T08:49:46+00:00</time>
        <ele>2657.0</ele>
      </trkpt>
      <trkpt lat="46.8905" lon="10.24479">
        <time>2022-03-11T08:49:53+00:00</time>
        <ele>2657.0</ele>
      </trkpt>
      <trkpt lat="46.8905" lon="10.24477">
        <time>2022-03-11T08:49:55+00:00</time>
        <ele>2658.0</ele>
      </trkpt>
      <trkpt lat="46.89051" lon="10.24474">
        <time>2022-03-11T08:49:59+00:00</time>
        <ele>2658.0</ele>
      </trkpt>
      <trkpt lat="46.89051" lon="10.24471">
        <time>2022-03-11T08:50:03+00:00</time>
        <ele>2659.0</ele>
      </trkpt>
      <trkpt lat="46.89051" lon="10.24468">
        <time>2022-03-11T08:50:07+00:00</time>
        <ele>2660.0</ele>
      </trkpt>
      <trkpt lat="46.8905" lon="10.24467">
        <time>2022-03-11T08:50:08+00:00</time>
        <ele>2660.0</ele>
      </trkpt>
      <trkpt lat="46.89048" lon="10.24463">
        <time>2022-03-11T08:50:16+00:00</time>
        <ele>2661.0</ele>
      </trkpt>
      <trkpt lat="46.89048" lon="10.24462">
        <time>2022-03-11T08:50:17+00:00</time>
        <ele>2661.0</ele>
      </trkpt>
      <trkpt lat="46.89047" lon="10.24459">
        <time>2022-03-11T08:50:21+00:00</time>
        <ele>2662.0</ele>
      </trkpt>
      <trkpt lat="46.89045" lon="10.24456">
        <time>2022-03-11T08:50:28+00:00</time>
        <ele>2663.0</ele>
      </trkpt>
      <trkpt lat="46.89042" lon="10.24453">
        <time>2022-03-11T08:50:34+00:00</time>
        <ele>2664.0</ele>
      </trkpt>
      <trkpt lat="46.8904" lon="10.24451">
        <time>2022-03-11T08:50:39+00:00</time>
        <ele>2664.0</ele>
      </trkpt>
      <trkpt lat="46.89039" lon="10.24451">
        <time>2022-03-11T08:50:40+00:00</time>
        <ele>2665.0</ele>
      </trkpt>
      <trkpt lat="46.89038" lon="10.2445">
        <time>2022-03-11T08:50:44+00:00</time>
        <ele>2665.0</ele>
      </trkpt>
      <trkpt lat="46.89036" lon="10.24446">
        <time>2022-03-11T08:50:49+00:00</time>
        <ele>2666.0</ele>
      </trkpt>
      <trkpt lat="46.89036" lon="10.24443">
        <time>2022-03-11T08:50:52+00:00</time>
        <ele>2666.0</ele>
      </trkpt>
      <trkpt lat="46.89037" lon="10.24437">
        <time>2022-03-11T08:50:59+00:00</time>
        <ele>2667.0</ele>
      </trkpt>
      <trkpt lat="46.89038" lon="10.24434">
        <time>2022-03-11T08:51:02+00:00</time>
        <ele>2668.0</ele>
      </trkpt>
      <trkpt lat="46.89041" lon="10.24426">
        <time>2022-03-11T08:51:11+00:00</time>
        <ele>2669.0</ele>
      </trkpt>
      <trkpt lat="46.89042" lon="10.24425">
        <time>2022-03-11T08:51:13+00:00</time>
        <ele>2669.0</ele>
      </trkpt>
      <trkpt lat="46.89043" lon="10.24423">
        <time>2022-03-11T08:51:18+00:00</time>
        <ele>2669.0</ele>
      </trkpt>
      <trkpt lat="46.89043" lon="10.24423">
        <time>2022-03-11T08:51:19+00:00</time>
        <ele>2669.0</ele>
      </trkpt>
      <trkpt lat="46.89046" lon="10.24425">
        <time>2022-03-11T08:51:26+00:00</time>
        <ele>2668.0</ele>
      </trkpt>
      <trkpt lat="46.89047" lon="10.24425">
        <time>2022-03-11T08:51:27+00:00</time>
        <ele>2668.0</ele>
      </trkpt>
      <trkpt lat="46.89052" lon="10.24426">
        <time>2022-03-11T08:51:33+00:00</time>
        <ele>2668.0</ele>
      </trkpt>
      <trkpt lat="46.89053" lon="10.24426">
        <time>2022-03-11T08:51:34+00:00</time>
        <ele>2668.0</ele>
      </trkpt>
      <trkpt lat="46.89059" lon="10.24419">
        <time>2022-03-11T08:51:44+00:00</time>
        <ele>2668.0</ele>
      </trkpt>
      <trkpt lat="46.89059" lon="10.24417">
        <time>2022-03-11T08:51:46+00:00</time>
        <ele>2669.0</ele>
      </trkpt>
      <trkpt lat="46.89063" lon="10.24407">
        <time>2022-03-11T08:51:56+00:00</time>
        <ele>2670.0</ele>
      </trkpt>
      <trkpt lat="46.89063" lon="10.24406">
        <time>2022-03-11T08:51:57+00:00</time>
        <ele>2670.0</ele>
      </trkpt>
      <trkpt lat="46.89063" lon="10.24406">
        <time>2022-03-11T08:52:00+00:00</time>
        <ele>2670.0</ele>
      </trkpt>
      <trkpt lat="46.89063" lon="10.24405">
        <time>2022-03-11T08:52:01+00:00</time>
        <ele>2670.0</ele>
      </trkpt>
      <trkpt lat="46.89064" lon="10.24405">
        <time>2022-03-11T08:52:03+00:00</time>
        <ele>2670.0</ele>
      </trkpt>
      <trkpt lat="46.89066" lon="10.24402">
        <time>2022-03-11T08:52:11+00:00</time>
        <ele>2670.0</ele>
      </trkpt>
      <trkpt lat="46.89066" lon="10.24403">
        <time>2022-03-11T08:52:13+00:00</time>
        <ele>2670.0</ele>
      </trkpt>
      <trkpt lat="46.89064" lon="10.24404">
        <time>2022-03-11T08:52:40+00:00</time>
        <ele>2670.0</ele>
      </trkpt>
      <trkpt lat="46.89064" lon="10.24406">
        <time>2022-03-11T08:52:52+00:00</time>
        <ele>2670.0</ele>
      </trkpt>
      <trkpt lat="46.89064" lon="10.24406">
        <time>2022-03-11T08:52:54+00:00</time>
        <ele>2670.0</ele>
      </trkpt>
      <trkpt lat="46.89062" lon="10.24405">
        <time>2022-03-11T08:54:21+00:00</time>
        <ele>2670.0</ele>
      </trkpt>
      <trkpt lat="46.89062" lon="10.24404">
        <time>2022-03-11T08:56:09+00:00</time>
        <ele>2670.0</ele>
      </trkpt>
      <trkpt lat="46.89062" lon="10.24404">
        <time>2022-03-11T08:57:33+00:00</time>
        <ele>2670.0</ele>
      </trkpt>
      <trkpt lat="46.89062" lon="10.24404">
        <time>2022-03-11T08:57:38+00:00</time>
        <ele>2670.0</ele>
      </trkpt>
      <trkpt lat="46.89062" lon="10.24404">
        <time>2022-03-11T08:57:39+00:00</time>
        <ele>2670.0</ele>
      </trkpt>
      <trkpt lat="46.89062" lon="10.24404">
        <time>2022-03-11T08:57:59+00:00</time>
        <ele>2670.0</ele>
      </trkpt>
      <trkpt lat="46.89062" lon="10.24404">
        <time>2022-03-11T08:58:23+00:00</time>
        <ele>2670.0</ele>
      </trkpt>
      <trkpt lat="46.89062" lon="10.24403">
        <time>2022-03-11T08:58:33+00:00</time>
        <ele>2670.0</ele>
      </trkpt>
      <trkpt lat="46.89062" lon="10.24403">
        <time>2022-03-11T08:58:40+00:00</time>
        <ele>2670.0</ele>
      </trkpt>
      <trkpt lat="46.89062" lon="10.24403">
        <time>2022-03-11T08:58:45+00:00</time>
        <ele>2670.0</ele>
      </trkpt>
      <trkpt lat="46.89062" lon="10.24403">
        <time>2022-03-11T08:58:55+00:00</time>
        <ele>2670.0</ele>
      </trkpt>
      <trkpt lat="46.89062" lon="10.24403">
        <time>2022-03-11T08:59:05+00:00</time>
        <ele>2670.0</ele>
      </trkpt>
      <trkpt lat="46.89062" lon="10.24403">
        <time>2022-03-11T08:59:14+00:00</time>
        <ele>2670.0</ele>
      </trkpt>
      <trkpt lat="46.89062" lon="10.24403">
        <time>2022-03-11T08:59:37+00:00</time>
        <ele>2670.0</ele>
      </trkpt>
      <trkpt lat="46.89062" lon="10.24403">
        <time>2022-03-11T08:59:40+00:00</time>
        <ele>2670.0</ele>
      </trkpt>
      <trkpt lat="46.89062" lon="10.24403">
        <time>2022-03-11T09:00:10+00:00</time>
        <ele>2670.0</ele>
      </trkpt>
      <trkpt lat="46.89064" lon="10.244">
        <time>2022-03-11T09:00:32+00:00</time>
        <ele>2671.0</ele>
      </trkpt>
      <trkpt lat="46.89064" lon="10.24399">
        <time>2022-03-11T09:00:34+00:00</time>
        <ele>2671.0</ele>
      </trkpt>
      <trkpt lat="46.89064" lon="10.24397">
        <time>2022-03-11T09:00:49+00:00</time>
        <ele>2671.0</ele>
      </trkpt>
      <trkpt lat="46.89064" lon="10.24396">
        <time>2022-03-11T09:01:08+00:00</time>
        <ele>2672.0</ele>
      </trkpt>
      <trkpt lat="46.89059" lon="10.24388">
        <time>2022-03-11T09:01:44+00:00</time>
        <ele>2673.0</ele>
      </trkpt>
      <trkpt lat="46.89059" lon="10.24385">
        <time>2022-03-11T09:01:46+00:00</time>
        <ele>2674.0</ele>
      </trkpt>
      <trkpt lat="46.89059" lon="10.24382">
        <time>2022-03-11T09:01:48+00:00</time>
        <ele>2674.0</ele>
      </trkpt>
      <trkpt lat="46.89058" lon="10.24378">
        <time>2022-03-11T09:01:52+00:00</time>
        <ele>2675.0</ele>
      </trkpt>
      <trkpt lat="46.89058" lon="10.24377">
        <time>2022-03-11T09:01:53+00:00</time>
        <ele>2675.0</ele>
      </trkpt>
      <trkpt lat="46.89058" lon="10.24376">
        <time>2022-03-11T09:01:54+00:00</time>
        <ele>2675.0</ele>
      </trkpt>
      <trkpt lat="46.89057" lon="10.24374">
        <time>2022-03-11T09:01:56+00:00</time>
        <ele>2676.0</ele>
      </trkpt>
      <trkpt lat="46.89057" lon="10.24373">
        <time>2022-03-11T09:01:57+00:00</time>
        <ele>2676.0</ele>
      </trkpt>
      <trkpt lat="46.89057" lon="10.24372">
        <time>2022-03-11T09:01:58+00:00</time>
        <ele>2676.0</ele>
      </trkpt>
      <trkpt lat="46.89057" lon="10.2437">
        <time>2022-03-11T09:02:00+00:00</time>
        <ele>2677.0</ele>
      </trkpt>
      <trkpt lat="46.89058" lon="10.24362">
        <time>2022-03-11T09:02:06+00:00</time>
        <ele>2678.0</ele>
      </trkpt>
      <trkpt lat="46.89058" lon="10.24356">
        <time>2022-03-11T09:02:12+00:00</time>
        <ele>2680.0</ele>
      </trkpt>
      <trkpt lat="46.89058" lon="10.24354">
        <time>2022-03-11T09:02:14+00:00</time>
        <ele>2680.0</ele>
      </trkpt>
      <trkpt lat="46.89058" lon="10.24351">
        <time>2022-03-11T09:02:18+00:00</time>
        <ele>2681.0</ele>
      </trkpt>
      <trkpt lat="46.89059" lon="10.24347">
        <time>2022-03-11T09:02:23+00:00</time>
        <ele>2681.0</ele>
      </trkpt>
      <trkpt lat="46.8906" lon="10.24344">
        <time>2022-03-11T09:02:27+00:00</time>
        <ele>2682.0</ele>
      </trkpt>
      <trkpt lat="46.8906" lon="10.24339">
        <time>2022-03-11T09:02:33+00:00</time>
        <ele>2682.0</ele>
      </trkpt>
      <trkpt lat="46.8906" lon="10.24336">
        <time>2022-03-11T09:02:37+00:00</time>
        <ele>2682.0</ele>
      </trkpt>
      <trkpt lat="46.89059" lon="10.2433">
        <time>2022-03-11T09:02:43+00:00</time>
        <ele>2683.0</ele>
      </trkpt>
      <trkpt lat="46.8906" lon="10.24327">
        <time>2022-03-11T09:02:48+00:00</time>
        <ele>2683.0</ele>
      </trkpt>
      <trkpt lat="46.8906" lon="10.24324">
        <time>2022-03-11T09:02:53+00:00</time>
        <ele>2684.0</ele>
      </trkpt>
      <trkpt lat="46.8906" lon="10.24321">
        <time>2022-03-11T09:02:56+00:00</time>
        <ele>2684.0</ele>
      </trkpt>
      <trkpt lat="46.89059" lon="10.2432">
        <time>2022-03-11T09:02:58+00:00</time>
        <ele>2685.0</ele>
      </trkpt>
      <trkpt lat="46.89059" lon="10.24317">
        <time>2022-03-11T09:03:01+00:00</time>
        <ele>2685.0</ele>
      </trkpt>
      <trkpt lat="46.89059" lon="10.24317">
        <time>2022-03-11T09:03:02+00:00</time>
        <ele>2685.0</ele>
      </trkpt>
      <trkpt lat="46.89058" lon="10.24315">
        <time>2022-03-11T09:03:05+00:00</time>
        <ele>2686.0</ele>
      </trkpt>
      <trkpt lat="46.89058" lon="10.24314">
        <time>2022-03-11T09:03:08+00:00</time>
        <ele>2686.0</ele>
      </trkpt>
      <trkpt lat="46.89059" lon="10.24313">
        <time>2022-03-11T09:03:09+00:00</time>
        <ele>2686.0</ele>
      </trkpt>
      <trkpt lat="46.89058" lon="10.2431">
        <time>2022-03-11T09:03:14+00:00</time>
        <ele>2687.0</ele>
      </trkpt>
      <trkpt lat="46.89058" lon="10.24307">
        <time>2022-03-11T09:03:18+00:00</time>
        <ele>2688.0</ele>
      </trkpt>
      <trkpt lat="46.89057" lon="10.24306">
        <time>2022-03-11T09:03:20+00:00</time>
        <ele>2688.0</ele>
      </trkpt>
      <trkpt lat="46.89056" lon="10.24302">
        <time>2022-03-11T09:03:25+00:00</time>
        <ele>2689.0</ele>
      </trkpt>
      <trkpt lat="46.89056" lon="10.24296">
        <time>2022-03-11T09:03:33+00:00</time>
        <ele>2691.0</ele>
      </trkpt>
      <trkpt lat="46.89056" lon="10.24295">
        <time>2022-03-11T09:03:34+00:00</time>
        <ele>2691.0</ele>
      </trkpt>
      <trkpt lat="46.89056" lon="10.24294">
        <time>2022-03-11T09:03:35+00:00</time>
        <ele>2691.0</ele>
      </trkpt>
      <trkpt lat="46.89055" lon="10.24289">
        <time>2022-03-11T09:03:42+00:00</time>
        <ele>2693.0</ele>
      </trkpt>
      <trkpt lat="46.89054" lon="10.24288">
        <time>2022-03-11T09:03:43+00:00</time>
        <ele>2693.0</ele>
      </trkpt>
      <trkpt lat="46.89052" lon="10.24281">
        <time>2022-03-11T09:03:52+00:00</time>
        <ele>2695.0</ele>
      </trkpt>
      <trkpt lat="46.8905" lon="10.24277">
        <time>2022-03-11T09:03:59+00:00</time>
        <ele>2696.0</ele>
      </trkpt>
      <trkpt lat="46.89048" lon="10.24272">
        <time>2022-03-11T09:04:05+00:00</time>
        <ele>2698.0</ele>
      </trkpt>
      <trkpt lat="46.89047" lon="10.2427">
        <time>2022-03-11T09:04:08+00:00</time>
        <ele>2698.0</ele>
      </trkpt>
      <trkpt lat="46.89045" lon="10.24265">
        <time>2022-03-11T09:04:13+00:00</time>
        <ele>2699.0</ele>
      </trkpt>
      <trkpt lat="46.89045" lon="10.24252">
        <time>2022-03-11T09:04:22+00:00</time>
        <ele>2702.0</ele>
      </trkpt>
      <trkpt lat="46.89045" lon="10.24248">
        <time>2022-03-11T09:04:26+00:00</time>
        <ele>2703.0</ele>
      </trkpt>
      <trkpt lat="46.89044" lon="10.24244">
        <time>2022-03-11T09:04:30+00:00</time>
        <ele>2704.0</ele>
      </trkpt>
      <trkpt lat="46.89045" lon="10.24239">
        <time>2022-03-11T09:04:35+00:00</time>
        <ele>2705.0</ele>
      </trkpt>
      <trkpt lat="46.89046" lon="10.24234">
        <time>2022-03-11T09:04:39+00:00</time>
        <ele>2705.0</ele>
      </trkpt>
      <trkpt lat="46.89046" lon="10.24231">
        <time>2022-03-11T09:04:42+00:00</time>
        <ele>2706.0</ele>
      </trkpt>
      <trkpt lat="46.89046" lon="10.24231">
        <time>2022-03-11T09:04:43+00:00</time>
        <ele>2706.0</ele>
      </trkpt>
      <trkpt lat="46.89047" lon="10.24226">
        <time>2022-03-11T09:04:49+00:00</time>
        <ele>2706.0</ele>
      </trkpt>
      <trkpt lat="46.89047" lon="10.24224">
        <time>2022-03-11T09:04:51+00:00</time>
        <ele>2707.0</ele>
      </trkpt>
      <trkpt lat="46.89049" lon="10.24217">
        <time>2022-03-11T09:04:59+00:00</time>
        <ele>2707.0</ele>
      </trkpt>
      <trkpt lat="46.89051" lon="10.24208">
        <time>2022-03-11T09:05:05+00:00</time>
        <ele>2708.0</ele>
      </trkpt>
      <trkpt lat="46.89051" lon="10.24205">
        <time>2022-03-11T09:05:06+00:00</time>
        <ele>2709.0</ele>
      </trkpt>
      <trkpt lat="46.89053" lon="10.24199">
        <time>2022-03-11T09:05:09+00:00</time>
        <ele>2709.0</ele>
      </trkpt>
      <trkpt lat="46.89054" lon="10.24196">
        <time>2022-03-11T09:05:12+00:00</time>
        <ele>2709.0</ele>
      </trkpt>
      <trkpt lat="46.89054" lon="10.24194">
        <time>2022-03-11T09:05:14+00:00</time>
        <ele>2709.0</ele>
      </trkpt>
      <trkpt lat="46.89054" lon="10.24192">
        <time>2022-03-11T09:05:21+00:00</time>
        <ele>2710.0</ele>
      </trkpt>
      <trkpt lat="46.89053" lon="10.24194">
        <time>2022-03-11T09:05:24+00:00</time>
        <ele>2710.0</ele>
      </trkpt>
      <trkpt lat="46.89053" lon="10.24194">
        <time>2022-03-11T09:05:31+00:00</time>
        <ele>2710.0</ele>
      </trkpt>
      <trkpt lat="46.89053" lon="10.24194">
        <time>2022-03-11T09:05:39+00:00</time>
        <ele>2710.0</ele>
      </trkpt>
      <trkpt lat="46.89057" lon="10.24193">
        <time>2022-03-11T09:06:25+00:00</time>
        <ele>2707.0</ele>
      </trkpt>
      <trkpt lat="46.89048" lon="10.24187">
        <time>2022-03-11T09:06:41+00:00</time>
        <ele>2714.0</ele>
      </trkpt>
      <trkpt lat="46.89042" lon="10.24185">
        <time>2022-03-11T09:06:45+00:00</time>
        <ele>2717.0</ele>
      </trkpt>
      <trkpt lat="46.8904" lon="10.24184">
        <time>2022-03-11T09:06:51+00:00</time>
        <ele>2718.0</ele>
      </trkpt>
      <trkpt lat="46.89042" lon="10.24187">
        <time>2022-03-11T09:06:58+00:00</time>
        <ele>2716.0</ele>
      </trkpt>
      <trkpt lat="46.89044" lon="10.24186">
        <time>2022-03-11T09:07:13+00:00</time>
        <ele>2715.0</ele>
      </trkpt>
      <trkpt lat="46.89056" lon="10.24193">
        <time>2022-03-11T09:09:13+00:00</time>
        <ele>2708.0</ele>
      </trkpt>
      <trkpt lat="46.89054" lon="10.24193">
        <time>2022-03-11T09:09:23+00:00</time>
        <ele>2709.0</ele>
      </trkpt>
      <trkpt lat="46.89054" lon="10.24194">
        <time>2022-03-11T09:09:31+00:00</time>
        <ele>2709.0</ele>
      </trkpt>
      <trkpt lat="46.89057" lon="10.24194">
        <time>2022-03-11T09:09:38+00:00</time>
        <ele>2707.0</ele>
      </trkpt>
      <trkpt lat="46.89057" lon="10.24194">
        <time>2022-03-11T09:09:43+00:00</time>
        <ele>2707.0</ele>
      </trkpt>
      <trkpt lat="46.89057" lon="10.24194">
        <time>2022-03-11T09:09:51+00:00</time>
        <ele>2707.0</ele>
      </trkpt>
      <trkpt lat="46.89049" lon="10.24194">
        <time>2022-03-11T09:10:28+00:00</time>
        <ele>2712.0</ele>
      </trkpt>
      <trkpt lat="46.89049" lon="10.24195">
        <time>2022-03-11T09:10:38+00:00</time>
        <ele>2712.0</ele>
      </trkpt>
      <trkpt lat="46.8905" lon="10.24195">
        <time>2022-03-11T09:10:49+00:00</time>
        <ele>2711.0</ele>
      </trkpt>
      <trkpt lat="46.89049" lon="10.24193">
        <time>2022-03-11T09:11:07+00:00</time>
        <ele>2712.0</ele>
      </trkpt>
      <trkpt lat="46.89051" lon="10.24192">
        <time>2022-03-11T09:11:14+00:00</time>
        <ele>2712.0</ele>
      </trkpt>
      <trkpt lat="46.89055" lon="10.24187">
        <time>2022-03-11T09:11:37+00:00</time>
        <ele>2709.0</ele>
      </trkpt>
      <trkpt lat="46.89062" lon="10.24175">
        <time>2022-03-11T09:11:42+00:00</time>
        <ele>2705.0</ele>
      </trkpt>
      <trkpt lat="46.89066" lon="10.24166">
        <time>2022-03-11T09:11:45+00:00</time>
        <ele>2703.0</ele>
      </trkpt>
      <trkpt lat="46.89068" lon="10.24159">
        <time>2022-03-11T09:11:50+00:00</time>
        <ele>2702.0</ele>
      </trkpt>
      <trkpt lat="46.89068" lon="10.24159">
        <time>2022-03-11T09:11:51+00:00</time>
        <ele>2702.0</ele>
      </trkpt>
      <trkpt lat="46.89069" lon="10.24157">
        <time>2022-03-11T09:11:54+00:00</time>
        <ele>2701.0</ele>
      </trkpt>
      <trkpt lat="46.89072" lon="10.24155">
        <time>2022-03-11T09:11:57+00:00</time>
        <ele>2699.0</ele>
      </trkpt>
      <trkpt lat="46.89073" lon="10.24154">
        <time>2022-03-11T09:11:58+00:00</time>
        <ele>2698.0</ele>
      </trkpt>
      <trkpt lat="46.89074" lon="10.24151">
        <time>2022-03-11T09:12:01+00:00</time>
        <ele>2698.0</ele>
      </trkpt>
      <trkpt lat="46.89074" lon="10.24145">
        <time>2022-03-11T09:12:08+00:00</time>
        <ele>2699.0</ele>
      </trkpt>
      <trkpt lat="46.89075" lon="10.2414">
        <time>2022-03-11T09:12:15+00:00</time>
        <ele>2699.0</ele>
      </trkpt>
      <trkpt lat="46.89078" lon="10.24131">
        <time>2022-03-11T09:12:23+00:00</time>
        <ele>2698.0</ele>
      </trkpt>
      <trkpt lat="46.89078" lon="10.24126">
        <time>2022-03-11T09:12:27+00:00</time>
        <ele>2698.0</ele>
      </trkpt>
      <trkpt lat="46.89079" lon="10.24122">
        <time>2022-03-11T09:12:32+00:00</time>
        <ele>2698.0</ele>
      </trkpt>
      <trkpt lat="46.89078" lon="10.24117">
        <time>2022-03-11T09:12:38+00:00</time>
        <ele>2700.0</ele>
      </trkpt>
      <trkpt lat="46.89079" lon="10.2411">
        <time>2022-03-11T09:12:45+00:00</time>
        <ele>2700.0</ele>
      </trkpt>
      <trkpt lat="46.89079" lon="10.24108">
        <time>2022-03-11T09:12:46+00:00</time>
        <ele>2700.0</ele>
      </trkpt>
      <trkpt lat="46.89079" lon="10.24106">
        <time>2022-03-11T09:12:47+00:00</time>
        <ele>2700.0</ele>
      </trkpt>
      <trkpt lat="46.8908" lon="10.24105">
        <time>2022-03-11T09:12:48+00:00</time>
        <ele>2700.0</ele>
      </trkpt>
      <trkpt lat="46.89081" lon="10.24101">
        <time>2022-03-11T09:12:52+00:00</time>
        <ele>2699.0</ele>
      </trkpt>
      <trkpt lat="46.89081" lon="10.24096">
        <time>2022-03-11T09:12:57+00:00</time>
        <ele>2700.0</ele>
      </trkpt>
      <trkpt lat="46.89081" lon="10.24092">
        <time>2022-03-11T09:13:03+00:00</time>
        <ele>2701.0</ele>
      </trkpt>
      <trkpt lat="46.89081" lon="10.24088">
        <time>2022-03-11T09:13:07+00:00</time>
        <ele>2701.0</ele>
      </trkpt>
      <trkpt lat="46.89081" lon="10.24088">
        <time>2022-03-11T09:13:08+00:00</time>
        <ele>2701.0</ele>
      </trkpt>
      <trkpt lat="46.89081" lon="10.24087">
        <time>2022-03-11T09:13:09+00:00</time>
        <ele>2701.0</ele>
      </trkpt>
      <trkpt lat="46.89081" lon="10.24087">
        <time>2022-03-11T09:13:11+00:00</time>
        <ele>2701.0</ele>
      </trkpt>
      <trkpt lat="46.8908" lon="10.24086">
        <time>2022-03-11T09:13:12+00:00</time>
        <ele>2702.0</ele>
      </trkpt>
      <trkpt lat="46.89081" lon="10.24085">
        <time>2022-03-11T09:13:13+00:00</time>
        <ele>2702.0</ele>
      </trkpt>
      <trkpt lat="46.89082" lon="10.24079">
        <time>2022-03-11T09:13:20+00:00</time>
        <ele>2702.0</ele>
      </trkpt>
      <trkpt lat="46.89082" lon="10.24075">
        <time>2022-03-11T09:13:23+00:00</time>
        <ele>2702.0</ele>
      </trkpt>
      <trkpt lat="46.89084" lon="10.24065">
        <time>2022-03-11T09:13:30+00:00</time>
        <ele>2703.0</ele>
      </trkpt>
      <trkpt lat="46.89086" lon="10.24061">
        <time>2022-03-11T09:13:33+00:00</time>
        <ele>2702.0</ele>
      </trkpt>
      <trkpt lat="46.89088" lon="10.2405">
        <time>2022-03-11T09:13:42+00:00</time>
        <ele>2702.0</ele>
      </trkpt>
      <trkpt lat="46.89089" lon="10.24042">
        <time>2022-03-11T09:13:49+00:00</time>
        <ele>2702.0</ele>
      </trkpt>
      <trkpt lat="46.89093" lon="10.24034">
        <time>2022-03-11T09:13:59+00:00</time>
        <ele>2701.0</ele>
      </trkpt>
      <trkpt lat="46.89093" lon="10.24034">
        <time>2022-03-11T09:14:00+00:00</time>
        <ele>2701.0</ele>
      </trkpt>
      <trkpt lat="46.89093" lon="10.24033">
        <time>2022-03-11T09:14:01+00:00</time>
        <ele>2701.0</ele>
      </trkpt>
      <trkpt lat="46.89095" lon="10.24025">
        <time>2022-03-11T09:14:08+00:00</time>
        <ele>2701.0</ele>
      </trkpt>
      <trkpt lat="46.89098" lon="10.24016">
        <time>2022-03-11T09:14:15+00:00</time>
        <ele>2701.0</ele>
      </trkpt>
      <trkpt lat="46.89099" lon="10.24014">
        <time>2022-03-11T09:14:16+00:00</time>
        <ele>2700.0</ele>
      </trkpt>
      <trkpt lat="46.891" lon="10.24006">
        <time>2022-03-11T09:14:22+00:00</time>
        <ele>2701.0</ele>
      </trkpt>
      <trkpt lat="46.89102" lon="10.23994">
        <time>2022-03-11T09:14:31+00:00</time>
        <ele>2701.0</ele>
      </trkpt>
      <trkpt lat="46.89102" lon="10.2399">
        <time>2022-03-11T09:14:34+00:00</time>
        <ele>2702.0</ele>
      </trkpt>
      <trkpt lat="46.89103" lon="10.23986">
        <time>2022-03-11T09:14:38+00:00</time>
        <ele>2702.0</ele>
      </trkpt>
      <trkpt lat="46.89105" lon="10.23978">
        <time>2022-03-11T09:14:45+00:00</time>
        <ele>2701.0</ele>
      </trkpt>
      <trkpt lat="46.89106" lon="10.23977">
        <time>2022-03-11T09:14:46+00:00</time>
        <ele>2701.0</ele>
      </trkpt>
      <trkpt lat="46.89108" lon="10.23969">
        <time>2022-03-11T09:14:53+00:00</time>
        <ele>2701.0</ele>
      </trkpt>
      <trkpt lat="46.89108" lon="10.23968">
        <time>2022-03-11T09:14:54+00:00</time>
        <ele>2701.0</ele>
      </trkpt>
      <trkpt lat="46.89111" lon="10.23957">
        <time>2022-03-11T09:15:03+00:00</time>
        <ele>2701.0</ele>
      </trkpt>
      <trkpt lat="46.89112" lon="10.23954">
        <time>2022-03-11T09:15:06+00:00</time>
        <ele>2701.0</ele>
      </trkpt>
      <trkpt lat="46.89112" lon="10.2395">
        <time>2022-03-11T09:15:11+00:00</time>
        <ele>2702.0</ele>
      </trkpt>
      <trkpt lat="46.89112" lon="10.23949">
        <time>2022-03-11T09:15:12+00:00</time>
        <ele>2702.0</ele>
      </trkpt>
      <trkpt lat="46.89113" lon="10.23942">
        <time>2022-03-11T09:15:19+00:00</time>
        <ele>2703.0</ele>
      </trkpt>
      <trkpt lat="46.89115" lon="10.23933">
        <time>2022-03-11T09:15:28+00:00</time>
        <ele>2704.0</ele>
      </trkpt>
      <trkpt lat="46.89115" lon="10.23932">
        <time>2022-03-11T09:15:31+00:00</time>
        <ele>2705.0</ele>
      </trkpt>
      <trkpt lat="46.89116" lon="10.23931">
        <time>2022-03-11T09:15:33+00:00</time>
        <ele>2704.0</ele>
      </trkpt>
      <trkpt lat="46.89115" lon="10.23927">
        <time>2022-03-11T09:15:39+00:00</time>
        <ele>2706.0</ele>
      </trkpt>
      <trkpt lat="46.89115" lon="10.23927">
        <time>2022-03-11T09:15:40+00:00</time>
        <ele>2706.0</ele>
      </trkpt>
      <trkpt lat="46.89115" lon="10.23925">
        <time>2022-03-11T09:15:47+00:00</time>
        <ele>2706.0</ele>
      </trkpt>
      <trkpt lat="46.89114" lon="10.23923">
        <time>2022-03-11T09:15:54+00:00</time>
        <ele>2707.0</ele>
      </trkpt>
      <trkpt lat="46.89114" lon="10.23922">
        <time>2022-03-11T09:15:55+00:00</time>
        <ele>2707.0</ele>
      </trkpt>
      <trkpt lat="46.89111" lon="10.23922">
        <time>2022-03-11T09:16:02+00:00</time>
        <ele>2709.0</ele>
      </trkpt>
      <trkpt lat="46.89111" lon="10.2392">
        <time>2022-03-11T09:16:05+00:00</time>
        <ele>2709.0</ele>
      </trkpt>
      <trkpt lat="46.89111" lon="10.23918">
        <time>2022-03-11T09:16:09+00:00</time>
        <ele>2709.0</ele>
      </trkpt>
      <trkpt lat="46.89109" lon="10.23918">
        <time>2022-03-11T09:16:12+00:00</time>
        <ele>2710.0</ele>
      </trkpt>
      <trkpt lat="46.8911" lon="10.23915">
        <time>2022-03-11T09:16:18+00:00</time>
        <ele>2710.0</ele>
      </trkpt>
      <trkpt lat="46.8911" lon="10.23914">
        <time>2022-03-11T09:16:19+00:00</time>
        <ele>2710.0</ele>
      </trkpt>
      <trkpt lat="46.89112" lon="10.2391">
        <time>2022-03-11T09:16:23+00:00</time>
        <ele>2710.0</ele>
      </trkpt>
      <trkpt lat="46.89111" lon="10.23903">
        <time>2022-03-11T09:16:31+00:00</time>
        <ele>2712.0</ele>
      </trkpt>
      <trkpt lat="46.8911" lon="10.23892">
        <time>2022-03-11T09:16:40+00:00</time>
        <ele>2714.0</ele>
      </trkpt>
      <trkpt lat="46.8911" lon="10.2389">
        <time>2022-03-11T09:16:41+00:00</time>
        <ele>2714.0</ele>
      </trkpt>
      <trkpt lat="46.89109" lon="10.23887">
        <time>2022-03-11T09:16:45+00:00</time>
        <ele>2715.0</ele>
      </trkpt>
      <trkpt lat="46.89109" lon="10.23886">
        <time>2022-03-11T09:16:47+00:00</time>
        <ele>2715.0</ele>
      </trkpt>
      <trkpt lat="46.89108" lon="10.23885">
        <time>2022-03-11T09:16:49+00:00</time>
        <ele>2716.0</ele>
      </trkpt>
      <trkpt lat="46.89108" lon="10.23883">
        <time>2022-03-11T09:16:51+00:00</time>
        <ele>2716.0</ele>
      </trkpt>
      <trkpt lat="46.89107" lon="10.23882">
        <time>2022-03-11T09:16:53+00:00</time>
        <ele>2716.0</ele>
      </trkpt>
      <trkpt lat="46.89107" lon="10.23882">
        <time>2022-03-11T09:16:54+00:00</time>
        <ele>2716.0</ele>
      </trkpt>
      <trkpt lat="46.89105" lon="10.23879">
        <time>2022-03-11T09:16:57+00:00</time>
        <ele>2718.0</ele>
      </trkpt>
      <trkpt lat="46.89104" lon="10.23878">
        <time>2022-03-11T09:16:59+00:00</time>
        <ele>2718.0</ele>
      </trkpt>
      <trkpt lat="46.89104" lon="10.23878">
        <time>2022-03-11T09:17:00+00:00</time>
        <ele>2718.0</ele>
      </trkpt>
      <trkpt lat="46.89104" lon="10.23875">
        <time>2022-03-11T09:17:02+00:00</time>
        <ele>2718.0</ele>
      </trkpt>
      <trkpt lat="46.89104" lon="10.23874">
        <time>2022-03-11T09:17:04+00:00</time>
        <ele>2719.0</ele>
      </trkpt>
      <trkpt lat="46.89103" lon="10.23872">
        <time>2022-03-11T09:17:06+00:00</time>
        <ele>2719.0</ele>
      </trkpt>
      <trkpt lat="46.89102" lon="10.23867">
        <time>2022-03-11T09:17:10+00:00</time>
        <ele>2720.0</ele>
      </trkpt>
      <trkpt lat="46.89101" lon="10.23865">
        <time>2022-03-11T09:17:13+00:00</time>
        <ele>2721.0</ele>
      </trkpt>
      <trkpt lat="46.89099" lon="10.23858">
        <time>2022-03-11T09:17:20+00:00</time>
        <ele>2722.0</ele>
      </trkpt>
      <trkpt lat="46.89099" lon="10.23856">
        <time>2022-03-11T09:17:21+00:00</time>
        <ele>2722.0</ele>
      </trkpt>
      <trkpt lat="46.89097" lon="10.23847">
        <time>2022-03-11T09:17:31+00:00</time>
        <ele>2724.0</ele>
      </trkpt>
      <trkpt lat="46.89096" lon="10.2384">
        <time>2022-03-11T09:17:38+00:00</time>
        <ele>2724.0</ele>
      </trkpt>
      <trkpt lat="46.89097" lon="10.23838">
        <time>2022-03-11T09:17:39+00:00</time>
        <ele>2724.0</ele>
      </trkpt>
      <trkpt lat="46.89098" lon="10.23831">
        <time>2022-03-11T09:17:45+00:00</time>
        <ele>2725.0</ele>
      </trkpt>
      <trkpt lat="46.89097" lon="10.23828">
        <time>2022-03-11T09:17:49+00:00</time>
        <ele>2725.0</ele>
      </trkpt>
      <trkpt lat="46.89097" lon="10.23827">
        <time>2022-03-11T09:17:50+00:00</time>
        <ele>2726.0</ele>
      </trkpt>
      <trkpt lat="46.89096" lon="10.23821">
        <time>2022-03-11T09:17:57+00:00</time>
        <ele>2726.0</ele>
      </trkpt>
      <trkpt lat="46.89097" lon="10.2382">
        <time>2022-03-11T09:17:58+00:00</time>
        <ele>2726.0</ele>
      </trkpt>
      <trkpt lat="46.89097" lon="10.23814">
        <time>2022-03-11T09:18:05+00:00</time>
        <ele>2727.0</ele>
      </trkpt>
      <trkpt lat="46.89096" lon="10.2381">
        <time>2022-03-11T09:18:08+00:00</time>
        <ele>2727.0</ele>
      </trkpt>
      <trkpt lat="46.89096" lon="10.23807">
        <time>2022-03-11T09:18:11+00:00</time>
        <ele>2728.0</ele>
      </trkpt>
      <trkpt lat="46.89095" lon="10.23803">
        <time>2022-03-11T09:18:17+00:00</time>
        <ele>2728.0</ele>
      </trkpt>
      <trkpt lat="46.89095" lon="10.23802">
        <time>2022-03-11T09:18:18+00:00</time>
        <ele>2728.0</ele>
      </trkpt>
      <trkpt lat="46.89094" lon="10.23799">
        <time>2022-03-11T09:18:23+00:00</time>
        <ele>2728.0</ele>
      </trkpt>
      <trkpt lat="46.89092" lon="10.23796">
        <time>2022-03-11T09:18:27+00:00</time>
        <ele>2729.0</ele>
      </trkpt>
      <trkpt lat="46.8909" lon="10.23793">
        <time>2022-03-11T09:18:33+00:00</time>
        <ele>2729.0</ele>
      </trkpt>
      <trkpt lat="46.89089" lon="10.23789">
        <time>2022-03-11T09:18:37+00:00</time>
        <ele>2729.0</ele>
      </trkpt>
      <trkpt lat="46.89088" lon="10.23787">
        <time>2022-03-11T09:18:40+00:00</time>
        <ele>2730.0</ele>
      </trkpt>
      <trkpt lat="46.89088" lon="10.23783">
        <time>2022-03-11T09:18:45+00:00</time>
        <ele>2730.0</ele>
      </trkpt>
      <trkpt lat="46.89087" lon="10.23781">
        <time>2022-03-11T09:18:49+00:00</time>
        <ele>2731.0</ele>
      </trkpt>
      <trkpt lat="46.89086" lon="10.23777">
        <time>2022-03-11T09:18:53+00:00</time>
        <ele>2732.0</ele>
      </trkpt>
      <trkpt lat="46.89086" lon="10.23772">
        <time>2022-03-11T09:18:58+00:00</time>
        <ele>2733.0</ele>
      </trkpt>
      <trkpt lat="46.89085" lon="10.2377">
        <time>2022-03-11T09:19:01+00:00</time>
        <ele>2734.0</ele>
      </trkpt>
      <trkpt lat="46.89084" lon="10.2377">
        <time>2022-03-11T09:19:02+00:00</time>
        <ele>2734.0</ele>
      </trkpt>
      <trkpt lat="46.89083" lon="10.23765">
        <time>2022-03-11T09:19:07+00:00</time>
        <ele>2736.0</ele>
      </trkpt>
      <trkpt lat="46.89082" lon="10.23764">
        <time>2022-03-11T09:19:09+00:00</time>
        <ele>2736.0</ele>
      </trkpt>
      <trkpt lat="46.89082" lon="10.23763">
        <time>2022-03-11T09:19:11+00:00</time>
        <ele>2736.0</ele>
      </trkpt>
      <trkpt lat="46.89082" lon="10.23761">
        <time>2022-03-11T09:19:13+00:00</time>
        <ele>2737.0</ele>
      </trkpt>
      <trkpt lat="46.89081" lon="10.23759">
        <time>2022-03-11T09:19:16+00:00</time>
        <ele>2737.0</ele>
      </trkpt>
      <trkpt lat="46.8908" lon="10.23757">
        <time>2022-03-11T09:19:18+00:00</time>
        <ele>2738.0</ele>
      </trkpt>
      <trkpt lat="46.89079" lon="10.23752">
        <time>2022-03-11T09:19:26+00:00</time>
        <ele>2740.0</ele>
      </trkpt>
      <trkpt lat="46.89078" lon="10.23752">
        <time>2022-03-11T09:19:27+00:00</time>
        <ele>2740.0</ele>
      </trkpt>
      <trkpt lat="46.89077" lon="10.23749">
        <time>2022-03-11T09:19:31+00:00</time>
        <ele>2741.0</ele>
      </trkpt>
      <trkpt lat="46.89075" lon="10.23747">
        <time>2022-03-11T09:19:36+00:00</time>
        <ele>2742.0</ele>
      </trkpt>
      <trkpt lat="46.89075" lon="10.23743">
        <time>2022-03-11T09:19:41+00:00</time>
        <ele>2743.0</ele>
      </trkpt>
      <trkpt lat="46.89072" lon="10.23741">
        <time>2022-03-11T09:19:47+00:00</time>
        <ele>2743.0</ele>
      </trkpt>
      <trkpt lat="46.89072" lon="10.23739">
        <time>2022-03-11T09:19:49+00:00</time>
        <ele>2744.0</ele>
      </trkpt>
      <trkpt lat="46.89069" lon="10.23736">
        <time>2022-03-11T09:19:58+00:00</time>
        <ele>2745.0</ele>
      </trkpt>
      <trkpt lat="46.89068" lon="10.2373">
        <time>2022-03-11T09:20:05+00:00</time>
        <ele>2746.0</ele>
      </trkpt>
      <trkpt lat="46.89068" lon="10.23728">
        <time>2022-03-11T09:20:08+00:00</time>
        <ele>2747.0</ele>
      </trkpt>
      <trkpt lat="46.89066" lon="10.23726">
        <time>2022-03-11T09:20:14+00:00</time>
        <ele>2748.0</ele>
      </trkpt>
      <trkpt lat="46.89065" lon="10.23725">
        <time>2022-03-11T09:20:15+00:00</time>
        <ele>2748.0</ele>
      </trkpt>
      <trkpt lat="46.8906" lon="10.23727">
        <time>2022-03-11T09:20:23+00:00</time>
        <ele>2749.0</ele>
      </trkpt>
      <trkpt lat="46.8906" lon="10.23727">
        <time>2022-03-11T09:20:24+00:00</time>
        <ele>2749.0</ele>
      </trkpt>
      <trkpt lat="46.89057" lon="10.23726">
        <time>2022-03-11T09:20:33+00:00</time>
        <ele>2750.0</ele>
      </trkpt>
      <trkpt lat="46.89053" lon="10.23727">
        <time>2022-03-11T09:20:40+00:00</time>
        <ele>2751.0</ele>
      </trkpt>
      <trkpt lat="46.8905" lon="10.23728">
        <time>2022-03-11T09:20:45+00:00</time>
        <ele>2751.0</ele>
      </trkpt>
      <trkpt lat="46.89047" lon="10.23728">
        <time>2022-03-11T09:20:52+00:00</time>
        <ele>2752.0</ele>
      </trkpt>
      <trkpt lat="46.89044" lon="10.23728">
        <time>2022-03-11T09:20:58+00:00</time>
        <ele>2753.0</ele>
      </trkpt>
      <trkpt lat="46.89044" lon="10.23728">
        <time>2022-03-11T09:20:59+00:00</time>
        <ele>2753.0</ele>
      </trkpt>
      <trkpt lat="46.8904" lon="10.23728">
        <time>2022-03-11T09:21:06+00:00</time>
        <ele>2753.0</ele>
      </trkpt>
      <trkpt lat="46.8904" lon="10.23728">
        <time>2022-03-11T09:21:07+00:00</time>
        <ele>2753.0</ele>
      </trkpt>
      <trkpt lat="46.89035" lon="10.23729">
        <time>2022-03-11T09:21:16+00:00</time>
        <ele>2754.0</ele>
      </trkpt>
      <trkpt lat="46.89033" lon="10.23727">
        <time>2022-03-11T09:21:23+00:00</time>
        <ele>2755.0</ele>
      </trkpt>
      <trkpt lat="46.89032" lon="10.23727">
        <time>2022-03-11T09:21:24+00:00</time>
        <ele>2755.0</ele>
      </trkpt>
      <trkpt lat="46.89031" lon="10.23725">
        <time>2022-03-11T09:21:28+00:00</time>
        <ele>2756.0</ele>
      </trkpt>
      <trkpt lat="46.89029" lon="10.23725">
        <time>2022-03-11T09:21:32+00:00</time>
        <ele>2757.0</ele>
      </trkpt>
      <trkpt lat="46.89025" lon="10.23722">
        <time>2022-03-11T09:21:41+00:00</time>
        <ele>2759.0</ele>
      </trkpt>
      <trkpt lat="46.89024" lon="10.23721">
        <time>2022-03-11T09:21:44+00:00</time>
        <ele>2759.0</ele>
      </trkpt>
      <trkpt lat="46.89023" lon="10.23721">
        <time>2022-03-11T09:21:49+00:00</time>
        <ele>2759.0</ele>
      </trkpt>
      <trkpt lat="46.89018" lon="10.23718">
        <time>2022-03-11T09:22:00+00:00</time>
        <ele>2761.0</ele>
      </trkpt>
      <trkpt lat="46.89018" lon="10.23718">
        <time>2022-03-11T09:22:01+00:00</time>
        <ele>2761.0</ele>
      </trkpt>
      <trkpt lat="46.89015" lon="10.23718">
        <time>2022-03-11T09:22:09+00:00</time>
        <ele>2762.0</ele>
      </trkpt>
      <trkpt lat="46.89013" lon="10.23716">
        <time>2022-03-11T09:22:14+00:00</time>
        <ele>2763.0</ele>
      </trkpt>
      <trkpt lat="46.89012" lon="10.23716">
        <time>2022-03-11T09:22:17+00:00</time>
        <ele>2764.0</ele>
      </trkpt>
      <trkpt lat="46.89007" lon="10.23714">
        <time>2022-03-11T09:22:25+00:00</time>
        <ele>2767.0</ele>
      </trkpt>
      <trkpt lat="46.89007" lon="10.23713">
        <time>2022-03-11T09:22:26+00:00</time>
        <ele>2766.0</ele>
      </trkpt>
      <trkpt lat="46.89005" lon="10.23712">
        <time>2022-03-11T09:22:32+00:00</time>
        <ele>2767.0</ele>
      </trkpt>
      <trkpt lat="46.89005" lon="10.23712">
        <time>2022-03-11T09:22:33+00:00</time>
        <ele>2767.0</ele>
      </trkpt>
      <trkpt lat="46.89" lon="10.23709">
        <time>2022-03-11T09:22:44+00:00</time>
        <ele>2770.0</ele>
      </trkpt>
      <trkpt lat="46.88999" lon="10.23709">
        <time>2022-03-11T09:22:47+00:00</time>
        <ele>2770.0</ele>
      </trkpt>
      <trkpt lat="46.88997" lon="10.23707">
        <time>2022-03-11T09:22:54+00:00</time>
        <ele>2771.0</ele>
      </trkpt>
      <trkpt lat="46.88994" lon="10.23703">
        <time>2022-03-11T09:23:05+00:00</time>
        <ele>2773.0</ele>
      </trkpt>
      <trkpt lat="46.88997" lon="10.23693">
        <time>2022-03-11T09:23:17+00:00</time>
        <ele>2773.0</ele>
      </trkpt>
      <trkpt lat="46.88997" lon="10.23692">
        <time>2022-03-11T09:23:18+00:00</time>
        <ele>2773.0</ele>
      </trkpt>
      <trkpt lat="46.88997" lon="10.23689">
        <time>2022-03-11T09:23:25+00:00</time>
        <ele>2773.0</ele>
      </trkpt>
      <trkpt lat="46.88997" lon="10.23684">
        <time>2022-03-11T09:23:31+00:00</time>
        <ele>2774.0</ele>
      </trkpt>
      <trkpt lat="46.88997" lon="10.23684">
        <time>2022-03-11T09:23:32+00:00</time>
        <ele>2774.0</ele>
      </trkpt>
      <trkpt lat="46.88996" lon="10.23679">
        <time>2022-03-11T09:23:40+00:00</time>
        <ele>2775.0</ele>
      </trkpt>
      <trkpt lat="46.88996" lon="10.23678">
        <time>2022-03-11T09:23:44+00:00</time>
        <ele>2775.0</ele>
      </trkpt>
      <trkpt lat="46.88996" lon="10.23676">
        <time>2022-03-11T09:23:48+00:00</time>
        <ele>2775.0</ele>
      </trkpt>
      <trkpt lat="46.88997" lon="10.23675">
        <time>2022-03-11T09:23:50+00:00</time>
        <ele>2775.0</ele>
      </trkpt>
      <trkpt lat="46.88997" lon="10.2367">
        <time>2022-03-11T09:23:58+00:00</time>
        <ele>2776.0</ele>
      </trkpt>
      <trkpt lat="46.88994" lon="10.23669">
        <time>2022-03-11T09:24:02+00:00</time>
        <ele>2777.0</ele>
      </trkpt>
      <trkpt lat="46.88996" lon="10.23665">
        <time>2022-03-11T09:24:08+00:00</time>
        <ele>2777.0</ele>
      </trkpt>
      <trkpt lat="46.88994" lon="10.23664">
        <time>2022-03-11T09:24:11+00:00</time>
        <ele>2778.0</ele>
      </trkpt>
      <trkpt lat="46.88994" lon="10.23661">
        <time>2022-03-11T09:24:15+00:00</time>
        <ele>2778.0</ele>
      </trkpt>
      <trkpt lat="46.88993" lon="10.23657">
        <time>2022-03-11T09:24:21+00:00</time>
        <ele>2779.0</ele>
      </trkpt>
      <trkpt lat="46.88994" lon="10.23655">
        <time>2022-03-11T09:24:23+00:00</time>
        <ele>2780.0</ele>
      </trkpt>
      <trkpt lat="46.88995" lon="10.23647">
        <time>2022-03-11T09:24:34+00:00</time>
        <ele>2780.0</ele>
      </trkpt>
      <trkpt lat="46.88994" lon="10.23645">
        <time>2022-03-11T09:24:38+00:00</time>
        <ele>2781.0</ele>
      </trkpt>
      <trkpt lat="46.88994" lon="10.23641">
        <time>2022-03-11T09:24:43+00:00</time>
        <ele>2781.0</ele>
      </trkpt>
      <trkpt lat="46.88993" lon="10.23635">
        <time>2022-03-11T09:24:54+00:00</time>
        <ele>2782.0</ele>
      </trkpt>
      <trkpt lat="46.88993" lon="10.23635">
        <time>2022-03-11T09:24:55+00:00</time>
        <ele>2782.0</ele>
      </trkpt>
      <trkpt lat="46.8899" lon="10.23631">
        <time>2022-03-11T09:25:02+00:00</time>
        <ele>2784.0</ele>
      </trkpt>
      <trkpt lat="46.88987" lon="10.23633">
        <time>2022-03-11T09:25:06+00:00</time>
        <ele>2784.0</ele>
      </trkpt>
      <trkpt lat="46.88984" lon="10.23635">
        <time>2022-03-11T09:25:10+00:00</time>
        <ele>2785.0</ele>
      </trkpt>
      <trkpt lat="46.88976" lon="10.23639">
        <time>2022-03-11T09:25:22+00:00</time>
        <ele>2787.0</ele>
      </trkpt>
      <trkpt lat="46.88976" lon="10.23639">
        <time>2022-03-11T09:25:24+00:00</time>
        <ele>2787.0</ele>
      </trkpt>
      <trkpt lat="46.88974" lon="10.23639">
        <time>2022-03-11T09:25:29+00:00</time>
        <ele>2788.0</ele>
      </trkpt>
      <trkpt lat="46.8897" lon="10.23639">
        <time>2022-03-11T09:25:36+00:00</time>
        <ele>2790.0</ele>
      </trkpt>
      <trkpt lat="46.88969" lon="10.23639">
        <time>2022-03-11T09:25:40+00:00</time>
        <ele>2791.0</ele>
      </trkpt>
      <trkpt lat="46.88968" lon="10.23639">
        <time>2022-03-11T09:25:43+00:00</time>
        <ele>2791.0</ele>
      </trkpt>
      <trkpt lat="46.88965" lon="10.23638">
        <time>2022-03-11T09:25:49+00:00</time>
        <ele>2793.0</ele>
      </trkpt>
      <trkpt lat="46.88962" lon="10.23638">
        <time>2022-03-11T09:25:56+00:00</time>
        <ele>2794.0</ele>
      </trkpt>
      <trkpt lat="46.88959" lon="10.23635">
        <time>2022-03-11T09:26:05+00:00</time>
        <ele>2796.0</ele>
      </trkpt>
      <trkpt lat="46.88958" lon="10.23634">
        <time>2022-03-11T09:26:08+00:00</time>
        <ele>2797.0</ele>
      </trkpt>
      <trkpt lat="46.88956" lon="10.23634">
        <time>2022-03-11T09:26:13+00:00</time>
        <ele>2798.0</ele>
      </trkpt>
      <trkpt lat="46.88953" lon="10.23634">
        <time>2022-03-11T09:26:20+00:00</time>
        <ele>2800.0</ele>
      </trkpt>
      <trkpt lat="46.88951" lon="10.23633">
        <time>2022-03-11T09:26:24+00:00</time>
        <ele>2801.0</ele>
      </trkpt>
      <trkpt lat="46.8895" lon="10.23632">
        <time>2022-03-11T09:26:28+00:00</time>
        <ele>2802.0</ele>
      </trkpt>
      <trkpt lat="46.88948" lon="10.23632">
        <time>2022-03-11T09:26:32+00:00</time>
        <ele>2803.0</ele>
      </trkpt>
      <trkpt lat="46.88946" lon="10.23632">
        <time>2022-03-11T09:26:36+00:00</time>
        <ele>2805.0</ele>
      </trkpt>
      <trkpt lat="46.88944" lon="10.23631">
        <time>2022-03-11T09:26:41+00:00</time>
        <ele>2806.0</ele>
      </trkpt>
      <trkpt lat="46.88943" lon="10.23631">
        <time>2022-03-11T09:26:44+00:00</time>
        <ele>2806.0</ele>
      </trkpt>
      <trkpt lat="46.88939" lon="10.2363">
        <time>2022-03-11T09:26:51+00:00</time>
        <ele>2809.0</ele>
      </trkpt>
      <trkpt lat="46.88938" lon="10.23629">
        <time>2022-03-11T09:26:53+00:00</time>
        <ele>2809.0</ele>
      </trkpt>
      <trkpt lat="46.88936" lon="10.23626">
        <time>2022-03-11T09:26:57+00:00</time>
        <ele>2810.0</ele>
      </trkpt>
      <trkpt lat="46.88934" lon="10.23627">
        <time>2022-03-11T09:27:03+00:00</time>
        <ele>2811.0</ele>
      </trkpt>
      <trkpt lat="46.88931" lon="10.23626">
        <time>2022-03-11T09:27:08+00:00</time>
        <ele>2812.0</ele>
      </trkpt>
      <trkpt lat="46.88929" lon="10.23626">
        <time>2022-03-11T09:27:12+00:00</time>
        <ele>2813.0</ele>
      </trkpt>
      <trkpt lat="46.88929" lon="10.23626">
        <time>2022-03-11T09:27:14+00:00</time>
        <ele>2813.0</ele>
      </trkpt>
      <trkpt lat="46.88928" lon="10.23625">
        <time>2022-03-11T09:27:16+00:00</time>
        <ele>2813.0</ele>
      </trkpt>
      <trkpt lat="46.88929" lon="10.2362">
        <time>2022-03-11T09:27:23+00:00</time>
        <ele>2813.0</ele>
      </trkpt>
      <trkpt lat="46.88929" lon="10.23619">
        <time>2022-03-11T09:27:25+00:00</time>
        <ele>2813.0</ele>
      </trkpt>
      <trkpt lat="46.88929" lon="10.23618">
        <time>2022-03-11T09:27:26+00:00</time>
        <ele>2813.0</ele>
      </trkpt>
      <trkpt lat="46.88929" lon="10.23615">
        <time>2022-03-11T09:27:30+00:00</time>
        <ele>2813.0</ele>
      </trkpt>
      <trkpt lat="46.8893" lon="10.23614">
        <time>2022-03-11T09:27:32+00:00</time>
        <ele>2813.0</ele>
      </trkpt>
      <trkpt lat="46.88929" lon="10.23613">
        <time>2022-03-11T09:27:34+00:00</time>
        <ele>2813.0</ele>
      </trkpt>
      <trkpt lat="46.88929" lon="10.23612">
        <time>2022-03-11T09:27:35+00:00</time>
        <ele>2813.0</ele>
      </trkpt>
      <trkpt lat="46.8893" lon="10.2361">
        <time>2022-03-11T09:27:37+00:00</time>
        <ele>2813.0</ele>
      </trkpt>
      <trkpt lat="46.88931" lon="10.23607">
        <time>2022-03-11T09:27:40+00:00</time>
        <ele>2813.0</ele>
      </trkpt>
      <trkpt lat="46.8893" lon="10.23605">
        <time>2022-03-11T09:27:43+00:00</time>
        <ele>2813.0</ele>
      </trkpt>
      <trkpt lat="46.8893" lon="10.23605">
        <time>2022-03-11T09:27:44+00:00</time>
        <ele>2813.0</ele>
      </trkpt>
      <trkpt lat="46.88929" lon="10.23605">
        <time>2022-03-11T09:27:46+00:00</time>
        <ele>2813.0</ele>
      </trkpt>
      <trkpt lat="46.88928" lon="10.23604">
        <time>2022-03-11T09:27:47+00:00</time>
        <ele>2814.0</ele>
      </trkpt>
      <trkpt lat="46.88925" lon="10.23601">
        <time>2022-03-11T09:27:52+00:00</time>
        <ele>2815.0</ele>
      </trkpt>
      <trkpt lat="46.88925" lon="10.23601">
        <time>2022-03-11T09:27:53+00:00</time>
        <ele>2815.0</ele>
      </trkpt>
      <trkpt lat="46.88921" lon="10.23601">
        <time>2022-03-11T09:27:57+00:00</time>
        <ele>2816.0</ele>
      </trkpt>
      <trkpt lat="46.8892" lon="10.23601">
        <time>2022-03-11T09:27:59+00:00</time>
        <ele>2817.0</ele>
      </trkpt>
      <trkpt lat="46.88919" lon="10.23601">
        <time>2022-03-11T09:28:00+00:00</time>
        <ele>2817.0</ele>
      </trkpt>
      <trkpt lat="46.88916" lon="10.23602">
        <time>2022-03-11T09:28:05+00:00</time>
        <ele>2819.0</ele>
      </trkpt>
      <trkpt lat="46.88915" lon="10.23602">
        <time>2022-03-11T09:28:07+00:00</time>
        <ele>2819.0</ele>
      </trkpt>
      <trkpt lat="46.88909" lon="10.23604">
        <time>2022-03-11T09:28:16+00:00</time>
        <ele>2823.0</ele>
      </trkpt>
      <trkpt lat="46.88906" lon="10.23605">
        <time>2022-03-11T09:28:21+00:00</time>
        <ele>2824.0</ele>
      </trkpt>
      <trkpt lat="46.88903" lon="10.23607">
        <time>2022-03-11T09:28:25+00:00</time>
        <ele>2826.0</ele>
      </trkpt>
      <trkpt lat="46.88901" lon="10.23609">
        <time>2022-03-11T09:28:30+00:00</time>
        <ele>2827.0</ele>
      </trkpt>
      <trkpt lat="46.88899" lon="10.2361">
        <time>2022-03-11T09:28:33+00:00</time>
        <ele>2827.0</ele>
      </trkpt>
      <trkpt lat="46.88899" lon="10.23611">
        <time>2022-03-11T09:28:35+00:00</time>
        <ele>2828.0</ele>
      </trkpt>
      <trkpt lat="46.88897" lon="10.23609">
        <time>2022-03-11T09:28:42+00:00</time>
        <ele>2828.0</ele>
      </trkpt>
      <trkpt lat="46.88896" lon="10.23607">
        <time>2022-03-11T09:28:46+00:00</time>
        <ele>2828.0</ele>
      </trkpt>
      <trkpt lat="46.88895" lon="10.23606">
        <time>2022-03-11T09:28:47+00:00</time>
        <ele>2829.0</ele>
      </trkpt>
      <trkpt lat="46.88892" lon="10.23602">
        <time>2022-03-11T09:28:54+00:00</time>
        <ele>2830.0</ele>
      </trkpt>
      <trkpt lat="46.88887" lon="10.23606">
        <time>2022-03-11T09:29:03+00:00</time>
        <ele>2832.0</ele>
      </trkpt>
      <trkpt lat="46.88886" lon="10.23608">
        <time>2022-03-11T09:29:05+00:00</time>
        <ele>2832.0</ele>
      </trkpt>
      <trkpt lat="46.88881" lon="10.23615">
        <time>2022-03-11T09:29:14+00:00</time>
        <ele>2833.0</ele>
      </trkpt>
      <trkpt lat="46.8888" lon="10.23617">
        <time>2022-03-11T09:29:17+00:00</time>
        <ele>2834.0</ele>
      </trkpt>
      <trkpt lat="46.88879" lon="10.2362">
        <time>2022-03-11T09:29:20+00:00</time>
        <ele>2834.0</ele>
      </trkpt>
      <trkpt lat="46.88879" lon="10.2362">
        <time>2022-03-11T09:29:21+00:00</time>
        <ele>2834.0</ele>
      </trkpt>
      <trkpt lat="46.88877" lon="10.23624">
        <time>2022-03-11T09:29:26+00:00</time>
        <ele>2834.0</ele>
      </trkpt>
      <trkpt lat="46.88875" lon="10.23629">
        <time>2022-03-11T09:29:32+00:00</time>
        <ele>2835.0</ele>
      </trkpt>
      <trkpt lat="46.88872" lon="10.23636">
        <time>2022-03-11T09:29:40+00:00</time>
        <ele>2836.0</ele>
      </trkpt>
      <trkpt lat="46.88872" lon="10.23636">
        <time>2022-03-11T09:29:41+00:00</time>
        <ele>2836.0</ele>
      </trkpt>
      <trkpt lat="46.8887" lon="10.23641">
        <time>2022-03-11T09:29:46+00:00</time>
        <ele>2837.0</ele>
      </trkpt>
      <trkpt lat="46.88869" lon="10.23644">
        <time>2022-03-11T09:29:51+00:00</time>
        <ele>2838.0</ele>
      </trkpt>
      <trkpt lat="46.88867" lon="10.23645">
        <time>2022-03-11T09:29:55+00:00</time>
        <ele>2837.0</ele>
      </trkpt>
      <trkpt lat="46.88864" lon="10.23644">
        <time>2022-03-11T09:30:00+00:00</time>
        <ele>2836.0</ele>
      </trkpt>
      <trkpt lat="46.88861" lon="10.2364">
        <time>2022-03-11T09:30:09+00:00</time>
        <ele>2834.0</ele>
      </trkpt>
      <trkpt lat="46.88862" lon="10.23632">
        <time>2022-03-11T09:30:16+00:00</time>
        <ele>2834.0</ele>
      </trkpt>
      <trkpt lat="46.88862" lon="10.23624">
        <time>2022-03-11T09:30:23+00:00</time>
        <ele>2833.0</ele>
      </trkpt>
      <trkpt lat="46.88863" lon="10.23617">
        <time>2022-03-11T09:30:30+00:00</time>
        <ele>2833.0</ele>
      </trkpt>
      <trkpt lat="46.88862" lon="10.23615">
        <time>2022-03-11T09:30:32+00:00</time>
        <ele>2833.0</ele>
      </trkpt>
      <trkpt lat="46.88862" lon="10.23611">
        <time>2022-03-11T09:30:37+00:00</time>
        <ele>2833.0</ele>
      </trkpt>
      <trkpt lat="46.88862" lon="10.2361">
        <time>2022-03-11T09:30:38+00:00</time>
        <ele>2833.0</ele>
      </trkpt>
      <trkpt lat="46.88861" lon="10.23607">
        <time>2022-03-11T09:30:42+00:00</time>
        <ele>2833.0</ele>
      </trkpt>
      <trkpt lat="46.88862" lon="10.23604">
        <time>2022-03-11T09:30:46+00:00</time>
        <ele>2833.0</ele>
      </trkpt>
      <trkpt lat="46.88862" lon="10.23603">
        <time>2022-03-11T09:30:47+00:00</time>
        <ele>2833.0</ele>
      </trkpt>
      <trkpt lat="46.8886" lon="10.23596">
        <time>2022-03-11T09:30:59+00:00</time>
        <ele>2833.0</ele>
      </trkpt>
      <trkpt lat="46.8886" lon="10.23595">
        <time>2022-03-11T09:31:00+00:00</time>
        <ele>2833.0</ele>
      </trkpt>
      <trkpt lat="46.88861" lon="10.23588">
        <time>2022-03-11T09:31:09+00:00</time>
        <ele>2833.0</ele>
      </trkpt>
      <trkpt lat="46.88861" lon="10.23585">
        <time>2022-03-11T09:31:12+00:00</time>
        <ele>2833.0</ele>
      </trkpt>
      <trkpt lat="46.88861" lon="10.23581">
        <time>2022-03-11T09:31:20+00:00</time>
        <ele>2834.0</ele>
      </trkpt>
      <trkpt lat="46.88861" lon="10.23581">
        <time>2022-03-11T09:31:21+00:00</time>
        <ele>2834.0</ele>
      </trkpt>
      <trkpt lat="46.88861" lon="10.2358">
        <time>2022-03-11T09:31:25+00:00</time>
        <ele>2834.0</ele>
      </trkpt>
      <trkpt lat="46.88861" lon="10.2358">
        <time>2022-03-11T09:31:28+00:00</time>
        <ele>2834.0</ele>
      </trkpt>
      <trkpt lat="46.88861" lon="10.2358">
        <time>2022-03-11T09:31:36+00:00</time>
        <ele>2834.0</ele>
      </trkpt>
      <trkpt lat="46.88858" lon="10.23579">
        <time>2022-03-11T09:32:26+00:00</time>
        <ele>2833.0</ele>
      </trkpt>
      <trkpt lat="46.88858" lon="10.23578">
        <time>2022-03-11T09:32:27+00:00</time>
        <ele>2833.0</ele>
      </trkpt>
      <trkpt lat="46.88853" lon="10.23574">
        <time>2022-03-11T09:32:35+00:00</time>
        <ele>2833.0</ele>
      </trkpt>
      <trkpt lat="46.88853" lon="10.23574">
        <time>2022-03-11T09:32:36+00:00</time>
        <ele>2833.0</ele>
      </trkpt>
      <trkpt lat="46.88849" lon="10.23572">
        <time>2022-03-11T09:32:42+00:00</time>
        <ele>2833.0</ele>
      </trkpt>
      <trkpt lat="46.88847" lon="10.23571">
        <time>2022-03-11T09:32:44+00:00</time>
        <ele>2833.0</ele>
      </trkpt>
      <trkpt lat="46.88841" lon="10.23568">
        <time>2022-03-11T09:32:53+00:00</time>
        <ele>2834.0</ele>
      </trkpt>
      <trkpt lat="46.8884" lon="10.23568">
        <time>2022-03-11T09:32:54+00:00</time>
        <ele>2834.0</ele>
      </trkpt>
      <trkpt lat="46.88838" lon="10.23567">
        <time>2022-03-11T09:33:00+00:00</time>
        <ele>2834.0</ele>
      </trkpt>
      <trkpt lat="46.88835" lon="10.23565">
        <time>2022-03-11T09:33:07+00:00</time>
        <ele>2835.0</ele>
      </trkpt>
      <trkpt lat="46.88834" lon="10.23563">
        <time>2022-03-11T09:33:10+00:00</time>
        <ele>2835.0</ele>
      </trkpt>
      <trkpt lat="46.88832" lon="10.23562">
        <time>2022-03-11T09:33:14+00:00</time>
        <ele>2836.0</ele>
      </trkpt>
      <trkpt lat="46.8883" lon="10.23561">
        <time>2022-03-11T09:33:19+00:00</time>
        <ele>2836.0</ele>
      </trkpt>
      <trkpt lat="46.8883" lon="10.23561">
        <time>2022-03-11T09:33:20+00:00</time>
        <ele>2836.0</ele>
      </trkpt>
      <trkpt lat="46.88825" lon="10.2356">
        <time>2022-03-11T09:33:28+00:00</time>
        <ele>2836.0</ele>
      </trkpt>
      <trkpt lat="46.88824" lon="10.23559">
        <time>2022-03-11T09:33:30+00:00</time>
        <ele>2837.0</ele>
      </trkpt>
      <trkpt lat="46.88823" lon="10.23557">
        <time>2022-03-11T09:33:36+00:00</time>
        <ele>2838.0</ele>
      </trkpt>
      <trkpt lat="46.88822" lon="10.23557">
        <time>2022-03-11T09:33:37+00:00</time>
        <ele>2838.0</ele>
      </trkpt>
      <trkpt lat="46.8882" lon="10.23554">
        <time>2022-03-11T09:33:43+00:00</time>
        <ele>2839.0</ele>
      </trkpt>
      <trkpt lat="46.8882" lon="10.23554">
        <time>2022-03-11T09:33:44+00:00</time>
        <ele>2839.0</ele>
      </trkpt>
      <trkpt lat="46.88818" lon="10.23553">
        <time>2022-03-11T09:33:48+00:00</time>
        <ele>2839.0</ele>
      </trkpt>
      <trkpt lat="46.88816" lon="10.23551">
        <time>2022-03-11T09:33:52+00:00</time>
        <ele>2840.0</ele>
      </trkpt>
      <trkpt lat="46.88815" lon="10.23551">
        <time>2022-03-11T09:33:55+00:00</time>
        <ele>2840.0</ele>
      </trkpt>
      <trkpt lat="46.88812" lon="10.23548">
        <time>2022-03-11T09:34:04+00:00</time>
        <ele>2841.0</ele>
      </trkpt>
      <trkpt lat="46.88811" lon="10.23547">
        <time>2022-03-11T09:34:05+00:00</time>
        <ele>2841.0</ele>
      </trkpt>
      <trkpt lat="46.8881" lon="10.23543">
        <time>2022-03-11T09:34:11+00:00</time>
        <ele>2843.0</ele>
      </trkpt>
      <trkpt lat="46.88808" lon="10.2354">
        <time>2022-03-11T09:34:16+00:00</time>
        <ele>2845.0</ele>
      </trkpt>
      <trkpt lat="46.88807" lon="10.23539">
        <time>2022-03-11T09:34:17+00:00</time>
        <ele>2845.0</ele>
      </trkpt>
      <trkpt lat="46.88806" lon="10.23539">
        <time>2022-03-11T09:34:20+00:00</time>
        <ele>2846.0</ele>
      </trkpt>
      <trkpt lat="46.88803" lon="10.23538">
        <time>2022-03-11T09:34:25+00:00</time>
        <ele>2846.0</ele>
      </trkpt>
      <trkpt lat="46.888" lon="10.23537">
        <time>2022-03-11T09:34:30+00:00</time>
        <ele>2847.0</ele>
      </trkpt>
      <trkpt lat="46.88798" lon="10.23536">
        <time>2022-03-11T09:34:33+00:00</time>
        <ele>2848.0</ele>
      </trkpt>
      <trkpt lat="46.88798" lon="10.23535">
        <time>2022-03-11T09:34:34+00:00</time>
        <ele>2849.0</ele>
      </trkpt>
      <trkpt lat="46.88796" lon="10.23531">
        <time>2022-03-11T09:34:41+00:00</time>
        <ele>2851.0</ele>
      </trkpt>
      <trkpt lat="46.88795" lon="10.2353">
        <time>2022-03-11T09:34:43+00:00</time>
        <ele>2851.0</ele>
      </trkpt>
      <trkpt lat="46.88793" lon="10.23527">
        <time>2022-03-11T09:34:50+00:00</time>
        <ele>2853.0</ele>
      </trkpt>
      <trkpt lat="46.88792" lon="10.23525">
        <time>2022-03-11T09:34:54+00:00</time>
        <ele>2855.0</ele>
      </trkpt>
      <trkpt lat="46.8879" lon="10.23524">
        <time>2022-03-11T09:34:58+00:00</time>
        <ele>2855.0</ele>
      </trkpt>
      <trkpt lat="46.88789" lon="10.23522">
        <time>2022-03-11T09:35:01+00:00</time>
        <ele>2857.0</ele>
      </trkpt>
      <trkpt lat="46.88786" lon="10.23521">
        <time>2022-03-11T09:35:06+00:00</time>
        <ele>2858.0</ele>
      </trkpt>
      <trkpt lat="46.88783" lon="10.2352">
        <time>2022-03-11T09:35:13+00:00</time>
        <ele>2859.0</ele>
      </trkpt>
      <trkpt lat="46.88783" lon="10.23521">
        <time>2022-03-11T09:35:14+00:00</time>
        <ele>2858.0</ele>
      </trkpt>
      <trkpt lat="46.88779" lon="10.2352">
        <time>2022-03-11T09:35:23+00:00</time>
        <ele>2860.0</ele>
      </trkpt>
      <trkpt lat="46.88776" lon="10.23519">
        <time>2022-03-11T09:35:30+00:00</time>
        <ele>2861.0</ele>
      </trkpt>
      <trkpt lat="46.88774" lon="10.23518">
        <time>2022-03-11T09:35:33+00:00</time>
        <ele>2862.0</ele>
      </trkpt>
      <trkpt lat="46.88774" lon="10.23518">
        <time>2022-03-11T09:35:35+00:00</time>
        <ele>2862.0</ele>
      </trkpt>
      <trkpt lat="46.88771" lon="10.23517">
        <time>2022-03-11T09:35:43+00:00</time>
        <ele>2863.0</ele>
      </trkpt>
      <trkpt lat="46.88771" lon="10.23517">
        <time>2022-03-11T09:35:44+00:00</time>
        <ele>2863.0</ele>
      </trkpt>
      <trkpt lat="46.88766" lon="10.23515">
        <time>2022-03-11T09:35:54+00:00</time>
        <ele>2865.0</ele>
      </trkpt>
      <trkpt lat="46.88764" lon="10.23515">
        <time>2022-03-11T09:35:57+00:00</time>
        <ele>2865.0</ele>
      </trkpt>
      <trkpt lat="46.88761" lon="10.23515">
        <time>2022-03-11T09:36:03+00:00</time>
        <ele>2866.0</ele>
      </trkpt>
      <trkpt lat="46.8876" lon="10.23515">
        <time>2022-03-11T09:36:04+00:00</time>
        <ele>2866.0</ele>
      </trkpt>
      <trkpt lat="46.88758" lon="10.23514">
        <time>2022-03-11T09:36:10+00:00</time>
        <ele>2867.0</ele>
      </trkpt>
      <trkpt lat="46.88757" lon="10.23513">
        <time>2022-03-11T09:36:13+00:00</time>
        <ele>2867.0</ele>
      </trkpt>
      <trkpt lat="46.88755" lon="10.23513">
        <time>2022-03-11T09:36:18+00:00</time>
        <ele>2868.0</ele>
      </trkpt>
      <trkpt lat="46.88754" lon="10.23512">
        <time>2022-03-11T09:36:22+00:00</time>
        <ele>2868.0</ele>
      </trkpt>
      <trkpt lat="46.88753" lon="10.23512">
        <time>2022-03-11T09:36:24+00:00</time>
        <ele>2869.0</ele>
      </trkpt>
      <trkpt lat="46.88751" lon="10.2351">
        <time>2022-03-11T09:36:30+00:00</time>
        <ele>2870.0</ele>
      </trkpt>
      <trkpt lat="46.8875" lon="10.23511">
        <time>2022-03-11T09:36:32+00:00</time>
        <ele>2870.0</ele>
      </trkpt>
      <trkpt lat="46.88747" lon="10.2351">
        <time>2022-03-11T09:36:38+00:00</time>
        <ele>2871.0</ele>
      </trkpt>
      <trkpt lat="46.88746" lon="10.2351">
        <time>2022-03-11T09:36:39+00:00</time>
        <ele>2871.0</ele>
      </trkpt>
      <trkpt lat="46.88742" lon="10.23509">
        <time>2022-03-11T09:36:45+00:00</time>
        <ele>2873.0</ele>
      </trkpt>
      <trkpt lat="46.8874" lon="10.23507">
        <time>2022-03-11T09:36:48+00:00</time>
        <ele>2874.0</ele>
      </trkpt>
      <trkpt lat="46.88738" lon="10.23506">
        <time>2022-03-11T09:36:52+00:00</time>
        <ele>2875.0</ele>
      </trkpt>
      <trkpt lat="46.88737" lon="10.23505">
        <time>2022-03-11T09:36:56+00:00</time>
        <ele>2876.0</ele>
      </trkpt>
      <trkpt lat="46.88734" lon="10.23503">
        <time>2022-03-11T09:37:02+00:00</time>
        <ele>2877.0</ele>
      </trkpt>
      <trkpt lat="46.8873" lon="10.23501">
        <time>2022-03-11T09:37:09+00:00</time>
        <ele>2879.0</ele>
      </trkpt>
      <trkpt lat="46.8873" lon="10.235">
        <time>2022-03-11T09:37:10+00:00</time>
        <ele>2879.0</ele>
      </trkpt>
      <trkpt lat="46.88729" lon="10.23498">
        <time>2022-03-11T09:37:14+00:00</time>
        <ele>2880.0</ele>
      </trkpt>
      <trkpt lat="46.88728" lon="10.23497">
        <time>2022-03-11T09:37:17+00:00</time>
        <ele>2881.0</ele>
      </trkpt>
      <trkpt lat="46.88726" lon="10.23496">
        <time>2022-03-11T09:37:24+00:00</time>
        <ele>2881.0</ele>
      </trkpt>
      <trkpt lat="46.88725" lon="10.23495">
        <time>2022-03-11T09:37:26+00:00</time>
        <ele>2882.0</ele>
      </trkpt>
      <trkpt lat="46.88724" lon="10.2349">
        <time>2022-03-11T09:37:33+00:00</time>
        <ele>2884.0</ele>
      </trkpt>
      <trkpt lat="46.88722" lon="10.23487">
        <time>2022-03-11T09:37:41+00:00</time>
        <ele>2885.0</ele>
      </trkpt>
      <trkpt lat="46.88722" lon="10.23483">
        <time>2022-03-11T09:37:45+00:00</time>
        <ele>2885.0</ele>
      </trkpt>
      <trkpt lat="46.88722" lon="10.23477">
        <time>2022-03-11T09:37:51+00:00</time>
        <ele>2887.0</ele>
      </trkpt>
      <trkpt lat="46.88723" lon="10.23472">
        <time>2022-03-11T09:37:57+00:00</time>
        <ele>2887.0</ele>
      </trkpt>
      <trkpt lat="46.88722" lon="10.2347">
        <time>2022-03-11T09:38:01+00:00</time>
        <ele>2888.0</ele>
      </trkpt>
      <trkpt lat="46.88725" lon="10.23464">
        <time>2022-03-11T09:38:08+00:00</time>
        <ele>2888.0</ele>
      </trkpt>
      <trkpt lat="46.88726" lon="10.23459">
        <time>2022-03-11T09:38:13+00:00</time>
        <ele>2890.0</ele>
      </trkpt>
      <trkpt lat="46.88727" lon="10.23453">
        <time>2022-03-11T09:38:22+00:00</time>
        <ele>2891.0</ele>
      </trkpt>
      <trkpt lat="46.88729" lon="10.23448">
        <time>2022-03-11T09:38:27+00:00</time>
        <ele>2892.0</ele>
      </trkpt>
      <trkpt lat="46.88729" lon="10.23444">
        <time>2022-03-11T09:38:34+00:00</time>
        <ele>2893.0</ele>
      </trkpt>
      <trkpt lat="46.8873" lon="10.23441">
        <time>2022-03-11T09:38:37+00:00</time>
        <ele>2894.0</ele>
      </trkpt>
      <trkpt lat="46.88731" lon="10.23439">
        <time>2022-03-11T09:38:40+00:00</time>
        <ele>2894.0</ele>
      </trkpt>
      <trkpt lat="46.88732" lon="10.23435">
        <time>2022-03-11T09:38:46+00:00</time>
        <ele>2895.0</ele>
      </trkpt>
      <trkpt lat="46.88734" lon="10.23427">
        <time>2022-03-11T09:38:55+00:00</time>
        <ele>2897.0</ele>
      </trkpt>
      <trkpt lat="46.88734" lon="10.23422">
        <time>2022-03-11T09:39:00+00:00</time>
        <ele>2898.0</ele>
      </trkpt>
      <trkpt lat="46.88735" lon="10.2342">
        <time>2022-03-11T09:39:02+00:00</time>
        <ele>2899.0</ele>
      </trkpt>
      <trkpt lat="46.88735" lon="10.23416">
        <time>2022-03-11T09:39:08+00:00</time>
        <ele>2900.0</ele>
      </trkpt>
      <trkpt lat="46.88736" lon="10.23414">
        <time>2022-03-11T09:39:11+00:00</time>
        <ele>2901.0</ele>
      </trkpt>
      <trkpt lat="46.88736" lon="10.23414">
        <time>2022-03-11T09:39:12+00:00</time>
        <ele>2901.0</ele>
      </trkpt>
      <trkpt lat="46.88737" lon="10.23411">
        <time>2022-03-11T09:39:16+00:00</time>
        <ele>2901.0</ele>
      </trkpt>
      <trkpt lat="46.88737" lon="10.2341">
        <time>2022-03-11T09:39:17+00:00</time>
        <ele>2902.0</ele>
      </trkpt>
      <trkpt lat="46.88735" lon="10.2341">
        <time>2022-03-11T09:39:19+00:00</time>
        <ele>2902.0</ele>
      </trkpt>
      <trkpt lat="46.88734" lon="10.2341">
        <time>2022-03-11T09:39:21+00:00</time>
        <ele>2902.0</ele>
      </trkpt>
      <trkpt lat="46.88733" lon="10.23411">
        <time>2022-03-11T09:39:24+00:00</time>
        <ele>2902.0</ele>
      </trkpt>
      <trkpt lat="46.88732" lon="10.23411">
        <time>2022-03-11T09:39:25+00:00</time>
        <ele>2902.0</ele>
      </trkpt>
      <trkpt lat="46.8873" lon="10.23412">
        <time>2022-03-11T09:39:28+00:00</time>
        <ele>2902.0</ele>
      </trkpt>
      <trkpt lat="46.88727" lon="10.23413">
        <time>2022-03-11T09:39:32+00:00</time>
        <ele>2903.0</ele>
      </trkpt>
      <trkpt lat="46.88726" lon="10.23413">
        <time>2022-03-11T09:39:33+00:00</time>
        <ele>2903.0</ele>
      </trkpt>
      <trkpt lat="46.88724" lon="10.23413">
        <time>2022-03-11T09:39:37+00:00</time>
        <ele>2903.0</ele>
      </trkpt>
      <trkpt lat="46.88723" lon="10.23412">
        <time>2022-03-11T09:39:39+00:00</time>
        <ele>2904.0</ele>
      </trkpt>
      <trkpt lat="46.88723" lon="10.23412">
        <time>2022-03-11T09:39:40+00:00</time>
        <ele>2904.0</ele>
      </trkpt>
      <trkpt lat="46.88721" lon="10.23412">
        <time>2022-03-11T09:39:43+00:00</time>
        <ele>2904.0</ele>
      </trkpt>
      <trkpt lat="46.8872" lon="10.23412">
        <time>2022-03-11T09:39:45+00:00</time>
        <ele>2904.0</ele>
      </trkpt>
      <trkpt lat="46.88719" lon="10.23411">
        <time>2022-03-11T09:39:48+00:00</time>
        <ele>2905.0</ele>
      </trkpt>
      <trkpt lat="46.88719" lon="10.23411">
        <time>2022-03-11T09:39:49+00:00</time>
        <ele>2905.0</ele>
      </trkpt>
      <trkpt lat="46.88717" lon="10.23411">
        <time>2022-03-11T09:39:52+00:00</time>
        <ele>2905.0</ele>
      </trkpt>
      <trkpt lat="46.88716" lon="10.23411">
        <time>2022-03-11T09:39:54+00:00</time>
        <ele>2905.0</ele>
      </trkpt>
      <trkpt lat="46.88716" lon="10.23411">
        <time>2022-03-11T09:39:55+00:00</time>
        <ele>2905.0</ele>
      </trkpt>
      <trkpt lat="46.88712" lon="10.23412">
        <time>2022-03-11T09:40:00+00:00</time>
        <ele>2905.0</ele>
      </trkpt>
      <trkpt lat="46.8871" lon="10.23411">
        <time>2022-03-11T09:40:04+00:00</time>
        <ele>2906.0</ele>
      </trkpt>
      <trkpt lat="46.88709" lon="10.23413">
        <time>2022-03-11T09:40:07+00:00</time>
        <ele>2905.0</ele>
      </trkpt>
      <trkpt lat="46.88708" lon="10.23413">
        <time>2022-03-11T09:40:08+00:00</time>
        <ele>2905.0</ele>
      </trkpt>
      <trkpt lat="46.88706" lon="10.23413">
        <time>2022-03-11T09:40:11+00:00</time>
        <ele>2906.0</ele>
      </trkpt>
      <trkpt lat="46.88703" lon="10.23413">
        <time>2022-03-11T09:40:14+00:00</time>
        <ele>2906.0</ele>
      </trkpt>
      <trkpt lat="46.88698" lon="10.2341">
        <time>2022-03-11T09:40:21+00:00</time>
        <ele>2908.0</ele>
      </trkpt>
      <trkpt lat="46.88697" lon="10.23409">
        <time>2022-03-11T09:40:24+00:00</time>
        <ele>2909.0</ele>
      </trkpt>
      <trkpt lat="46.88696" lon="10.23409">
        <time>2022-03-11T09:40:27+00:00</time>
        <ele>2909.0</ele>
      </trkpt>
      <trkpt lat="46.88695" lon="10.23408">
        <time>2022-03-11T09:40:29+00:00</time>
        <ele>2910.0</ele>
      </trkpt>
      <trkpt lat="46.88695" lon="10.23403">
        <time>2022-03-11T09:40:36+00:00</time>
        <ele>2911.0</ele>
      </trkpt>
      <trkpt lat="46.88695" lon="10.23396">
        <time>2022-03-11T09:40:44+00:00</time>
        <ele>2913.0</ele>
      </trkpt>
      <trkpt lat="46.88696" lon="10.23393">
        <time>2022-03-11T09:40:47+00:00</time>
        <ele>2914.0</ele>
      </trkpt>
      <trkpt lat="46.88697" lon="10.2339">
        <time>2022-03-11T09:40:50+00:00</time>
        <ele>2915.0</ele>
      </trkpt>
      <trkpt lat="46.887" lon="10.23385">
        <time>2022-03-11T09:40:56+00:00</time>
        <ele>2916.0</ele>
      </trkpt>
      <trkpt lat="46.88699" lon="10.23383">
        <time>2022-03-11T09:40:59+00:00</time>
        <ele>2917.0</ele>
      </trkpt>
      <trkpt lat="46.88701" lon="10.23381">
        <time>2022-03-11T09:41:05+00:00</time>
        <ele>2917.0</ele>
      </trkpt>
      <trkpt lat="46.88701" lon="10.23379">
        <time>2022-03-11T09:41:07+00:00</time>
        <ele>2917.0</ele>
      </trkpt>
      <trkpt lat="46.88701" lon="10.23378">
        <time>2022-03-11T09:41:09+00:00</time>
        <ele>2918.0</ele>
      </trkpt>
      <trkpt lat="46.887" lon="10.23375">
        <time>2022-03-11T09:41:12+00:00</time>
        <ele>2918.0</ele>
      </trkpt>
      <trkpt lat="46.88701" lon="10.23373">
        <time>2022-03-11T09:41:14+00:00</time>
        <ele>2919.0</ele>
      </trkpt>
      <trkpt lat="46.88702" lon="10.23369">
        <time>2022-03-11T09:41:19+00:00</time>
        <ele>2919.0</ele>
      </trkpt>
      <trkpt lat="46.88703" lon="10.23368">
        <time>2022-03-11T09:41:21+00:00</time>
        <ele>2919.0</ele>
      </trkpt>
      <trkpt lat="46.88703" lon="10.23366">
        <time>2022-03-11T09:41:22+00:00</time>
        <ele>2920.0</ele>
      </trkpt>
      <trkpt lat="46.88707" lon="10.23357">
        <time>2022-03-11T09:41:33+00:00</time>
        <ele>2922.0</ele>
      </trkpt>
      <trkpt lat="46.88707" lon="10.23356">
        <time>2022-03-11T09:41:34+00:00</time>
        <ele>2922.0</ele>
      </trkpt>
      <trkpt lat="46.88707" lon="10.23355">
        <time>2022-03-11T09:41:35+00:00</time>
        <ele>2922.0</ele>
      </trkpt>
      <trkpt lat="46.88707" lon="10.23353">
        <time>2022-03-11T09:41:39+00:00</time>
        <ele>2923.0</ele>
      </trkpt>
      <trkpt lat="46.88708" lon="10.23351">
        <time>2022-03-11T09:41:41+00:00</time>
        <ele>2923.0</ele>
      </trkpt>
      <trkpt lat="46.88708" lon="10.23351">
        <time>2022-03-11T09:41:43+00:00</time>
        <ele>2923.0</ele>
      </trkpt>
      <trkpt lat="46.88708" lon="10.23348">
        <time>2022-03-11T09:41:45+00:00</time>
        <ele>2923.0</ele>
      </trkpt>
      <trkpt lat="46.88708" lon="10.23347">
        <time>2022-03-11T09:41:47+00:00</time>
        <ele>2923.0</ele>
      </trkpt>
      <trkpt lat="46.88709" lon="10.23346">
        <time>2022-03-11T09:41:48+00:00</time>
        <ele>2923.0</ele>
      </trkpt>
      <trkpt lat="46.88709" lon="10.23344">
        <time>2022-03-11T09:41:51+00:00</time>
        <ele>2924.0</ele>
      </trkpt>
      <trkpt lat="46.88711" lon="10.23339">
        <time>2022-03-11T09:41:56+00:00</time>
        <ele>2924.0</ele>
      </trkpt>
      <trkpt lat="46.88711" lon="10.23336">
        <time>2022-03-11T09:42:00+00:00</time>
        <ele>2925.0</ele>
      </trkpt>
      <trkpt lat="46.88712" lon="10.23333">
        <time>2022-03-11T09:42:03+00:00</time>
        <ele>2925.0</ele>
      </trkpt>
      <trkpt lat="46.88712" lon="10.23333">
        <time>2022-03-11T09:42:04+00:00</time>
        <ele>2925.0</ele>
      </trkpt>
      <trkpt lat="46.88712" lon="10.23332">
        <time>2022-03-11T09:42:05+00:00</time>
        <ele>2925.0</ele>
      </trkpt>
      <trkpt lat="46.88712" lon="10.23329">
        <time>2022-03-11T09:42:10+00:00</time>
        <ele>2926.0</ele>
      </trkpt>
      <trkpt lat="46.88713" lon="10.23328">
        <time>2022-03-11T09:42:12+00:00</time>
        <ele>2926.0</ele>
      </trkpt>
      <trkpt lat="46.88713" lon="10.23322">
        <time>2022-03-11T09:42:20+00:00</time>
        <ele>2928.0</ele>
      </trkpt>
      <trkpt lat="46.88713" lon="10.23321">
        <time>2022-03-11T09:42:22+00:00</time>
        <ele>2928.0</ele>
      </trkpt>
      <trkpt lat="46.88714" lon="10.23319">
        <time>2022-03-11T09:42:25+00:00</time>
        <ele>2929.0</ele>
      </trkpt>
      <trkpt lat="46.88715" lon="10.23313">
        <time>2022-03-11T09:42:32+00:00</time>
        <ele>2930.0</ele>
      </trkpt>
      <trkpt lat="46.88715" lon="10.23311">
        <time>2022-03-11T09:42:35+00:00</time>
        <ele>2931.0</ele>
      </trkpt>
      <trkpt lat="46.88716" lon="10.23309">
        <time>2022-03-11T09:42:38+00:00</time>
        <ele>2932.0</ele>
      </trkpt>
      <trkpt lat="46.88716" lon="10.23308">
        <time>2022-03-11T09:42:40+00:00</time>
        <ele>2932.0</ele>
      </trkpt>
      <trkpt lat="46.88717" lon="10.23305">
        <time>2022-03-11T09:42:43+00:00</time>
        <ele>2933.0</ele>
      </trkpt>
      <trkpt lat="46.88717" lon="10.23304">
        <time>2022-03-11T09:42:44+00:00</time>
        <ele>2933.0</ele>
      </trkpt>
      <trkpt lat="46.88717" lon="10.23302">
        <time>2022-03-11T09:42:46+00:00</time>
        <ele>2934.0</ele>
      </trkpt>
      <trkpt lat="46.88717" lon="10.233">
        <time>2022-03-11T09:42:48+00:00</time>
        <ele>2935.0</ele>
      </trkpt>
      <trkpt lat="46.88718" lon="10.23297">
        <time>2022-03-11T09:42:51+00:00</time>
        <ele>2936.0</ele>
      </trkpt>
      <trkpt lat="46.88717" lon="10.23297">
        <time>2022-03-11T09:42:52+00:00</time>
        <ele>2936.0</ele>
      </trkpt>
      <trkpt lat="46.88717" lon="10.23294">
        <time>2022-03-11T09:42:54+00:00</time>
        <ele>2938.0</ele>
      </trkpt>
      <trkpt lat="46.88718" lon="10.23292">
        <time>2022-03-11T09:42:56+00:00</time>
        <ele>2939.0</ele>
      </trkpt>
      <trkpt lat="46.88719" lon="10.2329">
        <time>2022-03-11T09:42:58+00:00</time>
        <ele>2940.0</ele>
      </trkpt>
      <trkpt lat="46.88719" lon="10.23287">
        <time>2022-03-11T09:43:01+00:00</time>
        <ele>2941.0</ele>
      </trkpt>
      <trkpt lat="46.88717" lon="10.23286">
        <time>2022-03-11T09:43:04+00:00</time>
        <ele>2941.0</ele>
      </trkpt>
      <trkpt lat="46.88716" lon="10.23286">
        <time>2022-03-11T09:43:05+00:00</time>
        <ele>2941.0</ele>
      </trkpt>
      <trkpt lat="46.88715" lon="10.23285">
        <time>2022-03-11T09:43:08+00:00</time>
        <ele>2941.0</ele>
      </trkpt>
      <trkpt lat="46.88713" lon="10.23282">
        <time>2022-03-11T09:43:12+00:00</time>
        <ele>2942.0</ele>
      </trkpt>
      <trkpt lat="46.88709" lon="10.23282">
        <time>2022-03-11T09:43:17+00:00</time>
        <ele>2942.0</ele>
      </trkpt>
      <trkpt lat="46.88708" lon="10.23282">
        <time>2022-03-11T09:43:19+00:00</time>
        <ele>2942.0</ele>
      </trkpt>
      <trkpt lat="46.88702" lon="10.23285">
        <time>2022-03-11T09:43:26+00:00</time>
        <ele>2939.0</ele>
      </trkpt>
      <trkpt lat="46.88694" lon="10.23286">
        <time>2022-03-11T09:43:34+00:00</time>
        <ele>2939.0</ele>
      </trkpt>
      <trkpt lat="46.88692" lon="10.23287">
        <time>2022-03-11T09:43:40+00:00</time>
        <ele>2939.0</ele>
      </trkpt>
      <trkpt lat="46.88688" lon="10.23285">
        <time>2022-03-11T09:43:48+00:00</time>
        <ele>2939.0</ele>
      </trkpt>
      <trkpt lat="46.8868" lon="10.23285">
        <time>2022-03-11T09:43:55+00:00</time>
        <ele>2939.0</ele>
      </trkpt>
      <trkpt lat="46.88674" lon="10.23286">
        <time>2022-03-11T09:44:02+00:00</time>
        <ele>2940.0</ele>
      </trkpt>
      <trkpt lat="46.88672" lon="10.23288">
        <time>2022-03-11T09:44:05+00:00</time>
        <ele>2940.0</ele>
      </trkpt>
      <trkpt lat="46.88673" lon="10.23287">
        <time>2022-03-11T09:44:11+00:00</time>
        <ele>2940.0</ele>
      </trkpt>
      <trkpt lat="46.88671" lon="10.23287">
        <time>2022-03-11T09:44:17+00:00</time>
        <ele>2940.0</ele>
      </trkpt>
      <trkpt lat="46.88671" lon="10.23287">
        <time>2022-03-11T09:44:22+00:00</time>
        <ele>2940.0</ele>
      </trkpt>
      <trkpt lat="46.88671" lon="10.23287">
        <time>2022-03-11T09:44:24+00:00</time>
        <ele>2940.0</ele>
      </trkpt>
      <trkpt lat="46.88671" lon="10.23287">
        <time>2022-03-11T09:44:29+00:00</time>
        <ele>2940.0</ele>
      </trkpt>
      <trkpt lat="46.8867" lon="10.23287">
        <time>2022-03-11T09:44:30+00:00</time>
        <ele>2940.0</ele>
      </trkpt>
      <trkpt lat="46.8867" lon="10.23287">
        <time>2022-03-11T09:44:32+00:00</time>
        <ele>2940.0</ele>
      </trkpt>
      <trkpt lat="46.8867" lon="10.23287">
        <time>2022-03-11T09:44:34+00:00</time>
        <ele>2940.0</ele>
      </trkpt>
      <trkpt lat="46.8867" lon="10.23287">
        <time>2022-03-11T09:44:38+00:00</time>
        <ele>2940.0</ele>
      </trkpt>
      <trkpt lat="46.88669" lon="10.23299">
        <time>2022-03-11T09:44:57+00:00</time>
        <ele>2940.0</ele>
      </trkpt>
      <trkpt lat="46.8867" lon="10.23302">
        <time>2022-03-11T09:44:59+00:00</time>
        <ele>2939.0</ele>
      </trkpt>
      <trkpt lat="46.88671" lon="10.23304">
        <time>2022-03-11T09:45:01+00:00</time>
        <ele>2938.0</ele>
      </trkpt>
      <trkpt lat="46.88672" lon="10.23303">
        <time>2022-03-11T09:45:05+00:00</time>
        <ele>2938.0</ele>
      </trkpt>
      <trkpt lat="46.88674" lon="10.23301">
        <time>2022-03-11T09:45:07+00:00</time>
        <ele>2938.0</ele>
      </trkpt>
      <trkpt lat="46.88675" lon="10.23295">
        <time>2022-03-11T09:45:15+00:00</time>
        <ele>2939.0</ele>
      </trkpt>
      <trkpt lat="46.88675" lon="10.23295">
        <time>2022-03-11T09:45:16+00:00</time>
        <ele>2939.0</ele>
      </trkpt>
      <trkpt lat="46.88675" lon="10.23295">
        <time>2022-03-11T09:45:18+00:00</time>
        <ele>2939.0</ele>
      </trkpt>
      <trkpt lat="46.88673" lon="10.23297">
        <time>2022-03-11T09:45:24+00:00</time>
        <ele>2939.0</ele>
      </trkpt>
      <trkpt lat="46.88673" lon="10.23296">
        <time>2022-03-11T09:45:28+00:00</time>
        <ele>2939.0</ele>
      </trkpt>
      <trkpt lat="46.88673" lon="10.23295">
        <time>2022-03-11T09:45:32+00:00</time>
        <ele>2939.0</ele>
      </trkpt>
      <trkpt lat="46.88673" lon="10.23295">
        <time>2022-03-11T09:45:34+00:00</time>
        <ele>2939.0</ele>
      </trkpt>
      <trkpt lat="46.88673" lon="10.23295">
        <time>2022-03-11T09:45:39+00:00</time>
        <ele>2939.0</ele>
      </trkpt>
      <trkpt lat="46.88675" lon="10.23298">
        <time>2022-03-11T09:46:16+00:00</time>
        <ele>2938.0</ele>
      </trkpt>
      <trkpt lat="46.88675" lon="10.233">
        <time>2022-03-11T09:46:28+00:00</time>
        <ele>2938.0</ele>
      </trkpt>
      <trkpt lat="46.88675" lon="10.233">
        <time>2022-03-11T09:46:29+00:00</time>
        <ele>2938.0</ele>
      </trkpt>
      <trkpt lat="46.88676" lon="10.23299">
        <time>2022-03-11T09:46:48+00:00</time>
        <ele>2938.0</ele>
      </trkpt>
      <trkpt lat="46.88676" lon="10.23299">
        <time>2022-03-11T09:46:52+00:00</time>
        <ele>2938.0</ele>
      </trkpt>
      <trkpt lat="46.88676" lon="10.23299">
        <time>2022-03-11T09:46:54+00:00</time>
        <ele>2938.0</ele>
      </trkpt>
      <trkpt lat="46.88676" lon="10.23298">
        <time>2022-03-11T09:47:00+00:00</time>
        <ele>2938.0</ele>
      </trkpt>
      <trkpt lat="46.88676" lon="10.23297">
        <time>2022-03-11T09:47:07+00:00</time>
        <ele>2938.0</ele>
      </trkpt>
      <trkpt lat="46.88676" lon="10.23297">
        <time>2022-03-11T09:47:09+00:00</time>
        <ele>2938.0</ele>
      </trkpt>
      <trkpt lat="46.88681" lon="10.23299">
        <time>2022-03-11T09:47:15+00:00</time>
        <ele>2937.0</ele>
      </trkpt>
      <trkpt lat="46.88692" lon="10.23295">
        <time>2022-03-11T09:47:28+00:00</time>
        <ele>2936.0</ele>
      </trkpt>
      <trkpt lat="46.88699" lon="10.23292">
        <time>2022-03-11T09:47:33+00:00</time>
        <ele>2937.0</ele>
      </trkpt>
      <trkpt lat="46.88702" lon="10.23292">
        <time>2022-03-11T09:47:35+00:00</time>
        <ele>2937.0</ele>
      </trkpt>
      <trkpt lat="46.88705" lon="10.23292">
        <time>2022-03-11T09:47:36+00:00</time>
        <ele>2937.0</ele>
      </trkpt>
      <trkpt lat="46.88709" lon="10.23293">
        <time>2022-03-11T09:47:38+00:00</time>
        <ele>2937.0</ele>
      </trkpt>
      <trkpt lat="46.88713" lon="10.23298">
        <time>2022-03-11T09:47:40+00:00</time>
        <ele>2935.0</ele>
      </trkpt>
      <trkpt lat="46.88711" lon="10.23303">
        <time>2022-03-11T09:47:42+00:00</time>
        <ele>2933.0</ele>
      </trkpt>
      <trkpt lat="46.88709" lon="10.23304">
        <time>2022-03-11T09:47:43+00:00</time>
        <ele>2933.0</ele>
      </trkpt>
      <trkpt lat="46.88707" lon="10.23305">
        <time>2022-03-11T09:47:44+00:00</time>
        <ele>2933.0</ele>
      </trkpt>
      <trkpt lat="46.88702" lon="10.23308">
        <time>2022-03-11T09:47:48+00:00</time>
        <ele>2932.0</ele>
      </trkpt>
      <trkpt lat="46.88701" lon="10.23308">
        <time>2022-03-11T09:47:51+00:00</time>
        <ele>2932.0</ele>
      </trkpt>
      <trkpt lat="46.88702" lon="10.23308">
        <time>2022-03-11T09:47:54+00:00</time>
        <ele>2932.0</ele>
      </trkpt>
      <trkpt lat="46.88703" lon="10.23308">
        <time>2022-03-11T09:48:04+00:00</time>
        <ele>2932.0</ele>
      </trkpt>
      <trkpt lat="46.88703" lon="10.23308">
        <time>2022-03-11T09:48:21+00:00</time>
        <ele>2932.0</ele>
      </trkpt>
      <trkpt lat="46.88702" lon="10.2331">
        <time>2022-03-11T09:48:28+00:00</time>
        <ele>2931.0</ele>
      </trkpt>
      <trkpt lat="46.88701" lon="10.23309">
        <time>2022-03-11T09:48:41+00:00</time>
        <ele>2932.0</ele>
      </trkpt>
      <trkpt lat="46.887" lon="10.23308">
        <time>2022-03-11T09:49:23+00:00</time>
        <ele>2932.0</ele>
      </trkpt>
      <trkpt lat="46.887" lon="10.23308">
        <time>2022-03-11T09:49:27+00:00</time>
        <ele>2932.0</ele>
      </trkpt>
      <trkpt lat="46.88697" lon="10.23311">
        <time>2022-03-11T09:49:48+00:00</time>
        <ele>2932.0</ele>
      </trkpt>
      <trkpt lat="46.88697" lon="10.23309">
        <time>2022-03-11T09:50:45+00:00</time>
        <ele>2932.0</ele>
      </trkpt>
      <trkpt lat="46.88697" lon="10.23309">
        <time>2022-03-11T09:50:53+00:00</time>
        <ele>2932.0</ele>
      </trkpt>
      <trkpt lat="46.88695" lon="10.23313">
        <time>2022-03-11T09:51:21+00:00</time>
        <ele>2931.0</ele>
      </trkpt>
      <trkpt lat="46.88695" lon="10.23312">
        <time>2022-03-11T09:51:51+00:00</time>
        <ele>2932.0</ele>
      </trkpt>
      <trkpt lat="46.88695" lon="10.23312">
        <time>2022-03-11T09:51:55+00:00</time>
        <ele>2932.0</ele>
      </trkpt>
      <trkpt lat="46.88696" lon="10.2331">
        <time>2022-03-11T09:52:28+00:00</time>
        <ele>2932.0</ele>
      </trkpt>
      <trkpt lat="46.88696" lon="10.2331">
        <time>2022-03-11T09:53:18+00:00</time>
        <ele>2932.0</ele>
      </trkpt>
      <trkpt lat="46.88696" lon="10.2331">
        <time>2022-03-11T09:54:25+00:00</time>
        <ele>2932.0</ele>
      </trkpt>
      <trkpt lat="46.88696" lon="10.2331">
        <time>2022-03-11T09:55:39+00:00</time>
        <ele>2932.0</ele>
      </trkpt>
      <trkpt lat="46.88695" lon="10.23312">
        <time>2022-03-11T09:55:56+00:00</time>
        <ele>2932.0</ele>
      </trkpt>
      <trkpt lat="46.88695" lon="10.23313">
        <time>2022-03-11T09:56:05+00:00</time>
        <ele>2931.0</ele>
      </trkpt>
      <trkpt lat="46.88693" lon="10.23313">
        <time>2022-03-11T09:56:28+00:00</time>
        <ele>2932.0</ele>
      </trkpt>
      <trkpt lat="46.88694" lon="10.23314">
        <time>2022-03-11T09:56:34+00:00</time>
        <ele>2931.0</ele>
      </trkpt>
      <trkpt lat="46.88695" lon="10.23314">
        <time>2022-03-11T09:56:43+00:00</time>
        <ele>2931.0</ele>
      </trkpt>
      <trkpt lat="46.88695" lon="10.23314">
        <time>2022-03-11T09:57:05+00:00</time>
        <ele>2931.0</ele>
      </trkpt>
      <trkpt lat="46.88694" lon="10.23313">
        <time>2022-03-11T10:02:13+00:00</time>
        <ele>2932.0</ele>
      </trkpt>
      <trkpt lat="46.88694" lon="10.23312">
        <time>2022-03-11T10:05:38+00:00</time>
        <ele>2932.0</ele>
      </trkpt>
      <trkpt lat="46.88694" lon="10.23312">
        <time>2022-03-11T10:07:03+00:00</time>
        <ele>2932.0</ele>
      </trkpt>
      <trkpt lat="46.88695" lon="10.23316">
        <time>2022-03-11T10:08:04+00:00</time>
        <ele>2931.0</ele>
      </trkpt>
      <trkpt lat="46.88694" lon="10.23323">
        <time>2022-03-11T10:08:14+00:00</time>
        <ele>2929.0</ele>
      </trkpt>
      <trkpt lat="46.88695" lon="10.23315">
        <time>2022-03-11T10:09:36+00:00</time>
        <ele>2931.0</ele>
      </trkpt>
      <trkpt lat="46.88696" lon="10.23317">
        <time>2022-03-11T10:12:45+00:00</time>
        <ele>2930.0</ele>
      </trkpt>
      <trkpt lat="46.88697" lon="10.23313">
        <time>2022-03-11T10:13:20+00:00</time>
        <ele>2931.0</ele>
      </trkpt>
      <trkpt lat="46.88697" lon="10.23312">
        <time>2022-03-11T10:13:32+00:00</time>
        <ele>2931.0</ele>
      </trkpt>
      <trkpt lat="46.88693" lon="10.2331">
        <time>2022-03-11T10:14:42+00:00</time>
        <ele>2932.0</ele>
      </trkpt>
      <trkpt lat="46.88693" lon="10.23311">
        <time>2022-03-11T10:14:50+00:00</time>
        <ele>2932.0</ele>
      </trkpt>
      <trkpt lat="46.88693" lon="10.2331">
        <time>2022-03-11T10:15:02+00:00</time>
        <ele>2932.0</ele>
      </trkpt>
      <trkpt lat="46.88696" lon="10.23309">
        <time>2022-03-11T10:15:29+00:00</time>
        <ele>2932.0</ele>
      </trkpt>
      <trkpt lat="46.88696" lon="10.2331">
        <time>2022-03-11T10:16:22+00:00</time>
        <ele>2932.0</ele>
      </trkpt>
      <trkpt lat="46.88696" lon="10.2331">
        <time>2022-03-11T10:16:30+00:00</time>
        <ele>2932.0</ele>
      </trkpt>
      <trkpt lat="46.88695" lon="10.23313">
        <time>2022-03-11T10:16:48+00:00</time>
        <ele>2931.0</ele>
      </trkpt>
      <trkpt lat="46.88694" lon="10.23313">
        <time>2022-03-11T10:16:59+00:00</time>
        <ele>2932.0</ele>
      </trkpt>
      <trkpt lat="46.88693" lon="10.23313">
        <time>2022-03-11T10:17:28+00:00</time>
        <ele>2932.0</ele>
      </trkpt>
      <trkpt lat="46.88692" lon="10.2331">
        <time>2022-03-11T10:19:06+00:00</time>
        <ele>2933.0</ele>
      </trkpt>
      <trkpt lat="46.88691" lon="10.23313">
        <time>2022-03-11T10:19:47+00:00</time>
        <ele>2932.0</ele>
      </trkpt>
      <trkpt lat="46.88692" lon="10.23313">
        <time>2022-03-11T10:20:00+00:00</time>
        <ele>2932.0</ele>
      </trkpt>
      <trkpt lat="46.88693" lon="10.23313">
        <time>2022-03-11T10:20:12+00:00</time>
        <ele>2932.0</ele>
      </trkpt>
      <trkpt lat="46.88694" lon="10.23314">
        <time>2022-03-11T10:20:28+00:00</time>
        <ele>2931.0</ele>
      </trkpt>
      <trkpt lat="46.88694" lon="10.23311">
        <time>2022-03-11T10:20:30+00:00</time>
        <ele>2932.0</ele>
      </trkpt>
      <trkpt lat="46.88694" lon="10.2331">
        <time>2022-03-11T10:20:39+00:00</time>
        <ele>2932.0</ele>
      </trkpt>
      <trkpt lat="46.88693" lon="10.23311">
        <time>2022-03-11T10:20:50+00:00</time>
        <ele>2932.0</ele>
      </trkpt>
      <trkpt lat="46.88689" lon="10.23313">
        <time>2022-03-11T10:21:12+00:00</time>
        <ele>2932.0</ele>
      </trkpt>
      <trkpt lat="46.88687" lon="10.23313">
        <time>2022-03-11T10:21:54+00:00</time>
        <ele>2933.0</ele>
      </trkpt>
      <trkpt lat="46.88689" lon="10.23312">
        <time>2022-03-11T10:22:11+00:00</time>
        <ele>2933.0</ele>
      </trkpt>
      <trkpt lat="46.88694" lon="10.23309">
        <time>2022-03-11T10:22:55+00:00</time>
        <ele>2933.0</ele>
      </trkpt>
      <trkpt lat="46.88691" lon="10.23314">
        <time>2022-03-11T10:23:43+00:00</time>
        <ele>2932.0</ele>
      </trkpt>
      <trkpt lat="46.88691" lon="10.23314">
        <time>2022-03-11T10:23:51+00:00</time>
        <ele>2932.0</ele>
      </trkpt>
      <trkpt lat="46.8869" lon="10.23327">
        <time>2022-03-11T10:24:40+00:00</time>
        <ele>2929.0</ele>
      </trkpt>
      <trkpt lat="46.88691" lon="10.23363">
        <time>2022-03-11T10:24:44+00:00</time>
        <ele>2923.0</ele>
      </trkpt>
      <trkpt lat="46.88698" lon="10.2339">
        <time>2022-03-11T10:24:48+00:00</time>
        <ele>2915.0</ele>
      </trkpt>
      <trkpt lat="46.88707" lon="10.23402">
        <time>2022-03-11T10:24:50+00:00</time>
        <ele>2909.0</ele>
      </trkpt>
      <trkpt lat="46.88717" lon="10.23406">
        <time>2022-03-11T10:24:51+00:00</time>
        <ele>2907.0</ele>
      </trkpt>
      <trkpt lat="46.88743" lon="10.23426">
        <time>2022-03-11T10:24:54+00:00</time>
        <ele>2896.0</ele>
      </trkpt>
      <trkpt lat="46.88757" lon="10.23446">
        <time>2022-03-11T10:24:56+00:00</time>
        <ele>2887.0</ele>
      </trkpt>
      <trkpt lat="46.88763" lon="10.23454">
        <time>2022-03-11T10:24:57+00:00</time>
        <ele>2884.0</ele>
      </trkpt>
      <trkpt lat="46.88769" lon="10.23461">
        <time>2022-03-11T10:24:58+00:00</time>
        <ele>2881.0</ele>
      </trkpt>
      <trkpt lat="46.88774" lon="10.23468">
        <time>2022-03-11T10:24:59+00:00</time>
        <ele>2879.0</ele>
      </trkpt>
      <trkpt lat="46.88778" lon="10.23474">
        <time>2022-03-11T10:25:00+00:00</time>
        <ele>2877.0</ele>
      </trkpt>
      <trkpt lat="46.88782" lon="10.23482">
        <time>2022-03-11T10:25:01+00:00</time>
        <ele>2875.0</ele>
      </trkpt>
      <trkpt lat="46.88788" lon="10.23488">
        <time>2022-03-11T10:25:02+00:00</time>
        <ele>2872.0</ele>
      </trkpt>
      <trkpt lat="46.88793" lon="10.23493">
        <time>2022-03-11T10:25:03+00:00</time>
        <ele>2869.0</ele>
      </trkpt>
      <trkpt lat="46.88797" lon="10.23496">
        <time>2022-03-11T10:25:04+00:00</time>
        <ele>2867.0</ele>
      </trkpt>
      <trkpt lat="46.88802" lon="10.23504">
        <time>2022-03-11T10:25:05+00:00</time>
        <ele>2863.0</ele>
      </trkpt>
      <trkpt lat="46.88806" lon="10.23511">
        <time>2022-03-11T10:25:06+00:00</time>
        <ele>2860.0</ele>
      </trkpt>
      <trkpt lat="46.88809" lon="10.23516">
        <time>2022-03-11T10:25:07+00:00</time>
        <ele>2857.0</ele>
      </trkpt>
      <trkpt lat="46.88814" lon="10.23518">
        <time>2022-03-11T10:25:08+00:00</time>
        <ele>2856.0</ele>
      </trkpt>
      <trkpt lat="46.88817" lon="10.23521">
        <time>2022-03-11T10:25:09+00:00</time>
        <ele>2854.0</ele>
      </trkpt>
      <trkpt lat="46.8882" lon="10.23522">
        <time>2022-03-11T10:25:10+00:00</time>
        <ele>2853.0</ele>
      </trkpt>
      <trkpt lat="46.88822" lon="10.23521">
        <time>2022-03-11T10:25:11+00:00</time>
        <ele>2854.0</ele>
      </trkpt>
      <trkpt lat="46.88825" lon="10.23521">
        <time>2022-03-11T10:25:12+00:00</time>
        <ele>2854.0</ele>
      </trkpt>
      <trkpt lat="46.88828" lon="10.23521">
        <time>2022-03-11T10:25:13+00:00</time>
        <ele>2854.0</ele>
      </trkpt>
      <trkpt lat="46.88837" lon="10.23525">
        <time>2022-03-11T10:25:15+00:00</time>
        <ele>2851.0</ele>
      </trkpt>
      <trkpt lat="46.8884" lon="10.23528">
        <time>2022-03-11T10:25:16+00:00</time>
        <ele>2850.0</ele>
      </trkpt>
      <trkpt lat="46.88843" lon="10.23542">
        <time>2022-03-11T10:25:18+00:00</time>
        <ele>2843.0</ele>
      </trkpt>
      <trkpt lat="46.88845" lon="10.23545">
        <time>2022-03-11T10:25:19+00:00</time>
        <ele>2842.0</ele>
      </trkpt>
      <trkpt lat="46.88848" lon="10.23545">
        <time>2022-03-11T10:25:20+00:00</time>
        <ele>2842.0</ele>
      </trkpt>
      <trkpt lat="46.88849" lon="10.23544">
        <time>2022-03-11T10:25:21+00:00</time>
        <ele>2842.0</ele>
      </trkpt>
      <trkpt lat="46.88849" lon="10.23544">
        <time>2022-03-11T10:25:23+00:00</time>
        <ele>2842.0</ele>
      </trkpt>
      <trkpt lat="46.88848" lon="10.23545">
        <time>2022-03-11T10:25:24+00:00</time>
        <ele>2842.0</ele>
      </trkpt>
      <trkpt lat="46.88849" lon="10.23546">
        <time>2022-03-11T10:25:30+00:00</time>
        <ele>2842.0</ele>
      </trkpt>
      <trkpt lat="46.88852" lon="10.23546">
        <time>2022-03-11T10:25:34+00:00</time>
        <ele>2842.0</ele>
      </trkpt>
      <trkpt lat="46.88854" lon="10.23554">
        <time>2022-03-11T10:25:38+00:00</time>
        <ele>2839.0</ele>
      </trkpt>
      <trkpt lat="46.88857" lon="10.23558">
        <time>2022-03-11T10:25:39+00:00</time>
        <ele>2838.0</ele>
      </trkpt>
      <trkpt lat="46.8886" lon="10.23562">
        <time>2022-03-11T10:25:40+00:00</time>
        <ele>2837.0</ele>
      </trkpt>
      <trkpt lat="46.88863" lon="10.23565">
        <time>2022-03-11T10:25:41+00:00</time>
        <ele>2836.0</ele>
      </trkpt>
      <trkpt lat="46.88865" lon="10.23569">
        <time>2022-03-11T10:25:42+00:00</time>
        <ele>2835.0</ele>
      </trkpt>
      <trkpt lat="46.88867" lon="10.23572">
        <time>2022-03-11T10:25:43+00:00</time>
        <ele>2834.0</ele>
      </trkpt>
      <trkpt lat="46.8887" lon="10.23576">
        <time>2022-03-11T10:25:44+00:00</time>
        <ele>2834.0</ele>
      </trkpt>
      <trkpt lat="46.88871" lon="10.2358">
        <time>2022-03-11T10:25:45+00:00</time>
        <ele>2834.0</ele>
      </trkpt>
      <trkpt lat="46.88873" lon="10.23584">
        <time>2022-03-11T10:25:46+00:00</time>
        <ele>2833.0</ele>
      </trkpt>
      <trkpt lat="46.88878" lon="10.23595">
        <time>2022-03-11T10:25:48+00:00</time>
        <ele>2833.0</ele>
      </trkpt>
      <trkpt lat="46.88881" lon="10.23601">
        <time>2022-03-11T10:25:49+00:00</time>
        <ele>2833.0</ele>
      </trkpt>
      <trkpt lat="46.88883" lon="10.23607">
        <time>2022-03-11T10:25:50+00:00</time>
        <ele>2833.0</ele>
      </trkpt>
      <trkpt lat="46.88884" lon="10.23617">
        <time>2022-03-11T10:25:51+00:00</time>
        <ele>2833.0</ele>
      </trkpt>
      <trkpt lat="46.88884" lon="10.23632">
        <time>2022-03-11T10:25:53+00:00</time>
        <ele>2835.0</ele>
      </trkpt>
      <trkpt lat="46.88883" lon="10.23639">
        <time>2022-03-11T10:25:55+00:00</time>
        <ele>2836.0</ele>
      </trkpt>
      <trkpt lat="46.88883" lon="10.2364">
        <time>2022-03-11T10:25:56+00:00</time>
        <ele>2836.0</ele>
      </trkpt>
      <trkpt lat="46.8888" lon="10.23642">
        <time>2022-03-11T10:26:00+00:00</time>
        <ele>2837.0</ele>
      </trkpt>
      <trkpt lat="46.88879" lon="10.23642">
        <time>2022-03-11T10:26:02+00:00</time>
        <ele>2837.0</ele>
      </trkpt>
      <trkpt lat="46.88879" lon="10.23641">
        <time>2022-03-11T10:26:03+00:00</time>
        <ele>2836.0</ele>
      </trkpt>
      <trkpt lat="46.88876" lon="10.23645">
        <time>2022-03-11T10:26:08+00:00</time>
        <ele>2837.0</ele>
      </trkpt>
      <trkpt lat="46.88875" lon="10.23646">
        <time>2022-03-11T10:26:09+00:00</time>
        <ele>2837.0</ele>
      </trkpt>
      <trkpt lat="46.88871" lon="10.23653">
        <time>2022-03-11T10:26:26+00:00</time>
        <ele>2839.0</ele>
      </trkpt>
      <trkpt lat="46.88871" lon="10.23652">
        <time>2022-03-11T10:26:28+00:00</time>
        <ele>2838.0</ele>
      </trkpt>
      <trkpt lat="46.8887" lon="10.23655">
        <time>2022-03-11T10:26:39+00:00</time>
        <ele>2839.0</ele>
      </trkpt>
      <trkpt lat="46.88877" lon="10.23656">
        <time>2022-03-11T10:26:41+00:00</time>
        <ele>2839.0</ele>
      </trkpt>
      <trkpt lat="46.88882" lon="10.23659">
        <time>2022-03-11T10:26:42+00:00</time>
        <ele>2840.0</ele>
      </trkpt>
      <trkpt lat="46.88887" lon="10.23661">
        <time>2022-03-11T10:26:43+00:00</time>
        <ele>2840.0</ele>
      </trkpt>
      <trkpt lat="46.88893" lon="10.23661">
        <time>2022-03-11T10:26:44+00:00</time>
        <ele>2838.0</ele>
      </trkpt>
      <trkpt lat="46.889" lon="10.23659">
        <time>2022-03-11T10:26:45+00:00</time>
        <ele>2834.0</ele>
      </trkpt>
      <trkpt lat="46.88909" lon="10.23656">
        <time>2022-03-11T10:26:46+00:00</time>
        <ele>2828.0</ele>
      </trkpt>
      <trkpt lat="46.88918" lon="10.2365">
        <time>2022-03-11T10:26:47+00:00</time>
        <ele>2821.0</ele>
      </trkpt>
      <trkpt lat="46.88927" lon="10.23648">
        <time>2022-03-11T10:26:48+00:00</time>
        <ele>2815.0</ele>
      </trkpt>
      <trkpt lat="46.88936" lon="10.23643">
        <time>2022-03-11T10:26:49+00:00</time>
        <ele>2810.0</ele>
      </trkpt>
      <trkpt lat="46.8894" lon="10.23647">
        <time>2022-03-11T10:26:50+00:00</time>
        <ele>2808.0</ele>
      </trkpt>
      <trkpt lat="46.88942" lon="10.23652">
        <time>2022-03-11T10:26:51+00:00</time>
        <ele>2807.0</ele>
      </trkpt>
      <trkpt lat="46.88944" lon="10.23655">
        <time>2022-03-11T10:26:52+00:00</time>
        <ele>2806.0</ele>
      </trkpt>
      <trkpt lat="46.88945" lon="10.23658">
        <time>2022-03-11T10:26:53+00:00</time>
        <ele>2805.0</ele>
      </trkpt>
      <trkpt lat="46.88944" lon="10.23662">
        <time>2022-03-11T10:26:54+00:00</time>
        <ele>2807.0</ele>
      </trkpt>
      <trkpt lat="46.88944" lon="10.23665">
        <time>2022-03-11T10:26:55+00:00</time>
        <ele>2807.0</ele>
      </trkpt>
      <trkpt lat="46.88944" lon="10.23667">
        <time>2022-03-11T10:26:56+00:00</time>
        <ele>2807.0</ele>
      </trkpt>
      <trkpt lat="46.88943" lon="10.23672">
        <time>2022-03-11T10:26:57+00:00</time>
        <ele>2808.0</ele>
      </trkpt>
      <trkpt lat="46.88942" lon="10.23676">
        <time>2022-03-11T10:26:58+00:00</time>
        <ele>2810.0</ele>
      </trkpt>
      <trkpt lat="46.88942" lon="10.2368">
        <time>2022-03-11T10:26:59+00:00</time>
        <ele>2810.0</ele>
      </trkpt>
      <trkpt lat="46.88947" lon="10.23694">
        <time>2022-03-11T10:27:02+00:00</time>
        <ele>2807.0</ele>
      </trkpt>
      <trkpt lat="46.8895" lon="10.23702">
        <time>2022-03-11T10:27:03+00:00</time>
        <ele>2804.0</ele>
      </trkpt>
      <trkpt lat="46.88953" lon="10.23715">
        <time>2022-03-11T10:27:04+00:00</time>
        <ele>2803.0</ele>
      </trkpt>
      <trkpt lat="46.88955" lon="10.23744">
        <time>2022-03-11T10:27:05+00:00</time>
        <ele>2805.0</ele>
      </trkpt>
      <trkpt lat="46.88956" lon="10.23747">
        <time>2022-03-11T10:27:08+00:00</time>
        <ele>2804.0</ele>
      </trkpt>
      <trkpt lat="46.88957" lon="10.23751">
        <time>2022-03-11T10:27:10+00:00</time>
        <ele>2804.0</ele>
      </trkpt>
      <trkpt lat="46.88957" lon="10.23751">
        <time>2022-03-11T10:27:15+00:00</time>
        <ele>2804.0</ele>
      </trkpt>
      <trkpt lat="46.88954" lon="10.23758">
        <time>2022-03-11T10:27:22+00:00</time>
        <ele>2809.0</ele>
      </trkpt>
      <trkpt lat="46.88954" lon="10.23758">
        <time>2022-03-11T10:27:23+00:00</time>
        <ele>2809.0</ele>
      </trkpt>
      <trkpt lat="46.88957" lon="10.23758">
        <time>2022-03-11T10:27:28+00:00</time>
        <ele>2805.0</ele>
      </trkpt>
      <trkpt lat="46.88961" lon="10.23756">
        <time>2022-03-11T10:27:35+00:00</time>
        <ele>2801.0</ele>
      </trkpt>
      <trkpt lat="46.88961" lon="10.23754">
        <time>2022-03-11T10:27:43+00:00</time>
        <ele>2800.0</ele>
      </trkpt>
      <trkpt lat="46.88962" lon="10.23751">
        <time>2022-03-11T10:27:52+00:00</time>
        <ele>2799.0</ele>
      </trkpt>
      <trkpt lat="46.88967" lon="10.23751">
        <time>2022-03-11T10:27:57+00:00</time>
        <ele>2794.0</ele>
      </trkpt>
      <trkpt lat="46.88985" lon="10.23754">
        <time>2022-03-11T10:28:00+00:00</time>
        <ele>2781.0</ele>
      </trkpt>
      <trkpt lat="46.88997" lon="10.23752">
        <time>2022-03-11T10:28:01+00:00</time>
        <ele>2774.0</ele>
      </trkpt>
      <trkpt lat="46.89011" lon="10.23749">
        <time>2022-03-11T10:28:02+00:00</time>
        <ele>2766.0</ele>
      </trkpt>
      <trkpt lat="46.89027" lon="10.23749">
        <time>2022-03-11T10:28:03+00:00</time>
        <ele>2756.0</ele>
      </trkpt>
      <trkpt lat="46.89038" lon="10.23756">
        <time>2022-03-11T10:28:04+00:00</time>
        <ele>2750.0</ele>
      </trkpt>
      <trkpt lat="46.89052" lon="10.23763">
        <time>2022-03-11T10:28:05+00:00</time>
        <ele>2745.0</ele>
      </trkpt>
      <trkpt lat="46.89065" lon="10.2377">
        <time>2022-03-11T10:28:06+00:00</time>
        <ele>2740.0</ele>
      </trkpt>
      <trkpt lat="46.89076" lon="10.23778">
        <time>2022-03-11T10:28:07+00:00</time>
        <ele>2735.0</ele>
      </trkpt>
      <trkpt lat="46.89085" lon="10.23784">
        <time>2022-03-11T10:28:08+00:00</time>
        <ele>2731.0</ele>
      </trkpt>
      <trkpt lat="46.89094" lon="10.23791">
        <time>2022-03-11T10:28:09+00:00</time>
        <ele>2729.0</ele>
      </trkpt>
      <trkpt lat="46.89101" lon="10.23799">
        <time>2022-03-11T10:28:10+00:00</time>
        <ele>2728.0</ele>
      </trkpt>
      <trkpt lat="46.89107" lon="10.23806">
        <time>2022-03-11T10:28:11+00:00</time>
        <ele>2727.0</ele>
      </trkpt>
      <trkpt lat="46.89115" lon="10.23816">
        <time>2022-03-11T10:28:12+00:00</time>
        <ele>2726.0</ele>
      </trkpt>
      <trkpt lat="46.89123" lon="10.23824">
        <time>2022-03-11T10:28:13+00:00</time>
        <ele>2724.0</ele>
      </trkpt>
      <trkpt lat="46.89131" lon="10.23831">
        <time>2022-03-11T10:28:14+00:00</time>
        <ele>2723.0</ele>
      </trkpt>
      <trkpt lat="46.89139" lon="10.23838">
        <time>2022-03-11T10:28:15+00:00</time>
        <ele>2722.0</ele>
      </trkpt>
      <trkpt lat="46.89147" lon="10.23845">
        <time>2022-03-11T10:28:16+00:00</time>
        <ele>2720.0</ele>
      </trkpt>
      <trkpt lat="46.89153" lon="10.23851">
        <time>2022-03-11T10:28:17+00:00</time>
        <ele>2717.0</ele>
      </trkpt>
      <trkpt lat="46.89157" lon="10.23855">
        <time>2022-03-11T10:28:18+00:00</time>
        <ele>2716.0</ele>
      </trkpt>
      <trkpt lat="46.89157" lon="10.23858">
        <time>2022-03-11T10:28:19+00:00</time>
        <ele>2715.0</ele>
      </trkpt>
      <trkpt lat="46.89156" lon="10.23861">
        <time>2022-03-11T10:28:20+00:00</time>
        <ele>2714.0</ele>
      </trkpt>
      <trkpt lat="46.89153" lon="10.23864">
        <time>2022-03-11T10:28:21+00:00</time>
        <ele>2713.0</ele>
      </trkpt>
      <trkpt lat="46.89151" lon="10.23864">
        <time>2022-03-11T10:28:22+00:00</time>
        <ele>2714.0</ele>
      </trkpt>
      <trkpt lat="46.89146" lon="10.23862">
        <time>2022-03-11T10:28:24+00:00</time>
        <ele>2715.0</ele>
      </trkpt>
      <trkpt lat="46.89144" lon="10.2386">
        <time>2022-03-11T10:28:25+00:00</time>
        <ele>2716.0</ele>
      </trkpt>
      <trkpt lat="46.89138" lon="10.23865">
        <time>2022-03-11T10:28:30+00:00</time>
        <ele>2714.0</ele>
      </trkpt>
      <trkpt lat="46.89135" lon="10.23866">
        <time>2022-03-11T10:28:33+00:00</time>
        <ele>2714.0</ele>
      </trkpt>
      <trkpt lat="46.89133" lon="10.23868">
        <time>2022-03-11T10:28:35+00:00</time>
        <ele>2714.0</ele>
      </trkpt>
      <trkpt lat="46.89132" lon="10.23868">
        <time>2022-03-11T10:28:36+00:00</time>
        <ele>2714.0</ele>
      </trkpt>
      <trkpt lat="46.89127" lon="10.23871">
        <time>2022-03-11T10:28:40+00:00</time>
        <ele>2714.0</ele>
      </trkpt>
      <trkpt lat="46.89124" lon="10.23869">
        <time>2022-03-11T10:28:45+00:00</time>
        <ele>2714.0</ele>
      </trkpt>
      <trkpt lat="46.89126" lon="10.23862">
        <time>2022-03-11T10:28:51+00:00</time>
        <ele>2716.0</ele>
      </trkpt>
      <trkpt lat="46.89123" lon="10.23862">
        <time>2022-03-11T10:28:56+00:00</time>
        <ele>2716.0</ele>
      </trkpt>
      <trkpt lat="46.89116" lon="10.23861">
        <time>2022-03-11T10:29:05+00:00</time>
        <ele>2718.0</ele>
      </trkpt>
      <trkpt lat="46.89116" lon="10.2386">
        <time>2022-03-11T10:29:06+00:00</time>
        <ele>2718.0</ele>
      </trkpt>
      <trkpt lat="46.89118" lon="10.23862">
        <time>2022-03-11T10:29:11+00:00</time>
        <ele>2717.0</ele>
      </trkpt>
      <trkpt lat="46.89118" lon="10.23863">
        <time>2022-03-11T10:29:20+00:00</time>
        <ele>2717.0</ele>
      </trkpt>
      <trkpt lat="46.89117" lon="10.23863">
        <time>2022-03-11T10:29:31+00:00</time>
        <ele>2717.0</ele>
      </trkpt>
      <trkpt lat="46.89116" lon="10.23863">
        <time>2022-03-11T10:29:37+00:00</time>
        <ele>2717.0</ele>
      </trkpt>
      <trkpt lat="46.8911" lon="10.23865">
        <time>2022-03-11T10:29:44+00:00</time>
        <ele>2718.0</ele>
      </trkpt>
      <trkpt lat="46.89105" lon="10.2387">
        <time>2022-03-11T10:29:50+00:00</time>
        <ele>2719.0</ele>
      </trkpt>
      <trkpt lat="46.89104" lon="10.23868">
        <time>2022-03-11T10:29:56+00:00</time>
        <ele>2719.0</ele>
      </trkpt>
      <trkpt lat="46.89101" lon="10.23868">
        <time>2022-03-11T10:29:59+00:00</time>
        <ele>2720.0</ele>
      </trkpt>
      <trkpt lat="46.89101" lon="10.23868">
        <time>2022-03-11T10:30:14+00:00</time>
        <ele>2720.0</ele>
      </trkpt>
      <trkpt lat="46.8911" lon="10.23865">
        <time>2022-03-11T10:30:16+00:00</time>
        <ele>2718.0</ele>
      </trkpt>
      <trkpt lat="46.89116" lon="10.23865">
        <time>2022-03-11T10:30:17+00:00</time>
        <ele>2717.0</ele>
      </trkpt>
      <trkpt lat="46.89127" lon="10.23867">
        <time>2022-03-11T10:30:19+00:00</time>
        <ele>2714.0</ele>
      </trkpt>
      <trkpt lat="46.89132" lon="10.23868">
        <time>2022-03-11T10:30:20+00:00</time>
        <ele>2714.0</ele>
      </trkpt>
      <trkpt lat="46.89142" lon="10.23869">
        <time>2022-03-11T10:30:22+00:00</time>
        <ele>2713.0</ele>
      </trkpt>
      <trkpt lat="46.89155" lon="10.2387">
        <time>2022-03-11T10:30:25+00:00</time>
        <ele>2712.0</ele>
      </trkpt>
      <trkpt lat="46.89172" lon="10.23869">
        <time>2022-03-11T10:30:29+00:00</time>
        <ele>2710.0</ele>
      </trkpt>
      <trkpt lat="46.8918" lon="10.23867">
        <time>2022-03-11T10:30:31+00:00</time>
        <ele>2710.0</ele>
      </trkpt>
      <trkpt lat="46.89184" lon="10.23866">
        <time>2022-03-11T10:30:32+00:00</time>
        <ele>2709.0</ele>
      </trkpt>
      <trkpt lat="46.89192" lon="10.23863">
        <time>2022-03-11T10:30:35+00:00</time>
        <ele>2709.0</ele>
      </trkpt>
      <trkpt lat="46.89195" lon="10.23861">
        <time>2022-03-11T10:30:37+00:00</time>
        <ele>2710.0</ele>
      </trkpt>
      <trkpt lat="46.89198" lon="10.23857">
        <time>2022-03-11T10:30:41+00:00</time>
        <ele>2710.0</ele>
      </trkpt>
      <trkpt lat="46.89195" lon="10.23854">
        <time>2022-03-11T10:30:44+00:00</time>
        <ele>2711.0</ele>
      </trkpt>
      <trkpt lat="46.89197" lon="10.23848">
        <time>2022-03-11T10:30:50+00:00</time>
        <ele>2713.0</ele>
      </trkpt>
      <trkpt lat="46.89206" lon="10.23848">
        <time>2022-03-11T10:30:53+00:00</time>
        <ele>2710.0</ele>
      </trkpt>
      <trkpt lat="46.89213" lon="10.23849">
        <time>2022-03-11T10:30:54+00:00</time>
        <ele>2708.0</ele>
      </trkpt>
      <trkpt lat="46.8922" lon="10.23848">
        <time>2022-03-11T10:30:55+00:00</time>
        <ele>2706.0</ele>
      </trkpt>
      <trkpt lat="46.89229" lon="10.23844">
        <time>2022-03-11T10:30:56+00:00</time>
        <ele>2704.0</ele>
      </trkpt>
      <trkpt lat="46.89239" lon="10.23835">
        <time>2022-03-11T10:30:57+00:00</time>
        <ele>2702.0</ele>
      </trkpt>
      <trkpt lat="46.89257" lon="10.23821">
        <time>2022-03-11T10:30:59+00:00</time>
        <ele>2701.0</ele>
      </trkpt>
      <trkpt lat="46.89265" lon="10.23816">
        <time>2022-03-11T10:31:00+00:00</time>
        <ele>2699.0</ele>
      </trkpt>
      <trkpt lat="46.89274" lon="10.23815">
        <time>2022-03-11T10:31:01+00:00</time>
        <ele>2697.0</ele>
      </trkpt>
      <trkpt lat="46.89282" lon="10.23817">
        <time>2022-03-11T10:31:02+00:00</time>
        <ele>2695.0</ele>
      </trkpt>
      <trkpt lat="46.89292" lon="10.23821">
        <time>2022-03-11T10:31:03+00:00</time>
        <ele>2693.0</ele>
      </trkpt>
      <trkpt lat="46.89301" lon="10.23824">
        <time>2022-03-11T10:31:04+00:00</time>
        <ele>2691.0</ele>
      </trkpt>
      <trkpt lat="46.89311" lon="10.23827">
        <time>2022-03-11T10:31:05+00:00</time>
        <ele>2689.0</ele>
      </trkpt>
      <trkpt lat="46.89322" lon="10.23831">
        <time>2022-03-11T10:31:06+00:00</time>
        <ele>2685.0</ele>
      </trkpt>
      <trkpt lat="46.89332" lon="10.23837">
        <time>2022-03-11T10:31:07+00:00</time>
        <ele>2682.0</ele>
      </trkpt>
      <trkpt lat="46.89342" lon="10.23845">
        <time>2022-03-11T10:31:08+00:00</time>
        <ele>2679.0</ele>
      </trkpt>
      <trkpt lat="46.89351" lon="10.23853">
        <time>2022-03-11T10:31:09+00:00</time>
        <ele>2676.0</ele>
      </trkpt>
      <trkpt lat="46.8936" lon="10.23862">
        <time>2022-03-11T10:31:10+00:00</time>
        <ele>2674.0</ele>
      </trkpt>
      <trkpt lat="46.89368" lon="10.23869">
        <time>2022-03-11T10:31:11+00:00</time>
        <ele>2672.0</ele>
      </trkpt>
      <trkpt lat="46.89377" lon="10.23876">
        <time>2022-03-11T10:31:12+00:00</time>
        <ele>2669.0</ele>
      </trkpt>
      <trkpt lat="46.89387" lon="10.23882">
        <time>2022-03-11T10:31:13+00:00</time>
        <ele>2666.0</ele>
      </trkpt>
      <trkpt lat="46.89396" lon="10.23889">
        <time>2022-03-11T10:31:14+00:00</time>
        <ele>2664.0</ele>
      </trkpt>
      <trkpt lat="46.89406" lon="10.23895">
        <time>2022-03-11T10:31:15+00:00</time>
        <ele>2661.0</ele>
      </trkpt>
      <trkpt lat="46.89415" lon="10.23902">
        <time>2022-03-11T10:31:16+00:00</time>
        <ele>2659.0</ele>
      </trkpt>
      <trkpt lat="46.89424" lon="10.23908">
        <time>2022-03-11T10:31:17+00:00</time>
        <ele>2657.0</ele>
      </trkpt>
      <trkpt lat="46.89434" lon="10.23914">
        <time>2022-03-11T10:31:18+00:00</time>
        <ele>2655.0</ele>
      </trkpt>
      <trkpt lat="46.89444" lon="10.23922">
        <time>2022-03-11T10:31:19+00:00</time>
        <ele>2652.0</ele>
      </trkpt>
      <trkpt lat="46.89454" lon="10.23932">
        <time>2022-03-11T10:31:20+00:00</time>
        <ele>2650.0</ele>
      </trkpt>
      <trkpt lat="46.89464" lon="10.23943">
        <time>2022-03-11T10:31:21+00:00</time>
        <ele>2648.0</ele>
      </trkpt>
      <trkpt lat="46.89473" lon="10.23956">
        <time>2022-03-11T10:31:22+00:00</time>
        <ele>2645.0</ele>
      </trkpt>
      <trkpt lat="46.89483" lon="10.23969">
        <time>2022-03-11T10:31:23+00:00</time>
        <ele>2643.0</ele>
      </trkpt>
      <trkpt lat="46.89492" lon="10.23982">
        <time>2022-03-11T10:31:24+00:00</time>
        <ele>2641.0</ele>
      </trkpt>
      <trkpt lat="46.895" lon="10.23995">
        <time>2022-03-11T10:31:25+00:00</time>
        <ele>2640.0</ele>
      </trkpt>
      <trkpt lat="46.89509" lon="10.24007">
        <time>2022-03-11T10:31:26+00:00</time>
        <ele>2639.0</ele>
      </trkpt>
      <trkpt lat="46.89518" lon="10.2402">
        <time>2022-03-11T10:31:27+00:00</time>
        <ele>2638.0</ele>
      </trkpt>
      <trkpt lat="46.89525" lon="10.24032">
        <time>2022-03-11T10:31:28+00:00</time>
        <ele>2637.0</ele>
      </trkpt>
      <trkpt lat="46.89532" lon="10.24044">
        <time>2022-03-11T10:31:29+00:00</time>
        <ele>2637.0</ele>
      </trkpt>
      <trkpt lat="46.89537" lon="10.24055">
        <time>2022-03-11T10:31:30+00:00</time>
        <ele>2637.0</ele>
      </trkpt>
      <trkpt lat="46.89543" lon="10.24064">
        <time>2022-03-11T10:31:31+00:00</time>
        <ele>2636.0</ele>
      </trkpt>
      <trkpt lat="46.89547" lon="10.24073">
        <time>2022-03-11T10:31:32+00:00</time>
        <ele>2636.0</ele>
      </trkpt>
      <trkpt lat="46.89551" lon="10.2408">
        <time>2022-03-11T10:31:33+00:00</time>
        <ele>2637.0</ele>
      </trkpt>
      <trkpt lat="46.89556" lon="10.24091">
        <time>2022-03-11T10:31:35+00:00</time>
        <ele>2637.0</ele>
      </trkpt>
      <trkpt lat="46.89558" lon="10.241">
        <time>2022-03-11T10:31:37+00:00</time>
        <ele>2638.0</ele>
      </trkpt>
      <trkpt lat="46.89559" lon="10.24107">
        <time>2022-03-11T10:31:39+00:00</time>
        <ele>2638.0</ele>
      </trkpt>
      <trkpt lat="46.89563" lon="10.24122">
        <time>2022-03-11T10:31:45+00:00</time>
        <ele>2638.0</ele>
      </trkpt>
      <trkpt lat="46.89562" lon="10.24126">
        <time>2022-03-11T10:31:51+00:00</time>
        <ele>2637.0</ele>
      </trkpt>
      <trkpt lat="46.8956" lon="10.24125">
        <time>2022-03-11T10:31:54+00:00</time>
        <ele>2637.0</ele>
      </trkpt>
      <trkpt lat="46.89557" lon="10.24124">
        <time>2022-03-11T10:32:01+00:00</time>
        <ele>2636.0</ele>
      </trkpt>
      <trkpt lat="46.89557" lon="10.24125">
        <time>2022-03-11T10:32:08+00:00</time>
        <ele>2636.0</ele>
      </trkpt>
      <trkpt lat="46.89557" lon="10.24125">
        <time>2022-03-11T10:32:20+00:00</time>
        <ele>2636.0</ele>
      </trkpt>
      <trkpt lat="46.89552" lon="10.24124">
        <time>2022-03-11T10:33:00+00:00</time>
        <ele>2635.0</ele>
      </trkpt>
      <trkpt lat="46.8955" lon="10.24123">
        <time>2022-03-11T10:33:53+00:00</time>
        <ele>2635.0</ele>
      </trkpt>
      <trkpt lat="46.89551" lon="10.24123">
        <time>2022-03-11T10:34:07+00:00</time>
        <ele>2635.0</ele>
      </trkpt>
      <trkpt lat="46.89549" lon="10.24122">
        <time>2022-03-11T10:34:24+00:00</time>
        <ele>2635.0</ele>
      </trkpt>
      <trkpt lat="46.89548" lon="10.24122">
        <time>2022-03-11T10:34:38+00:00</time>
        <ele>2635.0</ele>
      </trkpt>
      <trkpt lat="46.8955" lon="10.24124">
        <time>2022-03-11T10:35:49+00:00</time>
        <ele>2635.0</ele>
      </trkpt>
      <trkpt lat="46.8955" lon="10.24124">
        <time>2022-03-11T10:37:22+00:00</time>
        <ele>2635.0</ele>
      </trkpt>
      <trkpt lat="46.8955" lon="10.24124">
        <time>2022-03-11T10:37:58+00:00</time>
        <ele>2635.0</ele>
      </trkpt>
      <trkpt lat="46.8955" lon="10.24124">
        <time>2022-03-11T10:38:28+00:00</time>
        <ele>2635.0</ele>
      </trkpt>
      <trkpt lat="46.8955" lon="10.24124">
        <time>2022-03-11T10:38:33+00:00</time>
        <ele>2635.0</ele>
      </trkpt>
      <trkpt lat="46.8955" lon="10.24124">
        <time>2022-03-11T10:38:46+00:00</time>
        <ele>2635.0</ele>
      </trkpt>
      <trkpt lat="46.8955" lon="10.24124">
        <time>2022-03-11T10:38:50+00:00</time>
        <ele>2635.0</ele>
      </trkpt>
      <trkpt lat="46.8955" lon="10.24124">
        <time>2022-03-11T10:39:18+00:00</time>
        <ele>2635.0</ele>
      </trkpt>
      <trkpt lat="46.8955" lon="10.24124">
        <time>2022-03-11T10:39:30+00:00</time>
        <ele>2635.0</ele>
      </trkpt>
      <trkpt lat="46.8955" lon="10.24124">
        <time>2022-03-11T10:39:35+00:00</time>
        <ele>2635.0</ele>
      </trkpt>
      <trkpt lat="46.8955" lon="10.24124">
        <time>2022-03-11T10:39:47+00:00</time>
        <ele>2635.0</ele>
      </trkpt>
      <trkpt lat="46.8955" lon="10.24124">
        <time>2022-03-11T10:40:10+00:00</time>
        <ele>2635.0</ele>
      </trkpt>
      <trkpt lat="46.8955" lon="10.24124">
        <time>2022-03-11T10:40:13+00:00</time>
        <ele>2635.0</ele>
      </trkpt>
      <trkpt lat="46.8955" lon="10.24124">
        <time>2022-03-11T10:40:38+00:00</time>
        <ele>2635.0</ele>
      </trkpt>
      <trkpt lat="46.89552" lon="10.24125">
        <time>2022-03-11T10:41:00+00:00</time>
        <ele>2635.0</ele>
      </trkpt>
      <trkpt lat="46.89557" lon="10.24128">
        <time>2022-03-11T10:41:03+00:00</time>
        <ele>2636.0</ele>
      </trkpt>
      <trkpt lat="46.89569" lon="10.24139">
        <time>2022-03-11T10:41:13+00:00</time>
        <ele>2638.0</ele>
      </trkpt>
      <trkpt lat="46.89574" lon="10.24144">
        <time>2022-03-11T10:41:20+00:00</time>
        <ele>2638.0</ele>
      </trkpt>
      <trkpt lat="46.89577" lon="10.24148">
        <time>2022-03-11T10:41:24+00:00</time>
        <ele>2638.0</ele>
      </trkpt>
      <trkpt lat="46.8958" lon="10.24151">
        <time>2022-03-11T10:41:28+00:00</time>
        <ele>2638.0</ele>
      </trkpt>
      <trkpt lat="46.89586" lon="10.24155">
        <time>2022-03-11T10:41:37+00:00</time>
        <ele>2639.0</ele>
      </trkpt>
      <trkpt lat="46.8959" lon="10.24157">
        <time>2022-03-11T10:41:42+00:00</time>
        <ele>2640.0</ele>
      </trkpt>
      <trkpt lat="46.89594" lon="10.24158">
        <time>2022-03-11T10:41:45+00:00</time>
        <ele>2640.0</ele>
      </trkpt>
      <trkpt lat="46.89596" lon="10.2416">
        <time>2022-03-11T10:41:49+00:00</time>
        <ele>2640.0</ele>
      </trkpt>
      <trkpt lat="46.89597" lon="10.24161">
        <time>2022-03-11T10:41:51+00:00</time>
        <ele>2641.0</ele>
      </trkpt>
      <trkpt lat="46.89598" lon="10.24163">
        <time>2022-03-11T10:41:55+00:00</time>
        <ele>2641.0</ele>
      </trkpt>
      <trkpt lat="46.89599" lon="10.24165">
        <time>2022-03-11T10:41:59+00:00</time>
        <ele>2640.0</ele>
      </trkpt>
      <trkpt lat="46.89599" lon="10.24166">
        <time>2022-03-11T10:42:01+00:00</time>
        <ele>2640.0</ele>
      </trkpt>
      <trkpt lat="46.896" lon="10.24166">
        <time>2022-03-11T10:42:02+00:00</time>
        <ele>2640.0</ele>
      </trkpt>
      <trkpt lat="46.89601" lon="10.24166">
        <time>2022-03-11T10:42:04+00:00</time>
        <ele>2641.0</ele>
      </trkpt>
      <trkpt lat="46.89602" lon="10.24165">
        <time>2022-03-11T10:42:05+00:00</time>
        <ele>2641.0</ele>
      </trkpt>
      <trkpt lat="46.89608" lon="10.24166">
        <time>2022-03-11T10:42:13+00:00</time>
        <ele>2642.0</ele>
      </trkpt>
      <trkpt lat="46.89612" lon="10.24167">
        <time>2022-03-11T10:42:20+00:00</time>
        <ele>2642.0</ele>
      </trkpt>
      <trkpt lat="46.89612" lon="10.24167">
        <time>2022-03-11T10:42:21+00:00</time>
        <ele>2642.0</ele>
      </trkpt>
      <trkpt lat="46.89614" lon="10.24168">
        <time>2022-03-11T10:42:25+00:00</time>
        <ele>2642.0</ele>
      </trkpt>
      <trkpt lat="46.89615" lon="10.24167">
        <time>2022-03-11T10:42:26+00:00</time>
        <ele>2642.0</ele>
      </trkpt>
      <trkpt lat="46.89615" lon="10.24168">
        <time>2022-03-11T10:42:27+00:00</time>
        <ele>2642.0</ele>
      </trkpt>
      <trkpt lat="46.89619" lon="10.24168">
        <time>2022-03-11T10:42:34+00:00</time>
        <ele>2642.0</ele>
      </trkpt>
      <trkpt lat="46.8962" lon="10.24168">
        <time>2022-03-11T10:42:36+00:00</time>
        <ele>2643.0</ele>
      </trkpt>
      <trkpt lat="46.89622" lon="10.24166">
        <time>2022-03-11T10:42:40+00:00</time>
        <ele>2643.0</ele>
      </trkpt>
      <trkpt lat="46.89626" lon="10.24163">
        <time>2022-03-11T10:42:50+00:00</time>
        <ele>2644.0</ele>
      </trkpt>
      <trkpt lat="46.89627" lon="10.24162">
        <time>2022-03-11T10:42:51+00:00</time>
        <ele>2644.0</ele>
      </trkpt>
      <trkpt lat="46.89634" lon="10.24152">
        <time>2022-03-11T10:43:01+00:00</time>
        <ele>2646.0</ele>
      </trkpt>
      <trkpt lat="46.89639" lon="10.24148">
        <time>2022-03-11T10:43:08+00:00</time>
        <ele>2648.0</ele>
      </trkpt>
      <trkpt lat="46.89641" lon="10.24147">
        <time>2022-03-11T10:43:11+00:00</time>
        <ele>2648.0</ele>
      </trkpt>
      <trkpt lat="46.89641" lon="10.24147">
        <time>2022-03-11T10:43:12+00:00</time>
        <ele>2648.0</ele>
      </trkpt>
      <trkpt lat="46.89642" lon="10.24147">
        <time>2022-03-11T10:43:15+00:00</time>
        <ele>2648.0</ele>
      </trkpt>
      <trkpt lat="46.89642" lon="10.24147">
        <time>2022-03-11T10:43:16+00:00</time>
        <ele>2648.0</ele>
      </trkpt>
      <trkpt lat="46.89643" lon="10.24146">
        <time>2022-03-11T10:43:17+00:00</time>
        <ele>2648.0</ele>
      </trkpt>
      <trkpt lat="46.89644" lon="10.24146">
        <time>2022-03-11T10:43:19+00:00</time>
        <ele>2648.0</ele>
      </trkpt>
      <trkpt lat="46.89649" lon="10.24144">
        <time>2022-03-11T10:43:27+00:00</time>
        <ele>2649.0</ele>
      </trkpt>
      <trkpt lat="46.89652" lon="10.24144">
        <time>2022-03-11T10:43:31+00:00</time>
        <ele>2649.0</ele>
      </trkpt>
      <trkpt lat="46.89653" lon="10.24144">
        <time>2022-03-11T10:43:33+00:00</time>
        <ele>2649.0</ele>
      </trkpt>
      <trkpt lat="46.89657" lon="10.24144">
        <time>2022-03-11T10:43:37+00:00</time>
        <ele>2650.0</ele>
      </trkpt>
      <trkpt lat="46.89657" lon="10.24144">
        <time>2022-03-11T10:43:38+00:00</time>
        <ele>2650.0</ele>
      </trkpt>
      <trkpt lat="46.89662" lon="10.24143">
        <time>2022-03-11T10:43:45+00:00</time>
        <ele>2650.0</ele>
      </trkpt>
      <trkpt lat="46.89669" lon="10.24143">
        <time>2022-03-11T10:43:54+00:00</time>
        <ele>2651.0</ele>
      </trkpt>
      <trkpt lat="46.89671" lon="10.24143">
        <time>2022-03-11T10:43:56+00:00</time>
        <ele>2651.0</ele>
      </trkpt>
      <trkpt lat="46.89681" lon="10.24143">
        <time>2022-03-11T10:44:07+00:00</time>
        <ele>2651.0</ele>
      </trkpt>
      <trkpt lat="46.89682" lon="10.24142">
        <time>2022-03-11T10:44:08+00:00</time>
        <ele>2652.0</ele>
      </trkpt>
      <trkpt lat="46.8969" lon="10.24138">
        <time>2022-03-11T10:44:18+00:00</time>
        <ele>2653.0</ele>
      </trkpt>
      <trkpt lat="46.89691" lon="10.24137">
        <time>2022-03-11T10:44:19+00:00</time>
        <ele>2653.0</ele>
      </trkpt>
      <trkpt lat="46.89705" lon="10.24128">
        <time>2022-03-11T10:44:30+00:00</time>
        <ele>2655.0</ele>
      </trkpt>
      <trkpt lat="46.89709" lon="10.24126">
        <time>2022-03-11T10:44:33+00:00</time>
        <ele>2656.0</ele>
      </trkpt>
      <trkpt lat="46.89713" lon="10.24123">
        <time>2022-03-11T10:44:37+00:00</time>
        <ele>2656.0</ele>
      </trkpt>
      <trkpt lat="46.89727" lon="10.24115">
        <time>2022-03-11T10:44:51+00:00</time>
        <ele>2658.0</ele>
      </trkpt>
      <trkpt lat="46.89731" lon="10.24112">
        <time>2022-03-11T10:44:56+00:00</time>
        <ele>2658.0</ele>
      </trkpt>
      <trkpt lat="46.89739" lon="10.24107">
        <time>2022-03-11T10:45:03+00:00</time>
        <ele>2659.0</ele>
      </trkpt>
      <trkpt lat="46.8975" lon="10.24101">
        <time>2022-03-11T10:45:13+00:00</time>
        <ele>2659.0</ele>
      </trkpt>
      <trkpt lat="46.89758" lon="10.24094">
        <time>2022-03-11T10:45:22+00:00</time>
        <ele>2659.0</ele>
      </trkpt>
      <trkpt lat="46.89763" lon="10.24088">
        <time>2022-03-11T10:45:28+00:00</time>
        <ele>2659.0</ele>
      </trkpt>
      <trkpt lat="46.89765" lon="10.24086">
        <time>2022-03-11T10:45:32+00:00</time>
        <ele>2659.0</ele>
      </trkpt>
      <trkpt lat="46.89769" lon="10.24078">
        <time>2022-03-11T10:45:42+00:00</time>
        <ele>2658.0</ele>
      </trkpt>
      <trkpt lat="46.89772" lon="10.24071">
        <time>2022-03-11T10:45:48+00:00</time>
        <ele>2659.0</ele>
      </trkpt>
      <trkpt lat="46.89776" lon="10.24064">
        <time>2022-03-11T10:45:53+00:00</time>
        <ele>2659.0</ele>
      </trkpt>
      <trkpt lat="46.89781" lon="10.24057">
        <time>2022-03-11T10:46:01+00:00</time>
        <ele>2659.0</ele>
      </trkpt>
      <trkpt lat="46.89783" lon="10.24051">
        <time>2022-03-11T10:46:08+00:00</time>
        <ele>2659.0</ele>
      </trkpt>
      <trkpt lat="46.89784" lon="10.24049">
        <time>2022-03-11T10:46:10+00:00</time>
        <ele>2660.0</ele>
      </trkpt>
      <trkpt lat="46.89786" lon="10.24043">
        <time>2022-03-11T10:46:16+00:00</time>
        <ele>2660.0</ele>
      </trkpt>
      <trkpt lat="46.89787" lon="10.24041">
        <time>2022-03-11T10:46:19+00:00</time>
        <ele>2660.0</ele>
      </trkpt>
      <trkpt lat="46.89786" lon="10.2404">
        <time>2022-03-11T10:46:20+00:00</time>
        <ele>2660.0</ele>
      </trkpt>
      <trkpt lat="46.89787" lon="10.24038">
        <time>2022-03-11T10:46:22+00:00</time>
        <ele>2661.0</ele>
      </trkpt>
      <trkpt lat="46.89788" lon="10.24037">
        <time>2022-03-11T10:46:23+00:00</time>
        <ele>2661.0</ele>
      </trkpt>
      <trkpt lat="46.89788" lon="10.24036">
        <time>2022-03-11T10:46:24+00:00</time>
        <ele>2661.0</ele>
      </trkpt>
      <trkpt lat="46.89789" lon="10.24034">
        <time>2022-03-11T10:46:27+00:00</time>
        <ele>2661.0</ele>
      </trkpt>
      <trkpt lat="46.89789" lon="10.24031">
        <time>2022-03-11T10:46:30+00:00</time>
        <ele>2661.0</ele>
      </trkpt>
      <trkpt lat="46.89789" lon="10.24029">
        <time>2022-03-11T10:46:32+00:00</time>
        <ele>2661.0</ele>
      </trkpt>
      <trkpt lat="46.8979" lon="10.24026">
        <time>2022-03-11T10:46:36+00:00</time>
        <ele>2662.0</ele>
      </trkpt>
      <trkpt lat="46.89791" lon="10.24023">
        <time>2022-03-11T10:46:38+00:00</time>
        <ele>2662.0</ele>
      </trkpt>
      <trkpt lat="46.89792" lon="10.24021">
        <time>2022-03-11T10:46:40+00:00</time>
        <ele>2662.0</ele>
      </trkpt>
      <trkpt lat="46.89793" lon="10.24016">
        <time>2022-03-11T10:46:44+00:00</time>
        <ele>2663.0</ele>
      </trkpt>
      <trkpt lat="46.89793" lon="10.24015">
        <time>2022-03-11T10:46:45+00:00</time>
        <ele>2663.0</ele>
      </trkpt>
      <trkpt lat="46.89794" lon="10.24014">
        <time>2022-03-11T10:46:47+00:00</time>
        <ele>2663.0</ele>
      </trkpt>
      <trkpt lat="46.89797" lon="10.24008">
        <time>2022-03-11T10:46:53+00:00</time>
        <ele>2663.0</ele>
      </trkpt>
      <trkpt lat="46.89797" lon="10.24007">
        <time>2022-03-11T10:46:54+00:00</time>
        <ele>2663.0</ele>
      </trkpt>
      <trkpt lat="46.89801" lon="10.23999">
        <time>2022-03-11T10:47:02+00:00</time>
        <ele>2664.0</ele>
      </trkpt>
      <trkpt lat="46.89801" lon="10.23996">
        <time>2022-03-11T10:47:04+00:00</time>
        <ele>2665.0</ele>
      </trkpt>
      <trkpt lat="46.898" lon="10.23991">
        <time>2022-03-11T10:47:08+00:00</time>
        <ele>2665.0</ele>
      </trkpt>
      <trkpt lat="46.89799" lon="10.23987">
        <time>2022-03-11T10:47:12+00:00</time>
        <ele>2665.0</ele>
      </trkpt>
      <trkpt lat="46.89795" lon="10.23975">
        <time>2022-03-11T10:47:22+00:00</time>
        <ele>2666.0</ele>
      </trkpt>
      <trkpt lat="46.89793" lon="10.23971">
        <time>2022-03-11T10:47:25+00:00</time>
        <ele>2666.0</ele>
      </trkpt>
      <trkpt lat="46.89791" lon="10.23963">
        <time>2022-03-11T10:47:33+00:00</time>
        <ele>2667.0</ele>
      </trkpt>
      <trkpt lat="46.89791" lon="10.23961">
        <time>2022-03-11T10:47:35+00:00</time>
        <ele>2668.0</ele>
      </trkpt>
      <trkpt lat="46.8979" lon="10.23957">
        <time>2022-03-11T10:47:39+00:00</time>
        <ele>2668.0</ele>
      </trkpt>
      <trkpt lat="46.89791" lon="10.23955">
        <time>2022-03-11T10:47:41+00:00</time>
        <ele>2669.0</ele>
      </trkpt>
      <trkpt lat="46.8979" lon="10.23945">
        <time>2022-03-11T10:47:50+00:00</time>
        <ele>2670.0</ele>
      </trkpt>
      <trkpt lat="46.8979" lon="10.23939">
        <time>2022-03-11T10:47:56+00:00</time>
        <ele>2671.0</ele>
      </trkpt>
      <trkpt lat="46.8979" lon="10.23933">
        <time>2022-03-11T10:48:02+00:00</time>
        <ele>2672.0</ele>
      </trkpt>
      <trkpt lat="46.8979" lon="10.23932">
        <time>2022-03-11T10:48:03+00:00</time>
        <ele>2672.0</ele>
      </trkpt>
      <trkpt lat="46.89791" lon="10.23923">
        <time>2022-03-11T10:48:11+00:00</time>
        <ele>2673.0</ele>
      </trkpt>
      <trkpt lat="46.89791" lon="10.23913">
        <time>2022-03-11T10:48:20+00:00</time>
        <ele>2674.0</ele>
      </trkpt>
      <trkpt lat="46.89791" lon="10.23911">
        <time>2022-03-11T10:48:21+00:00</time>
        <ele>2675.0</ele>
      </trkpt>
      <trkpt lat="46.89794" lon="10.239">
        <time>2022-03-11T10:48:30+00:00</time>
        <ele>2676.0</ele>
      </trkpt>
      <trkpt lat="46.89794" lon="10.23895">
        <time>2022-03-11T10:48:35+00:00</time>
        <ele>2676.0</ele>
      </trkpt>
      <trkpt lat="46.89793" lon="10.23891">
        <time>2022-03-11T10:48:38+00:00</time>
        <ele>2677.0</ele>
      </trkpt>
      <trkpt lat="46.89793" lon="10.23889">
        <time>2022-03-11T10:48:40+00:00</time>
        <ele>2677.0</ele>
      </trkpt>
      <trkpt lat="46.89794" lon="10.23882">
        <time>2022-03-11T10:48:47+00:00</time>
        <ele>2677.0</ele>
      </trkpt>
      <trkpt lat="46.89794" lon="10.23881">
        <time>2022-03-11T10:48:48+00:00</time>
        <ele>2677.0</ele>
      </trkpt>
      <trkpt lat="46.89796" lon="10.23875">
        <time>2022-03-11T10:48:55+00:00</time>
        <ele>2678.0</ele>
      </trkpt>
      <trkpt lat="46.89798" lon="10.23872">
        <time>2022-03-11T10:49:02+00:00</time>
        <ele>2678.0</ele>
      </trkpt>
      <trkpt lat="46.89798" lon="10.2387">
        <time>2022-03-11T10:49:07+00:00</time>
        <ele>2678.0</ele>
      </trkpt>
      <trkpt lat="46.89798" lon="10.23869">
        <time>2022-03-11T10:49:15+00:00</time>
        <ele>2678.0</ele>
      </trkpt>
      <trkpt lat="46.89799" lon="10.23869">
        <time>2022-03-11T10:49:34+00:00</time>
        <ele>2678.0</ele>
      </trkpt>
      <trkpt lat="46.89804" lon="10.23873">
        <time>2022-03-11T10:49:48+00:00</time>
        <ele>2679.0</ele>
      </trkpt>
      <trkpt lat="46.89804" lon="10.23875">
        <time>2022-03-11T10:50:32+00:00</time>
        <ele>2678.0</ele>
      </trkpt>
      <trkpt lat="46.89797" lon="10.23885">
        <time>2022-03-11T10:51:31+00:00</time>
        <ele>2677.0</ele>
      </trkpt>
      <trkpt lat="46.89791" lon="10.23894">
        <time>2022-03-11T10:51:33+00:00</time>
        <ele>2676.0</ele>
      </trkpt>
      <trkpt lat="46.89787" lon="10.23903">
        <time>2022-03-11T10:51:35+00:00</time>
        <ele>2675.0</ele>
      </trkpt>
      <trkpt lat="46.89786" lon="10.23921">
        <time>2022-03-11T10:51:39+00:00</time>
        <ele>2673.0</ele>
      </trkpt>
      <trkpt lat="46.89786" lon="10.2393">
        <time>2022-03-11T10:51:41+00:00</time>
        <ele>2672.0</ele>
      </trkpt>
      <trkpt lat="46.89785" lon="10.23944">
        <time>2022-03-11T10:51:45+00:00</time>
        <ele>2670.0</ele>
      </trkpt>
      <trkpt lat="46.89785" lon="10.23945">
        <time>2022-03-11T10:51:46+00:00</time>
        <ele>2670.0</ele>
      </trkpt>
      <trkpt lat="46.89785" lon="10.23946">
        <time>2022-03-11T10:51:47+00:00</time>
        <ele>2669.0</ele>
      </trkpt>
      <trkpt lat="46.89785" lon="10.23947">
        <time>2022-03-11T10:51:49+00:00</time>
        <ele>2669.0</ele>
      </trkpt>
      <trkpt lat="46.89786" lon="10.23948">
        <time>2022-03-11T10:51:57+00:00</time>
        <ele>2669.0</ele>
      </trkpt>
      <trkpt lat="46.89786" lon="10.23949">
        <time>2022-03-11T10:52:00+00:00</time>
        <ele>2669.0</ele>
      </trkpt>
      <trkpt lat="46.89786" lon="10.23949">
        <time>2022-03-11T10:52:03+00:00</time>
        <ele>2669.0</ele>
      </trkpt>
      <trkpt lat="46.89786" lon="10.23949">
        <time>2022-03-11T10:52:12+00:00</time>
        <ele>2669.0</ele>
      </trkpt>
      <trkpt lat="46.8979" lon="10.23953">
        <time>2022-03-11T10:52:41+00:00</time>
        <ele>2669.0</ele>
      </trkpt>
      <trkpt lat="46.89791" lon="10.23954">
        <time>2022-03-11T10:52:48+00:00</time>
        <ele>2669.0</ele>
      </trkpt>
      <trkpt lat="46.89789" lon="10.23952">
        <time>2022-03-11T10:56:38+00:00</time>
        <ele>2669.0</ele>
      </trkpt>
      <trkpt lat="46.89789" lon="10.23951">
        <time>2022-03-11T10:57:57+00:00</time>
        <ele>2669.0</ele>
      </trkpt>
      <trkpt lat="46.89788" lon="10.23928">
        <time>2022-03-11T10:58:10+00:00</time>
        <ele>2672.0</ele>
      </trkpt>
      <trkpt lat="46.89789" lon="10.23907">
        <time>2022-03-11T10:58:19+00:00</time>
        <ele>2675.0</ele>
      </trkpt>
      <trkpt lat="46.89789" lon="10.23905">
        <time>2022-03-11T10:58:21+00:00</time>
        <ele>2675.0</ele>
      </trkpt>
      <trkpt lat="46.8979" lon="10.23898">
        <time>2022-03-11T10:58:27+00:00</time>
        <ele>2676.0</ele>
      </trkpt>
      <trkpt lat="46.89792" lon="10.23896">
        <time>2022-03-11T10:58:30+00:00</time>
        <ele>2676.0</ele>
      </trkpt>
      <trkpt lat="46.89793" lon="10.23887">
        <time>2022-03-11T10:58:39+00:00</time>
        <ele>2677.0</ele>
      </trkpt>
      <trkpt lat="46.89793" lon="10.23884">
        <time>2022-03-11T10:58:42+00:00</time>
        <ele>2677.0</ele>
      </trkpt>
      <trkpt lat="46.89793" lon="10.23881">
        <time>2022-03-11T10:58:44+00:00</time>
        <ele>2677.0</ele>
      </trkpt>
      <trkpt lat="46.89793" lon="10.23881">
        <time>2022-03-11T10:58:45+00:00</time>
        <ele>2677.0</ele>
      </trkpt>
      <trkpt lat="46.89795" lon="10.23876">
        <time>2022-03-11T10:58:52+00:00</time>
        <ele>2678.0</ele>
      </trkpt>
      <trkpt lat="46.89796" lon="10.23875">
        <time>2022-03-11T10:58:55+00:00</time>
        <ele>2678.0</ele>
      </trkpt>
      <trkpt lat="46.89796" lon="10.23875">
        <time>2022-03-11T10:58:59+00:00</time>
        <ele>2678.0</ele>
      </trkpt>
      <trkpt lat="46.89797" lon="10.23875">
        <time>2022-03-11T10:59:12+00:00</time>
        <ele>2678.0</ele>
      </trkpt>
      <trkpt lat="46.89797" lon="10.23875">
        <time>2022-03-11T10:59:21+00:00</time>
        <ele>2678.0</ele>
      </trkpt>
      <trkpt lat="46.89798" lon="10.23875">
        <time>2022-03-11T10:59:33+00:00</time>
        <ele>2678.0</ele>
      </trkpt>
      <trkpt lat="46.89799" lon="10.23875">
        <time>2022-03-11T10:59:35+00:00</time>
        <ele>2678.0</ele>
      </trkpt>
      <trkpt lat="46.898" lon="10.23875">
        <time>2022-03-11T10:59:42+00:00</time>
        <ele>2678.0</ele>
      </trkpt>
      <trkpt lat="46.89802" lon="10.23871">
        <time>2022-03-11T10:59:51+00:00</time>
        <ele>2679.0</ele>
      </trkpt>
      <trkpt lat="46.89805" lon="10.23869">
        <time>2022-03-11T10:59:58+00:00</time>
        <ele>2679.0</ele>
      </trkpt>
      <trkpt lat="46.89807" lon="10.23867">
        <time>2022-03-11T11:00:03+00:00</time>
        <ele>2680.0</ele>
      </trkpt>
      <trkpt lat="46.8981" lon="10.23864">
        <time>2022-03-11T11:00:11+00:00</time>
        <ele>2680.0</ele>
      </trkpt>
      <trkpt lat="46.89816" lon="10.23859">
        <time>2022-03-11T11:00:22+00:00</time>
        <ele>2681.0</ele>
      </trkpt>
      <trkpt lat="46.89816" lon="10.23858">
        <time>2022-03-11T11:00:26+00:00</time>
        <ele>2682.0</ele>
      </trkpt>
      <trkpt lat="46.89818" lon="10.23857">
        <time>2022-03-11T11:00:30+00:00</time>
        <ele>2682.0</ele>
      </trkpt>
      <trkpt lat="46.8982" lon="10.23854">
        <time>2022-03-11T11:00:35+00:00</time>
        <ele>2683.0</ele>
      </trkpt>
      <trkpt lat="46.89824" lon="10.23848">
        <time>2022-03-11T11:00:44+00:00</time>
        <ele>2685.0</ele>
      </trkpt>
      <trkpt lat="46.89824" lon="10.23845">
        <time>2022-03-11T11:00:49+00:00</time>
        <ele>2685.0</ele>
      </trkpt>
      <trkpt lat="46.89824" lon="10.2384">
        <time>2022-03-11T11:00:55+00:00</time>
        <ele>2686.0</ele>
      </trkpt>
      <trkpt lat="46.89823" lon="10.23835">
        <time>2022-03-11T11:01:01+00:00</time>
        <ele>2687.0</ele>
      </trkpt>
      <trkpt lat="46.89823" lon="10.23831">
        <time>2022-03-11T11:01:06+00:00</time>
        <ele>2688.0</ele>
      </trkpt>
      <trkpt lat="46.89823" lon="10.23829">
        <time>2022-03-11T11:01:09+00:00</time>
        <ele>2688.0</ele>
      </trkpt>
      <trkpt lat="46.89823" lon="10.23826">
        <time>2022-03-11T11:01:13+00:00</time>
        <ele>2688.0</ele>
      </trkpt>
      <trkpt lat="46.89823" lon="10.23821">
        <time>2022-03-11T11:01:19+00:00</time>
        <ele>2689.0</ele>
      </trkpt>
      <trkpt lat="46.89823" lon="10.23814">
        <time>2022-03-11T11:01:29+00:00</time>
        <ele>2690.0</ele>
      </trkpt>
      <trkpt lat="46.89823" lon="10.2381">
        <time>2022-03-11T11:01:34+00:00</time>
        <ele>2691.0</ele>
      </trkpt>
      <trkpt lat="46.89826" lon="10.23804">
        <time>2022-03-11T11:01:44+00:00</time>
        <ele>2692.0</ele>
      </trkpt>
      <trkpt lat="46.89828" lon="10.23799">
        <time>2022-03-11T11:01:51+00:00</time>
        <ele>2693.0</ele>
      </trkpt>
      <trkpt lat="46.8983" lon="10.23795">
        <time>2022-03-11T11:01:59+00:00</time>
        <ele>2693.0</ele>
      </trkpt>
      <trkpt lat="46.89832" lon="10.23791">
        <time>2022-03-11T11:02:06+00:00</time>
        <ele>2694.0</ele>
      </trkpt>
      <trkpt lat="46.89835" lon="10.23787">
        <time>2022-03-11T11:02:14+00:00</time>
        <ele>2695.0</ele>
      </trkpt>
      <trkpt lat="46.89841" lon="10.23776">
        <time>2022-03-11T11:02:20+00:00</time>
        <ele>2697.0</ele>
      </trkpt>
      <trkpt lat="46.89844" lon="10.23771">
        <time>2022-03-11T11:02:22+00:00</time>
        <ele>2699.0</ele>
      </trkpt>
      <trkpt lat="46.89845" lon="10.23769">
        <time>2022-03-11T11:02:23+00:00</time>
        <ele>2699.0</ele>
      </trkpt>
      <trkpt lat="46.89846" lon="10.23766">
        <time>2022-03-11T11:02:24+00:00</time>
        <ele>2700.0</ele>
      </trkpt>
      <trkpt lat="46.8985" lon="10.23759">
        <time>2022-03-11T11:02:28+00:00</time>
        <ele>2701.0</ele>
      </trkpt>
      <trkpt lat="46.89851" lon="10.23758">
        <time>2022-03-11T11:02:30+00:00</time>
        <ele>2702.0</ele>
      </trkpt>
      <trkpt lat="46.89852" lon="10.23757">
        <time>2022-03-11T11:02:32+00:00</time>
        <ele>2702.0</ele>
      </trkpt>
      <trkpt lat="46.89853" lon="10.23755">
        <time>2022-03-11T11:02:37+00:00</time>
        <ele>2702.0</ele>
      </trkpt>
      <trkpt lat="46.89855" lon="10.23752">
        <time>2022-03-11T11:02:42+00:00</time>
        <ele>2703.0</ele>
      </trkpt>
      <trkpt lat="46.89856" lon="10.23751">
        <time>2022-03-11T11:02:45+00:00</time>
        <ele>2704.0</ele>
      </trkpt>
      <trkpt lat="46.8986" lon="10.23747">
        <time>2022-03-11T11:02:53+00:00</time>
        <ele>2705.0</ele>
      </trkpt>
      <trkpt lat="46.89861" lon="10.23744">
        <time>2022-03-11T11:02:58+00:00</time>
        <ele>2706.0</ele>
      </trkpt>
      <trkpt lat="46.89863" lon="10.23742">
        <time>2022-03-11T11:03:02+00:00</time>
        <ele>2707.0</ele>
      </trkpt>
      <trkpt lat="46.89863" lon="10.23742">
        <time>2022-03-11T11:03:04+00:00</time>
        <ele>2707.0</ele>
      </trkpt>
      <trkpt lat="46.89865" lon="10.2374">
        <time>2022-03-11T11:03:08+00:00</time>
        <ele>2707.0</ele>
      </trkpt>
      <trkpt lat="46.89867" lon="10.23738">
        <time>2022-03-11T11:03:12+00:00</time>
        <ele>2708.0</ele>
      </trkpt>
      <trkpt lat="46.89871" lon="10.23736">
        <time>2022-03-11T11:03:19+00:00</time>
        <ele>2709.0</ele>
      </trkpt>
      <trkpt lat="46.89875" lon="10.23734">
        <time>2022-03-11T11:03:26+00:00</time>
        <ele>2710.0</ele>
      </trkpt>
      <trkpt lat="46.89878" lon="10.23733">
        <time>2022-03-11T11:03:31+00:00</time>
        <ele>2711.0</ele>
      </trkpt>
      <trkpt lat="46.89879" lon="10.23732">
        <time>2022-03-11T11:03:32+00:00</time>
        <ele>2711.0</ele>
      </trkpt>
      <trkpt lat="46.89882" lon="10.23729">
        <time>2022-03-11T11:03:37+00:00</time>
        <ele>2712.0</ele>
      </trkpt>
      <trkpt lat="46.89886" lon="10.23728">
        <time>2022-03-11T11:03:41+00:00</time>
        <ele>2713.0</ele>
      </trkpt>
      <trkpt lat="46.89893" lon="10.23727">
        <time>2022-03-11T11:03:50+00:00</time>
        <ele>2714.0</ele>
      </trkpt>
      <trkpt lat="46.89895" lon="10.23726">
        <time>2022-03-11T11:03:53+00:00</time>
        <ele>2714.0</ele>
      </trkpt>
      <trkpt lat="46.899" lon="10.23725">
        <time>2022-03-11T11:03:59+00:00</time>
        <ele>2715.0</ele>
      </trkpt>
      <trkpt lat="46.89903" lon="10.23724">
        <time>2022-03-11T11:04:03+00:00</time>
        <ele>2716.0</ele>
      </trkpt>
      <trkpt lat="46.89906" lon="10.23722">
        <time>2022-03-11T11:04:09+00:00</time>
        <ele>2716.0</ele>
      </trkpt>
      <trkpt lat="46.89907" lon="10.23722">
        <time>2022-03-11T11:04:10+00:00</time>
        <ele>2716.0</ele>
      </trkpt>
      <trkpt lat="46.89912" lon="10.23721">
        <time>2022-03-11T11:04:17+00:00</time>
        <ele>2717.0</ele>
      </trkpt>
      <trkpt lat="46.89912" lon="10.23721">
        <time>2022-03-11T11:04:18+00:00</time>
        <ele>2717.0</ele>
      </trkpt>
      <trkpt lat="46.89916" lon="10.23717">
        <time>2022-03-11T11:04:27+00:00</time>
        <ele>2719.0</ele>
      </trkpt>
      <trkpt lat="46.89918" lon="10.23717">
        <time>2022-03-11T11:04:30+00:00</time>
        <ele>2719.0</ele>
      </trkpt>
      <trkpt lat="46.8992" lon="10.23717">
        <time>2022-03-11T11:04:36+00:00</time>
        <ele>2719.0</ele>
      </trkpt>
      <trkpt lat="46.89922" lon="10.23719">
        <time>2022-03-11T11:04:40+00:00</time>
        <ele>2719.0</ele>
      </trkpt>
      <trkpt lat="46.89926" lon="10.23715">
        <time>2022-03-11T11:04:48+00:00</time>
        <ele>2720.0</ele>
      </trkpt>
      <trkpt lat="46.89928" lon="10.23712">
        <time>2022-03-11T11:04:51+00:00</time>
        <ele>2721.0</ele>
      </trkpt>
      <trkpt lat="46.89929" lon="10.23711">
        <time>2022-03-11T11:04:53+00:00</time>
        <ele>2721.0</ele>
      </trkpt>
      <trkpt lat="46.89929" lon="10.23709">
        <time>2022-03-11T11:04:56+00:00</time>
        <ele>2722.0</ele>
      </trkpt>
      <trkpt lat="46.89926" lon="10.2371">
        <time>2022-03-11T11:05:03+00:00</time>
        <ele>2721.0</ele>
      </trkpt>
      <trkpt lat="46.89927" lon="10.23707">
        <time>2022-03-11T11:05:19+00:00</time>
        <ele>2722.0</ele>
      </trkpt>
      <trkpt lat="46.89935" lon="10.23695">
        <time>2022-03-11T11:05:26+00:00</time>
        <ele>2723.0</ele>
      </trkpt>
      <trkpt lat="46.89937" lon="10.23694">
        <time>2022-03-11T11:05:27+00:00</time>
        <ele>2723.0</ele>
      </trkpt>
      <trkpt lat="46.89948" lon="10.23684">
        <time>2022-03-11T11:05:39+00:00</time>
        <ele>2724.0</ele>
      </trkpt>
      <trkpt lat="46.89956" lon="10.23675">
        <time>2022-03-11T11:05:51+00:00</time>
        <ele>2725.0</ele>
      </trkpt>
      <trkpt lat="46.89957" lon="10.23674">
        <time>2022-03-11T11:05:52+00:00</time>
        <ele>2725.0</ele>
      </trkpt>
      <trkpt lat="46.89962" lon="10.23671">
        <time>2022-03-11T11:06:00+00:00</time>
        <ele>2725.0</ele>
      </trkpt>
      <trkpt lat="46.89965" lon="10.23669">
        <time>2022-03-11T11:06:04+00:00</time>
        <ele>2725.0</ele>
      </trkpt>
      <trkpt lat="46.89966" lon="10.23669">
        <time>2022-03-11T11:06:06+00:00</time>
        <ele>2725.0</ele>
      </trkpt>
      <trkpt lat="46.89967" lon="10.23668">
        <time>2022-03-11T11:06:08+00:00</time>
        <ele>2725.0</ele>
      </trkpt>
      <trkpt lat="46.89969" lon="10.23666">
        <time>2022-03-11T11:06:12+00:00</time>
        <ele>2725.0</ele>
      </trkpt>
      <trkpt lat="46.89972" lon="10.23664">
        <time>2022-03-11T11:06:17+00:00</time>
        <ele>2726.0</ele>
      </trkpt>
      <trkpt lat="46.89973" lon="10.23664">
        <time>2022-03-11T11:06:19+00:00</time>
        <ele>2726.0</ele>
      </trkpt>
      <trkpt lat="46.89976" lon="10.23663">
        <time>2022-03-11T11:06:25+00:00</time>
        <ele>2726.0</ele>
      </trkpt>
      <trkpt lat="46.89979" lon="10.23663">
        <time>2022-03-11T11:06:30+00:00</time>
        <ele>2726.0</ele>
      </trkpt>
      <trkpt lat="46.89982" lon="10.23663">
        <time>2022-03-11T11:06:35+00:00</time>
        <ele>2727.0</ele>
      </trkpt>
      <trkpt lat="46.89986" lon="10.23664">
        <time>2022-03-11T11:06:41+00:00</time>
        <ele>2727.0</ele>
      </trkpt>
      <trkpt lat="46.89987" lon="10.23664">
        <time>2022-03-11T11:06:43+00:00</time>
        <ele>2727.0</ele>
      </trkpt>
      <trkpt lat="46.89991" lon="10.23666">
        <time>2022-03-11T11:06:50+00:00</time>
        <ele>2727.0</ele>
      </trkpt>
      <trkpt lat="46.89992" lon="10.23665">
        <time>2022-03-11T11:06:51+00:00</time>
        <ele>2727.0</ele>
      </trkpt>
      <trkpt lat="46.89995" lon="10.23665">
        <time>2022-03-11T11:06:58+00:00</time>
        <ele>2728.0</ele>
      </trkpt>
      <trkpt lat="46.89998" lon="10.23666">
        <time>2022-03-11T11:07:02+00:00</time>
        <ele>2728.0</ele>
      </trkpt>
      <trkpt lat="46.89999" lon="10.23666">
        <time>2022-03-11T11:07:05+00:00</time>
        <ele>2729.0</ele>
      </trkpt>
      <trkpt lat="46.90003" lon="10.23667">
        <time>2022-03-11T11:07:13+00:00</time>
        <ele>2729.0</ele>
      </trkpt>
      <trkpt lat="46.90008" lon="10.2367">
        <time>2022-03-11T11:07:24+00:00</time>
        <ele>2730.0</ele>
      </trkpt>
      <trkpt lat="46.90009" lon="10.2367">
        <time>2022-03-11T11:07:25+00:00</time>
        <ele>2730.0</ele>
      </trkpt>
      <trkpt lat="46.90013" lon="10.23673">
        <time>2022-03-11T11:07:34+00:00</time>
        <ele>2731.0</ele>
      </trkpt>
      <trkpt lat="46.90015" lon="10.23676">
        <time>2022-03-11T11:07:41+00:00</time>
        <ele>2731.0</ele>
      </trkpt>
      <trkpt lat="46.90016" lon="10.23676">
        <time>2022-03-11T11:07:42+00:00</time>
        <ele>2732.0</ele>
      </trkpt>
      <trkpt lat="46.90018" lon="10.23677">
        <time>2022-03-11T11:07:47+00:00</time>
        <ele>2732.0</ele>
      </trkpt>
      <trkpt lat="46.90019" lon="10.23679">
        <time>2022-03-11T11:07:50+00:00</time>
        <ele>2732.0</ele>
      </trkpt>
      <trkpt lat="46.90022" lon="10.23681">
        <time>2022-03-11T11:07:57+00:00</time>
        <ele>2733.0</ele>
      </trkpt>
      <trkpt lat="46.90022" lon="10.23681">
        <time>2022-03-11T11:07:58+00:00</time>
        <ele>2733.0</ele>
      </trkpt>
      <trkpt lat="46.90024" lon="10.23684">
        <time>2022-03-11T11:08:04+00:00</time>
        <ele>2733.0</ele>
      </trkpt>
      <trkpt lat="46.90025" lon="10.23685">
        <time>2022-03-11T11:08:06+00:00</time>
        <ele>2733.0</ele>
      </trkpt>
      <trkpt lat="46.90028" lon="10.23689">
        <time>2022-03-11T11:08:13+00:00</time>
        <ele>2733.0</ele>
      </trkpt>
      <trkpt lat="46.9003" lon="10.2369">
        <time>2022-03-11T11:08:16+00:00</time>
        <ele>2734.0</ele>
      </trkpt>
      <trkpt lat="46.90032" lon="10.23693">
        <time>2022-03-11T11:08:22+00:00</time>
        <ele>2734.0</ele>
      </trkpt>
      <trkpt lat="46.90033" lon="10.23693">
        <time>2022-03-11T11:08:23+00:00</time>
        <ele>2734.0</ele>
      </trkpt>
      <trkpt lat="46.90035" lon="10.23695">
        <time>2022-03-11T11:08:29+00:00</time>
        <ele>2735.0</ele>
      </trkpt>
      <trkpt lat="46.90036" lon="10.23696">
        <time>2022-03-11T11:08:31+00:00</time>
        <ele>2735.0</ele>
      </trkpt>
      <trkpt lat="46.90039" lon="10.23699">
        <time>2022-03-11T11:08:38+00:00</time>
        <ele>2735.0</ele>
      </trkpt>
      <trkpt lat="46.9004" lon="10.237">
        <time>2022-03-11T11:08:42+00:00</time>
        <ele>2735.0</ele>
      </trkpt>
      <trkpt lat="46.9004" lon="10.23701">
        <time>2022-03-11T11:08:45+00:00</time>
        <ele>2735.0</ele>
      </trkpt>
      <trkpt lat="46.90042" lon="10.23703">
        <time>2022-03-11T11:08:49+00:00</time>
        <ele>2735.0</ele>
      </trkpt>
      <trkpt lat="46.90044" lon="10.23706">
        <time>2022-03-11T11:08:54+00:00</time>
        <ele>2736.0</ele>
      </trkpt>
      <trkpt lat="46.90046" lon="10.23707">
        <time>2022-03-11T11:08:57+00:00</time>
        <ele>2736.0</ele>
      </trkpt>
      <trkpt lat="46.90049" lon="10.2371">
        <time>2022-03-11T11:09:03+00:00</time>
        <ele>2738.0</ele>
      </trkpt>
      <trkpt lat="46.90051" lon="10.23711">
        <time>2022-03-11T11:09:08+00:00</time>
        <ele>2739.0</ele>
      </trkpt>
      <trkpt lat="46.90051" lon="10.2371">
        <time>2022-03-11T11:09:09+00:00</time>
        <ele>2739.0</ele>
      </trkpt>
      <trkpt lat="46.90053" lon="10.23711">
        <time>2022-03-11T11:09:15+00:00</time>
        <ele>2740.0</ele>
      </trkpt>
      <trkpt lat="46.90054" lon="10.23712">
        <time>2022-03-11T11:09:16+00:00</time>
        <ele>2741.0</ele>
      </trkpt>
      <trkpt lat="46.90057" lon="10.23714">
        <time>2022-03-11T11:09:21+00:00</time>
        <ele>2742.0</ele>
      </trkpt>
      <trkpt lat="46.9006" lon="10.23716">
        <time>2022-03-11T11:09:26+00:00</time>
        <ele>2744.0</ele>
      </trkpt>
      <trkpt lat="46.90061" lon="10.23715">
        <time>2022-03-11T11:09:29+00:00</time>
        <ele>2745.0</ele>
      </trkpt>
      <trkpt lat="46.90061" lon="10.23715">
        <time>2022-03-11T11:09:30+00:00</time>
        <ele>2745.0</ele>
      </trkpt>
      <trkpt lat="46.90062" lon="10.23715">
        <time>2022-03-11T11:09:33+00:00</time>
        <ele>2745.0</ele>
      </trkpt>
      <trkpt lat="46.90063" lon="10.23713">
        <time>2022-03-11T11:09:36+00:00</time>
        <ele>2746.0</ele>
      </trkpt>
      <trkpt lat="46.90065" lon="10.23714">
        <time>2022-03-11T11:09:37+00:00</time>
        <ele>2747.0</ele>
      </trkpt>
      <trkpt lat="46.90066" lon="10.23715">
        <time>2022-03-11T11:09:38+00:00</time>
        <ele>2747.0</ele>
      </trkpt>
      <trkpt lat="46.90067" lon="10.23717">
        <time>2022-03-11T11:09:41+00:00</time>
        <ele>2748.0</ele>
      </trkpt>
      <trkpt lat="46.90068" lon="10.23717">
        <time>2022-03-11T11:09:43+00:00</time>
        <ele>2748.0</ele>
      </trkpt>
      <trkpt lat="46.9007" lon="10.23718">
        <time>2022-03-11T11:09:46+00:00</time>
        <ele>2749.0</ele>
      </trkpt>
      <trkpt lat="46.90071" lon="10.23718">
        <time>2022-03-11T11:09:49+00:00</time>
        <ele>2750.0</ele>
      </trkpt>
      <trkpt lat="46.90072" lon="10.23719">
        <time>2022-03-11T11:09:52+00:00</time>
        <ele>2750.0</ele>
      </trkpt>
      <trkpt lat="46.90076" lon="10.2372">
        <time>2022-03-11T11:10:00+00:00</time>
        <ele>2752.0</ele>
      </trkpt>
      <trkpt lat="46.90077" lon="10.2372">
        <time>2022-03-11T11:10:02+00:00</time>
        <ele>2753.0</ele>
      </trkpt>
      <trkpt lat="46.90082" lon="10.23724">
        <time>2022-03-11T11:10:11+00:00</time>
        <ele>2755.0</ele>
      </trkpt>
      <trkpt lat="46.90084" lon="10.23725">
        <time>2022-03-11T11:10:14+00:00</time>
        <ele>2756.0</ele>
      </trkpt>
      <trkpt lat="46.90087" lon="10.23728">
        <time>2022-03-11T11:10:21+00:00</time>
        <ele>2757.0</ele>
      </trkpt>
      <trkpt lat="46.90088" lon="10.23729">
        <time>2022-03-11T11:10:22+00:00</time>
        <ele>2757.0</ele>
      </trkpt>
      <trkpt lat="46.90091" lon="10.23733">
        <time>2022-03-11T11:10:31+00:00</time>
        <ele>2759.0</ele>
      </trkpt>
      <trkpt lat="46.90094" lon="10.23737">
        <time>2022-03-11T11:10:39+00:00</time>
        <ele>2760.0</ele>
      </trkpt>
      <trkpt lat="46.90095" lon="10.23738">
        <time>2022-03-11T11:10:43+00:00</time>
        <ele>2760.0</ele>
      </trkpt>
      <trkpt lat="46.90097" lon="10.2374">
        <time>2022-03-11T11:10:49+00:00</time>
        <ele>2761.0</ele>
      </trkpt>
      <trkpt lat="46.90099" lon="10.23742">
        <time>2022-03-11T11:10:53+00:00</time>
        <ele>2762.0</ele>
      </trkpt>
      <trkpt lat="46.901" lon="10.23744">
        <time>2022-03-11T11:10:56+00:00</time>
        <ele>2762.0</ele>
      </trkpt>
      <trkpt lat="46.90105" lon="10.23747">
        <time>2022-03-11T11:11:04+00:00</time>
        <ele>2764.0</ele>
      </trkpt>
      <trkpt lat="46.90105" lon="10.23748">
        <time>2022-03-11T11:11:05+00:00</time>
        <ele>2764.0</ele>
      </trkpt>
      <trkpt lat="46.90109" lon="10.23752">
        <time>2022-03-11T11:11:14+00:00</time>
        <ele>2766.0</ele>
      </trkpt>
      <trkpt lat="46.9011" lon="10.23753">
        <time>2022-03-11T11:11:16+00:00</time>
        <ele>2766.0</ele>
      </trkpt>
      <trkpt lat="46.90111" lon="10.23754">
        <time>2022-03-11T11:11:18+00:00</time>
        <ele>2767.0</ele>
      </trkpt>
      <trkpt lat="46.90116" lon="10.23757">
        <time>2022-03-11T11:11:27+00:00</time>
        <ele>2768.0</ele>
      </trkpt>
      <trkpt lat="46.90118" lon="10.23758">
        <time>2022-03-11T11:11:30+00:00</time>
        <ele>2769.0</ele>
      </trkpt>
      <trkpt lat="46.9012" lon="10.23759">
        <time>2022-03-11T11:11:34+00:00</time>
        <ele>2770.0</ele>
      </trkpt>
      <trkpt lat="46.90121" lon="10.2376">
        <time>2022-03-11T11:11:47+00:00</time>
        <ele>2770.0</ele>
      </trkpt>
      <trkpt lat="46.90124" lon="10.23761">
        <time>2022-03-11T11:11:58+00:00</time>
        <ele>2770.0</ele>
      </trkpt>
      <trkpt lat="46.90127" lon="10.23762">
        <time>2022-03-11T11:12:02+00:00</time>
        <ele>2771.0</ele>
      </trkpt>
      <trkpt lat="46.9013" lon="10.23763">
        <time>2022-03-11T11:12:05+00:00</time>
        <ele>2771.0</ele>
      </trkpt>
      <trkpt lat="46.90131" lon="10.23763">
        <time>2022-03-11T11:12:07+00:00</time>
        <ele>2771.0</ele>
      </trkpt>
      <trkpt lat="46.90133" lon="10.23763">
        <time>2022-03-11T11:12:11+00:00</time>
        <ele>2772.0</ele>
      </trkpt>
      <trkpt lat="46.90134" lon="10.23763">
        <time>2022-03-11T11:12:12+00:00</time>
        <ele>2772.0</ele>
      </trkpt>
      <trkpt lat="46.90137" lon="10.23763">
        <time>2022-03-11T11:12:16+00:00</time>
        <ele>2772.0</ele>
      </trkpt>
      <trkpt lat="46.9014" lon="10.23765">
        <time>2022-03-11T11:12:21+00:00</time>
        <ele>2773.0</ele>
      </trkpt>
      <trkpt lat="46.90141" lon="10.23765">
        <time>2022-03-11T11:12:23+00:00</time>
        <ele>2773.0</ele>
      </trkpt>
      <trkpt lat="46.90142" lon="10.23765">
        <time>2022-03-11T11:12:25+00:00</time>
        <ele>2773.0</ele>
      </trkpt>
      <trkpt lat="46.90146" lon="10.23766">
        <time>2022-03-11T11:12:31+00:00</time>
        <ele>2773.0</ele>
      </trkpt>
      <trkpt lat="46.90147" lon="10.23766">
        <time>2022-03-11T11:12:32+00:00</time>
        <ele>2773.0</ele>
      </trkpt>
      <trkpt lat="46.90149" lon="10.23766">
        <time>2022-03-11T11:12:35+00:00</time>
        <ele>2774.0</ele>
      </trkpt>
      <trkpt lat="46.90152" lon="10.23766">
        <time>2022-03-11T11:12:39+00:00</time>
        <ele>2774.0</ele>
      </trkpt>
      <trkpt lat="46.90154" lon="10.23766">
        <time>2022-03-11T11:12:42+00:00</time>
        <ele>2774.0</ele>
      </trkpt>
      <trkpt lat="46.90156" lon="10.23766">
        <time>2022-03-11T11:12:46+00:00</time>
        <ele>2774.0</ele>
      </trkpt>
      <trkpt lat="46.90157" lon="10.23766">
        <time>2022-03-11T11:12:48+00:00</time>
        <ele>2775.0</ele>
      </trkpt>
      <trkpt lat="46.90158" lon="10.23766">
        <time>2022-03-11T11:12:50+00:00</time>
        <ele>2775.0</ele>
      </trkpt>
      <trkpt lat="46.90159" lon="10.23766">
        <time>2022-03-11T11:12:52+00:00</time>
        <ele>2775.0</ele>
      </trkpt>
      <trkpt lat="46.90161" lon="10.23766">
        <time>2022-03-11T11:12:55+00:00</time>
        <ele>2776.0</ele>
      </trkpt>
      <trkpt lat="46.90164" lon="10.23766">
        <time>2022-03-11T11:12:59+00:00</time>
        <ele>2777.0</ele>
      </trkpt>
      <trkpt lat="46.90167" lon="10.23766">
        <time>2022-03-11T11:13:04+00:00</time>
        <ele>2778.0</ele>
      </trkpt>
      <trkpt lat="46.90169" lon="10.23766">
        <time>2022-03-11T11:13:06+00:00</time>
        <ele>2779.0</ele>
      </trkpt>
      <trkpt lat="46.90171" lon="10.23766">
        <time>2022-03-11T11:13:10+00:00</time>
        <ele>2779.0</ele>
      </trkpt>
      <trkpt lat="46.90174" lon="10.23766">
        <time>2022-03-11T11:13:13+00:00</time>
        <ele>2780.0</ele>
      </trkpt>
      <trkpt lat="46.90175" lon="10.23766">
        <time>2022-03-11T11:13:16+00:00</time>
        <ele>2780.0</ele>
      </trkpt>
      <trkpt lat="46.90177" lon="10.23766">
        <time>2022-03-11T11:13:18+00:00</time>
        <ele>2781.0</ele>
      </trkpt>
      <trkpt lat="46.90181" lon="10.23766">
        <time>2022-03-11T11:13:24+00:00</time>
        <ele>2783.0</ele>
      </trkpt>
      <trkpt lat="46.90182" lon="10.23767">
        <time>2022-03-11T11:13:26+00:00</time>
        <ele>2783.0</ele>
      </trkpt>
      <trkpt lat="46.90183" lon="10.23768">
        <time>2022-03-11T11:13:29+00:00</time>
        <ele>2783.0</ele>
      </trkpt>
      <trkpt lat="46.90185" lon="10.23767">
        <time>2022-03-11T11:13:31+00:00</time>
        <ele>2784.0</ele>
      </trkpt>
      <trkpt lat="46.90186" lon="10.23767">
        <time>2022-03-11T11:13:32+00:00</time>
        <ele>2784.0</ele>
      </trkpt>
      <trkpt lat="46.90187" lon="10.23766">
        <time>2022-03-11T11:13:34+00:00</time>
        <ele>2785.0</ele>
      </trkpt>
      <trkpt lat="46.90191" lon="10.23763">
        <time>2022-03-11T11:13:42+00:00</time>
        <ele>2786.0</ele>
      </trkpt>
      <trkpt lat="46.90192" lon="10.23763">
        <time>2022-03-11T11:13:43+00:00</time>
        <ele>2786.0</ele>
      </trkpt>
      <trkpt lat="46.90193" lon="10.23762">
        <time>2022-03-11T11:13:45+00:00</time>
        <ele>2787.0</ele>
      </trkpt>
      <trkpt lat="46.90196" lon="10.2376">
        <time>2022-03-11T11:13:49+00:00</time>
        <ele>2787.0</ele>
      </trkpt>
      <trkpt lat="46.90198" lon="10.2376">
        <time>2022-03-11T11:13:52+00:00</time>
        <ele>2788.0</ele>
      </trkpt>
      <trkpt lat="46.90198" lon="10.23759">
        <time>2022-03-11T11:13:53+00:00</time>
        <ele>2787.0</ele>
      </trkpt>
      <trkpt lat="46.90199" lon="10.23759">
        <time>2022-03-11T11:13:55+00:00</time>
        <ele>2788.0</ele>
      </trkpt>
      <trkpt lat="46.90199" lon="10.23759">
        <time>2022-03-11T11:13:56+00:00</time>
        <ele>2788.0</ele>
      </trkpt>
      <trkpt lat="46.90199" lon="10.2376">
        <time>2022-03-11T11:13:59+00:00</time>
        <ele>2788.0</ele>
      </trkpt>
      <trkpt lat="46.90198" lon="10.2376">
        <time>2022-03-11T11:14:07+00:00</time>
        <ele>2788.0</ele>
      </trkpt>
      <trkpt lat="46.90198" lon="10.2376">
        <time>2022-03-11T11:14:12+00:00</time>
        <ele>2788.0</ele>
      </trkpt>
      <trkpt lat="46.90197" lon="10.23759">
        <time>2022-03-11T11:15:11+00:00</time>
        <ele>2787.0</ele>
      </trkpt>
      <trkpt lat="46.90201" lon="10.23761">
        <time>2022-03-11T11:16:04+00:00</time>
        <ele>2788.0</ele>
      </trkpt>
      <trkpt lat="46.90203" lon="10.23755">
        <time>2022-03-11T11:16:27+00:00</time>
        <ele>2788.0</ele>
      </trkpt>
      <trkpt lat="46.90207" lon="10.23749">
        <time>2022-03-11T11:16:37+00:00</time>
        <ele>2789.0</ele>
      </trkpt>
      <trkpt lat="46.90212" lon="10.23743">
        <time>2022-03-11T11:16:45+00:00</time>
        <ele>2789.0</ele>
      </trkpt>
      <trkpt lat="46.90216" lon="10.23739">
        <time>2022-03-11T11:16:53+00:00</time>
        <ele>2789.0</ele>
      </trkpt>
      <trkpt lat="46.90217" lon="10.23739">
        <time>2022-03-11T11:16:55+00:00</time>
        <ele>2789.0</ele>
      </trkpt>
      <trkpt lat="46.90221" lon="10.23734">
        <time>2022-03-11T11:17:02+00:00</time>
        <ele>2790.0</ele>
      </trkpt>
      <trkpt lat="46.90222" lon="10.23733">
        <time>2022-03-11T11:17:04+00:00</time>
        <ele>2790.0</ele>
      </trkpt>
      <trkpt lat="46.90224" lon="10.23732">
        <time>2022-03-11T11:17:07+00:00</time>
        <ele>2790.0</ele>
      </trkpt>
      <trkpt lat="46.90224" lon="10.23731">
        <time>2022-03-11T11:17:08+00:00</time>
        <ele>2790.0</ele>
      </trkpt>
      <trkpt lat="46.90226" lon="10.23728">
        <time>2022-03-11T11:17:12+00:00</time>
        <ele>2790.0</ele>
      </trkpt>
      <trkpt lat="46.90227" lon="10.23727">
        <time>2022-03-11T11:17:14+00:00</time>
        <ele>2790.0</ele>
      </trkpt>
      <trkpt lat="46.90228" lon="10.23726">
        <time>2022-03-11T11:17:17+00:00</time>
        <ele>2791.0</ele>
      </trkpt>
      <trkpt lat="46.9023" lon="10.23724">
        <time>2022-03-11T11:17:21+00:00</time>
        <ele>2791.0</ele>
      </trkpt>
      <trkpt lat="46.90231" lon="10.23722">
        <time>2022-03-11T11:17:23+00:00</time>
        <ele>2791.0</ele>
      </trkpt>
      <trkpt lat="46.90232" lon="10.23722">
        <time>2022-03-11T11:17:24+00:00</time>
        <ele>2791.0</ele>
      </trkpt>
      <trkpt lat="46.90238" lon="10.23721">
        <time>2022-03-11T11:17:32+00:00</time>
        <ele>2792.0</ele>
      </trkpt>
      <trkpt lat="46.90239" lon="10.23719">
        <time>2022-03-11T11:17:34+00:00</time>
        <ele>2792.0</ele>
      </trkpt>
      <trkpt lat="46.90239" lon="10.23719">
        <time>2022-03-11T11:17:35+00:00</time>
        <ele>2792.0</ele>
      </trkpt>
      <trkpt lat="46.90239" lon="10.23718">
        <time>2022-03-11T11:17:36+00:00</time>
        <ele>2792.0</ele>
      </trkpt>
      <trkpt lat="46.9024" lon="10.23717">
        <time>2022-03-11T11:17:38+00:00</time>
        <ele>2792.0</ele>
      </trkpt>
      <trkpt lat="46.90241" lon="10.23717">
        <time>2022-03-11T11:17:39+00:00</time>
        <ele>2792.0</ele>
      </trkpt>
      <trkpt lat="46.90245" lon="10.23714">
        <time>2022-03-11T11:17:46+00:00</time>
        <ele>2793.0</ele>
      </trkpt>
      <trkpt lat="46.90246" lon="10.23714">
        <time>2022-03-11T11:17:48+00:00</time>
        <ele>2793.0</ele>
      </trkpt>
      <trkpt lat="46.90247" lon="10.23713">
        <time>2022-03-11T11:17:50+00:00</time>
        <ele>2793.0</ele>
      </trkpt>
      <trkpt lat="46.9025" lon="10.23711">
        <time>2022-03-11T11:17:57+00:00</time>
        <ele>2794.0</ele>
      </trkpt>
      <trkpt lat="46.90251" lon="10.2371">
        <time>2022-03-11T11:17:58+00:00</time>
        <ele>2794.0</ele>
      </trkpt>
      <trkpt lat="46.90253" lon="10.23707">
        <time>2022-03-11T11:18:04+00:00</time>
        <ele>2795.0</ele>
      </trkpt>
      <trkpt lat="46.90255" lon="10.23704">
        <time>2022-03-11T11:18:09+00:00</time>
        <ele>2795.0</ele>
      </trkpt>
      <trkpt lat="46.90257" lon="10.23703">
        <time>2022-03-11T11:18:12+00:00</time>
        <ele>2795.0</ele>
      </trkpt>
      <trkpt lat="46.90258" lon="10.23701">
        <time>2022-03-11T11:18:17+00:00</time>
        <ele>2796.0</ele>
      </trkpt>
      <trkpt lat="46.90259" lon="10.23701">
        <time>2022-03-11T11:18:19+00:00</time>
        <ele>2796.0</ele>
      </trkpt>
      <trkpt lat="46.90261" lon="10.23699">
        <time>2022-03-11T11:18:25+00:00</time>
        <ele>2796.0</ele>
      </trkpt>
      <trkpt lat="46.90261" lon="10.23698">
        <time>2022-03-11T11:18:26+00:00</time>
        <ele>2796.0</ele>
      </trkpt>
      <trkpt lat="46.90263" lon="10.23696">
        <time>2022-03-11T11:18:31+00:00</time>
        <ele>2797.0</ele>
      </trkpt>
      <trkpt lat="46.90264" lon="10.23694">
        <time>2022-03-11T11:18:34+00:00</time>
        <ele>2797.0</ele>
      </trkpt>
      <trkpt lat="46.90265" lon="10.23694">
        <time>2022-03-11T11:18:35+00:00</time>
        <ele>2797.0</ele>
      </trkpt>
      <trkpt lat="46.90267" lon="10.23692">
        <time>2022-03-11T11:18:41+00:00</time>
        <ele>2797.0</ele>
      </trkpt>
      <trkpt lat="46.90268" lon="10.23691">
        <time>2022-03-11T11:18:44+00:00</time>
        <ele>2798.0</ele>
      </trkpt>
      <trkpt lat="46.90268" lon="10.23691">
        <time>2022-03-11T11:18:45+00:00</time>
        <ele>2798.0</ele>
      </trkpt>
      <trkpt lat="46.90271" lon="10.23686">
        <time>2022-03-11T11:18:53+00:00</time>
        <ele>2800.0</ele>
      </trkpt>
      <trkpt lat="46.90271" lon="10.23685">
        <time>2022-03-11T11:18:56+00:00</time>
        <ele>2800.0</ele>
      </trkpt>
      <trkpt lat="46.90272" lon="10.23683">
        <time>2022-03-11T11:19:00+00:00</time>
        <ele>2800.0</ele>
      </trkpt>
      <trkpt lat="46.90274" lon="10.23681">
        <time>2022-03-11T11:19:05+00:00</time>
        <ele>2801.0</ele>
      </trkpt>
      <trkpt lat="46.90274" lon="10.23681">
        <time>2022-03-11T11:19:06+00:00</time>
        <ele>2801.0</ele>
      </trkpt>
      <trkpt lat="46.90276" lon="10.23677">
        <time>2022-03-11T11:19:13+00:00</time>
        <ele>2802.0</ele>
      </trkpt>
      <trkpt lat="46.90277" lon="10.23676">
        <time>2022-03-11T11:19:16+00:00</time>
        <ele>2803.0</ele>
      </trkpt>
      <trkpt lat="46.90278" lon="10.23674">
        <time>2022-03-11T11:19:20+00:00</time>
        <ele>2803.0</ele>
      </trkpt>
      <trkpt lat="46.9028" lon="10.2367">
        <time>2022-03-11T11:19:27+00:00</time>
        <ele>2804.0</ele>
      </trkpt>
      <trkpt lat="46.90281" lon="10.2367">
        <time>2022-03-11T11:19:28+00:00</time>
        <ele>2805.0</ele>
      </trkpt>
      <trkpt lat="46.90284" lon="10.23666">
        <time>2022-03-11T11:19:36+00:00</time>
        <ele>2807.0</ele>
      </trkpt>
      <trkpt lat="46.90285" lon="10.23665">
        <time>2022-03-11T11:19:39+00:00</time>
        <ele>2807.0</ele>
      </trkpt>
      <trkpt lat="46.90286" lon="10.23662">
        <time>2022-03-11T11:19:45+00:00</time>
        <ele>2808.0</ele>
      </trkpt>
      <trkpt lat="46.90286" lon="10.23662">
        <time>2022-03-11T11:19:46+00:00</time>
        <ele>2808.0</ele>
      </trkpt>
      <trkpt lat="46.90287" lon="10.23661">
        <time>2022-03-11T11:19:48+00:00</time>
        <ele>2808.0</ele>
      </trkpt>
      <trkpt lat="46.90287" lon="10.2366">
        <time>2022-03-11T11:19:49+00:00</time>
        <ele>2808.0</ele>
      </trkpt>
      <trkpt lat="46.90289" lon="10.23654">
        <time>2022-03-11T11:20:00+00:00</time>
        <ele>2810.0</ele>
      </trkpt>
      <trkpt lat="46.9029" lon="10.23653">
        <time>2022-03-11T11:20:02+00:00</time>
        <ele>2810.0</ele>
      </trkpt>
      <trkpt lat="46.90292" lon="10.23648">
        <time>2022-03-11T11:20:13+00:00</time>
        <ele>2812.0</ele>
      </trkpt>
      <trkpt lat="46.90292" lon="10.23647">
        <time>2022-03-11T11:20:14+00:00</time>
        <ele>2812.0</ele>
      </trkpt>
      <trkpt lat="46.90294" lon="10.23642">
        <time>2022-03-11T11:20:24+00:00</time>
        <ele>2813.0</ele>
      </trkpt>
      <trkpt lat="46.90295" lon="10.23636">
        <time>2022-03-11T11:20:36+00:00</time>
        <ele>2814.0</ele>
      </trkpt>
      <trkpt lat="46.90294" lon="10.23635">
        <time>2022-03-11T11:20:38+00:00</time>
        <ele>2813.0</ele>
      </trkpt>
      <trkpt lat="46.90298" lon="10.23631">
        <time>2022-03-11T11:20:47+00:00</time>
        <ele>2816.0</ele>
      </trkpt>
      <trkpt lat="46.90298" lon="10.23628">
        <time>2022-03-11T11:20:54+00:00</time>
        <ele>2816.0</ele>
      </trkpt>
      <trkpt lat="46.90299" lon="10.23627">
        <time>2022-03-11T11:20:58+00:00</time>
        <ele>2816.0</ele>
      </trkpt>
      <trkpt lat="46.90299" lon="10.23623">
        <time>2022-03-11T11:21:06+00:00</time>
        <ele>2816.0</ele>
      </trkpt>
      <trkpt lat="46.903" lon="10.23622">
        <time>2022-03-11T11:21:10+00:00</time>
        <ele>2817.0</ele>
      </trkpt>
      <trkpt lat="46.90302" lon="10.23619">
        <time>2022-03-11T11:21:16+00:00</time>
        <ele>2818.0</ele>
      </trkpt>
      <trkpt lat="46.90303" lon="10.23617">
        <time>2022-03-11T11:21:21+00:00</time>
        <ele>2819.0</ele>
      </trkpt>
      <trkpt lat="46.90304" lon="10.23615">
        <time>2022-03-11T11:21:25+00:00</time>
        <ele>2820.0</ele>
      </trkpt>
      <trkpt lat="46.90305" lon="10.23611">
        <time>2022-03-11T11:21:32+00:00</time>
        <ele>2821.0</ele>
      </trkpt>
      <trkpt lat="46.90306" lon="10.2361">
        <time>2022-03-11T11:21:35+00:00</time>
        <ele>2821.0</ele>
      </trkpt>
      <trkpt lat="46.90306" lon="10.23607">
        <time>2022-03-11T11:21:40+00:00</time>
        <ele>2821.0</ele>
      </trkpt>
      <trkpt lat="46.90308" lon="10.23603">
        <time>2022-03-11T11:21:50+00:00</time>
        <ele>2822.0</ele>
      </trkpt>
      <trkpt lat="46.90309" lon="10.23597">
        <time>2022-03-11T11:22:00+00:00</time>
        <ele>2823.0</ele>
      </trkpt>
      <trkpt lat="46.9031" lon="10.23595">
        <time>2022-03-11T11:22:03+00:00</time>
        <ele>2824.0</ele>
      </trkpt>
      <trkpt lat="46.90311" lon="10.23593">
        <time>2022-03-11T11:22:08+00:00</time>
        <ele>2824.0</ele>
      </trkpt>
      <trkpt lat="46.90312" lon="10.23589">
        <time>2022-03-11T11:22:15+00:00</time>
        <ele>2825.0</ele>
      </trkpt>
      <trkpt lat="46.90312" lon="10.23589">
        <time>2022-03-11T11:22:16+00:00</time>
        <ele>2825.0</ele>
      </trkpt>
      <trkpt lat="46.90313" lon="10.23588">
        <time>2022-03-11T11:22:21+00:00</time>
        <ele>2826.0</ele>
      </trkpt>
      <trkpt lat="46.90314" lon="10.23586">
        <time>2022-03-11T11:22:29+00:00</time>
        <ele>2826.0</ele>
      </trkpt>
      <trkpt lat="46.90315" lon="10.2359">
        <time>2022-03-11T11:22:40+00:00</time>
        <ele>2826.0</ele>
      </trkpt>
      <trkpt lat="46.90318" lon="10.23594">
        <time>2022-03-11T11:22:51+00:00</time>
        <ele>2828.0</ele>
      </trkpt>
      <trkpt lat="46.90319" lon="10.23595">
        <time>2022-03-11T11:22:54+00:00</time>
        <ele>2828.0</ele>
      </trkpt>
      <trkpt lat="46.9032" lon="10.23596">
        <time>2022-03-11T11:22:56+00:00</time>
        <ele>2828.0</ele>
      </trkpt>
      <trkpt lat="46.9032" lon="10.23597">
        <time>2022-03-11T11:22:58+00:00</time>
        <ele>2828.0</ele>
      </trkpt>
      <trkpt lat="46.90322" lon="10.236">
        <time>2022-03-11T11:23:04+00:00</time>
        <ele>2829.0</ele>
      </trkpt>
      <trkpt lat="46.90323" lon="10.23601">
        <time>2022-03-11T11:23:06+00:00</time>
        <ele>2830.0</ele>
      </trkpt>
      <trkpt lat="46.90326" lon="10.23604">
        <time>2022-03-11T11:23:13+00:00</time>
        <ele>2832.0</ele>
      </trkpt>
      <trkpt lat="46.90327" lon="10.23604">
        <time>2022-03-11T11:23:15+00:00</time>
        <ele>2833.0</ele>
      </trkpt>
      <trkpt lat="46.90329" lon="10.23608">
        <time>2022-03-11T11:23:22+00:00</time>
        <ele>2835.0</ele>
      </trkpt>
      <trkpt lat="46.9033" lon="10.23611">
        <time>2022-03-11T11:23:26+00:00</time>
        <ele>2836.0</ele>
      </trkpt>
      <trkpt lat="46.9033" lon="10.23611">
        <time>2022-03-11T11:23:28+00:00</time>
        <ele>2836.0</ele>
      </trkpt>
      <trkpt lat="46.9033" lon="10.23611">
        <time>2022-03-11T11:23:33+00:00</time>
        <ele>2836.0</ele>
      </trkpt>
      <trkpt lat="46.90331" lon="10.23614">
        <time>2022-03-11T11:23:38+00:00</time>
        <ele>2837.0</ele>
      </trkpt>
      <trkpt lat="46.90333" lon="10.23615">
        <time>2022-03-11T11:23:45+00:00</time>
        <ele>2838.0</ele>
      </trkpt>
      <trkpt lat="46.90333" lon="10.23616">
        <time>2022-03-11T11:23:49+00:00</time>
        <ele>2838.0</ele>
      </trkpt>
      <trkpt lat="46.90335" lon="10.2362">
        <time>2022-03-11T11:23:57+00:00</time>
        <ele>2840.0</ele>
      </trkpt>
      <trkpt lat="46.90338" lon="10.23624">
        <time>2022-03-11T11:24:07+00:00</time>
        <ele>2842.0</ele>
      </trkpt>
      <trkpt lat="46.90338" lon="10.23624">
        <time>2022-03-11T11:24:08+00:00</time>
        <ele>2842.0</ele>
      </trkpt>
      <trkpt lat="46.90338" lon="10.23624">
        <time>2022-03-11T11:24:09+00:00</time>
        <ele>2842.0</ele>
      </trkpt>
      <trkpt lat="46.90339" lon="10.23626">
        <time>2022-03-11T11:24:13+00:00</time>
        <ele>2843.0</ele>
      </trkpt>
      <trkpt lat="46.9034" lon="10.23629">
        <time>2022-03-11T11:24:17+00:00</time>
        <ele>2844.0</ele>
      </trkpt>
      <trkpt lat="46.90341" lon="10.23631">
        <time>2022-03-11T11:24:20+00:00</time>
        <ele>2845.0</ele>
      </trkpt>
      <trkpt lat="46.90342" lon="10.23632">
        <time>2022-03-11T11:24:24+00:00</time>
        <ele>2846.0</ele>
      </trkpt>
      <trkpt lat="46.90343" lon="10.23635">
        <time>2022-03-11T11:24:29+00:00</time>
        <ele>2847.0</ele>
      </trkpt>
      <trkpt lat="46.90345" lon="10.23635">
        <time>2022-03-11T11:24:32+00:00</time>
        <ele>2849.0</ele>
      </trkpt>
      <trkpt lat="46.90348" lon="10.23638">
        <time>2022-03-11T11:24:39+00:00</time>
        <ele>2852.0</ele>
      </trkpt>
      <trkpt lat="46.90348" lon="10.2364">
        <time>2022-03-11T11:24:45+00:00</time>
        <ele>2852.0</ele>
      </trkpt>
      <trkpt lat="46.90348" lon="10.23642">
        <time>2022-03-11T11:24:48+00:00</time>
        <ele>2852.0</ele>
      </trkpt>
      <trkpt lat="46.90349" lon="10.23642">
        <time>2022-03-11T11:24:51+00:00</time>
        <ele>2853.0</ele>
      </trkpt>
      <trkpt lat="46.9035" lon="10.23638">
        <time>2022-03-11T11:24:58+00:00</time>
        <ele>2854.0</ele>
      </trkpt>
      <trkpt lat="46.9035" lon="10.23637">
        <time>2022-03-11T11:24:59+00:00</time>
        <ele>2853.0</ele>
      </trkpt>
      <trkpt lat="46.90351" lon="10.23633">
        <time>2022-03-11T11:25:05+00:00</time>
        <ele>2854.0</ele>
      </trkpt>
      <trkpt lat="46.90351" lon="10.23633">
        <time>2022-03-11T11:25:08+00:00</time>
        <ele>2854.0</ele>
      </trkpt>
      <trkpt lat="46.90353" lon="10.2363">
        <time>2022-03-11T11:25:15+00:00</time>
        <ele>2856.0</ele>
      </trkpt>
      <trkpt lat="46.90353" lon="10.23629">
        <time>2022-03-11T11:25:17+00:00</time>
        <ele>2856.0</ele>
      </trkpt>
      <trkpt lat="46.90353" lon="10.23624">
        <time>2022-03-11T11:25:25+00:00</time>
        <ele>2856.0</ele>
      </trkpt>
      <trkpt lat="46.90353" lon="10.23623">
        <time>2022-03-11T11:25:26+00:00</time>
        <ele>2856.0</ele>
      </trkpt>
      <trkpt lat="46.90353" lon="10.23619">
        <time>2022-03-11T11:25:33+00:00</time>
        <ele>2856.0</ele>
      </trkpt>
      <trkpt lat="46.90353" lon="10.23617">
        <time>2022-03-11T11:25:36+00:00</time>
        <ele>2856.0</ele>
      </trkpt>
      <trkpt lat="46.90354" lon="10.23614">
        <time>2022-03-11T11:25:44+00:00</time>
        <ele>2856.0</ele>
      </trkpt>
      <trkpt lat="46.90354" lon="10.2361">
        <time>2022-03-11T11:25:52+00:00</time>
        <ele>2856.0</ele>
      </trkpt>
      <trkpt lat="46.90355" lon="10.23606">
        <time>2022-03-11T11:26:01+00:00</time>
        <ele>2857.0</ele>
      </trkpt>
      <trkpt lat="46.90356" lon="10.23606">
        <time>2022-03-11T11:26:02+00:00</time>
        <ele>2858.0</ele>
      </trkpt>
      <trkpt lat="46.90357" lon="10.23602">
        <time>2022-03-11T11:26:09+00:00</time>
        <ele>2859.0</ele>
      </trkpt>
      <trkpt lat="46.90358" lon="10.23599">
        <time>2022-03-11T11:26:15+00:00</time>
        <ele>2860.0</ele>
      </trkpt>
      <trkpt lat="46.90359" lon="10.23597">
        <time>2022-03-11T11:26:20+00:00</time>
        <ele>2860.0</ele>
      </trkpt>
      <trkpt lat="46.9036" lon="10.23593">
        <time>2022-03-11T11:26:26+00:00</time>
        <ele>2861.0</ele>
      </trkpt>
      <trkpt lat="46.90361" lon="10.2359">
        <time>2022-03-11T11:26:31+00:00</time>
        <ele>2862.0</ele>
      </trkpt>
      <trkpt lat="46.90362" lon="10.23589">
        <time>2022-03-11T11:26:33+00:00</time>
        <ele>2862.0</ele>
      </trkpt>
      <trkpt lat="46.90362" lon="10.23585">
        <time>2022-03-11T11:26:39+00:00</time>
        <ele>2862.0</ele>
      </trkpt>
      <trkpt lat="46.90363" lon="10.23582">
        <time>2022-03-11T11:26:45+00:00</time>
        <ele>2863.0</ele>
      </trkpt>
      <trkpt lat="46.90363" lon="10.23581">
        <time>2022-03-11T11:26:46+00:00</time>
        <ele>2863.0</ele>
      </trkpt>
      <trkpt lat="46.90364" lon="10.23579">
        <time>2022-03-11T11:26:51+00:00</time>
        <ele>2863.0</ele>
      </trkpt>
      <trkpt lat="46.90364" lon="10.23578">
        <time>2022-03-11T11:26:55+00:00</time>
        <ele>2863.0</ele>
      </trkpt>
      <trkpt lat="46.90364" lon="10.23575">
        <time>2022-03-11T11:27:02+00:00</time>
        <ele>2863.0</ele>
      </trkpt>
      <trkpt lat="46.90365" lon="10.23574">
        <time>2022-03-11T11:27:03+00:00</time>
        <ele>2864.0</ele>
      </trkpt>
      <trkpt lat="46.90365" lon="10.23572">
        <time>2022-03-11T11:27:07+00:00</time>
        <ele>2864.0</ele>
      </trkpt>
      <trkpt lat="46.90367" lon="10.23568">
        <time>2022-03-11T11:27:14+00:00</time>
        <ele>2865.0</ele>
      </trkpt>
      <trkpt lat="46.90367" lon="10.23567">
        <time>2022-03-11T11:27:15+00:00</time>
        <ele>2865.0</ele>
      </trkpt>
      <trkpt lat="46.90367" lon="10.23565">
        <time>2022-03-11T11:27:18+00:00</time>
        <ele>2865.0</ele>
      </trkpt>
      <trkpt lat="46.90367" lon="10.23564">
        <time>2022-03-11T11:27:21+00:00</time>
        <ele>2865.0</ele>
      </trkpt>
      <trkpt lat="46.90368" lon="10.23562">
        <time>2022-03-11T11:27:25+00:00</time>
        <ele>2866.0</ele>
      </trkpt>
      <trkpt lat="46.90368" lon="10.2356">
        <time>2022-03-11T11:27:30+00:00</time>
        <ele>2866.0</ele>
      </trkpt>
      <trkpt lat="46.90369" lon="10.23558">
        <time>2022-03-11T11:27:33+00:00</time>
        <ele>2867.0</ele>
      </trkpt>
      <trkpt lat="46.90369" lon="10.23558">
        <time>2022-03-11T11:27:38+00:00</time>
        <ele>2867.0</ele>
      </trkpt>
      <trkpt lat="46.90369" lon="10.23558">
        <time>2022-03-11T11:27:46+00:00</time>
        <ele>2867.0</ele>
      </trkpt>
      <trkpt lat="46.90369" lon="10.23558">
        <time>2022-03-11T11:28:00+00:00</time>
        <ele>2867.0</ele>
      </trkpt>
      <trkpt lat="46.90369" lon="10.23557">
        <time>2022-03-11T11:28:08+00:00</time>
        <ele>2867.0</ele>
      </trkpt>
      <trkpt lat="46.9037" lon="10.23557">
        <time>2022-03-11T11:28:20+00:00</time>
        <ele>2868.0</ele>
      </trkpt>
      <trkpt lat="46.9037" lon="10.23556">
        <time>2022-03-11T11:28:30+00:00</time>
        <ele>2868.0</ele>
      </trkpt>
      <trkpt lat="46.9037" lon="10.23556">
        <time>2022-03-11T11:28:34+00:00</time>
        <ele>2868.0</ele>
      </trkpt>
      <trkpt lat="46.9037" lon="10.23556">
        <time>2022-03-11T11:28:38+00:00</time>
        <ele>2868.0</ele>
      </trkpt>
      <trkpt lat="46.90371" lon="10.23558">
        <time>2022-03-11T11:28:43+00:00</time>
        <ele>2868.0</ele>
      </trkpt>
      <trkpt lat="46.90375" lon="10.23562">
        <time>2022-03-11T11:28:53+00:00</time>
        <ele>2870.0</ele>
      </trkpt>
      <trkpt lat="46.90379" lon="10.23564">
        <time>2022-03-11T11:29:01+00:00</time>
        <ele>2872.0</ele>
      </trkpt>
      <trkpt lat="46.9038" lon="10.23566">
        <time>2022-03-11T11:29:04+00:00</time>
        <ele>2873.0</ele>
      </trkpt>
      <trkpt lat="46.90382" lon="10.23568">
        <time>2022-03-11T11:29:09+00:00</time>
        <ele>2874.0</ele>
      </trkpt>
      <trkpt lat="46.90383" lon="10.23569">
        <time>2022-03-11T11:29:13+00:00</time>
        <ele>2875.0</ele>
      </trkpt>
      <trkpt lat="46.90386" lon="10.23572">
        <time>2022-03-11T11:29:20+00:00</time>
        <ele>2877.0</ele>
      </trkpt>
      <trkpt lat="46.90387" lon="10.23574">
        <time>2022-03-11T11:29:25+00:00</time>
        <ele>2878.0</ele>
      </trkpt>
      <trkpt lat="46.9039" lon="10.23581">
        <time>2022-03-11T11:29:37+00:00</time>
        <ele>2881.0</ele>
      </trkpt>
      <trkpt lat="46.90395" lon="10.23592">
        <time>2022-03-11T11:29:55+00:00</time>
        <ele>2885.0</ele>
      </trkpt>
      <trkpt lat="46.90398" lon="10.23597">
        <time>2022-03-11T11:30:03+00:00</time>
        <ele>2887.0</ele>
      </trkpt>
      <trkpt lat="46.904" lon="10.23605">
        <time>2022-03-11T11:30:07+00:00</time>
        <ele>2888.0</ele>
      </trkpt>
      <trkpt lat="46.90402" lon="10.23608">
        <time>2022-03-11T11:30:08+00:00</time>
        <ele>2889.0</ele>
      </trkpt>
      <trkpt lat="46.90402" lon="10.23608">
        <time>2022-03-11T11:30:09+00:00</time>
        <ele>2889.0</ele>
      </trkpt>
      <trkpt lat="46.90402" lon="10.2361">
        <time>2022-03-11T11:30:10+00:00</time>
        <ele>2889.0</ele>
      </trkpt>
      <trkpt lat="46.90402" lon="10.23613">
        <time>2022-03-11T11:30:14+00:00</time>
        <ele>2889.0</ele>
      </trkpt>
      <trkpt lat="46.90402" lon="10.23616">
        <time>2022-03-11T11:30:18+00:00</time>
        <ele>2889.0</ele>
      </trkpt>
      <trkpt lat="46.90403" lon="10.23616">
        <time>2022-03-11T11:30:21+00:00</time>
        <ele>2890.0</ele>
      </trkpt>
      <trkpt lat="46.90404" lon="10.23617">
        <time>2022-03-11T11:30:23+00:00</time>
        <ele>2890.0</ele>
      </trkpt>
      <trkpt lat="46.90404" lon="10.23619">
        <time>2022-03-11T11:30:29+00:00</time>
        <ele>2890.0</ele>
      </trkpt>
      <trkpt lat="46.90405" lon="10.2362">
        <time>2022-03-11T11:30:31+00:00</time>
        <ele>2891.0</ele>
      </trkpt>
      <trkpt lat="46.90407" lon="10.23623">
        <time>2022-03-11T11:30:38+00:00</time>
        <ele>2892.0</ele>
      </trkpt>
      <trkpt lat="46.90408" lon="10.23624">
        <time>2022-03-11T11:30:41+00:00</time>
        <ele>2893.0</ele>
      </trkpt>
      <trkpt lat="46.9041" lon="10.23627">
        <time>2022-03-11T11:30:47+00:00</time>
        <ele>2894.0</ele>
      </trkpt>
      <trkpt lat="46.9041" lon="10.2363">
        <time>2022-03-11T11:30:51+00:00</time>
        <ele>2894.0</ele>
      </trkpt>
      <trkpt lat="46.90411" lon="10.23631">
        <time>2022-03-11T11:30:53+00:00</time>
        <ele>2894.0</ele>
      </trkpt>
      <trkpt lat="46.90411" lon="10.23633">
        <time>2022-03-11T11:30:57+00:00</time>
        <ele>2894.0</ele>
      </trkpt>
      <trkpt lat="46.90412" lon="10.23635">
        <time>2022-03-11T11:31:00+00:00</time>
        <ele>2894.0</ele>
      </trkpt>
      <trkpt lat="46.90413" lon="10.23636">
        <time>2022-03-11T11:31:02+00:00</time>
        <ele>2895.0</ele>
      </trkpt>
      <trkpt lat="46.90416" lon="10.23641">
        <time>2022-03-11T11:31:11+00:00</time>
        <ele>2896.0</ele>
      </trkpt>
      <trkpt lat="46.90418" lon="10.23645">
        <time>2022-03-11T11:31:17+00:00</time>
        <ele>2896.0</ele>
      </trkpt>
      <trkpt lat="46.90419" lon="10.23646">
        <time>2022-03-11T11:31:20+00:00</time>
        <ele>2896.0</ele>
      </trkpt>
      <trkpt lat="46.90421" lon="10.23649">
        <time>2022-03-11T11:31:27+00:00</time>
        <ele>2896.0</ele>
      </trkpt>
      <trkpt lat="46.90422" lon="10.23651">
        <time>2022-03-11T11:31:31+00:00</time>
        <ele>2896.0</ele>
      </trkpt>
      <trkpt lat="46.90424" lon="10.23653">
        <time>2022-03-11T11:31:35+00:00</time>
        <ele>2896.0</ele>
      </trkpt>
      <trkpt lat="46.90426" lon="10.23654">
        <time>2022-03-11T11:31:39+00:00</time>
        <ele>2897.0</ele>
      </trkpt>
      <trkpt lat="46.90427" lon="10.23654">
        <time>2022-03-11T11:31:43+00:00</time>
        <ele>2897.0</ele>
      </trkpt>
      <trkpt lat="46.90429" lon="10.23653">
        <time>2022-03-11T11:31:47+00:00</time>
        <ele>2897.0</ele>
      </trkpt>
      <trkpt lat="46.9043" lon="10.23652">
        <time>2022-03-11T11:31:50+00:00</time>
        <ele>2898.0</ele>
      </trkpt>
      <trkpt lat="46.90433" lon="10.23647">
        <time>2022-03-11T11:32:00+00:00</time>
        <ele>2899.0</ele>
      </trkpt>
      <trkpt lat="46.90433" lon="10.23647">
        <time>2022-03-11T11:32:02+00:00</time>
        <ele>2899.0</ele>
      </trkpt>
      <trkpt lat="46.90434" lon="10.23645">
        <time>2022-03-11T11:32:07+00:00</time>
        <ele>2899.0</ele>
      </trkpt>
      <trkpt lat="46.90434" lon="10.23644">
        <time>2022-03-11T11:32:08+00:00</time>
        <ele>2899.0</ele>
      </trkpt>
      <trkpt lat="46.90435" lon="10.23641">
        <time>2022-03-11T11:32:14+00:00</time>
        <ele>2900.0</ele>
      </trkpt>
      <trkpt lat="46.90435" lon="10.23638">
        <time>2022-03-11T11:32:19+00:00</time>
        <ele>2900.0</ele>
      </trkpt>
      <trkpt lat="46.90435" lon="10.23636">
        <time>2022-03-11T11:32:22+00:00</time>
        <ele>2900.0</ele>
      </trkpt>
      <trkpt lat="46.90434" lon="10.23633">
        <time>2022-03-11T11:32:28+00:00</time>
        <ele>2900.0</ele>
      </trkpt>
      <trkpt lat="46.90434" lon="10.23628">
        <time>2022-03-11T11:32:35+00:00</time>
        <ele>2900.0</ele>
      </trkpt>
      <trkpt lat="46.90433" lon="10.23623">
        <time>2022-03-11T11:32:44+00:00</time>
        <ele>2901.0</ele>
      </trkpt>
      <trkpt lat="46.90434" lon="10.23621">
        <time>2022-03-11T11:32:47+00:00</time>
        <ele>2901.0</ele>
      </trkpt>
      <trkpt lat="46.90433" lon="10.23619">
        <time>2022-03-11T11:32:52+00:00</time>
        <ele>2901.0</ele>
      </trkpt>
      <trkpt lat="46.90438" lon="10.23618">
        <time>2022-03-11T11:33:02+00:00</time>
        <ele>2903.0</ele>
      </trkpt>
      <trkpt lat="46.90442" lon="10.23616">
        <time>2022-03-11T11:33:11+00:00</time>
        <ele>2904.0</ele>
      </trkpt>
      <trkpt lat="46.90443" lon="10.23615">
        <time>2022-03-11T11:33:12+00:00</time>
        <ele>2904.0</ele>
      </trkpt>
      <trkpt lat="46.90446" lon="10.23611">
        <time>2022-03-11T11:33:22+00:00</time>
        <ele>2906.0</ele>
      </trkpt>
      <trkpt lat="46.90447" lon="10.23609">
        <time>2022-03-11T11:33:25+00:00</time>
        <ele>2907.0</ele>
      </trkpt>
      <trkpt lat="46.90449" lon="10.23606">
        <time>2022-03-11T11:33:31+00:00</time>
        <ele>2908.0</ele>
      </trkpt>
      <trkpt lat="46.90451" lon="10.23603">
        <time>2022-03-11T11:33:37+00:00</time>
        <ele>2909.0</ele>
      </trkpt>
      <trkpt lat="46.90452" lon="10.23602">
        <time>2022-03-11T11:33:40+00:00</time>
        <ele>2910.0</ele>
      </trkpt>
      <trkpt lat="46.90453" lon="10.23601">
        <time>2022-03-11T11:33:44+00:00</time>
        <ele>2910.0</ele>
      </trkpt>
      <trkpt lat="46.90456" lon="10.236">
        <time>2022-03-11T11:33:50+00:00</time>
        <ele>2911.0</ele>
      </trkpt>
      <trkpt lat="46.90458" lon="10.23598">
        <time>2022-03-11T11:33:54+00:00</time>
        <ele>2912.0</ele>
      </trkpt>
      <trkpt lat="46.90462" lon="10.23596">
        <time>2022-03-11T11:34:02+00:00</time>
        <ele>2913.0</ele>
      </trkpt>
      <trkpt lat="46.90463" lon="10.23596">
        <time>2022-03-11T11:34:04+00:00</time>
        <ele>2914.0</ele>
      </trkpt>
      <trkpt lat="46.90464" lon="10.23595">
        <time>2022-03-11T11:34:08+00:00</time>
        <ele>2914.0</ele>
      </trkpt>
      <trkpt lat="46.90466" lon="10.23594">
        <time>2022-03-11T11:34:13+00:00</time>
        <ele>2915.0</ele>
      </trkpt>
      <trkpt lat="46.90468" lon="10.23593">
        <time>2022-03-11T11:34:17+00:00</time>
        <ele>2916.0</ele>
      </trkpt>
      <trkpt lat="46.9047" lon="10.23592">
        <time>2022-03-11T11:34:22+00:00</time>
        <ele>2916.0</ele>
      </trkpt>
      <trkpt lat="46.90471" lon="10.23592">
        <time>2022-03-11T11:34:24+00:00</time>
        <ele>2917.0</ele>
      </trkpt>
      <trkpt lat="46.90472" lon="10.23589">
        <time>2022-03-11T11:34:30+00:00</time>
        <ele>2918.0</ele>
      </trkpt>
      <trkpt lat="46.90474" lon="10.23587">
        <time>2022-03-11T11:34:34+00:00</time>
        <ele>2919.0</ele>
      </trkpt>
      <trkpt lat="46.9048" lon="10.23586">
        <time>2022-03-11T11:34:45+00:00</time>
        <ele>2920.0</ele>
      </trkpt>
      <trkpt lat="46.90481" lon="10.23585">
        <time>2022-03-11T11:34:47+00:00</time>
        <ele>2921.0</ele>
      </trkpt>
      <trkpt lat="46.90482" lon="10.23585">
        <time>2022-03-11T11:34:52+00:00</time>
        <ele>2921.0</ele>
      </trkpt>
      <trkpt lat="46.90484" lon="10.23585">
        <time>2022-03-11T11:34:59+00:00</time>
        <ele>2921.0</ele>
      </trkpt>
      <trkpt lat="46.90484" lon="10.23585">
        <time>2022-03-11T11:35:08+00:00</time>
        <ele>2921.0</ele>
      </trkpt>
      <trkpt lat="46.90484" lon="10.23585">
        <time>2022-03-11T11:35:12+00:00</time>
        <ele>2921.0</ele>
      </trkpt>
      <trkpt lat="46.90484" lon="10.23585">
        <time>2022-03-11T11:35:17+00:00</time>
        <ele>2921.0</ele>
      </trkpt>
      <trkpt lat="46.90484" lon="10.23585">
        <time>2022-03-11T11:35:20+00:00</time>
        <ele>2921.0</ele>
      </trkpt>
      <trkpt lat="46.90486" lon="10.23584">
        <time>2022-03-11T11:35:26+00:00</time>
        <ele>2922.0</ele>
      </trkpt>
      <trkpt lat="46.90487" lon="10.23579">
        <time>2022-03-11T11:35:34+00:00</time>
        <ele>2924.0</ele>
      </trkpt>
      <trkpt lat="46.90487" lon="10.23574">
        <time>2022-03-11T11:35:40+00:00</time>
        <ele>2925.0</ele>
      </trkpt>
      <trkpt lat="46.90487" lon="10.23569">
        <time>2022-03-11T11:35:48+00:00</time>
        <ele>2927.0</ele>
      </trkpt>
      <trkpt lat="46.90489" lon="10.23562">
        <time>2022-03-11T11:35:57+00:00</time>
        <ele>2929.0</ele>
      </trkpt>
      <trkpt lat="46.9049" lon="10.23558">
        <time>2022-03-11T11:36:03+00:00</time>
        <ele>2930.0</ele>
      </trkpt>
      <trkpt lat="46.9049" lon="10.23556">
        <time>2022-03-11T11:36:06+00:00</time>
        <ele>2931.0</ele>
      </trkpt>
      <trkpt lat="46.90491" lon="10.23551">
        <time>2022-03-11T11:36:14+00:00</time>
        <ele>2932.0</ele>
      </trkpt>
      <trkpt lat="46.90491" lon="10.23551">
        <time>2022-03-11T11:36:16+00:00</time>
        <ele>2932.0</ele>
      </trkpt>
      <trkpt lat="46.90491" lon="10.23549">
        <time>2022-03-11T11:36:19+00:00</time>
        <ele>2933.0</ele>
      </trkpt>
      <trkpt lat="46.90491" lon="10.23541">
        <time>2022-03-11T11:36:34+00:00</time>
        <ele>2935.0</ele>
      </trkpt>
      <trkpt lat="46.90492" lon="10.23532">
        <time>2022-03-11T11:36:49+00:00</time>
        <ele>2939.0</ele>
      </trkpt>
      <trkpt lat="46.90494" lon="10.23526">
        <time>2022-03-11T11:36:59+00:00</time>
        <ele>2941.0</ele>
      </trkpt>
      <trkpt lat="46.90496" lon="10.23522">
        <time>2022-03-11T11:37:06+00:00</time>
        <ele>2943.0</ele>
      </trkpt>
      <trkpt lat="46.90506" lon="10.2351">
        <time>2022-03-11T11:37:31+00:00</time>
        <ele>2948.0</ele>
      </trkpt>
      <trkpt lat="46.90508" lon="10.23508">
        <time>2022-03-11T11:37:36+00:00</time>
        <ele>2948.0</ele>
      </trkpt>
      <trkpt lat="46.90513" lon="10.23502">
        <time>2022-03-11T11:37:55+00:00</time>
        <ele>2950.0</ele>
      </trkpt>
      <trkpt lat="46.90515" lon="10.235">
        <time>2022-03-11T11:37:59+00:00</time>
        <ele>2951.0</ele>
      </trkpt>
      <trkpt lat="46.90519" lon="10.23497">
        <time>2022-03-11T11:38:14+00:00</time>
        <ele>2952.0</ele>
      </trkpt>
      <trkpt lat="46.90519" lon="10.23497">
        <time>2022-03-11T11:38:23+00:00</time>
        <ele>2952.0</ele>
      </trkpt>
      <trkpt lat="46.90519" lon="10.23497">
        <time>2022-03-11T11:38:29+00:00</time>
        <ele>2952.0</ele>
      </trkpt>
      <trkpt lat="46.90519" lon="10.23497">
        <time>2022-03-11T11:38:35+00:00</time>
        <ele>2952.0</ele>
      </trkpt>
      <trkpt lat="46.9052" lon="10.23497">
        <time>2022-03-11T11:38:52+00:00</time>
        <ele>2952.0</ele>
      </trkpt>
      <trkpt lat="46.9052" lon="10.23497">
        <time>2022-03-11T11:38:57+00:00</time>
        <ele>2952.0</ele>
      </trkpt>
      <trkpt lat="46.9052" lon="10.23497">
        <time>2022-03-11T11:39:02+00:00</time>
        <ele>2952.0</ele>
      </trkpt>
      <trkpt lat="46.90521" lon="10.23497">
        <time>2022-03-11T11:39:11+00:00</time>
        <ele>2952.0</ele>
      </trkpt>
      <trkpt lat="46.90521" lon="10.23496">
        <time>2022-03-11T11:39:18+00:00</time>
        <ele>2952.0</ele>
      </trkpt>
      <trkpt lat="46.90521" lon="10.23496">
        <time>2022-03-11T11:39:24+00:00</time>
        <ele>2952.0</ele>
      </trkpt>
      <trkpt lat="46.90521" lon="10.23496">
        <time>2022-03-11T11:39:43+00:00</time>
        <ele>2952.0</ele>
      </trkpt>
      <trkpt lat="46.90522" lon="10.23495">
        <time>2022-03-11T11:39:54+00:00</time>
        <ele>2953.0</ele>
      </trkpt>
      <trkpt lat="46.90522" lon="10.23495">
        <time>2022-03-11T11:39:59+00:00</time>
        <ele>2953.0</ele>
      </trkpt>
      <trkpt lat="46.90522" lon="10.23495">
        <time>2022-03-11T11:40:09+00:00</time>
        <ele>2953.0</ele>
      </trkpt>
      <trkpt lat="46.90522" lon="10.23494">
        <time>2022-03-11T11:40:14+00:00</time>
        <ele>2953.0</ele>
      </trkpt>
      <trkpt lat="46.90521" lon="10.23494">
        <time>2022-03-11T11:40:28+00:00</time>
        <ele>2953.0</ele>
      </trkpt>
      <trkpt lat="46.90521" lon="10.23493">
        <time>2022-03-11T11:40:37+00:00</time>
        <ele>2953.0</ele>
      </trkpt>
      <trkpt lat="46.90521" lon="10.23493">
        <time>2022-03-11T11:40:40+00:00</time>
        <ele>2953.0</ele>
      </trkpt>
      <trkpt lat="46.90521" lon="10.23493">
        <time>2022-03-11T11:40:43+00:00</time>
        <ele>2953.0</ele>
      </trkpt>
      <trkpt lat="46.90521" lon="10.23493">
        <time>2022-03-11T11:40:48+00:00</time>
        <ele>2953.0</ele>
      </trkpt>
      <trkpt lat="46.90521" lon="10.23493">
        <time>2022-03-11T11:40:50+00:00</time>
        <ele>2953.0</ele>
      </trkpt>
      <trkpt lat="46.90521" lon="10.23493">
        <time>2022-03-11T11:40:57+00:00</time>
        <ele>2953.0</ele>
      </trkpt>
      <trkpt lat="46.9052" lon="10.23492">
        <time>2022-03-11T11:41:01+00:00</time>
        <ele>2954.0</ele>
      </trkpt>
      <trkpt lat="46.9052" lon="10.23492">
        <time>2022-03-11T11:41:03+00:00</time>
        <ele>2954.0</ele>
      </trkpt>
      <trkpt lat="46.9052" lon="10.23492">
        <time>2022-03-11T11:41:10+00:00</time>
        <ele>2954.0</ele>
      </trkpt>
      <trkpt lat="46.9052" lon="10.23492">
        <time>2022-03-11T11:41:14+00:00</time>
        <ele>2954.0</ele>
      </trkpt>
      <trkpt lat="46.90519" lon="10.23491">
        <time>2022-03-11T11:41:26+00:00</time>
        <ele>2954.0</ele>
      </trkpt>
      <trkpt lat="46.90519" lon="10.23491">
        <time>2022-03-11T11:41:29+00:00</time>
        <ele>2954.0</ele>
      </trkpt>
      <trkpt lat="46.90519" lon="10.2349">
        <time>2022-03-11T11:41:48+00:00</time>
        <ele>2954.0</ele>
      </trkpt>
      <trkpt lat="46.90519" lon="10.23489">
        <time>2022-03-11T11:41:56+00:00</time>
        <ele>2955.0</ele>
      </trkpt>
      <trkpt lat="46.90518" lon="10.23489">
        <time>2022-03-11T11:42:00+00:00</time>
        <ele>2955.0</ele>
      </trkpt>
      <trkpt lat="46.90518" lon="10.23488">
        <time>2022-03-11T11:42:06+00:00</time>
        <ele>2955.0</ele>
      </trkpt>
      <trkpt lat="46.90518" lon="10.23487">
        <time>2022-03-11T11:42:19+00:00</time>
        <ele>2955.0</ele>
      </trkpt>
      <trkpt lat="46.90518" lon="10.23487">
        <time>2022-03-11T11:42:22+00:00</time>
        <ele>2955.0</ele>
      </trkpt>
      <trkpt lat="46.90517" lon="10.23483">
        <time>2022-03-11T11:43:17+00:00</time>
        <ele>2956.0</ele>
      </trkpt>
      <trkpt lat="46.90516" lon="10.23482">
        <time>2022-03-11T11:43:36+00:00</time>
        <ele>2957.0</ele>
      </trkpt>
      <trkpt lat="46.90516" lon="10.23481">
        <time>2022-03-11T11:43:42+00:00</time>
        <ele>2957.0</ele>
      </trkpt>
      <trkpt lat="46.90515" lon="10.23479">
        <time>2022-03-11T11:44:15+00:00</time>
        <ele>2957.0</ele>
      </trkpt>
      <trkpt lat="46.90515" lon="10.23478">
        <time>2022-03-11T11:44:30+00:00</time>
        <ele>2958.0</ele>
      </trkpt>
      <trkpt lat="46.90515" lon="10.23478">
        <time>2022-03-11T11:44:34+00:00</time>
        <ele>2958.0</ele>
      </trkpt>
      <trkpt lat="46.90514" lon="10.23476">
        <time>2022-03-11T11:45:03+00:00</time>
        <ele>2958.0</ele>
      </trkpt>
      <trkpt lat="46.90514" lon="10.23475">
        <time>2022-03-11T11:45:08+00:00</time>
        <ele>2959.0</ele>
      </trkpt>
      <trkpt lat="46.90514" lon="10.23475">
        <time>2022-03-11T11:45:17+00:00</time>
        <ele>2959.0</ele>
      </trkpt>
      <trkpt lat="46.90514" lon="10.23474">
        <time>2022-03-11T11:45:30+00:00</time>
        <ele>2959.0</ele>
      </trkpt>
      <trkpt lat="46.90514" lon="10.23473">
        <time>2022-03-11T11:45:39+00:00</time>
        <ele>2959.0</ele>
      </trkpt>
      <trkpt lat="46.90514" lon="10.23473">
        <time>2022-03-11T11:45:46+00:00</time>
        <ele>2959.0</ele>
      </trkpt>
      <trkpt lat="46.90514" lon="10.23472">
        <time>2022-03-11T11:45:52+00:00</time>
        <ele>2959.0</ele>
      </trkpt>
      <trkpt lat="46.90514" lon="10.23472">
        <time>2022-03-11T11:45:56+00:00</time>
        <ele>2959.0</ele>
      </trkpt>
      <trkpt lat="46.90514" lon="10.23472">
        <time>2022-03-11T11:45:58+00:00</time>
        <ele>2959.0</ele>
      </trkpt>
      <trkpt lat="46.90514" lon="10.23471">
        <time>2022-03-11T11:46:11+00:00</time>
        <ele>2960.0</ele>
      </trkpt>
      <trkpt lat="46.90515" lon="10.23469">
        <time>2022-03-11T11:46:26+00:00</time>
        <ele>2960.0</ele>
      </trkpt>
      <trkpt lat="46.90516" lon="10.23467">
        <time>2022-03-11T11:46:47+00:00</time>
        <ele>2961.0</ele>
      </trkpt>
      <trkpt lat="46.90519" lon="10.23458">
        <time>2022-03-11T11:48:35+00:00</time>
        <ele>2963.0</ele>
      </trkpt>
      <trkpt lat="46.90519" lon="10.23457">
        <time>2022-03-11T11:48:46+00:00</time>
        <ele>2964.0</ele>
      </trkpt>
      <trkpt lat="46.9052" lon="10.23456">
        <time>2022-03-11T11:48:59+00:00</time>
        <ele>2964.0</ele>
      </trkpt>
      <trkpt lat="46.9052" lon="10.23455">
        <time>2022-03-11T11:49:08+00:00</time>
        <ele>2964.0</ele>
      </trkpt>
      <trkpt lat="46.90521" lon="10.23453">
        <time>2022-03-11T11:49:34+00:00</time>
        <ele>2965.0</ele>
      </trkpt>
      <trkpt lat="46.90522" lon="10.23449">
        <time>2022-03-11T11:50:40+00:00</time>
        <ele>2966.0</ele>
      </trkpt>
      <trkpt lat="46.90524" lon="10.23444">
        <time>2022-03-11T11:51:52+00:00</time>
        <ele>2968.0</ele>
      </trkpt>
      <trkpt lat="46.90525" lon="10.23442">
        <time>2022-03-11T11:52:27+00:00</time>
        <ele>2968.0</ele>
      </trkpt>
      <trkpt lat="46.90526" lon="10.23431">
        <time>2022-03-11T11:52:45+00:00</time>
        <ele>2972.0</ele>
      </trkpt>
      <trkpt lat="46.90526" lon="10.23428">
        <time>2022-03-11T11:52:46+00:00</time>
        <ele>2972.0</ele>
      </trkpt>
      <trkpt lat="46.90527" lon="10.23419">
        <time>2022-03-11T11:52:50+00:00</time>
        <ele>2975.0</ele>
      </trkpt>
      <trkpt lat="46.90525" lon="10.2342">
        <time>2022-03-11T11:52:54+00:00</time>
        <ele>2974.0</ele>
      </trkpt>
      <trkpt lat="46.90524" lon="10.2342">
        <time>2022-03-11T11:52:55+00:00</time>
        <ele>2974.0</ele>
      </trkpt>
      <trkpt lat="46.90523" lon="10.23421">
        <time>2022-03-11T11:52:58+00:00</time>
        <ele>2973.0</ele>
      </trkpt>
      <trkpt lat="46.90518" lon="10.23425">
        <time>2022-03-11T11:53:05+00:00</time>
        <ele>2972.0</ele>
      </trkpt>
      <trkpt lat="46.90517" lon="10.23425">
        <time>2022-03-11T11:53:06+00:00</time>
        <ele>2972.0</ele>
      </trkpt>
      <trkpt lat="46.90514" lon="10.23426">
        <time>2022-03-11T11:53:12+00:00</time>
        <ele>2971.0</ele>
      </trkpt>
      <trkpt lat="46.90513" lon="10.23427">
        <time>2022-03-11T11:53:16+00:00</time>
        <ele>2971.0</ele>
      </trkpt>
      <trkpt lat="46.90512" lon="10.23428">
        <time>2022-03-11T11:53:18+00:00</time>
        <ele>2971.0</ele>
      </trkpt>
      <trkpt lat="46.90512" lon="10.2343">
        <time>2022-03-11T11:53:22+00:00</time>
        <ele>2970.0</ele>
      </trkpt>
      <trkpt lat="46.90511" lon="10.23432">
        <time>2022-03-11T11:53:25+00:00</time>
        <ele>2970.0</ele>
      </trkpt>
      <trkpt lat="46.9051" lon="10.23433">
        <time>2022-03-11T11:53:28+00:00</time>
        <ele>2970.0</ele>
      </trkpt>
      <trkpt lat="46.90509" lon="10.23434">
        <time>2022-03-11T11:53:30+00:00</time>
        <ele>2970.0</ele>
      </trkpt>
      <trkpt lat="46.90509" lon="10.23435">
        <time>2022-03-11T11:53:31+00:00</time>
        <ele>2970.0</ele>
      </trkpt>
      <trkpt lat="46.90508" lon="10.23435">
        <time>2022-03-11T11:53:34+00:00</time>
        <ele>2970.0</ele>
      </trkpt>
      <trkpt lat="46.90508" lon="10.23435">
        <time>2022-03-11T11:53:35+00:00</time>
        <ele>2970.0</ele>
      </trkpt>
      <trkpt lat="46.90504" lon="10.23436">
        <time>2022-03-11T11:53:39+00:00</time>
        <ele>2968.0</ele>
      </trkpt>
      <trkpt lat="46.90502" lon="10.23436">
        <time>2022-03-11T11:53:42+00:00</time>
        <ele>2968.0</ele>
      </trkpt>
      <trkpt lat="46.905" lon="10.23438">
        <time>2022-03-11T11:53:50+00:00</time>
        <ele>2967.0</ele>
      </trkpt>
      <trkpt lat="46.90501" lon="10.23438">
        <time>2022-03-11T11:53:56+00:00</time>
        <ele>2967.0</ele>
      </trkpt>
      <trkpt lat="46.90501" lon="10.23438">
        <time>2022-03-11T11:54:01+00:00</time>
        <ele>2967.0</ele>
      </trkpt>
      <trkpt lat="46.90501" lon="10.23438">
        <time>2022-03-11T11:54:02+00:00</time>
        <ele>2967.0</ele>
      </trkpt>
      <trkpt lat="46.90501" lon="10.23438">
        <time>2022-03-11T11:54:27+00:00</time>
        <ele>2967.0</ele>
      </trkpt>
      <trkpt lat="46.90501" lon="10.23438">
        <time>2022-03-11T11:54:42+00:00</time>
        <ele>2967.0</ele>
      </trkpt>
      <trkpt lat="46.90501" lon="10.23437">
        <time>2022-03-11T11:55:15+00:00</time>
        <ele>2967.0</ele>
      </trkpt>
      <trkpt lat="46.90501" lon="10.23437">
        <time>2022-03-11T11:55:48+00:00</time>
        <ele>2967.0</ele>
      </trkpt>
      <trkpt lat="46.90501" lon="10.23436">
        <time>2022-03-11T11:56:01+00:00</time>
        <ele>2967.0</ele>
      </trkpt>
      <trkpt lat="46.90501" lon="10.23436">
        <time>2022-03-11T11:56:16+00:00</time>
        <ele>2967.0</ele>
      </trkpt>
      <trkpt lat="46.90501" lon="10.23437">
        <time>2022-03-11T11:56:28+00:00</time>
        <ele>2967.0</ele>
      </trkpt>
      <trkpt lat="46.90501" lon="10.23437">
        <time>2022-03-11T11:56:49+00:00</time>
        <ele>2967.0</ele>
      </trkpt>
      <trkpt lat="46.90502" lon="10.23438">
        <time>2022-03-11T11:58:15+00:00</time>
        <ele>2967.0</ele>
      </trkpt>
      <trkpt lat="46.90502" lon="10.23438">
        <time>2022-03-11T11:59:22+00:00</time>
        <ele>2967.0</ele>
      </trkpt>
      <trkpt lat="46.90501" lon="10.23437">
        <time>2022-03-11T12:00:11+00:00</time>
        <ele>2967.0</ele>
      </trkpt>
      <trkpt lat="46.90501" lon="10.23437">
        <time>2022-03-11T12:00:15+00:00</time>
        <ele>2967.0</ele>
      </trkpt>
      <trkpt lat="46.90501" lon="10.23437">
        <time>2022-03-11T12:00:22+00:00</time>
        <ele>2967.0</ele>
      </trkpt>
      <trkpt lat="46.90501" lon="10.23437">
        <time>2022-03-11T12:00:36+00:00</time>
        <ele>2967.0</ele>
      </trkpt>
      <trkpt lat="46.90501" lon="10.23437">
        <time>2022-03-11T12:00:55+00:00</time>
        <ele>2967.0</ele>
      </trkpt>
      <trkpt lat="46.90501" lon="10.23437">
        <time>2022-03-11T12:01:03+00:00</time>
        <ele>2967.0</ele>
      </trkpt>
      <trkpt lat="46.90501" lon="10.23437">
        <time>2022-03-11T12:01:09+00:00</time>
        <ele>2967.0</ele>
      </trkpt>
      <trkpt lat="46.90501" lon="10.23437">
        <time>2022-03-11T12:01:21+00:00</time>
        <ele>2967.0</ele>
      </trkpt>
      <trkpt lat="46.90498" lon="10.23445">
        <time>2022-03-11T12:01:50+00:00</time>
        <ele>2964.0</ele>
      </trkpt>
      <trkpt lat="46.90493" lon="10.23449">
        <time>2022-03-11T12:01:53+00:00</time>
        <ele>2962.0</ele>
      </trkpt>
      <trkpt lat="46.90492" lon="10.2345">
        <time>2022-03-11T12:01:54+00:00</time>
        <ele>2962.0</ele>
      </trkpt>
      <trkpt lat="46.90491" lon="10.23451">
        <time>2022-03-11T12:01:55+00:00</time>
        <ele>2961.0</ele>
      </trkpt>
      <trkpt lat="46.90491" lon="10.23452">
        <time>2022-03-11T12:01:56+00:00</time>
        <ele>2961.0</ele>
      </trkpt>
      <trkpt lat="46.9049" lon="10.23453">
        <time>2022-03-11T12:01:59+00:00</time>
        <ele>2960.0</ele>
      </trkpt>
      <trkpt lat="46.90489" lon="10.23458">
        <time>2022-03-11T12:02:01+00:00</time>
        <ele>2959.0</ele>
      </trkpt>
      <trkpt lat="46.90488" lon="10.23461">
        <time>2022-03-11T12:02:03+00:00</time>
        <ele>2959.0</ele>
      </trkpt>
      <trkpt lat="46.90489" lon="10.23463">
        <time>2022-03-11T12:02:08+00:00</time>
        <ele>2959.0</ele>
      </trkpt>
      <trkpt lat="46.90489" lon="10.23463">
        <time>2022-03-11T12:02:15+00:00</time>
        <ele>2959.0</ele>
      </trkpt>
      <trkpt lat="46.90488" lon="10.23462">
        <time>2022-03-11T12:02:17+00:00</time>
        <ele>2959.0</ele>
      </trkpt>
      <trkpt lat="46.90487" lon="10.23462">
        <time>2022-03-11T12:02:18+00:00</time>
        <ele>2958.0</ele>
      </trkpt>
      <trkpt lat="46.90487" lon="10.23462">
        <time>2022-03-11T12:02:27+00:00</time>
        <ele>2958.0</ele>
      </trkpt>
      <trkpt lat="46.90487" lon="10.23461">
        <time>2022-03-11T12:02:48+00:00</time>
        <ele>2958.0</ele>
      </trkpt>
      <trkpt lat="46.90487" lon="10.23461">
        <time>2022-03-11T12:02:58+00:00</time>
        <ele>2958.0</ele>
      </trkpt>
      <trkpt lat="46.90487" lon="10.23461">
        <time>2022-03-11T12:03:12+00:00</time>
        <ele>2958.0</ele>
      </trkpt>
      <trkpt lat="46.90487" lon="10.2346">
        <time>2022-03-11T12:03:32+00:00</time>
        <ele>2958.0</ele>
      </trkpt>
      <trkpt lat="46.90485" lon="10.23462">
        <time>2022-03-11T12:03:51+00:00</time>
        <ele>2957.0</ele>
      </trkpt>
      <trkpt lat="46.90485" lon="10.23461">
        <time>2022-03-11T12:03:52+00:00</time>
        <ele>2957.0</ele>
      </trkpt>
      <trkpt lat="46.90481" lon="10.23458">
        <time>2022-03-11T12:03:56+00:00</time>
        <ele>2956.0</ele>
      </trkpt>
      <trkpt lat="46.90479" lon="10.23458">
        <time>2022-03-11T12:03:57+00:00</time>
        <ele>2955.0</ele>
      </trkpt>
      <trkpt lat="46.90477" lon="10.23459">
        <time>2022-03-11T12:03:58+00:00</time>
        <ele>2954.0</ele>
      </trkpt>
      <trkpt lat="46.90475" lon="10.2346">
        <time>2022-03-11T12:03:59+00:00</time>
        <ele>2953.0</ele>
      </trkpt>
      <trkpt lat="46.90471" lon="10.23461">
        <time>2022-03-11T12:04:00+00:00</time>
        <ele>2951.0</ele>
      </trkpt>
      <trkpt lat="46.90467" lon="10.23463">
        <time>2022-03-11T12:04:01+00:00</time>
        <ele>2948.0</ele>
      </trkpt>
      <trkpt lat="46.90464" lon="10.23468">
        <time>2022-03-11T12:04:02+00:00</time>
        <ele>2945.0</ele>
      </trkpt>
      <trkpt lat="46.90463" lon="10.23471">
        <time>2022-03-11T12:04:03+00:00</time>
        <ele>2944.0</ele>
      </trkpt>
      <trkpt lat="46.90462" lon="10.23474">
        <time>2022-03-11T12:04:04+00:00</time>
        <ele>2943.0</ele>
      </trkpt>
      <trkpt lat="46.90462" lon="10.23475">
        <time>2022-03-11T12:04:06+00:00</time>
        <ele>2943.0</ele>
      </trkpt>
      <trkpt lat="46.90462" lon="10.23476">
        <time>2022-03-11T12:04:14+00:00</time>
        <ele>2943.0</ele>
      </trkpt>
      <trkpt lat="46.90461" lon="10.23476">
        <time>2022-03-11T12:04:16+00:00</time>
        <ele>2942.0</ele>
      </trkpt>
      <trkpt lat="46.90461" lon="10.23476">
        <time>2022-03-11T12:04:25+00:00</time>
        <ele>2942.0</ele>
      </trkpt>
      <trkpt lat="46.90458" lon="10.23477">
        <time>2022-03-11T12:04:35+00:00</time>
        <ele>2940.0</ele>
      </trkpt>
      <trkpt lat="46.90453" lon="10.23479">
        <time>2022-03-11T12:04:36+00:00</time>
        <ele>2936.0</ele>
      </trkpt>
      <trkpt lat="46.90449" lon="10.23481">
        <time>2022-03-11T12:04:37+00:00</time>
        <ele>2932.0</ele>
      </trkpt>
      <trkpt lat="46.90444" lon="10.23487">
        <time>2022-03-11T12:04:38+00:00</time>
        <ele>2928.0</ele>
      </trkpt>
      <trkpt lat="46.90439" lon="10.23491">
        <time>2022-03-11T12:04:39+00:00</time>
        <ele>2924.0</ele>
      </trkpt>
      <trkpt lat="46.90434" lon="10.23496">
        <time>2022-03-11T12:04:40+00:00</time>
        <ele>2919.0</ele>
      </trkpt>
      <trkpt lat="46.90431" lon="10.23502">
        <time>2022-03-11T12:04:41+00:00</time>
        <ele>2917.0</ele>
      </trkpt>
      <trkpt lat="46.90427" lon="10.23507">
        <time>2022-03-11T12:04:42+00:00</time>
        <ele>2914.0</ele>
      </trkpt>
      <trkpt lat="46.90423" lon="10.23513">
        <time>2022-03-11T12:04:43+00:00</time>
        <ele>2911.0</ele>
      </trkpt>
      <trkpt lat="46.9042" lon="10.2352">
        <time>2022-03-11T12:04:44+00:00</time>
        <ele>2908.0</ele>
      </trkpt>
      <trkpt lat="46.90419" lon="10.23528">
        <time>2022-03-11T12:04:45+00:00</time>
        <ele>2907.0</ele>
      </trkpt>
      <trkpt lat="46.90418" lon="10.23539">
        <time>2022-03-11T12:04:46+00:00</time>
        <ele>2905.0</ele>
      </trkpt>
      <trkpt lat="46.90413" lon="10.23553">
        <time>2022-03-11T12:04:47+00:00</time>
        <ele>2900.0</ele>
      </trkpt>
      <trkpt lat="46.90411" lon="10.23558">
        <time>2022-03-11T12:04:49+00:00</time>
        <ele>2898.0</ele>
      </trkpt>
      <trkpt lat="46.90406" lon="10.23564">
        <time>2022-03-11T12:04:50+00:00</time>
        <ele>2894.0</ele>
      </trkpt>
      <trkpt lat="46.904" lon="10.23571">
        <time>2022-03-11T12:04:51+00:00</time>
        <ele>2889.0</ele>
      </trkpt>
      <trkpt lat="46.90394" lon="10.23577">
        <time>2022-03-11T12:04:52+00:00</time>
        <ele>2884.0</ele>
      </trkpt>
      <trkpt lat="46.90386" lon="10.23582">
        <time>2022-03-11T12:04:53+00:00</time>
        <ele>2878.0</ele>
      </trkpt>
      <trkpt lat="46.9038" lon="10.2359">
        <time>2022-03-11T12:04:54+00:00</time>
        <ele>2873.0</ele>
      </trkpt>
      <trkpt lat="46.90376" lon="10.23602">
        <time>2022-03-11T12:04:55+00:00</time>
        <ele>2871.0</ele>
      </trkpt>
      <trkpt lat="46.90374" lon="10.23615">
        <time>2022-03-11T12:04:56+00:00</time>
        <ele>2870.0</ele>
      </trkpt>
      <trkpt lat="46.90372" lon="10.23629">
        <time>2022-03-11T12:04:57+00:00</time>
        <ele>2869.0</ele>
      </trkpt>
      <trkpt lat="46.90367" lon="10.2364">
        <time>2022-03-11T12:04:58+00:00</time>
        <ele>2867.0</ele>
      </trkpt>
      <trkpt lat="46.90361" lon="10.23649">
        <time>2022-03-11T12:04:59+00:00</time>
        <ele>2863.0</ele>
      </trkpt>
      <trkpt lat="46.90354" lon="10.23656">
        <time>2022-03-11T12:05:00+00:00</time>
        <ele>2858.0</ele>
      </trkpt>
      <trkpt lat="46.90347" lon="10.23658">
        <time>2022-03-11T12:05:01+00:00</time>
        <ele>2852.0</ele>
      </trkpt>
      <trkpt lat="46.9034" lon="10.23659">
        <time>2022-03-11T12:05:02+00:00</time>
        <ele>2845.0</ele>
      </trkpt>
      <trkpt lat="46.90335" lon="10.2366">
        <time>2022-03-11T12:05:03+00:00</time>
        <ele>2841.0</ele>
      </trkpt>
      <trkpt lat="46.90332" lon="10.23664">
        <time>2022-03-11T12:05:04+00:00</time>
        <ele>2838.0</ele>
      </trkpt>
      <trkpt lat="46.90333" lon="10.23667">
        <time>2022-03-11T12:05:06+00:00</time>
        <ele>2839.0</ele>
      </trkpt>
      <trkpt lat="46.90334" lon="10.23668">
        <time>2022-03-11T12:05:08+00:00</time>
        <ele>2840.0</ele>
      </trkpt>
      <trkpt lat="46.90337" lon="10.23667">
        <time>2022-03-11T12:05:10+00:00</time>
        <ele>2843.0</ele>
      </trkpt>
      <trkpt lat="46.90339" lon="10.23666">
        <time>2022-03-11T12:05:13+00:00</time>
        <ele>2845.0</ele>
      </trkpt>
      <trkpt lat="46.9034" lon="10.23665">
        <time>2022-03-11T12:05:16+00:00</time>
        <ele>2846.0</ele>
      </trkpt>
      <trkpt lat="46.90342" lon="10.23664">
        <time>2022-03-11T12:05:17+00:00</time>
        <ele>2848.0</ele>
      </trkpt>
      <trkpt lat="46.90344" lon="10.23663">
        <time>2022-03-11T12:05:21+00:00</time>
        <ele>2849.0</ele>
      </trkpt>
      <trkpt lat="46.90345" lon="10.23661">
        <time>2022-03-11T12:05:38+00:00</time>
        <ele>2850.0</ele>
      </trkpt>
      <trkpt lat="46.90345" lon="10.23661">
        <time>2022-03-11T12:05:48+00:00</time>
        <ele>2850.0</ele>
      </trkpt>
      <trkpt lat="46.90345" lon="10.23659">
        <time>2022-03-11T12:06:16+00:00</time>
        <ele>2850.0</ele>
      </trkpt>
      <trkpt lat="46.90344" lon="10.2366">
        <time>2022-03-11T12:06:24+00:00</time>
        <ele>2849.0</ele>
      </trkpt>
      <trkpt lat="46.9034" lon="10.23665">
        <time>2022-03-11T12:06:25+00:00</time>
        <ele>2846.0</ele>
      </trkpt>
      <trkpt lat="46.90336" lon="10.23671">
        <time>2022-03-11T12:06:26+00:00</time>
        <ele>2842.0</ele>
      </trkpt>
      <trkpt lat="46.90329" lon="10.23683">
        <time>2022-03-11T12:06:27+00:00</time>
        <ele>2836.0</ele>
      </trkpt>
      <trkpt lat="46.90318" lon="10.23707">
        <time>2022-03-11T12:06:29+00:00</time>
        <ele>2828.0</ele>
      </trkpt>
      <trkpt lat="46.90314" lon="10.23722">
        <time>2022-03-11T12:06:30+00:00</time>
        <ele>2825.0</ele>
      </trkpt>
      <trkpt lat="46.90312" lon="10.23737">
        <time>2022-03-11T12:06:31+00:00</time>
        <ele>2824.0</ele>
      </trkpt>
      <trkpt lat="46.9031" lon="10.23751">
        <time>2022-03-11T12:06:32+00:00</time>
        <ele>2823.0</ele>
      </trkpt>
      <trkpt lat="46.90309" lon="10.23764">
        <time>2022-03-11T12:06:33+00:00</time>
        <ele>2823.0</ele>
      </trkpt>
      <trkpt lat="46.90308" lon="10.23776">
        <time>2022-03-11T12:06:34+00:00</time>
        <ele>2824.0</ele>
      </trkpt>
      <trkpt lat="46.90307" lon="10.23788">
        <time>2022-03-11T12:06:35+00:00</time>
        <ele>2824.0</ele>
      </trkpt>
      <trkpt lat="46.90304" lon="10.23808">
        <time>2022-03-11T12:06:37+00:00</time>
        <ele>2824.0</ele>
      </trkpt>
      <trkpt lat="46.903" lon="10.23823">
        <time>2022-03-11T12:06:39+00:00</time>
        <ele>2824.0</ele>
      </trkpt>
      <trkpt lat="46.90298" lon="10.23829">
        <time>2022-03-11T12:06:40+00:00</time>
        <ele>2823.0</ele>
      </trkpt>
      <trkpt lat="46.90296" lon="10.23835">
        <time>2022-03-11T12:06:41+00:00</time>
        <ele>2823.0</ele>
      </trkpt>
      <trkpt lat="46.90289" lon="10.23851">
        <time>2022-03-11T12:06:44+00:00</time>
        <ele>2822.0</ele>
      </trkpt>
      <trkpt lat="46.90284" lon="10.23861">
        <time>2022-03-11T12:06:46+00:00</time>
        <ele>2822.0</ele>
      </trkpt>
      <trkpt lat="46.90282" lon="10.23865">
        <time>2022-03-11T12:06:47+00:00</time>
        <ele>2823.0</ele>
      </trkpt>
      <trkpt lat="46.90276" lon="10.23878">
        <time>2022-03-11T12:06:49+00:00</time>
        <ele>2822.0</ele>
      </trkpt>
      <trkpt lat="46.90268" lon="10.23891">
        <time>2022-03-11T12:06:51+00:00</time>
        <ele>2821.0</ele>
      </trkpt>
      <trkpt lat="46.90263" lon="10.23898">
        <time>2022-03-11T12:06:52+00:00</time>
        <ele>2822.0</ele>
      </trkpt>
      <trkpt lat="46.90258" lon="10.23904">
        <time>2022-03-11T12:06:53+00:00</time>
        <ele>2822.0</ele>
      </trkpt>
      <trkpt lat="46.90243" lon="10.23924">
        <time>2022-03-11T12:06:57+00:00</time>
        <ele>2822.0</ele>
      </trkpt>
      <trkpt lat="46.90241" lon="10.23926">
        <time>2022-03-11T12:06:58+00:00</time>
        <ele>2822.0</ele>
      </trkpt>
      <trkpt lat="46.90235" lon="10.23931">
        <time>2022-03-11T12:07:01+00:00</time>
        <ele>2820.0</ele>
      </trkpt>
      <trkpt lat="46.90231" lon="10.23936">
        <time>2022-03-11T12:07:06+00:00</time>
        <ele>2819.0</ele>
      </trkpt>
      <trkpt lat="46.90231" lon="10.23936">
        <time>2022-03-11T12:07:07+00:00</time>
        <ele>2819.0</ele>
      </trkpt>
      <trkpt lat="46.9023" lon="10.23937">
        <time>2022-03-11T12:07:11+00:00</time>
        <ele>2819.0</ele>
      </trkpt>
      <trkpt lat="46.9023" lon="10.23937">
        <time>2022-03-11T12:07:14+00:00</time>
        <ele>2819.0</ele>
      </trkpt>
      <trkpt lat="46.9023" lon="10.23937">
        <time>2022-03-11T12:07:16+00:00</time>
        <ele>2819.0</ele>
      </trkpt>
      <trkpt lat="46.9023" lon="10.23937">
        <time>2022-03-11T12:07:19+00:00</time>
        <ele>2819.0</ele>
      </trkpt>
      <trkpt lat="46.9023" lon="10.23936">
        <time>2022-03-11T12:07:35+00:00</time>
        <ele>2819.0</ele>
      </trkpt>
      <trkpt lat="46.9023" lon="10.23936">
        <time>2022-03-11T12:07:38+00:00</time>
        <ele>2819.0</ele>
      </trkpt>
      <trkpt lat="46.90231" lon="10.23936">
        <time>2022-03-11T12:07:54+00:00</time>
        <ele>2819.0</ele>
      </trkpt>
      <trkpt lat="46.90231" lon="10.23936">
        <time>2022-03-11T12:08:02+00:00</time>
        <ele>2819.0</ele>
      </trkpt>
      <trkpt lat="46.90227" lon="10.23944">
        <time>2022-03-11T12:08:24+00:00</time>
        <ele>2818.0</ele>
      </trkpt>
      <trkpt lat="46.90225" lon="10.23956">
        <time>2022-03-11T12:08:32+00:00</time>
        <ele>2819.0</ele>
      </trkpt>
      <trkpt lat="46.90223" lon="10.23963">
        <time>2022-03-11T12:08:38+00:00</time>
        <ele>2819.0</ele>
      </trkpt>
      <trkpt lat="46.90221" lon="10.23969">
        <time>2022-03-11T12:08:43+00:00</time>
        <ele>2818.0</ele>
      </trkpt>
      <trkpt lat="46.90221" lon="10.23971">
        <time>2022-03-11T12:08:44+00:00</time>
        <ele>2819.0</ele>
      </trkpt>
      <trkpt lat="46.90219" lon="10.23982">
        <time>2022-03-11T12:08:55+00:00</time>
        <ele>2817.0</ele>
      </trkpt>
      <trkpt lat="46.90219" lon="10.23983">
        <time>2022-03-11T12:08:56+00:00</time>
        <ele>2816.0</ele>
      </trkpt>
      <trkpt lat="46.90219" lon="10.23987">
        <time>2022-03-11T12:09:03+00:00</time>
        <ele>2816.0</ele>
      </trkpt>
      <trkpt lat="46.90219" lon="10.23993">
        <time>2022-03-11T12:09:12+00:00</time>
        <ele>2815.0</ele>
      </trkpt>
      <trkpt lat="46.90219" lon="10.23999">
        <time>2022-03-11T12:09:19+00:00</time>
        <ele>2813.0</ele>
      </trkpt>
      <trkpt lat="46.9022" lon="10.24001">
        <time>2022-03-11T12:09:22+00:00</time>
        <ele>2814.0</ele>
      </trkpt>
      <trkpt lat="46.9022" lon="10.24012">
        <time>2022-03-11T12:09:34+00:00</time>
        <ele>2811.0</ele>
      </trkpt>
      <trkpt lat="46.9022" lon="10.24013">
        <time>2022-03-11T12:09:36+00:00</time>
        <ele>2810.0</ele>
      </trkpt>
      <trkpt lat="46.9022" lon="10.24016">
        <time>2022-03-11T12:09:40+00:00</time>
        <ele>2810.0</ele>
      </trkpt>
      <trkpt lat="46.90222" lon="10.24019">
        <time>2022-03-11T12:09:44+00:00</time>
        <ele>2810.0</ele>
      </trkpt>
      <trkpt lat="46.90223" lon="10.24022">
        <time>2022-03-11T12:09:48+00:00</time>
        <ele>2809.0</ele>
      </trkpt>
      <trkpt lat="46.90225" lon="10.24023">
        <time>2022-03-11T12:09:53+00:00</time>
        <ele>2810.0</ele>
      </trkpt>
      <trkpt lat="46.90226" lon="10.24023">
        <time>2022-03-11T12:09:54+00:00</time>
        <ele>2810.0</ele>
      </trkpt>
      <trkpt lat="46.90228" lon="10.24024">
        <time>2022-03-11T12:09:58+00:00</time>
        <ele>2811.0</ele>
      </trkpt>
      <trkpt lat="46.9023" lon="10.24025">
        <time>2022-03-11T12:10:04+00:00</time>
        <ele>2811.0</ele>
      </trkpt>
      <trkpt lat="46.90231" lon="10.24025">
        <time>2022-03-11T12:10:14+00:00</time>
        <ele>2812.0</ele>
      </trkpt>
      <trkpt lat="46.90232" lon="10.24024">
        <time>2022-03-11T12:10:17+00:00</time>
        <ele>2813.0</ele>
      </trkpt>
      <trkpt lat="46.90232" lon="10.24024">
        <time>2022-03-11T12:10:18+00:00</time>
        <ele>2813.0</ele>
      </trkpt>
      <trkpt lat="46.90232" lon="10.24019">
        <time>2022-03-11T12:10:26+00:00</time>
        <ele>2814.0</ele>
      </trkpt>
      <trkpt lat="46.90234" lon="10.24018">
        <time>2022-03-11T12:10:32+00:00</time>
        <ele>2815.0</ele>
      </trkpt>
      <trkpt lat="46.90234" lon="10.24018">
        <time>2022-03-11T12:10:36+00:00</time>
        <ele>2815.0</ele>
      </trkpt>
      <trkpt lat="46.90235" lon="10.24018">
        <time>2022-03-11T12:10:43+00:00</time>
        <ele>2816.0</ele>
      </trkpt>
      <trkpt lat="46.90235" lon="10.24018">
        <time>2022-03-11T12:10:48+00:00</time>
        <ele>2816.0</ele>
      </trkpt>
      <trkpt lat="46.90235" lon="10.24018">
        <time>2022-03-11T12:10:51+00:00</time>
        <ele>2816.0</ele>
      </trkpt>
      <trkpt lat="46.90236" lon="10.24018">
        <time>2022-03-11T12:10:58+00:00</time>
        <ele>2816.0</ele>
      </trkpt>
      <trkpt lat="46.90238" lon="10.24018">
        <time>2022-03-11T12:11:10+00:00</time>
        <ele>2817.0</ele>
      </trkpt>
      <trkpt lat="46.9024" lon="10.2402">
        <time>2022-03-11T12:11:38+00:00</time>
        <ele>2817.0</ele>
      </trkpt>
      <trkpt lat="46.9024" lon="10.2402">
        <time>2022-03-11T12:11:43+00:00</time>
        <ele>2817.0</ele>
      </trkpt>
      <trkpt lat="46.9024" lon="10.2402">
        <time>2022-03-11T12:11:49+00:00</time>
        <ele>2817.0</ele>
      </trkpt>
      <trkpt lat="46.90241" lon="10.2402">
        <time>2022-03-11T12:11:52+00:00</time>
        <ele>2818.0</ele>
      </trkpt>
      <trkpt lat="46.90241" lon="10.2402">
        <time>2022-03-11T12:11:58+00:00</time>
        <ele>2818.0</ele>
      </trkpt>
      <trkpt lat="46.90246" lon="10.2402">
        <time>2022-03-11T12:12:12+00:00</time>
        <ele>2820.0</ele>
      </trkpt>
      <trkpt lat="46.90249" lon="10.24019">
        <time>2022-03-11T12:12:24+00:00</time>
        <ele>2821.0</ele>
      </trkpt>
      <trkpt lat="46.90249" lon="10.24018">
        <time>2022-03-11T12:12:27+00:00</time>
        <ele>2822.0</ele>
      </trkpt>
      <trkpt lat="46.90251" lon="10.24018">
        <time>2022-03-11T12:12:39+00:00</time>
        <ele>2822.0</ele>
      </trkpt>
      <trkpt lat="46.90253" lon="10.24018">
        <time>2022-03-11T12:12:45+00:00</time>
        <ele>2823.0</ele>
      </trkpt>
      <trkpt lat="46.90254" lon="10.24018">
        <time>2022-03-11T12:12:49+00:00</time>
        <ele>2823.0</ele>
      </trkpt>
      <trkpt lat="46.90255" lon="10.24018">
        <time>2022-03-11T12:12:52+00:00</time>
        <ele>2824.0</ele>
      </trkpt>
      <trkpt lat="46.90263" lon="10.24017">
        <time>2022-03-11T12:13:20+00:00</time>
        <ele>2827.0</ele>
      </trkpt>
      <trkpt lat="46.90264" lon="10.24016">
        <time>2022-03-11T12:13:45+00:00</time>
        <ele>2827.0</ele>
      </trkpt>
      <trkpt lat="46.90264" lon="10.24016">
        <time>2022-03-11T12:13:57+00:00</time>
        <ele>2827.0</ele>
      </trkpt>
      <trkpt lat="46.90263" lon="10.24018">
        <time>2022-03-11T12:14:01+00:00</time>
        <ele>2826.0</ele>
      </trkpt>
      <trkpt lat="46.90263" lon="10.24023">
        <time>2022-03-11T12:14:04+00:00</time>
        <ele>2825.0</ele>
      </trkpt>
      <trkpt lat="46.90263" lon="10.24023">
        <time>2022-03-11T12:14:05+00:00</time>
        <ele>2825.0</ele>
      </trkpt>
      <trkpt lat="46.90262" lon="10.24025">
        <time>2022-03-11T12:14:10+00:00</time>
        <ele>2824.0</ele>
      </trkpt>
      <trkpt lat="46.90262" lon="10.24025">
        <time>2022-03-11T12:14:26+00:00</time>
        <ele>2824.0</ele>
      </trkpt>
      <trkpt lat="46.90262" lon="10.24025">
        <time>2022-03-11T12:14:32+00:00</time>
        <ele>2824.0</ele>
      </trkpt>
      <trkpt lat="46.90261" lon="10.24025">
        <time>2022-03-11T12:15:10+00:00</time>
        <ele>2824.0</ele>
      </trkpt>
      <trkpt lat="46.90261" lon="10.24025">
        <time>2022-03-11T12:15:37+00:00</time>
        <ele>2824.0</ele>
      </trkpt>
      <trkpt lat="46.90261" lon="10.24025">
        <time>2022-03-11T12:15:39+00:00</time>
        <ele>2824.0</ele>
      </trkpt>
      <trkpt lat="46.90262" lon="10.24026">
        <time>2022-03-11T12:15:50+00:00</time>
        <ele>2824.0</ele>
      </trkpt>
      <trkpt lat="46.90262" lon="10.24027">
        <time>2022-03-11T12:15:57+00:00</time>
        <ele>2823.0</ele>
      </trkpt>
      <trkpt lat="46.90262" lon="10.24032">
        <time>2022-03-11T12:16:06+00:00</time>
        <ele>2821.0</ele>
      </trkpt>
      <trkpt lat="46.90263" lon="10.24035">
        <time>2022-03-11T12:16:07+00:00</time>
        <ele>2820.0</ele>
      </trkpt>
      <trkpt lat="46.90262" lon="10.2404">
        <time>2022-03-11T12:16:08+00:00</time>
        <ele>2817.0</ele>
      </trkpt>
      <trkpt lat="46.90261" lon="10.24042">
        <time>2022-03-11T12:16:10+00:00</time>
        <ele>2816.0</ele>
      </trkpt>
      <trkpt lat="46.90258" lon="10.24044">
        <time>2022-03-11T12:16:11+00:00</time>
        <ele>2814.0</ele>
      </trkpt>
      <trkpt lat="46.90257" lon="10.24046">
        <time>2022-03-11T12:16:12+00:00</time>
        <ele>2812.0</ele>
      </trkpt>
      <trkpt lat="46.90254" lon="10.2405">
        <time>2022-03-11T12:16:14+00:00</time>
        <ele>2809.0</ele>
      </trkpt>
      <trkpt lat="46.90251" lon="10.24051">
        <time>2022-03-11T12:16:15+00:00</time>
        <ele>2808.0</ele>
      </trkpt>
      <trkpt lat="46.90247" lon="10.24051">
        <time>2022-03-11T12:16:16+00:00</time>
        <ele>2806.0</ele>
      </trkpt>
      <trkpt lat="46.90242" lon="10.24056">
        <time>2022-03-11T12:16:18+00:00</time>
        <ele>2801.0</ele>
      </trkpt>
      <trkpt lat="46.90239" lon="10.2406">
        <time>2022-03-11T12:16:19+00:00</time>
        <ele>2797.0</ele>
      </trkpt>
      <trkpt lat="46.90236" lon="10.24064">
        <time>2022-03-11T12:16:20+00:00</time>
        <ele>2793.0</ele>
      </trkpt>
      <trkpt lat="46.90233" lon="10.24068">
        <time>2022-03-11T12:16:21+00:00</time>
        <ele>2789.0</ele>
      </trkpt>
      <trkpt lat="46.90231" lon="10.2407">
        <time>2022-03-11T12:16:22+00:00</time>
        <ele>2787.0</ele>
      </trkpt>
      <trkpt lat="46.90229" lon="10.24074">
        <time>2022-03-11T12:16:23+00:00</time>
        <ele>2784.0</ele>
      </trkpt>
      <trkpt lat="46.90226" lon="10.24078">
        <time>2022-03-11T12:16:24+00:00</time>
        <ele>2780.0</ele>
      </trkpt>
      <trkpt lat="46.90223" lon="10.24084">
        <time>2022-03-11T12:16:25+00:00</time>
        <ele>2775.0</ele>
      </trkpt>
      <trkpt lat="46.9022" lon="10.2409">
        <time>2022-03-11T12:16:26+00:00</time>
        <ele>2770.0</ele>
      </trkpt>
      <trkpt lat="46.90216" lon="10.24095">
        <time>2022-03-11T12:16:27+00:00</time>
        <ele>2766.0</ele>
      </trkpt>
      <trkpt lat="46.90212" lon="10.241">
        <time>2022-03-11T12:16:28+00:00</time>
        <ele>2761.0</ele>
      </trkpt>
      <trkpt lat="46.90208" lon="10.24104">
        <time>2022-03-11T12:16:29+00:00</time>
        <ele>2758.0</ele>
      </trkpt>
      <trkpt lat="46.90204" lon="10.24108">
        <time>2022-03-11T12:16:30+00:00</time>
        <ele>2755.0</ele>
      </trkpt>
      <trkpt lat="46.90201" lon="10.24112">
        <time>2022-03-11T12:16:31+00:00</time>
        <ele>2752.0</ele>
      </trkpt>
      <trkpt lat="46.90198" lon="10.24115">
        <time>2022-03-11T12:16:32+00:00</time>
        <ele>2750.0</ele>
      </trkpt>
      <trkpt lat="46.90195" lon="10.24117">
        <time>2022-03-11T12:16:33+00:00</time>
        <ele>2749.0</ele>
      </trkpt>
      <trkpt lat="46.90192" lon="10.24117">
        <time>2022-03-11T12:16:34+00:00</time>
        <ele>2748.0</ele>
      </trkpt>
      <trkpt lat="46.90191" lon="10.24116">
        <time>2022-03-11T12:16:35+00:00</time>
        <ele>2748.0</ele>
      </trkpt>
      <trkpt lat="46.90189" lon="10.24115">
        <time>2022-03-11T12:16:37+00:00</time>
        <ele>2748.0</ele>
      </trkpt>
      <trkpt lat="46.90189" lon="10.24114">
        <time>2022-03-11T12:16:39+00:00</time>
        <ele>2748.0</ele>
      </trkpt>
      <trkpt lat="46.90189" lon="10.24114">
        <time>2022-03-11T12:16:40+00:00</time>
        <ele>2748.0</ele>
      </trkpt>
      <trkpt lat="46.90189" lon="10.24114">
        <time>2022-03-11T12:16:41+00:00</time>
        <ele>2748.0</ele>
      </trkpt>
      <trkpt lat="46.90196" lon="10.24116">
        <time>2022-03-11T12:16:48+00:00</time>
        <ele>2750.0</ele>
      </trkpt>
      <trkpt lat="46.90196" lon="10.24116">
        <time>2022-03-11T12:17:01+00:00</time>
        <ele>2750.0</ele>
      </trkpt>
      <trkpt lat="46.90197" lon="10.24116">
        <time>2022-03-11T12:17:28+00:00</time>
        <ele>2750.0</ele>
      </trkpt>
      <trkpt lat="46.90197" lon="10.24116">
        <time>2022-03-11T12:17:30+00:00</time>
        <ele>2750.0</ele>
      </trkpt>
      <trkpt lat="46.90197" lon="10.24116">
        <time>2022-03-11T12:17:40+00:00</time>
        <ele>2750.0</ele>
      </trkpt>
      <trkpt lat="46.90198" lon="10.24114">
        <time>2022-03-11T12:18:58+00:00</time>
        <ele>2751.0</ele>
      </trkpt>
      <trkpt lat="46.90201" lon="10.24118">
        <time>2022-03-11T12:20:30+00:00</time>
        <ele>2750.0</ele>
      </trkpt>
      <trkpt lat="46.90201" lon="10.24155">
        <time>2022-03-11T12:20:34+00:00</time>
        <ele>2734.0</ele>
      </trkpt>
      <trkpt lat="46.90201" lon="10.24177">
        <time>2022-03-11T12:20:36+00:00</time>
        <ele>2726.0</ele>
      </trkpt>
      <trkpt lat="46.90203" lon="10.24188">
        <time>2022-03-11T12:20:37+00:00</time>
        <ele>2723.0</ele>
      </trkpt>
      <trkpt lat="46.90205" lon="10.24199">
        <time>2022-03-11T12:20:38+00:00</time>
        <ele>2718.0</ele>
      </trkpt>
      <trkpt lat="46.90209" lon="10.24208">
        <time>2022-03-11T12:20:39+00:00</time>
        <ele>2715.0</ele>
      </trkpt>
      <trkpt lat="46.90212" lon="10.24217">
        <time>2022-03-11T12:20:40+00:00</time>
        <ele>2711.0</ele>
      </trkpt>
      <trkpt lat="46.90211" lon="10.24224">
        <time>2022-03-11T12:20:41+00:00</time>
        <ele>2707.0</ele>
      </trkpt>
      <trkpt lat="46.90209" lon="10.24229">
        <time>2022-03-11T12:20:42+00:00</time>
        <ele>2704.0</ele>
      </trkpt>
      <trkpt lat="46.90205" lon="10.24236">
        <time>2022-03-11T12:20:43+00:00</time>
        <ele>2699.0</ele>
      </trkpt>
      <trkpt lat="46.902" lon="10.24239">
        <time>2022-03-11T12:20:44+00:00</time>
        <ele>2696.0</ele>
      </trkpt>
      <trkpt lat="46.90195" lon="10.24242">
        <time>2022-03-11T12:20:45+00:00</time>
        <ele>2693.0</ele>
      </trkpt>
      <trkpt lat="46.90185" lon="10.24249">
        <time>2022-03-11T12:20:47+00:00</time>
        <ele>2686.0</ele>
      </trkpt>
      <trkpt lat="46.90182" lon="10.24255">
        <time>2022-03-11T12:20:48+00:00</time>
        <ele>2683.0</ele>
      </trkpt>
      <trkpt lat="46.9018" lon="10.24263">
        <time>2022-03-11T12:20:49+00:00</time>
        <ele>2680.0</ele>
      </trkpt>
      <trkpt lat="46.9018" lon="10.24269">
        <time>2022-03-11T12:20:50+00:00</time>
        <ele>2678.0</ele>
      </trkpt>
      <trkpt lat="46.90181" lon="10.24278">
        <time>2022-03-11T12:20:51+00:00</time>
        <ele>2676.0</ele>
      </trkpt>
      <trkpt lat="46.90183" lon="10.24284">
        <time>2022-03-11T12:20:52+00:00</time>
        <ele>2675.0</ele>
      </trkpt>
      <trkpt lat="46.90187" lon="10.24291">
        <time>2022-03-11T12:20:53+00:00</time>
        <ele>2674.0</ele>
      </trkpt>
      <trkpt lat="46.9019" lon="10.24298">
        <time>2022-03-11T12:20:54+00:00</time>
        <ele>2673.0</ele>
      </trkpt>
      <trkpt lat="46.90192" lon="10.24305">
        <time>2022-03-11T12:20:55+00:00</time>
        <ele>2671.0</ele>
      </trkpt>
      <trkpt lat="46.90193" lon="10.24316">
        <time>2022-03-11T12:20:56+00:00</time>
        <ele>2667.0</ele>
      </trkpt>
      <trkpt lat="46.90197" lon="10.24332">
        <time>2022-03-11T12:20:57+00:00</time>
        <ele>2662.0</ele>
      </trkpt>
      <trkpt lat="46.902" lon="10.24344">
        <time>2022-03-11T12:20:58+00:00</time>
        <ele>2659.0</ele>
      </trkpt>
      <trkpt lat="46.90202" lon="10.24358">
        <time>2022-03-11T12:20:59+00:00</time>
        <ele>2654.0</ele>
      </trkpt>
      <trkpt lat="46.90206" lon="10.24374">
        <time>2022-03-11T12:21:00+00:00</time>
        <ele>2649.0</ele>
      </trkpt>
      <trkpt lat="46.90211" lon="10.24385">
        <time>2022-03-11T12:21:01+00:00</time>
        <ele>2646.0</ele>
      </trkpt>
      <trkpt lat="46.90215" lon="10.24392">
        <time>2022-03-11T12:21:02+00:00</time>
        <ele>2646.0</ele>
      </trkpt>
      <trkpt lat="46.90221" lon="10.24393">
        <time>2022-03-11T12:21:04+00:00</time>
        <ele>2648.0</ele>
      </trkpt>
      <trkpt lat="46.90222" lon="10.24393">
        <time>2022-03-11T12:21:05+00:00</time>
        <ele>2648.0</ele>
      </trkpt>
      <trkpt lat="46.90224" lon="10.24392">
        <time>2022-03-11T12:21:06+00:00</time>
        <ele>2649.0</ele>
      </trkpt>
      <trkpt lat="46.90226" lon="10.24389">
        <time>2022-03-11T12:21:10+00:00</time>
        <ele>2650.0</ele>
      </trkpt>
      <trkpt lat="46.90231" lon="10.24384">
        <time>2022-03-11T12:21:26+00:00</time>
        <ele>2653.0</ele>
      </trkpt>
      <trkpt lat="46.90231" lon="10.24384">
        <time>2022-03-11T12:21:29+00:00</time>
        <ele>2653.0</ele>
      </trkpt>
      <trkpt lat="46.90231" lon="10.24384">
        <time>2022-03-11T12:21:30+00:00</time>
        <ele>2653.0</ele>
      </trkpt>
      <trkpt lat="46.90231" lon="10.24384">
        <time>2022-03-11T12:21:34+00:00</time>
        <ele>2653.0</ele>
      </trkpt>
      <trkpt lat="46.90231" lon="10.24384">
        <time>2022-03-11T12:21:35+00:00</time>
        <ele>2653.0</ele>
      </trkpt>
      <trkpt lat="46.90231" lon="10.24384">
        <time>2022-03-11T12:21:37+00:00</time>
        <ele>2653.0</ele>
      </trkpt>
      <trkpt lat="46.90231" lon="10.24384">
        <time>2022-03-11T12:21:46+00:00</time>
        <ele>2653.0</ele>
      </trkpt>
      <trkpt lat="46.90231" lon="10.24384">
        <time>2022-03-11T12:21:47+00:00</time>
        <ele>2653.0</ele>
      </trkpt>
      <trkpt lat="46.90231" lon="10.24384">
        <time>2022-03-11T12:21:50+00:00</time>
        <ele>2653.0</ele>
      </trkpt>
      <trkpt lat="46.90231" lon="10.24386">
        <time>2022-03-11T12:22:03+00:00</time>
        <ele>2653.0</ele>
      </trkpt>
      <trkpt lat="46.90232" lon="10.24386">
        <time>2022-03-11T12:22:12+00:00</time>
        <ele>2653.0</ele>
      </trkpt>
      <trkpt lat="46.90232" lon="10.24386">
        <time>2022-03-11T12:22:22+00:00</time>
        <ele>2653.0</ele>
      </trkpt>
      <trkpt lat="46.90232" lon="10.24386">
        <time>2022-03-11T12:22:29+00:00</time>
        <ele>2653.0</ele>
      </trkpt>
      <trkpt lat="46.90233" lon="10.24386">
        <time>2022-03-11T12:22:43+00:00</time>
        <ele>2653.0</ele>
      </trkpt>
      <trkpt lat="46.90232" lon="10.24386">
        <time>2022-03-11T12:22:53+00:00</time>
        <ele>2653.0</ele>
      </trkpt>
      <trkpt lat="46.90233" lon="10.24385">
        <time>2022-03-11T12:23:03+00:00</time>
        <ele>2653.0</ele>
      </trkpt>
      <trkpt lat="46.90234" lon="10.24384">
        <time>2022-03-11T12:23:04+00:00</time>
        <ele>2653.0</ele>
      </trkpt>
      <trkpt lat="46.90237" lon="10.24382">
        <time>2022-03-11T12:23:06+00:00</time>
        <ele>2654.0</ele>
      </trkpt>
      <trkpt lat="46.90239" lon="10.24385">
        <time>2022-03-11T12:23:08+00:00</time>
        <ele>2653.0</ele>
      </trkpt>
      <trkpt lat="46.9024" lon="10.24388">
        <time>2022-03-11T12:23:09+00:00</time>
        <ele>2652.0</ele>
      </trkpt>
      <trkpt lat="46.90242" lon="10.24393">
        <time>2022-03-11T12:23:10+00:00</time>
        <ele>2651.0</ele>
      </trkpt>
      <trkpt lat="46.90247" lon="10.24404">
        <time>2022-03-11T12:23:12+00:00</time>
        <ele>2649.0</ele>
      </trkpt>
      <trkpt lat="46.90253" lon="10.24421">
        <time>2022-03-11T12:23:14+00:00</time>
        <ele>2646.0</ele>
      </trkpt>
      <trkpt lat="46.90259" lon="10.24435">
        <time>2022-03-11T12:23:16+00:00</time>
        <ele>2643.0</ele>
      </trkpt>
      <trkpt lat="46.90271" lon="10.2445">
        <time>2022-03-11T12:23:18+00:00</time>
        <ele>2637.0</ele>
      </trkpt>
      <trkpt lat="46.90279" lon="10.24459">
        <time>2022-03-11T12:23:19+00:00</time>
        <ele>2631.0</ele>
      </trkpt>
      <trkpt lat="46.90283" lon="10.24468">
        <time>2022-03-11T12:23:20+00:00</time>
        <ele>2628.0</ele>
      </trkpt>
      <trkpt lat="46.90285" lon="10.24475">
        <time>2022-03-11T12:23:21+00:00</time>
        <ele>2626.0</ele>
      </trkpt>
      <trkpt lat="46.90286" lon="10.24481">
        <time>2022-03-11T12:23:22+00:00</time>
        <ele>2625.0</ele>
      </trkpt>
      <trkpt lat="46.90288" lon="10.24486">
        <time>2022-03-11T12:23:23+00:00</time>
        <ele>2623.0</ele>
      </trkpt>
      <trkpt lat="46.90291" lon="10.24489">
        <time>2022-03-11T12:23:24+00:00</time>
        <ele>2621.0</ele>
      </trkpt>
      <trkpt lat="46.90295" lon="10.24492">
        <time>2022-03-11T12:23:25+00:00</time>
        <ele>2619.0</ele>
      </trkpt>
      <trkpt lat="46.90299" lon="10.24494">
        <time>2022-03-11T12:23:26+00:00</time>
        <ele>2617.0</ele>
      </trkpt>
      <trkpt lat="46.90309" lon="10.24498">
        <time>2022-03-11T12:23:29+00:00</time>
        <ele>2612.0</ele>
      </trkpt>
      <trkpt lat="46.90318" lon="10.24502">
        <time>2022-03-11T12:23:33+00:00</time>
        <ele>2609.0</ele>
      </trkpt>
      <trkpt lat="46.90325" lon="10.24506">
        <time>2022-03-11T12:23:36+00:00</time>
        <ele>2606.0</ele>
      </trkpt>
      <trkpt lat="46.90337" lon="10.24512">
        <time>2022-03-11T12:23:40+00:00</time>
        <ele>2599.0</ele>
      </trkpt>
      <trkpt lat="46.90341" lon="10.24513">
        <time>2022-03-11T12:23:42+00:00</time>
        <ele>2597.0</ele>
      </trkpt>
      <trkpt lat="46.90345" lon="10.24514">
        <time>2022-03-11T12:23:58+00:00</time>
        <ele>2595.0</ele>
      </trkpt>
      <trkpt lat="46.90346" lon="10.24516">
        <time>2022-03-11T12:24:32+00:00</time>
        <ele>2594.0</ele>
      </trkpt>
      <trkpt lat="46.90349" lon="10.24519">
        <time>2022-03-11T12:24:33+00:00</time>
        <ele>2591.0</ele>
      </trkpt>
      <trkpt lat="46.90355" lon="10.24524">
        <time>2022-03-11T12:24:34+00:00</time>
        <ele>2587.0</ele>
      </trkpt>
      <trkpt lat="46.9036" lon="10.2453">
        <time>2022-03-11T12:24:35+00:00</time>
        <ele>2582.0</ele>
      </trkpt>
      <trkpt lat="46.90366" lon="10.24543">
        <time>2022-03-11T12:24:36+00:00</time>
        <ele>2577.0</ele>
      </trkpt>
      <trkpt lat="46.90371" lon="10.24557">
        <time>2022-03-11T12:24:37+00:00</time>
        <ele>2571.0</ele>
      </trkpt>
      <trkpt lat="46.90376" lon="10.24574">
        <time>2022-03-11T12:24:38+00:00</time>
        <ele>2565.0</ele>
      </trkpt>
      <trkpt lat="46.90381" lon="10.24593">
        <time>2022-03-11T12:24:39+00:00</time>
        <ele>2559.0</ele>
      </trkpt>
      <trkpt lat="46.90384" lon="10.24608">
        <time>2022-03-11T12:24:40+00:00</time>
        <ele>2554.0</ele>
      </trkpt>
      <trkpt lat="46.90384" lon="10.24627">
        <time>2022-03-11T12:24:41+00:00</time>
        <ele>2550.0</ele>
      </trkpt>
      <trkpt lat="46.90381" lon="10.24639">
        <time>2022-03-11T12:24:42+00:00</time>
        <ele>2548.0</ele>
      </trkpt>
      <trkpt lat="46.90375" lon="10.24648">
        <time>2022-03-11T12:24:43+00:00</time>
        <ele>2547.0</ele>
      </trkpt>
      <trkpt lat="46.90371" lon="10.24652">
        <time>2022-03-11T12:24:44+00:00</time>
        <ele>2547.0</ele>
      </trkpt>
      <trkpt lat="46.90368" lon="10.24654">
        <time>2022-03-11T12:24:45+00:00</time>
        <ele>2547.0</ele>
      </trkpt>
      <trkpt lat="46.90368" lon="10.24655">
        <time>2022-03-11T12:24:46+00:00</time>
        <ele>2547.0</ele>
      </trkpt>
      <trkpt lat="46.90368" lon="10.24654">
        <time>2022-03-11T12:24:47+00:00</time>
        <ele>2547.0</ele>
      </trkpt>
      <trkpt lat="46.90369" lon="10.24654">
        <time>2022-03-11T12:24:48+00:00</time>
        <ele>2547.0</ele>
      </trkpt>
      <trkpt lat="46.9037" lon="10.24653">
        <time>2022-03-11T12:24:49+00:00</time>
        <ele>2547.0</ele>
      </trkpt>
      <trkpt lat="46.90371" lon="10.24653">
        <time>2022-03-11T12:24:51+00:00</time>
        <ele>2547.0</ele>
      </trkpt>
      <trkpt lat="46.90367" lon="10.24659">
        <time>2022-03-11T12:24:58+00:00</time>
        <ele>2546.0</ele>
      </trkpt>
      <trkpt lat="46.90359" lon="10.24674">
        <time>2022-03-11T12:25:01+00:00</time>
        <ele>2544.0</ele>
      </trkpt>
      <trkpt lat="46.90355" lon="10.2468">
        <time>2022-03-11T12:25:02+00:00</time>
        <ele>2543.0</ele>
      </trkpt>
      <trkpt lat="46.90351" lon="10.24686">
        <time>2022-03-11T12:25:03+00:00</time>
        <ele>2542.0</ele>
      </trkpt>
      <trkpt lat="46.90347" lon="10.24691">
        <time>2022-03-11T12:25:04+00:00</time>
        <ele>2541.0</ele>
      </trkpt>
      <trkpt lat="46.90343" lon="10.24698">
        <time>2022-03-11T12:25:05+00:00</time>
        <ele>2539.0</ele>
      </trkpt>
      <trkpt lat="46.90337" lon="10.24708">
        <time>2022-03-11T12:25:07+00:00</time>
        <ele>2536.0</ele>
      </trkpt>
      <trkpt lat="46.90334" lon="10.24715">
        <time>2022-03-11T12:25:08+00:00</time>
        <ele>2535.0</ele>
      </trkpt>
      <trkpt lat="46.90332" lon="10.24723">
        <time>2022-03-11T12:25:09+00:00</time>
        <ele>2533.0</ele>
      </trkpt>
      <trkpt lat="46.90329" lon="10.24741">
        <time>2022-03-11T12:25:11+00:00</time>
        <ele>2528.0</ele>
      </trkpt>
      <trkpt lat="46.90331" lon="10.24749">
        <time>2022-03-11T12:25:12+00:00</time>
        <ele>2525.0</ele>
      </trkpt>
      <trkpt lat="46.90335" lon="10.24756">
        <time>2022-03-11T12:25:13+00:00</time>
        <ele>2522.0</ele>
      </trkpt>
      <trkpt lat="46.90338" lon="10.2476">
        <time>2022-03-11T12:25:14+00:00</time>
        <ele>2520.0</ele>
      </trkpt>
      <trkpt lat="46.90342" lon="10.24761">
        <time>2022-03-11T12:25:15+00:00</time>
        <ele>2519.0</ele>
      </trkpt>
      <trkpt lat="46.90346" lon="10.24763">
        <time>2022-03-11T12:25:17+00:00</time>
        <ele>2518.0</ele>
      </trkpt>
      <trkpt lat="46.90346" lon="10.24763">
        <time>2022-03-11T12:25:18+00:00</time>
        <ele>2518.0</ele>
      </trkpt>
      <trkpt lat="46.90347" lon="10.24763">
        <time>2022-03-11T12:25:22+00:00</time>
        <ele>2518.0</ele>
      </trkpt>
      <trkpt lat="46.90346" lon="10.24762">
        <time>2022-03-11T12:25:27+00:00</time>
        <ele>2518.0</ele>
      </trkpt>
      <trkpt lat="46.90346" lon="10.24762">
        <time>2022-03-11T12:25:32+00:00</time>
        <ele>2518.0</ele>
      </trkpt>
      <trkpt lat="46.90353" lon="10.24766">
        <time>2022-03-11T12:25:40+00:00</time>
        <ele>2516.0</ele>
      </trkpt>
      <trkpt lat="46.90361" lon="10.24773">
        <time>2022-03-11T12:25:42+00:00</time>
        <ele>2513.0</ele>
      </trkpt>
      <trkpt lat="46.90367" lon="10.24778">
        <time>2022-03-11T12:25:43+00:00</time>
        <ele>2512.0</ele>
      </trkpt>
      <trkpt lat="46.90373" lon="10.24784">
        <time>2022-03-11T12:25:44+00:00</time>
        <ele>2510.0</ele>
      </trkpt>
      <trkpt lat="46.90377" lon="10.24791">
        <time>2022-03-11T12:25:45+00:00</time>
        <ele>2507.0</ele>
      </trkpt>
      <trkpt lat="46.90381" lon="10.24799">
        <time>2022-03-11T12:25:46+00:00</time>
        <ele>2505.0</ele>
      </trkpt>
      <trkpt lat="46.90385" lon="10.2481">
        <time>2022-03-11T12:25:47+00:00</time>
        <ele>2502.0</ele>
      </trkpt>
      <trkpt lat="46.90388" lon="10.24825">
        <time>2022-03-11T12:25:48+00:00</time>
        <ele>2495.0</ele>
      </trkpt>
      <trkpt lat="46.9039" lon="10.2484">
        <time>2022-03-11T12:25:49+00:00</time>
        <ele>2489.0</ele>
      </trkpt>
      <trkpt lat="46.90395" lon="10.24861">
        <time>2022-03-11T12:25:50+00:00</time>
        <ele>2483.0</ele>
      </trkpt>
      <trkpt lat="46.90399" lon="10.24881">
        <time>2022-03-11T12:25:51+00:00</time>
        <ele>2479.0</ele>
      </trkpt>
      <trkpt lat="46.90404" lon="10.24897">
        <time>2022-03-11T12:25:52+00:00</time>
        <ele>2476.0</ele>
      </trkpt>
      <trkpt lat="46.90411" lon="10.24923">
        <time>2022-03-11T12:25:53+00:00</time>
        <ele>2472.0</ele>
      </trkpt>
      <trkpt lat="46.90414" lon="10.24946">
        <time>2022-03-11T12:25:54+00:00</time>
        <ele>2470.0</ele>
      </trkpt>
      <trkpt lat="46.90419" lon="10.24967">
        <time>2022-03-11T12:25:55+00:00</time>
        <ele>2468.0</ele>
      </trkpt>
      <trkpt lat="46.90425" lon="10.24986">
        <time>2022-03-11T12:25:56+00:00</time>
        <ele>2466.0</ele>
      </trkpt>
      <trkpt lat="46.90431" lon="10.25001">
        <time>2022-03-11T12:25:57+00:00</time>
        <ele>2464.0</ele>
      </trkpt>
      <trkpt lat="46.90439" lon="10.25024">
        <time>2022-03-11T12:25:58+00:00</time>
        <ele>2459.0</ele>
      </trkpt>
      <trkpt lat="46.90444" lon="10.2504">
        <time>2022-03-11T12:25:59+00:00</time>
        <ele>2458.0</ele>
      </trkpt>
      <trkpt lat="46.90451" lon="10.25059">
        <time>2022-03-11T12:26:00+00:00</time>
        <ele>2457.0</ele>
      </trkpt>
      <trkpt lat="46.9046" lon="10.25082">
        <time>2022-03-11T12:26:01+00:00</time>
        <ele>2455.0</ele>
      </trkpt>
      <trkpt lat="46.90467" lon="10.25096">
        <time>2022-03-11T12:26:02+00:00</time>
        <ele>2454.0</ele>
      </trkpt>
      <trkpt lat="46.90476" lon="10.25111">
        <time>2022-03-11T12:26:03+00:00</time>
        <ele>2454.0</ele>
      </trkpt>
      <trkpt lat="46.90486" lon="10.25123">
        <time>2022-03-11T12:26:04+00:00</time>
        <ele>2454.0</ele>
      </trkpt>
      <trkpt lat="46.90496" lon="10.25133">
        <time>2022-03-11T12:26:05+00:00</time>
        <ele>2455.0</ele>
      </trkpt>
      <trkpt lat="46.90506" lon="10.2514">
        <time>2022-03-11T12:26:06+00:00</time>
        <ele>2455.0</ele>
      </trkpt>
      <trkpt lat="46.90529" lon="10.25156">
        <time>2022-03-11T12:26:09+00:00</time>
        <ele>2453.0</ele>
      </trkpt>
      <trkpt lat="46.90549" lon="10.25169">
        <time>2022-03-11T12:26:13+00:00</time>
        <ele>2447.0</ele>
      </trkpt>
      <trkpt lat="46.90561" lon="10.25179">
        <time>2022-03-11T12:26:16+00:00</time>
        <ele>2442.0</ele>
      </trkpt>
      <trkpt lat="46.90566" lon="10.25186">
        <time>2022-03-11T12:26:18+00:00</time>
        <ele>2441.0</ele>
      </trkpt>
      <trkpt lat="46.90574" lon="10.25196">
        <time>2022-03-11T12:26:20+00:00</time>
        <ele>2437.0</ele>
      </trkpt>
      <trkpt lat="46.90578" lon="10.25199">
        <time>2022-03-11T12:26:21+00:00</time>
        <ele>2435.0</ele>
      </trkpt>
      <trkpt lat="46.90575" lon="10.25199">
        <time>2022-03-11T12:26:23+00:00</time>
        <ele>2436.0</ele>
      </trkpt>
      <trkpt lat="46.9057" lon="10.25198">
        <time>2022-03-11T12:26:25+00:00</time>
        <ele>2438.0</ele>
      </trkpt>
      <trkpt lat="46.90569" lon="10.25194">
        <time>2022-03-11T12:26:40+00:00</time>
        <ele>2439.0</ele>
      </trkpt>
      <trkpt lat="46.90569" lon="10.25195">
        <time>2022-03-11T12:27:05+00:00</time>
        <ele>2438.0</ele>
      </trkpt>
      <trkpt lat="46.90576" lon="10.25203">
        <time>2022-03-11T12:27:29+00:00</time>
        <ele>2435.0</ele>
      </trkpt>
      <trkpt lat="46.90577" lon="10.25207">
        <time>2022-03-11T12:27:30+00:00</time>
        <ele>2434.0</ele>
      </trkpt>
      <trkpt lat="46.90579" lon="10.25214">
        <time>2022-03-11T12:27:32+00:00</time>
        <ele>2432.0</ele>
      </trkpt>
      <trkpt lat="46.90581" lon="10.25218">
        <time>2022-03-11T12:27:34+00:00</time>
        <ele>2430.0</ele>
      </trkpt>
      <trkpt lat="46.90584" lon="10.2522">
        <time>2022-03-11T12:27:37+00:00</time>
        <ele>2429.0</ele>
      </trkpt>
      <trkpt lat="46.90584" lon="10.2522">
        <time>2022-03-11T12:27:39+00:00</time>
        <ele>2429.0</ele>
      </trkpt>
      <trkpt lat="46.90583" lon="10.25221">
        <time>2022-03-11T12:27:53+00:00</time>
        <ele>2429.0</ele>
      </trkpt>
      <trkpt lat="46.90584" lon="10.25221">
        <time>2022-03-11T12:28:16+00:00</time>
        <ele>2429.0</ele>
      </trkpt>
      <trkpt lat="46.90584" lon="10.25221">
        <time>2022-03-11T12:28:26+00:00</time>
        <ele>2429.0</ele>
      </trkpt>
      <trkpt lat="46.90585" lon="10.2522">
        <time>2022-03-11T12:28:42+00:00</time>
        <ele>2429.0</ele>
      </trkpt>
      <trkpt lat="46.90592" lon="10.25218">
        <time>2022-03-11T12:28:52+00:00</time>
        <ele>2428.0</ele>
      </trkpt>
      <trkpt lat="46.90595" lon="10.25219">
        <time>2022-03-11T12:28:54+00:00</time>
        <ele>2427.0</ele>
      </trkpt>
      <trkpt lat="46.90611" lon="10.25225">
        <time>2022-03-11T12:28:58+00:00</time>
        <ele>2422.0</ele>
      </trkpt>
      <trkpt lat="46.90616" lon="10.25229">
        <time>2022-03-11T12:28:59+00:00</time>
        <ele>2420.0</ele>
      </trkpt>
      <trkpt lat="46.90623" lon="10.25235">
        <time>2022-03-11T12:29:00+00:00</time>
        <ele>2418.0</ele>
      </trkpt>
      <trkpt lat="46.9063" lon="10.25242">
        <time>2022-03-11T12:29:01+00:00</time>
        <ele>2415.0</ele>
      </trkpt>
      <trkpt lat="46.90637" lon="10.25251">
        <time>2022-03-11T12:29:02+00:00</time>
        <ele>2412.0</ele>
      </trkpt>
      <trkpt lat="46.90643" lon="10.25258">
        <time>2022-03-11T12:29:03+00:00</time>
        <ele>2411.0</ele>
      </trkpt>
      <trkpt lat="46.90649" lon="10.2527">
        <time>2022-03-11T12:29:04+00:00</time>
        <ele>2407.0</ele>
      </trkpt>
      <trkpt lat="46.90657" lon="10.25286">
        <time>2022-03-11T12:29:05+00:00</time>
        <ele>2403.0</ele>
      </trkpt>
      <trkpt lat="46.90662" lon="10.25296">
        <time>2022-03-11T12:29:06+00:00</time>
        <ele>2402.0</ele>
      </trkpt>
      <trkpt lat="46.90666" lon="10.2531">
        <time>2022-03-11T12:29:07+00:00</time>
        <ele>2396.0</ele>
      </trkpt>
      <trkpt lat="46.90671" lon="10.25326">
        <time>2022-03-11T12:29:08+00:00</time>
        <ele>2390.0</ele>
      </trkpt>
      <trkpt lat="46.90673" lon="10.25337">
        <time>2022-03-11T12:29:09+00:00</time>
        <ele>2385.0</ele>
      </trkpt>
      <trkpt lat="46.90678" lon="10.25354">
        <time>2022-03-11T12:29:10+00:00</time>
        <ele>2377.0</ele>
      </trkpt>
      <trkpt lat="46.90682" lon="10.25367">
        <time>2022-03-11T12:29:11+00:00</time>
        <ele>2371.0</ele>
      </trkpt>
      <trkpt lat="46.90686" lon="10.25381">
        <time>2022-03-11T12:29:12+00:00</time>
        <ele>2365.0</ele>
      </trkpt>
      <trkpt lat="46.90688" lon="10.25392">
        <time>2022-03-11T12:29:13+00:00</time>
        <ele>2361.0</ele>
      </trkpt>
      <trkpt lat="46.90692" lon="10.25407">
        <time>2022-03-11T12:29:14+00:00</time>
        <ele>2356.0</ele>
      </trkpt>
      <trkpt lat="46.90696" lon="10.2542">
        <time>2022-03-11T12:29:15+00:00</time>
        <ele>2353.0</ele>
      </trkpt>
      <trkpt lat="46.90698" lon="10.25429">
        <time>2022-03-11T12:29:16+00:00</time>
        <ele>2351.0</ele>
      </trkpt>
      <trkpt lat="46.90698" lon="10.25436">
        <time>2022-03-11T12:29:17+00:00</time>
        <ele>2348.0</ele>
      </trkpt>
      <trkpt lat="46.90696" lon="10.25439">
        <time>2022-03-11T12:29:18+00:00</time>
        <ele>2347.0</ele>
      </trkpt>
      <trkpt lat="46.90695" lon="10.2544">
        <time>2022-03-11T12:29:19+00:00</time>
        <ele>2347.0</ele>
      </trkpt>
      <trkpt lat="46.90695" lon="10.2544">
        <time>2022-03-11T12:29:20+00:00</time>
        <ele>2347.0</ele>
      </trkpt>
      <trkpt lat="46.90693" lon="10.25439">
        <time>2022-03-11T12:29:21+00:00</time>
        <ele>2347.0</ele>
      </trkpt>
      <trkpt lat="46.90694" lon="10.25438">
        <time>2022-03-11T12:29:22+00:00</time>
        <ele>2348.0</ele>
      </trkpt>
      <trkpt lat="46.90695" lon="10.25435">
        <time>2022-03-11T12:29:24+00:00</time>
        <ele>2349.0</ele>
      </trkpt>
      <trkpt lat="46.90694" lon="10.25435">
        <time>2022-03-11T12:29:29+00:00</time>
        <ele>2349.0</ele>
      </trkpt>
      <trkpt lat="46.90697" lon="10.25432">
        <time>2022-03-11T12:29:45+00:00</time>
        <ele>2350.0</ele>
      </trkpt>
      <trkpt lat="46.90697" lon="10.25432">
        <time>2022-03-11T12:29:46+00:00</time>
        <ele>2350.0</ele>
      </trkpt>
      <trkpt lat="46.90697" lon="10.25432">
        <time>2022-03-11T12:29:48+00:00</time>
        <ele>2350.0</ele>
      </trkpt>
      <trkpt lat="46.90696" lon="10.25432">
        <time>2022-03-11T12:29:52+00:00</time>
        <ele>2350.0</ele>
      </trkpt>
      <trkpt lat="46.90696" lon="10.25433">
        <time>2022-03-11T12:30:00+00:00</time>
        <ele>2349.0</ele>
      </trkpt>
      <trkpt lat="46.90696" lon="10.25433">
        <time>2022-03-11T12:30:01+00:00</time>
        <ele>2349.0</ele>
      </trkpt>
      <trkpt lat="46.90695" lon="10.25434">
        <time>2022-03-11T12:30:02+00:00</time>
        <ele>2349.0</ele>
      </trkpt>
      <trkpt lat="46.90698" lon="10.25439">
        <time>2022-03-11T12:30:03+00:00</time>
        <ele>2347.0</ele>
      </trkpt>
      <trkpt lat="46.90704" lon="10.25446">
        <time>2022-03-11T12:30:04+00:00</time>
        <ele>2345.0</ele>
      </trkpt>
      <trkpt lat="46.90709" lon="10.25455">
        <time>2022-03-11T12:30:05+00:00</time>
        <ele>2341.0</ele>
      </trkpt>
      <trkpt lat="46.90715" lon="10.25461">
        <time>2022-03-11T12:30:06+00:00</time>
        <ele>2338.0</ele>
      </trkpt>
      <trkpt lat="46.9072" lon="10.25468">
        <time>2022-03-11T12:30:07+00:00</time>
        <ele>2335.0</ele>
      </trkpt>
      <trkpt lat="46.90727" lon="10.25476">
        <time>2022-03-11T12:30:08+00:00</time>
        <ele>2331.0</ele>
      </trkpt>
      <trkpt lat="46.90733" lon="10.25483">
        <time>2022-03-11T12:30:09+00:00</time>
        <ele>2328.0</ele>
      </trkpt>
      <trkpt lat="46.90742" lon="10.25493">
        <time>2022-03-11T12:30:10+00:00</time>
        <ele>2324.0</ele>
      </trkpt>
      <trkpt lat="46.90754" lon="10.25507">
        <time>2022-03-11T12:30:11+00:00</time>
        <ele>2320.0</ele>
      </trkpt>
      <trkpt lat="46.90763" lon="10.25519">
        <time>2022-03-11T12:30:12+00:00</time>
        <ele>2316.0</ele>
      </trkpt>
      <trkpt lat="46.90773" lon="10.25533">
        <time>2022-03-11T12:30:13+00:00</time>
        <ele>2313.0</ele>
      </trkpt>
      <trkpt lat="46.90783" lon="10.25547">
        <time>2022-03-11T12:30:14+00:00</time>
        <ele>2311.0</ele>
      </trkpt>
      <trkpt lat="46.90792" lon="10.2556">
        <time>2022-03-11T12:30:15+00:00</time>
        <ele>2310.0</ele>
      </trkpt>
      <trkpt lat="46.90801" lon="10.25574">
        <time>2022-03-11T12:30:16+00:00</time>
        <ele>2309.0</ele>
      </trkpt>
      <trkpt lat="46.90812" lon="10.2559">
        <time>2022-03-11T12:30:17+00:00</time>
        <ele>2308.0</ele>
      </trkpt>
      <trkpt lat="46.90819" lon="10.25602">
        <time>2022-03-11T12:30:18+00:00</time>
        <ele>2307.0</ele>
      </trkpt>
      <trkpt lat="46.90829" lon="10.25617">
        <time>2022-03-11T12:30:19+00:00</time>
        <ele>2306.0</ele>
      </trkpt>
      <trkpt lat="46.90839" lon="10.25635">
        <time>2022-03-11T12:30:20+00:00</time>
        <ele>2303.0</ele>
      </trkpt>
      <trkpt lat="46.90845" lon="10.25648">
        <time>2022-03-11T12:30:21+00:00</time>
        <ele>2302.0</ele>
      </trkpt>
      <trkpt lat="46.90852" lon="10.25664">
        <time>2022-03-11T12:30:22+00:00</time>
        <ele>2301.0</ele>
      </trkpt>
      <trkpt lat="46.90852" lon="10.25664">
        <time>2022-03-11T12:30:23+00:00</time>
        <ele>2301.0</ele>
      </trkpt>
      <trkpt lat="46.90869" lon="10.25715">
        <time>2022-03-11T12:30:25+00:00</time>
        <ele>2301.0</ele>
      </trkpt>
      <trkpt lat="46.90881" lon="10.2574">
        <time>2022-03-11T12:30:27+00:00</time>
        <ele>2297.0</ele>
      </trkpt>
      <trkpt lat="46.90897" lon="10.2577">
        <time>2022-03-11T12:30:31+00:00</time>
        <ele>2292.0</ele>
      </trkpt>
      <trkpt lat="46.90902" lon="10.25785">
        <time>2022-03-11T12:30:34+00:00</time>
        <ele>2290.0</ele>
      </trkpt>
      <trkpt lat="46.90904" lon="10.25798">
        <time>2022-03-11T12:30:36+00:00</time>
        <ele>2288.0</ele>
      </trkpt>
      <trkpt lat="46.90907" lon="10.25817">
        <time>2022-03-11T12:30:38+00:00</time>
        <ele>2286.0</ele>
      </trkpt>
      <trkpt lat="46.9091" lon="10.25839">
        <time>2022-03-11T12:30:40+00:00</time>
        <ele>2283.0</ele>
      </trkpt>
      <trkpt lat="46.90912" lon="10.25861">
        <time>2022-03-11T12:30:42+00:00</time>
        <ele>2280.0</ele>
      </trkpt>
      <trkpt lat="46.90915" lon="10.25874">
        <time>2022-03-11T12:30:43+00:00</time>
        <ele>2278.0</ele>
      </trkpt>
      <trkpt lat="46.90919" lon="10.25883">
        <time>2022-03-11T12:30:44+00:00</time>
        <ele>2277.0</ele>
      </trkpt>
      <trkpt lat="46.90923" lon="10.25892">
        <time>2022-03-11T12:30:45+00:00</time>
        <ele>2276.0</ele>
      </trkpt>
      <trkpt lat="46.90927" lon="10.259">
        <time>2022-03-11T12:30:46+00:00</time>
        <ele>2274.0</ele>
      </trkpt>
      <trkpt lat="46.90933" lon="10.25916">
        <time>2022-03-11T12:30:48+00:00</time>
        <ele>2272.0</ele>
      </trkpt>
      <trkpt lat="46.90937" lon="10.25925">
        <time>2022-03-11T12:30:49+00:00</time>
        <ele>2273.0</ele>
      </trkpt>
      <trkpt lat="46.90941" lon="10.25935">
        <time>2022-03-11T12:30:50+00:00</time>
        <ele>2272.0</ele>
      </trkpt>
      <trkpt lat="46.90944" lon="10.25945">
        <time>2022-03-11T12:30:51+00:00</time>
        <ele>2272.0</ele>
      </trkpt>
      <trkpt lat="46.90948" lon="10.25955">
        <time>2022-03-11T12:30:52+00:00</time>
        <ele>2272.0</ele>
      </trkpt>
      <trkpt lat="46.90953" lon="10.25965">
        <time>2022-03-11T12:30:53+00:00</time>
        <ele>2271.0</ele>
      </trkpt>
      <trkpt lat="46.90956" lon="10.25974">
        <time>2022-03-11T12:30:54+00:00</time>
        <ele>2271.0</ele>
      </trkpt>
      <trkpt lat="46.90957" lon="10.25979">
        <time>2022-03-11T12:30:55+00:00</time>
        <ele>2270.0</ele>
      </trkpt>
      <trkpt lat="46.90957" lon="10.2598">
        <time>2022-03-11T12:30:56+00:00</time>
        <ele>2270.0</ele>
      </trkpt>
      <trkpt lat="46.90957" lon="10.25981">
        <time>2022-03-11T12:30:57+00:00</time>
        <ele>2270.0</ele>
      </trkpt>
      <trkpt lat="46.90956" lon="10.25981">
        <time>2022-03-11T12:31:00+00:00</time>
        <ele>2271.0</ele>
      </trkpt>
      <trkpt lat="46.90954" lon="10.25982">
        <time>2022-03-11T12:31:06+00:00</time>
        <ele>2271.0</ele>
      </trkpt>
      <trkpt lat="46.90954" lon="10.25982">
        <time>2022-03-11T12:31:13+00:00</time>
        <ele>2271.0</ele>
      </trkpt>
      <trkpt lat="46.90954" lon="10.25982">
        <time>2022-03-11T12:31:22+00:00</time>
        <ele>2271.0</ele>
      </trkpt>
      <trkpt lat="46.90954" lon="10.2598">
        <time>2022-03-11T12:31:34+00:00</time>
        <ele>2271.0</ele>
      </trkpt>
      <trkpt lat="46.90953" lon="10.25978">
        <time>2022-03-11T12:32:06+00:00</time>
        <ele>2271.0</ele>
      </trkpt>
      <trkpt lat="46.90953" lon="10.25978">
        <time>2022-03-11T12:32:09+00:00</time>
        <ele>2271.0</ele>
      </trkpt>
      <trkpt lat="46.90953" lon="10.25978">
        <time>2022-03-11T12:32:16+00:00</time>
        <ele>2271.0</ele>
      </trkpt>
      <trkpt lat="46.90953" lon="10.25978">
        <time>2022-03-11T12:32:22+00:00</time>
        <ele>2271.0</ele>
      </trkpt>
      <trkpt lat="46.90953" lon="10.25978">
        <time>2022-03-11T12:33:11+00:00</time>
        <ele>2271.0</ele>
      </trkpt>
      <trkpt lat="46.90953" lon="10.25978">
        <time>2022-03-11T12:33:16+00:00</time>
        <ele>2271.0</ele>
      </trkpt>
      <trkpt lat="46.90952" lon="10.2598">
        <time>2022-03-11T12:33:45+00:00</time>
        <ele>2272.0</ele>
      </trkpt>
      <trkpt lat="46.90952" lon="10.25981">
        <time>2022-03-11T12:33:57+00:00</time>
        <ele>2272.0</ele>
      </trkpt>
      <trkpt lat="46.90952" lon="10.25981">
        <time>2022-03-11T12:34:02+00:00</time>
        <ele>2272.0</ele>
      </trkpt>
      <trkpt lat="46.90953" lon="10.25982">
        <time>2022-03-11T12:34:14+00:00</time>
        <ele>2272.0</ele>
      </trkpt>
      <trkpt lat="46.90956" lon="10.25979">
        <time>2022-03-11T12:34:56+00:00</time>
        <ele>2271.0</ele>
      </trkpt>
      <trkpt lat="46.90959" lon="10.25976">
        <time>2022-03-11T12:35:01+00:00</time>
        <ele>2270.0</ele>
      </trkpt>
      <trkpt lat="46.90959" lon="10.25976">
        <time>2022-03-11T12:35:02+00:00</time>
        <ele>2270.0</ele>
      </trkpt>
      <trkpt lat="46.90961" lon="10.25976">
        <time>2022-03-11T12:35:04+00:00</time>
        <ele>2269.0</ele>
      </trkpt>
      <trkpt lat="46.90962" lon="10.25976">
        <time>2022-03-11T12:35:05+00:00</time>
        <ele>2269.0</ele>
      </trkpt>
      <trkpt lat="46.90961" lon="10.25975">
        <time>2022-03-11T12:35:10+00:00</time>
        <ele>2269.0</ele>
      </trkpt>
      <trkpt lat="46.90961" lon="10.25976">
        <time>2022-03-11T12:35:11+00:00</time>
        <ele>2269.0</ele>
      </trkpt>
      <trkpt lat="46.90957" lon="10.25977">
        <time>2022-03-11T12:35:17+00:00</time>
        <ele>2270.0</ele>
      </trkpt>
      <trkpt lat="46.9096" lon="10.25975">
        <time>2022-03-11T12:35:23+00:00</time>
        <ele>2269.0</ele>
      </trkpt>
      <trkpt lat="46.90958" lon="10.25975">
        <time>2022-03-11T12:35:24+00:00</time>
        <ele>2270.0</ele>
      </trkpt>
      <trkpt lat="46.90957" lon="10.25976">
        <time>2022-03-11T12:35:26+00:00</time>
        <ele>2270.0</ele>
      </trkpt>
      <trkpt lat="46.90956" lon="10.25977">
        <time>2022-03-11T12:35:31+00:00</time>
        <ele>2271.0</ele>
      </trkpt>
      <trkpt lat="46.90961" lon="10.2597">
        <time>2022-03-11T12:35:38+00:00</time>
        <ele>2269.0</ele>
      </trkpt>
      <trkpt lat="46.90962" lon="10.25977">
        <time>2022-03-11T12:35:46+00:00</time>
        <ele>2269.0</ele>
      </trkpt>
      <trkpt lat="46.90954" lon="10.2598">
        <time>2022-03-11T12:35:52+00:00</time>
        <ele>2271.0</ele>
      </trkpt>
      <trkpt lat="46.90954" lon="10.2598">
        <time>2022-03-11T12:35:53+00:00</time>
        <ele>2271.0</ele>
      </trkpt>
      <trkpt lat="46.90955" lon="10.25978">
        <time>2022-03-11T12:35:56+00:00</time>
        <ele>2271.0</ele>
      </trkpt>
      <trkpt lat="46.90955" lon="10.25977">
        <time>2022-03-11T12:35:57+00:00</time>
        <ele>2271.0</ele>
      </trkpt>
      <trkpt lat="46.90954" lon="10.25977">
        <time>2022-03-11T12:36:02+00:00</time>
        <ele>2271.0</ele>
      </trkpt>
      <trkpt lat="46.90954" lon="10.25977">
        <time>2022-03-11T12:36:05+00:00</time>
        <ele>2271.0</ele>
      </trkpt>
      <trkpt lat="46.90956" lon="10.25974">
        <time>2022-03-11T12:36:08+00:00</time>
        <ele>2271.0</ele>
      </trkpt>
      <trkpt lat="46.90954" lon="10.25976">
        <time>2022-03-11T12:36:11+00:00</time>
        <ele>2271.0</ele>
      </trkpt>
      <trkpt lat="46.90952" lon="10.25976">
        <time>2022-03-11T12:36:13+00:00</time>
        <ele>2272.0</ele>
      </trkpt>
      <trkpt lat="46.90951" lon="10.25977">
        <time>2022-03-11T12:36:18+00:00</time>
        <ele>2272.0</ele>
      </trkpt>
      <trkpt lat="46.90951" lon="10.25974">
        <time>2022-03-11T12:36:24+00:00</time>
        <ele>2272.0</ele>
      </trkpt>
      <trkpt lat="46.90948" lon="10.25983">
        <time>2022-03-11T12:36:29+00:00</time>
        <ele>2273.0</ele>
      </trkpt>
      <trkpt lat="46.9095" lon="10.25985">
        <time>2022-03-11T12:36:37+00:00</time>
        <ele>2273.0</ele>
      </trkpt>
      <trkpt lat="46.90957" lon="10.2597">
        <time>2022-03-11T12:36:49+00:00</time>
        <ele>2270.0</ele>
      </trkpt>
      <trkpt lat="46.90951" lon="10.25976">
        <time>2022-03-11T12:37:01+00:00</time>
        <ele>2272.0</ele>
      </trkpt>
      <trkpt lat="46.90957" lon="10.25979">
        <time>2022-03-11T12:37:08+00:00</time>
        <ele>2270.0</ele>
      </trkpt>
      <trkpt lat="46.90962" lon="10.25981">
        <time>2022-03-11T12:37:14+00:00</time>
        <ele>2269.0</ele>
      </trkpt>
      <trkpt lat="46.90961" lon="10.25981">
        <time>2022-03-11T12:37:15+00:00</time>
        <ele>2269.0</ele>
      </trkpt>
      <trkpt lat="46.90959" lon="10.25981">
        <time>2022-03-11T12:37:18+00:00</time>
        <ele>2270.0</ele>
      </trkpt>
      <trkpt lat="46.90958" lon="10.25983">
        <time>2022-03-11T12:37:23+00:00</time>
        <ele>2270.0</ele>
      </trkpt>
      <trkpt lat="46.90957" lon="10.25984">
        <time>2022-03-11T12:37:29+00:00</time>
        <ele>2270.0</ele>
      </trkpt>
      <trkpt lat="46.90955" lon="10.25985">
        <time>2022-03-11T12:37:31+00:00</time>
        <ele>2271.0</ele>
      </trkpt>
      <trkpt lat="46.9095" lon="10.25987">
        <time>2022-03-11T12:37:36+00:00</time>
        <ele>2273.0</ele>
      </trkpt>
      <trkpt lat="46.9094" lon="10.25994">
        <time>2022-03-11T12:37:39+00:00</time>
        <ele>2277.0</ele>
      </trkpt>
      <trkpt lat="46.90936" lon="10.25998">
        <time>2022-03-11T12:37:40+00:00</time>
        <ele>2279.0</ele>
      </trkpt>
      <trkpt lat="46.9093" lon="10.25998">
        <time>2022-03-11T12:37:44+00:00</time>
        <ele>2281.0</ele>
      </trkpt>
      <trkpt lat="46.90924" lon="10.25997">
        <time>2022-03-11T12:37:51+00:00</time>
        <ele>2284.0</ele>
      </trkpt>
      <trkpt lat="46.90927" lon="10.25991">
        <time>2022-03-11T12:37:57+00:00</time>
        <ele>2282.0</ele>
      </trkpt>
      <trkpt lat="46.90932" lon="10.25982">
        <time>2022-03-11T12:38:03+00:00</time>
        <ele>2279.0</ele>
      </trkpt>
      <trkpt lat="46.90936" lon="10.25981">
        <time>2022-03-11T12:38:07+00:00</time>
        <ele>2278.0</ele>
      </trkpt>
      <trkpt lat="46.90937" lon="10.25979">
        <time>2022-03-11T12:38:10+00:00</time>
        <ele>2277.0</ele>
      </trkpt>
      <trkpt lat="46.90937" lon="10.25979">
        <time>2022-03-11T12:38:17+00:00</time>
        <ele>2277.0</ele>
      </trkpt>
      <trkpt lat="46.90939" lon="10.25985">
        <time>2022-03-11T12:38:31+00:00</time>
        <ele>2277.0</ele>
      </trkpt>
      <trkpt lat="46.9094" lon="10.25985">
        <time>2022-03-11T12:38:32+00:00</time>
        <ele>2276.0</ele>
      </trkpt>
      <trkpt lat="46.90941" lon="10.25987">
        <time>2022-03-11T12:38:35+00:00</time>
        <ele>2276.0</ele>
      </trkpt>
      <trkpt lat="46.9095" lon="10.25985">
        <time>2022-03-11T12:38:39+00:00</time>
        <ele>2273.0</ele>
      </trkpt>
      <trkpt lat="46.90947" lon="10.25988">
        <time>2022-03-11T12:38:43+00:00</time>
        <ele>2274.0</ele>
      </trkpt>
      <trkpt lat="46.90946" lon="10.2599">
        <time>2022-03-11T12:38:48+00:00</time>
        <ele>2274.0</ele>
      </trkpt>
      <trkpt lat="46.90948" lon="10.25987">
        <time>2022-03-11T12:38:51+00:00</time>
        <ele>2273.0</ele>
      </trkpt>
      <trkpt lat="46.90949" lon="10.25983">
        <time>2022-03-11T12:38:55+00:00</time>
        <ele>2273.0</ele>
      </trkpt>
      <trkpt lat="46.90951" lon="10.25977">
        <time>2022-03-11T12:39:01+00:00</time>
        <ele>2272.0</ele>
      </trkpt>
      <trkpt lat="46.90951" lon="10.25974">
        <time>2022-03-11T12:39:04+00:00</time>
        <ele>2272.0</ele>
      </trkpt>
      <trkpt lat="46.90954" lon="10.25974">
        <time>2022-03-11T12:39:09+00:00</time>
        <ele>2271.0</ele>
      </trkpt>
      <trkpt lat="46.90952" lon="10.25977">
        <time>2022-03-11T12:39:11+00:00</time>
        <ele>2272.0</ele>
      </trkpt>
      <trkpt lat="46.90952" lon="10.25977">
        <time>2022-03-11T12:39:12+00:00</time>
        <ele>2272.0</ele>
      </trkpt>
      <trkpt lat="46.90945" lon="10.25979">
        <time>2022-03-11T12:39:18+00:00</time>
        <ele>2274.0</ele>
      </trkpt>
      <trkpt lat="46.9094" lon="10.25984">
        <time>2022-03-11T12:39:22+00:00</time>
        <ele>2276.0</ele>
      </trkpt>
      <trkpt lat="46.90941" lon="10.25989">
        <time>2022-03-11T12:39:27+00:00</time>
        <ele>2276.0</ele>
      </trkpt>
      <trkpt lat="46.90943" lon="10.25987">
        <time>2022-03-11T12:39:29+00:00</time>
        <ele>2275.0</ele>
      </trkpt>
      <trkpt lat="46.90943" lon="10.25986">
        <time>2022-03-11T12:39:31+00:00</time>
        <ele>2275.0</ele>
      </trkpt>
      <trkpt lat="46.90945" lon="10.25983">
        <time>2022-03-11T12:39:35+00:00</time>
        <ele>2274.0</ele>
      </trkpt>
      <trkpt lat="46.9095" lon="10.25979">
        <time>2022-03-11T12:39:40+00:00</time>
        <ele>2272.0</ele>
      </trkpt>
      <trkpt lat="46.90951" lon="10.25977">
        <time>2022-03-11T12:39:43+00:00</time>
        <ele>2272.0</ele>
      </trkpt>
      <trkpt lat="46.9095" lon="10.25978">
        <time>2022-03-11T12:39:46+00:00</time>
        <ele>2272.0</ele>
      </trkpt>
      <trkpt lat="46.9095" lon="10.25981">
        <time>2022-03-11T12:39:51+00:00</time>
        <ele>2272.0</ele>
      </trkpt>
      <trkpt lat="46.90951" lon="10.25981">
        <time>2022-03-11T12:39:53+00:00</time>
        <ele>2272.0</ele>
      </trkpt>
      <trkpt lat="46.90951" lon="10.25982">
        <time>2022-03-11T12:39:57+00:00</time>
        <ele>2272.0</ele>
      </trkpt>
      <trkpt lat="46.90953" lon="10.25981">
        <time>2022-03-11T12:40:05+00:00</time>
        <ele>2272.0</ele>
      </trkpt>
      <trkpt lat="46.90953" lon="10.25981">
        <time>2022-03-11T12:40:10+00:00</time>
        <ele>2272.0</ele>
      </trkpt>
      <trkpt lat="46.90954" lon="10.25982">
        <time>2022-03-11T12:40:12+00:00</time>
        <ele>2271.0</ele>
      </trkpt>
      <trkpt lat="46.90948" lon="10.25988">
        <time>2022-03-11T12:40:16+00:00</time>
        <ele>2273.0</ele>
      </trkpt>
      <trkpt lat="46.90927" lon="10.26004">
        <time>2022-03-11T12:40:29+00:00</time>
        <ele>2281.0</ele>
      </trkpt>
      <trkpt lat="46.90936" lon="10.26006">
        <time>2022-03-11T12:40:37+00:00</time>
        <ele>2277.0</ele>
      </trkpt>
      <trkpt lat="46.9094" lon="10.26003">
        <time>2022-03-11T12:40:39+00:00</time>
        <ele>2276.0</ele>
      </trkpt>
      <trkpt lat="46.90939" lon="10.26007">
        <time>2022-03-11T12:40:41+00:00</time>
        <ele>2276.0</ele>
      </trkpt>
      <trkpt lat="46.90927" lon="10.26018">
        <time>2022-03-11T12:40:43+00:00</time>
        <ele>2278.0</ele>
      </trkpt>
      <trkpt lat="46.90918" lon="10.26024">
        <time>2022-03-11T12:40:46+00:00</time>
        <ele>2279.0</ele>
      </trkpt>
      <trkpt lat="46.90919" lon="10.26021">
        <time>2022-03-11T12:40:47+00:00</time>
        <ele>2280.0</ele>
      </trkpt>
      <trkpt lat="46.9092" lon="10.26018">
        <time>2022-03-11T12:40:48+00:00</time>
        <ele>2280.0</ele>
      </trkpt>
      <trkpt lat="46.90923" lon="10.26013">
        <time>2022-03-11T12:40:50+00:00</time>
        <ele>2281.0</ele>
      </trkpt>
      <trkpt lat="46.90925" lon="10.26009">
        <time>2022-03-11T12:40:51+00:00</time>
        <ele>2281.0</ele>
      </trkpt>
      <trkpt lat="46.90927" lon="10.26005">
        <time>2022-03-11T12:40:53+00:00</time>
        <ele>2281.0</ele>
      </trkpt>
      <trkpt lat="46.90929" lon="10.26001">
        <time>2022-03-11T12:40:59+00:00</time>
        <ele>2281.0</ele>
      </trkpt>
      <trkpt lat="46.90929" lon="10.26">
        <time>2022-03-11T12:41:00+00:00</time>
        <ele>2281.0</ele>
      </trkpt>
      <trkpt lat="46.90927" lon="10.25998">
        <time>2022-03-11T12:41:06+00:00</time>
        <ele>2282.0</ele>
      </trkpt>
      <trkpt lat="46.90927" lon="10.25994">
        <time>2022-03-11T12:41:14+00:00</time>
        <ele>2282.0</ele>
      </trkpt>
      <trkpt lat="46.90919" lon="10.25997">
        <time>2022-03-11T12:41:21+00:00</time>
        <ele>2285.0</ele>
      </trkpt>
      <trkpt lat="46.90914" lon="10.26001">
        <time>2022-03-11T12:41:26+00:00</time>
        <ele>2286.0</ele>
      </trkpt>
      <trkpt lat="46.90911" lon="10.26004">
        <time>2022-03-11T12:41:31+00:00</time>
        <ele>2287.0</ele>
      </trkpt>
      <trkpt lat="46.909" lon="10.26012">
        <time>2022-03-11T12:41:39+00:00</time>
        <ele>2287.0</ele>
      </trkpt>
      <trkpt lat="46.90897" lon="10.26015">
        <time>2022-03-11T12:41:41+00:00</time>
        <ele>2287.0</ele>
      </trkpt>
      <trkpt lat="46.90893" lon="10.26012">
        <time>2022-03-11T12:41:47+00:00</time>
        <ele>2288.0</ele>
      </trkpt>
      <trkpt lat="46.90893" lon="10.26013">
        <time>2022-03-11T12:41:52+00:00</time>
        <ele>2288.0</ele>
      </trkpt>
      <trkpt lat="46.90887" lon="10.2602">
        <time>2022-03-11T12:41:58+00:00</time>
        <ele>2285.0</ele>
      </trkpt>
      <trkpt lat="46.90895" lon="10.26013">
        <time>2022-03-11T12:42:03+00:00</time>
        <ele>2288.0</ele>
      </trkpt>
      <trkpt lat="46.909" lon="10.26008">
        <time>2022-03-11T12:42:05+00:00</time>
        <ele>2288.0</ele>
      </trkpt>
      <trkpt lat="46.90908" lon="10.26001">
        <time>2022-03-11T12:42:10+00:00</time>
        <ele>2288.0</ele>
      </trkpt>
      <trkpt lat="46.90913" lon="10.25997">
        <time>2022-03-11T12:42:17+00:00</time>
        <ele>2288.0</ele>
      </trkpt>
      <trkpt lat="46.90929" lon="10.25983">
        <time>2022-03-11T12:42:27+00:00</time>
        <ele>2280.0</ele>
      </trkpt>
      <trkpt lat="46.90928" lon="10.25987">
        <time>2022-03-11T12:42:33+00:00</time>
        <ele>2281.0</ele>
      </trkpt>
      <trkpt lat="46.90927" lon="10.2599">
        <time>2022-03-11T12:42:35+00:00</time>
        <ele>2282.0</ele>
      </trkpt>
      <trkpt lat="46.90933" lon="10.25989">
        <time>2022-03-11T12:42:40+00:00</time>
        <ele>2279.0</ele>
      </trkpt>
      <trkpt lat="46.90932" lon="10.25991">
        <time>2022-03-11T12:42:43+00:00</time>
        <ele>2280.0</ele>
      </trkpt>
      <trkpt lat="46.90931" lon="10.25991">
        <time>2022-03-11T12:42:47+00:00</time>
        <ele>2281.0</ele>
      </trkpt>
      <trkpt lat="46.90932" lon="10.2599">
        <time>2022-03-11T12:42:50+00:00</time>
        <ele>2280.0</ele>
      </trkpt>
      <trkpt lat="46.90931" lon="10.2599">
        <time>2022-03-11T12:42:54+00:00</time>
        <ele>2280.0</ele>
      </trkpt>
      <trkpt lat="46.90933" lon="10.25989">
        <time>2022-03-11T12:42:58+00:00</time>
        <ele>2279.0</ele>
      </trkpt>
      <trkpt lat="46.90938" lon="10.25984">
        <time>2022-03-11T12:43:05+00:00</time>
        <ele>2277.0</ele>
      </trkpt>
      <trkpt lat="46.90938" lon="10.25986">
        <time>2022-03-11T12:43:09+00:00</time>
        <ele>2277.0</ele>
      </trkpt>
      <trkpt lat="46.90936" lon="10.25988">
        <time>2022-03-11T12:43:11+00:00</time>
        <ele>2278.0</ele>
      </trkpt>
      <trkpt lat="46.90936" lon="10.25988">
        <time>2022-03-11T12:43:13+00:00</time>
        <ele>2278.0</ele>
      </trkpt>
      <trkpt lat="46.90936" lon="10.25987">
        <time>2022-03-11T12:43:17+00:00</time>
        <ele>2278.0</ele>
      </trkpt>
      <trkpt lat="46.90935" lon="10.25985">
        <time>2022-03-11T12:43:23+00:00</time>
        <ele>2278.0</ele>
      </trkpt>
      <trkpt lat="46.90938" lon="10.25981">
        <time>2022-03-11T12:43:30+00:00</time>
        <ele>2277.0</ele>
      </trkpt>
      <trkpt lat="46.9094" lon="10.25974">
        <time>2022-03-11T12:43:37+00:00</time>
        <ele>2276.0</ele>
      </trkpt>
      <trkpt lat="46.90954" lon="10.25975">
        <time>2022-03-11T12:43:43+00:00</time>
        <ele>2271.0</ele>
      </trkpt>
      <trkpt lat="46.90956" lon="10.25975">
        <time>2022-03-11T12:43:45+00:00</time>
        <ele>2271.0</ele>
      </trkpt>
      <trkpt lat="46.90958" lon="10.25974">
        <time>2022-03-11T12:43:48+00:00</time>
        <ele>2270.0</ele>
      </trkpt>
      <trkpt lat="46.90958" lon="10.25973">
        <time>2022-03-11T12:43:50+00:00</time>
        <ele>2270.0</ele>
      </trkpt>
      <trkpt lat="46.90956" lon="10.2597">
        <time>2022-03-11T12:43:57+00:00</time>
        <ele>2270.0</ele>
      </trkpt>
      <trkpt lat="46.90962" lon="10.25972">
        <time>2022-03-11T12:44:06+00:00</time>
        <ele>2269.0</ele>
      </trkpt>
      <trkpt lat="46.90963" lon="10.25971">
        <time>2022-03-11T12:44:10+00:00</time>
        <ele>2269.0</ele>
      </trkpt>
      <trkpt lat="46.90969" lon="10.25977">
        <time>2022-03-11T12:44:17+00:00</time>
        <ele>2267.0</ele>
      </trkpt>
      <trkpt lat="46.90984" lon="10.25987">
        <time>2022-03-11T12:44:22+00:00</time>
        <ele>2264.0</ele>
      </trkpt>
      <trkpt lat="46.91001" lon="10.25998">
        <time>2022-03-11T12:44:29+00:00</time>
        <ele>2262.0</ele>
      </trkpt>
      <trkpt lat="46.91004" lon="10.26001">
        <time>2022-03-11T12:44:30+00:00</time>
        <ele>2261.0</ele>
      </trkpt>
      <trkpt lat="46.91006" lon="10.26004">
        <time>2022-03-11T12:44:32+00:00</time>
        <ele>2261.0</ele>
      </trkpt>
      <trkpt lat="46.91008" lon="10.26004">
        <time>2022-03-11T12:44:34+00:00</time>
        <ele>2261.0</ele>
      </trkpt>
      <trkpt lat="46.91021" lon="10.26018">
        <time>2022-03-11T12:44:38+00:00</time>
        <ele>2260.0</ele>
      </trkpt>
      <trkpt lat="46.91029" lon="10.26028">
        <time>2022-03-11T12:44:41+00:00</time>
        <ele>2259.0</ele>
      </trkpt>
      <trkpt lat="46.91026" lon="10.2603">
        <time>2022-03-11T12:44:43+00:00</time>
        <ele>2259.0</ele>
      </trkpt>
      <trkpt lat="46.91025" lon="10.26032">
        <time>2022-03-11T12:44:44+00:00</time>
        <ele>2259.0</ele>
      </trkpt>
      <trkpt lat="46.9102" lon="10.26028">
        <time>2022-03-11T12:44:46+00:00</time>
        <ele>2260.0</ele>
      </trkpt>
      <trkpt lat="46.91019" lon="10.26028">
        <time>2022-03-11T12:44:47+00:00</time>
        <ele>2260.0</ele>
      </trkpt>
      <trkpt lat="46.91019" lon="10.26028">
        <time>2022-03-11T12:44:48+00:00</time>
        <ele>2260.0</ele>
      </trkpt>
      <trkpt lat="46.91019" lon="10.2603">
        <time>2022-03-11T12:44:50+00:00</time>
        <ele>2260.0</ele>
      </trkpt>
      <trkpt lat="46.91016" lon="10.26034">
        <time>2022-03-11T12:44:52+00:00</time>
        <ele>2260.0</ele>
      </trkpt>
      <trkpt lat="46.91012" lon="10.26037">
        <time>2022-03-11T12:44:54+00:00</time>
        <ele>2260.0</ele>
      </trkpt>
      <trkpt lat="46.91012" lon="10.26043">
        <time>2022-03-11T12:44:56+00:00</time>
        <ele>2260.0</ele>
      </trkpt>
      <trkpt lat="46.91012" lon="10.2605">
        <time>2022-03-11T12:44:59+00:00</time>
        <ele>2260.0</ele>
      </trkpt>
      <trkpt lat="46.91009" lon="10.26051">
        <time>2022-03-11T12:45:00+00:00</time>
        <ele>2260.0</ele>
      </trkpt>
      <trkpt lat="46.91009" lon="10.26053">
        <time>2022-03-11T12:45:01+00:00</time>
        <ele>2260.0</ele>
      </trkpt>
      <trkpt lat="46.91011" lon="10.26055">
        <time>2022-03-11T12:45:02+00:00</time>
        <ele>2260.0</ele>
      </trkpt>
      <trkpt lat="46.91015" lon="10.26057">
        <time>2022-03-11T12:45:03+00:00</time>
        <ele>2260.0</ele>
      </trkpt>
      <trkpt lat="46.9102" lon="10.26056">
        <time>2022-03-11T12:45:06+00:00</time>
        <ele>2260.0</ele>
      </trkpt>
      <trkpt lat="46.91013" lon="10.26045">
        <time>2022-03-11T12:45:15+00:00</time>
        <ele>2260.0</ele>
      </trkpt>
      <trkpt lat="46.91009" lon="10.26036">
        <time>2022-03-11T12:45:20+00:00</time>
        <ele>2261.0</ele>
      </trkpt>
      <trkpt lat="46.91011" lon="10.26029">
        <time>2022-03-11T12:45:25+00:00</time>
        <ele>2261.0</ele>
      </trkpt>
      <trkpt lat="46.91011" lon="10.26026">
        <time>2022-03-11T12:45:27+00:00</time>
        <ele>2261.0</ele>
      </trkpt>
      <trkpt lat="46.91011" lon="10.26026">
        <time>2022-03-11T12:45:29+00:00</time>
        <ele>2261.0</ele>
      </trkpt>
      <trkpt lat="46.91009" lon="10.26025">
        <time>2022-03-11T12:45:31+00:00</time>
        <ele>2261.0</ele>
      </trkpt>
      <trkpt lat="46.91004" lon="10.26024">
        <time>2022-03-11T12:45:33+00:00</time>
        <ele>2261.0</ele>
      </trkpt>
      <trkpt lat="46.90994" lon="10.26016">
        <time>2022-03-11T12:45:37+00:00</time>
        <ele>2263.0</ele>
      </trkpt>
      <trkpt lat="46.90988" lon="10.26012">
        <time>2022-03-11T12:45:39+00:00</time>
        <ele>2263.0</ele>
      </trkpt>
      <trkpt lat="46.90973" lon="10.26009">
        <time>2022-03-11T12:45:43+00:00</time>
        <ele>2266.0</ele>
      </trkpt>
      <trkpt lat="46.90964" lon="10.26005">
        <time>2022-03-11T12:45:48+00:00</time>
        <ele>2268.0</ele>
      </trkpt>
      <trkpt lat="46.90965" lon="10.25999">
        <time>2022-03-11T12:45:54+00:00</time>
        <ele>2268.0</ele>
      </trkpt>
      <trkpt lat="46.90964" lon="10.25995">
        <time>2022-03-11T12:46:00+00:00</time>
        <ele>2268.0</ele>
      </trkpt>
      <trkpt lat="46.90964" lon="10.25994">
        <time>2022-03-11T12:46:05+00:00</time>
        <ele>2268.0</ele>
      </trkpt>
      <trkpt lat="46.9096" lon="10.25989">
        <time>2022-03-11T12:46:10+00:00</time>
        <ele>2270.0</ele>
      </trkpt>
      <trkpt lat="46.90962" lon="10.2599">
        <time>2022-03-11T12:46:11+00:00</time>
        <ele>2269.0</ele>
      </trkpt>
      <trkpt lat="46.90963" lon="10.25992">
        <time>2022-03-11T12:46:13+00:00</time>
        <ele>2269.0</ele>
      </trkpt>
      <trkpt lat="46.90961" lon="10.2599">
        <time>2022-03-11T12:46:16+00:00</time>
        <ele>2269.0</ele>
      </trkpt>
      <trkpt lat="46.90958" lon="10.25987">
        <time>2022-03-11T12:46:18+00:00</time>
        <ele>2270.0</ele>
      </trkpt>
      <trkpt lat="46.90955" lon="10.25984">
        <time>2022-03-11T12:46:20+00:00</time>
        <ele>2271.0</ele>
      </trkpt>
      <trkpt lat="46.90955" lon="10.25981">
        <time>2022-03-11T12:46:25+00:00</time>
        <ele>2271.0</ele>
      </trkpt>
      <trkpt lat="46.90956" lon="10.25971">
        <time>2022-03-11T12:46:33+00:00</time>
        <ele>2270.0</ele>
      </trkpt>
      <trkpt lat="46.90959" lon="10.2597">
        <time>2022-03-11T12:46:38+00:00</time>
        <ele>2270.0</ele>
      </trkpt>
      <trkpt lat="46.90951" lon="10.25965">
        <time>2022-03-11T12:46:50+00:00</time>
        <ele>2272.0</ele>
      </trkpt>
      <trkpt lat="46.90943" lon="10.25959">
        <time>2022-03-11T12:46:54+00:00</time>
        <ele>2274.0</ele>
      </trkpt>
      <trkpt lat="0.0" lon="0.0">
        <time>2022-03-11T12:47:00+00:00</time>
        <ele>-32768.0</ele>
      </trkpt>
      <trkpt lat="0.0" lon="0.0">
        <time>2022-03-11T12:47:06+00:00</time>
        <ele>-32768.0</ele>
      </trkpt>
      <trkpt lat="46.90943" lon="10.25974">
        <time>2022-03-11T12:47:13+00:00</time>
        <ele>2275.0</ele>
      </trkpt>
      <trkpt lat="46.90945" lon="10.25971">
        <time>2022-03-11T12:47:20+00:00</time>
        <ele>2274.0</ele>
      </trkpt>
      <trkpt lat="46.90946" lon="10.25969">
        <time>2022-03-11T12:47:25+00:00</time>
        <ele>2273.0</ele>
      </trkpt>
      <trkpt lat="46.90949" lon="10.2597">
        <time>2022-03-11T12:47:27+00:00</time>
        <ele>2272.0</ele>
      </trkpt>
      <trkpt lat="46.90953" lon="10.25973">
        <time>2022-03-11T12:47:30+00:00</time>
        <ele>2271.0</ele>
      </trkpt>
      <trkpt lat="46.90956" lon="10.25973">
        <time>2022-03-11T12:47:43+00:00</time>
        <ele>2271.0</ele>
      </trkpt>
      <trkpt lat="46.90951" lon="10.25981">
        <time>2022-03-11T12:47:48+00:00</time>
        <ele>2272.0</ele>
      </trkpt>
      <trkpt lat="46.90948" lon="10.25981">
        <time>2022-03-11T12:47:53+00:00</time>
        <ele>2273.0</ele>
      </trkpt>
      <trkpt lat="46.90948" lon="10.25977">
        <time>2022-03-11T12:47:58+00:00</time>
        <ele>2273.0</ele>
      </trkpt>
      <trkpt lat="46.90947" lon="10.25974">
        <time>2022-03-11T12:48:01+00:00</time>
        <ele>2273.0</ele>
      </trkpt>
      <trkpt lat="46.90947" lon="10.25973">
        <time>2022-03-11T12:48:04+00:00</time>
        <ele>2273.0</ele>
      </trkpt>
      <trkpt lat="46.90952" lon="10.25971">
        <time>2022-03-11T12:48:34+00:00</time>
        <ele>2272.0</ele>
      </trkpt>
      <trkpt lat="46.90948" lon="10.25976">
        <time>2022-03-11T12:48:40+00:00</time>
        <ele>2273.0</ele>
      </trkpt>
      <trkpt lat="46.90945" lon="10.25982">
        <time>2022-03-11T12:48:47+00:00</time>
        <ele>2274.0</ele>
      </trkpt>
      <trkpt lat="46.90938" lon="10.25985">
        <time>2022-03-11T12:48:54+00:00</time>
        <ele>2277.0</ele>
      </trkpt>
      <trkpt lat="46.90937" lon="10.25984">
        <time>2022-03-11T12:48:55+00:00</time>
        <ele>2277.0</ele>
      </trkpt>
      <trkpt lat="46.90935" lon="10.25982">
        <time>2022-03-11T12:49:00+00:00</time>
        <ele>2278.0</ele>
      </trkpt>
      <trkpt lat="46.9093" lon="10.25981">
        <time>2022-03-11T12:49:09+00:00</time>
        <ele>2280.0</ele>
      </trkpt>
      <trkpt lat="46.90929" lon="10.25981">
        <time>2022-03-11T12:49:10+00:00</time>
        <ele>2280.0</ele>
      </trkpt>
      <trkpt lat="46.90931" lon="10.25983">
        <time>2022-03-11T12:49:15+00:00</time>
        <ele>2280.0</ele>
      </trkpt>
      <trkpt lat="46.9093" lon="10.25983">
        <time>2022-03-11T12:49:20+00:00</time>
        <ele>2280.0</ele>
      </trkpt>
      <trkpt lat="46.90931" lon="10.25982">
        <time>2022-03-11T12:49:21+00:00</time>
        <ele>2280.0</ele>
      </trkpt>
      <trkpt lat="46.90925" lon="10.2598">
        <time>2022-03-11T12:49:25+00:00</time>
        <ele>2281.0</ele>
      </trkpt>
      <trkpt lat="46.90917" lon="10.25987">
        <time>2022-03-11T12:49:31+00:00</time>
        <ele>2285.0</ele>
      </trkpt>
      <trkpt lat="46.90915" lon="10.25988">
        <time>2022-03-11T12:49:37+00:00</time>
        <ele>2286.0</ele>
      </trkpt>
      <trkpt lat="46.90923" lon="10.25985">
        <time>2022-03-11T12:49:45+00:00</time>
        <ele>2283.0</ele>
      </trkpt>
      <trkpt lat="0.0" lon="0.0">
        <time>2022-03-11T12:49:59+00:00</time>
        <ele>-32768.0</ele>
      </trkpt>
      <trkpt lat="46.90952" lon="10.25964">
        <time>2022-03-11T12:50:05+00:00</time>
        <ele>2271.0</ele>
      </trkpt>
      <trkpt lat="46.90959" lon="10.25978">
        <time>2022-03-11T12:50:44+00:00</time>
        <ele>2270.0</ele>
      </trkpt>
      <trkpt lat="46.90964" lon="10.25975">
        <time>2022-03-11T12:51:05+00:00</time>
        <ele>2268.0</ele>
      </trkpt>
      <trkpt lat="46.90967" lon="10.25966">
        <time>2022-03-11T12:51:14+00:00</time>
        <ele>2268.0</ele>
      </trkpt>
      <trkpt lat="46.90965" lon="10.25967">
        <time>2022-03-11T12:51:16+00:00</time>
        <ele>2268.0</ele>
      </trkpt>
      <trkpt lat="46.90956" lon="10.2597">
        <time>2022-03-11T12:51:25+00:00</time>
        <ele>2270.0</ele>
      </trkpt>
      <trkpt lat="46.90957" lon="10.25973">
        <time>2022-03-11T12:51:32+00:00</time>
        <ele>2270.0</ele>
      </trkpt>
      <trkpt lat="46.90957" lon="10.25968">
        <time>2022-03-11T12:51:39+00:00</time>
        <ele>2270.0</ele>
      </trkpt>
      <trkpt lat="46.90956" lon="10.25971">
        <time>2022-03-11T12:51:47+00:00</time>
        <ele>2270.0</ele>
      </trkpt>
      <trkpt lat="46.90954" lon="10.25972">
        <time>2022-03-11T12:51:51+00:00</time>
        <ele>2271.0</ele>
      </trkpt>
      <trkpt lat="46.90949" lon="10.25974">
        <time>2022-03-11T12:51:55+00:00</time>
        <ele>2273.0</ele>
      </trkpt>
      <trkpt lat="46.90951" lon="10.25972">
        <time>2022-03-11T12:52:00+00:00</time>
        <ele>2272.0</ele>
      </trkpt>
      <trkpt lat="46.90955" lon="10.2597">
        <time>2022-03-11T12:52:03+00:00</time>
        <ele>2271.0</ele>
      </trkpt>
      <trkpt lat="46.90951" lon="10.25972">
        <time>2022-03-11T12:52:07+00:00</time>
        <ele>2272.0</ele>
      </trkpt>
      <trkpt lat="46.90951" lon="10.25976">
        <time>2022-03-11T12:52:13+00:00</time>
        <ele>2272.0</ele>
      </trkpt>
      <trkpt lat="46.90949" lon="10.25978">
        <time>2022-03-11T12:52:21+00:00</time>
        <ele>2273.0</ele>
      </trkpt>
      <trkpt lat="46.90949" lon="10.25978">
        <time>2022-03-11T12:52:22+00:00</time>
        <ele>2273.0</ele>
      </trkpt>
      <trkpt lat="46.90956" lon="10.25977">
        <time>2022-03-11T12:52:26+00:00</time>
        <ele>2271.0</ele>
      </trkpt>
      <trkpt lat="46.90954" lon="10.25977">
        <time>2022-03-11T12:52:32+00:00</time>
        <ele>2271.0</ele>
      </trkpt>
      <trkpt lat="46.90952" lon="10.25977">
        <time>2022-03-11T12:52:36+00:00</time>
        <ele>2272.0</ele>
      </trkpt>
      <trkpt lat="46.90948" lon="10.25978">
        <time>2022-03-11T12:52:44+00:00</time>
        <ele>2273.0</ele>
      </trkpt>
      <trkpt lat="46.90949" lon="10.25979">
        <time>2022-03-11T12:52:48+00:00</time>
        <ele>2273.0</ele>
      </trkpt>
      <trkpt lat="46.90946" lon="10.25979">
        <time>2022-03-11T12:52:57+00:00</time>
        <ele>2274.0</ele>
      </trkpt>
      <trkpt lat="46.90943" lon="10.25978">
        <time>2022-03-11T12:53:03+00:00</time>
        <ele>2275.0</ele>
      </trkpt>
      <trkpt lat="46.90952" lon="10.25976">
        <time>2022-03-11T12:53:09+00:00</time>
        <ele>2272.0</ele>
      </trkpt>
      <trkpt lat="46.9095" lon="10.25979">
        <time>2022-03-11T12:53:13+00:00</time>
        <ele>2272.0</ele>
      </trkpt>
      <trkpt lat="46.90946" lon="10.25979">
        <time>2022-03-11T12:53:17+00:00</time>
        <ele>2274.0</ele>
      </trkpt>
      <trkpt lat="46.90943" lon="10.25982">
        <time>2022-03-11T12:53:24+00:00</time>
        <ele>2275.0</ele>
      </trkpt>
      <trkpt lat="46.90946" lon="10.25983">
        <time>2022-03-11T12:53:29+00:00</time>
        <ele>2274.0</ele>
      </trkpt>
      <trkpt lat="46.9095" lon="10.25982">
        <time>2022-03-11T12:53:34+00:00</time>
        <ele>2272.0</ele>
      </trkpt>
      <trkpt lat="46.90944" lon="10.2598">
        <time>2022-03-11T12:53:39+00:00</time>
        <ele>2275.0</ele>
      </trkpt>
      <trkpt lat="46.90947" lon="10.25981">
        <time>2022-03-11T12:53:41+00:00</time>
        <ele>2273.0</ele>
      </trkpt>
      <trkpt lat="46.9095" lon="10.25984">
        <time>2022-03-11T12:53:44+00:00</time>
        <ele>2273.0</ele>
      </trkpt>
      <trkpt lat="46.9095" lon="10.25983">
        <time>2022-03-11T12:53:48+00:00</time>
        <ele>2273.0</ele>
      </trkpt>
      <trkpt lat="46.90952" lon="10.25983">
        <time>2022-03-11T12:53:53+00:00</time>
        <ele>2272.0</ele>
      </trkpt>
      <trkpt lat="46.90953" lon="10.25985">
        <time>2022-03-11T12:53:58+00:00</time>
        <ele>2272.0</ele>
      </trkpt>
      <trkpt lat="46.90957" lon="10.25986">
        <time>2022-03-11T12:54:01+00:00</time>
        <ele>2270.0</ele>
      </trkpt>
      <trkpt lat="46.90958" lon="10.25983">
        <time>2022-03-11T12:54:06+00:00</time>
        <ele>2270.0</ele>
      </trkpt>
      <trkpt lat="46.90959" lon="10.25985">
        <time>2022-03-11T12:54:10+00:00</time>
        <ele>2270.0</ele>
      </trkpt>
      <trkpt lat="46.90958" lon="10.25985">
        <time>2022-03-11T12:54:15+00:00</time>
        <ele>2270.0</ele>
      </trkpt>
      <trkpt lat="46.90958" lon="10.25982">
        <time>2022-03-11T12:54:20+00:00</time>
        <ele>2270.0</ele>
      </trkpt>
      <trkpt lat="46.90949" lon="10.2598">
        <time>2022-03-11T12:54:29+00:00</time>
        <ele>2273.0</ele>
      </trkpt>
      <trkpt lat="46.90955" lon="10.25985">
        <time>2022-03-11T12:54:34+00:00</time>
        <ele>2271.0</ele>
      </trkpt>
      <trkpt lat="46.90954" lon="10.25983">
        <time>2022-03-11T12:54:37+00:00</time>
        <ele>2271.0</ele>
      </trkpt>
      <trkpt lat="46.90956" lon="10.25983">
        <time>2022-03-11T12:54:41+00:00</time>
        <ele>2271.0</ele>
      </trkpt>
      <trkpt lat="46.90952" lon="10.25982">
        <time>2022-03-11T12:54:44+00:00</time>
        <ele>2272.0</ele>
      </trkpt>
      <trkpt lat="46.9095" lon="10.25982">
        <time>2022-03-11T12:54:49+00:00</time>
        <ele>2272.0</ele>
      </trkpt>
      <trkpt lat="46.90963" lon="10.25986">
        <time>2022-03-11T12:55:13+00:00</time>
        <ele>2269.0</ele>
      </trkpt>
      <trkpt lat="46.90959" lon="10.25974">
        <time>2022-03-11T12:55:20+00:00</time>
        <ele>2270.0</ele>
      </trkpt>
      <trkpt lat="46.90949" lon="10.25971">
        <time>2022-03-11T12:55:39+00:00</time>
        <ele>2272.0</ele>
      </trkpt>
      <trkpt lat="46.90939" lon="10.25984">
        <time>2022-03-11T12:55:42+00:00</time>
        <ele>2277.0</ele>
      </trkpt>
      <trkpt lat="46.9095" lon="10.25976">
        <time>2022-03-11T12:55:47+00:00</time>
        <ele>2272.0</ele>
      </trkpt>
      <trkpt lat="0.0" lon="0.0">
        <time>2022-03-11T12:55:50+00:00</time>
        <ele>-32768.0</ele>
      </trkpt>
      <trkpt lat="0.0" lon="0.0">
        <time>2022-03-11T12:55:53+00:00</time>
        <ele>-32768.0</ele>
      </trkpt>
    </trkseg>
  </trk>
</gpx>
